<?xml version="1.0" encoding="UTF-8" standalone="no" ?>
<gpx xmlns="http://www.topografix.com/GPX/1/1" xmlns:xsi="http://www.w3.org/2001/XMLSchema-instance" xsi:schemaLocation="http://www.topografix.com/GPX/1/1 http://www.topografix.com/GPX/1/1/gpx.xsd" version="1.1" creator="VisuGPX - https://www.visugpx.com">
  <metadata>
    <name>SE-I058 BCo Nantes-Le Landreau</name>
    <desc><![CDATA[Nantes-Vertoux-La Haie Fouassière-Le Pallet-La chapelle Heulin-Le Landreau-THouaré-Ste Luce-Nantes.
Boucle
Course du dimanche car emprunte des routes à grande circulation]]></desc>
  </metadata>
  <trk>
    <name><![CDATA[SE-I058 BCo Nantes-Le Landreau_1]]></name>
    <trkseg>
      <trkpt lat="47.23068" lon="-1.5305">
        <ele>18</ele>
        <time>2020-11-29T13:33:31Z</time>
      </trkpt>
      <trkpt lat="47.2302" lon="-1.52979">
        <ele>18</ele>
        <time>2020-11-29T13:33:49Z</time>
      </trkpt>
      <trkpt lat="47.23013" lon="-1.52967">
        <ele>18</ele>
        <time>2020-11-29T13:33:52Z</time>
      </trkpt>
      <trkpt lat="47.23002" lon="-1.52951">
        <ele>18</ele>
        <time>2020-11-29T13:33:56Z</time>
      </trkpt>
      <trkpt lat="47.22966" lon="-1.52905">
        <ele>14</ele>
        <time>2020-11-29T13:34:08Z</time>
      </trkpt>
      <trkpt lat="47.22902" lon="-1.52821">
        <ele>12</ele>
        <time>2020-11-29T13:34:31Z</time>
      </trkpt>
      <trkpt lat="47.229" lon="-1.52818">
        <ele>12</ele>
        <time>2020-11-29T13:34:32Z</time>
      </trkpt>
      <trkpt lat="47.22898" lon="-1.52815">
        <ele>12</ele>
        <time>2020-11-29T13:34:33Z</time>
      </trkpt>
      <trkpt lat="47.22896" lon="-1.52812">
        <ele>12</ele>
        <time>2020-11-29T13:34:34Z</time>
      </trkpt>
      <trkpt lat="47.22893" lon="-1.52807">
        <ele>12</ele>
        <time>2020-11-29T13:34:35Z</time>
      </trkpt>
      <trkpt lat="47.22852" lon="-1.52735">
        <ele>12</ele>
        <time>2020-11-29T13:34:52Z</time>
      </trkpt>
      <trkpt lat="47.22849" lon="-1.5273">
        <ele>12</ele>
        <time>2020-11-29T13:34:53Z</time>
      </trkpt>
      <trkpt lat="47.22823" lon="-1.5268">
        <ele>9</ele>
        <time>2020-11-29T13:35:05Z</time>
      </trkpt>
      <trkpt lat="47.22821" lon="-1.52676">
        <ele>9</ele>
        <time>2020-11-29T13:35:05Z</time>
      </trkpt>
      <trkpt lat="47.22818" lon="-1.52671">
        <ele>9</ele>
        <time>2020-11-29T13:35:07Z</time>
      </trkpt>
      <trkpt lat="47.22809" lon="-1.52684">
        <ele>9</ele>
        <time>2020-11-29T13:35:10Z</time>
      </trkpt>
      <trkpt lat="47.22766" lon="-1.52748">
        <ele>11</ele>
        <time>2020-11-29T13:35:26Z</time>
      </trkpt>
      <trkpt lat="47.22763" lon="-1.52753">
        <ele>11</ele>
        <time>2020-11-29T13:35:28Z</time>
      </trkpt>
      <trkpt lat="47.22722" lon="-1.52804">
        <ele>11</ele>
        <time>2020-11-29T13:35:42Z</time>
      </trkpt>
      <trkpt lat="47.22712" lon="-1.52818">
        <ele>10</ele>
        <time>2020-11-29T13:35:46Z</time>
      </trkpt>
      <trkpt lat="47.22703" lon="-1.52829">
        <ele>10</ele>
        <time>2020-11-29T13:35:49Z</time>
      </trkpt>
      <trkpt lat="47.22689" lon="-1.5284">
        <ele>10</ele>
        <time>2020-11-29T13:35:53Z</time>
      </trkpt>
      <trkpt lat="47.22676" lon="-1.52852">
        <ele>10</ele>
        <time>2020-11-29T13:35:57Z</time>
      </trkpt>
      <trkpt lat="47.22658" lon="-1.52869">
        <ele>10</ele>
        <time>2020-11-29T13:36:03Z</time>
      </trkpt>
      <trkpt lat="47.22655" lon="-1.52872">
        <ele>10</ele>
        <time>2020-11-29T13:36:04Z</time>
      </trkpt>
      <trkpt lat="47.22648" lon="-1.52878">
        <ele>10</ele>
        <time>2020-11-29T13:36:06Z</time>
      </trkpt>
      <trkpt lat="47.22641" lon="-1.52883">
        <ele>10</ele>
        <time>2020-11-29T13:36:08Z</time>
      </trkpt>
      <trkpt lat="47.22631" lon="-1.52889">
        <ele>9</ele>
        <time>2020-11-29T13:36:11Z</time>
      </trkpt>
      <trkpt lat="47.22628" lon="-1.52881">
        <ele>9</ele>
        <time>2020-11-29T13:36:12Z</time>
      </trkpt>
      <trkpt lat="47.22602" lon="-1.52792">
        <ele>9</ele>
        <time>2020-11-29T13:36:30Z</time>
      </trkpt>
      <trkpt lat="47.22601" lon="-1.52789">
        <ele>9</ele>
        <time>2020-11-29T13:36:31Z</time>
      </trkpt>
      <trkpt lat="47.226" lon="-1.52785">
        <ele>9</ele>
        <time>2020-11-29T13:36:31Z</time>
      </trkpt>
      <trkpt lat="47.22599" lon="-1.52781">
        <ele>9</ele>
        <time>2020-11-29T13:36:32Z</time>
      </trkpt>
      <trkpt lat="47.22598" lon="-1.52778">
        <ele>9</ele>
        <time>2020-11-29T13:36:33Z</time>
      </trkpt>
      <trkpt lat="47.22577" lon="-1.52711">
        <ele>14</ele>
        <time>2020-11-29T13:36:46Z</time>
      </trkpt>
      <trkpt lat="47.22496" lon="-1.52761">
        <ele>14</ele>
        <time>2020-11-29T13:37:10Z</time>
      </trkpt>
      <trkpt lat="47.22493" lon="-1.52762">
        <ele>14</ele>
        <time>2020-11-29T13:37:10Z</time>
      </trkpt>
      <trkpt lat="47.22491" lon="-1.52763">
        <ele>14</ele>
        <time>2020-11-29T13:37:11Z</time>
      </trkpt>
      <trkpt lat="47.22489" lon="-1.52764">
        <ele>14</ele>
        <time>2020-11-29T13:37:12Z</time>
      </trkpt>
      <trkpt lat="47.22485" lon="-1.52766">
        <ele>14</ele>
        <time>2020-11-29T13:37:13Z</time>
      </trkpt>
      <trkpt lat="47.22463" lon="-1.52779">
        <ele>14</ele>
        <time>2020-11-29T13:37:19Z</time>
      </trkpt>
      <trkpt lat="47.22432" lon="-1.5281">
        <ele>13</ele>
        <time>2020-11-29T13:37:29Z</time>
      </trkpt>
      <trkpt lat="47.2243" lon="-1.52812">
        <ele>13</ele>
        <time>2020-11-29T13:37:30Z</time>
      </trkpt>
      <trkpt lat="47.22387" lon="-1.52849">
        <ele>13</ele>
        <time>2020-11-29T13:37:43Z</time>
      </trkpt>
      <trkpt lat="47.22368" lon="-1.52867">
        <ele>13</ele>
        <time>2020-11-29T13:37:49Z</time>
      </trkpt>
      <trkpt lat="47.22311" lon="-1.52907">
        <ele>13</ele>
        <time>2020-11-29T13:38:06Z</time>
      </trkpt>
      <trkpt lat="47.22292" lon="-1.52921">
        <ele>13</ele>
        <time>2020-11-29T13:38:12Z</time>
      </trkpt>
      <trkpt lat="47.22287" lon="-1.52921">
        <ele>13</ele>
        <time>2020-11-29T13:38:13Z</time>
      </trkpt>
      <trkpt lat="47.22281" lon="-1.52919">
        <ele>13</ele>
        <time>2020-11-29T13:38:15Z</time>
      </trkpt>
      <trkpt lat="47.22269" lon="-1.52939">
        <ele>13</ele>
        <time>2020-11-29T13:38:19Z</time>
      </trkpt>
      <trkpt lat="47.22262" lon="-1.52949">
        <ele>11</ele>
        <time>2020-11-29T13:38:22Z</time>
      </trkpt>
      <trkpt lat="47.22254" lon="-1.52959">
        <ele>11</ele>
        <time>2020-11-29T13:38:25Z</time>
      </trkpt>
      <trkpt lat="47.22215" lon="-1.53015">
        <ele>11</ele>
        <time>2020-11-29T13:38:39Z</time>
      </trkpt>
      <trkpt lat="47.22212" lon="-1.53018">
        <ele>11</ele>
        <time>2020-11-29T13:38:40Z</time>
      </trkpt>
      <trkpt lat="47.22207" lon="-1.53021">
        <ele>11</ele>
        <time>2020-11-29T13:38:42Z</time>
      </trkpt>
      <trkpt lat="47.22197" lon="-1.53023">
        <ele>11</ele>
        <time>2020-11-29T13:38:45Z</time>
      </trkpt>
      <trkpt lat="47.22149" lon="-1.53033">
        <ele>10</ele>
        <time>2020-11-29T13:38:57Z</time>
      </trkpt>
      <trkpt lat="47.22133" lon="-1.53033">
        <ele>10</ele>
        <time>2020-11-29T13:39:02Z</time>
      </trkpt>
      <trkpt lat="47.22096" lon="-1.53027">
        <ele>10</ele>
        <time>2020-11-29T13:39:12Z</time>
      </trkpt>
      <trkpt lat="47.22061" lon="-1.53019">
        <ele>10</ele>
        <time>2020-11-29T13:39:21Z</time>
      </trkpt>
      <trkpt lat="47.22034" lon="-1.53012">
        <ele>10</ele>
        <time>2020-11-29T13:39:28Z</time>
      </trkpt>
      <trkpt lat="47.22023" lon="-1.53012">
        <ele>10</ele>
        <time>2020-11-29T13:39:31Z</time>
      </trkpt>
      <trkpt lat="47.22022" lon="-1.53025">
        <ele>10</ele>
        <time>2020-11-29T13:39:34Z</time>
      </trkpt>
      <trkpt lat="47.21996" lon="-1.53168">
        <ele>9</ele>
        <time>2020-11-29T13:40:01Z</time>
      </trkpt>
      <trkpt lat="47.21996" lon="-1.53171">
        <ele>9</ele>
        <time>2020-11-29T13:40:01Z</time>
      </trkpt>
      <trkpt lat="47.21993" lon="-1.53185">
        <ele>9</ele>
        <time>2020-11-29T13:40:04Z</time>
      </trkpt>
      <trkpt lat="47.21992" lon="-1.53196">
        <ele>9</ele>
        <time>2020-11-29T13:40:06Z</time>
      </trkpt>
      <trkpt lat="47.21989" lon="-1.53201">
        <ele>9</ele>
        <time>2020-11-29T13:40:07Z</time>
      </trkpt>
      <trkpt lat="47.21988" lon="-1.53206">
        <ele>6</ele>
        <time>2020-11-29T13:40:08Z</time>
      </trkpt>
      <trkpt lat="47.21987" lon="-1.53213">
        <ele>6</ele>
        <time>2020-11-29T13:40:09Z</time>
      </trkpt>
      <trkpt lat="47.21984" lon="-1.53214">
        <ele>6</ele>
        <time>2020-11-29T13:40:10Z</time>
      </trkpt>
      <trkpt lat="47.21981" lon="-1.53214">
        <ele>6</ele>
        <time>2020-11-29T13:40:11Z</time>
      </trkpt>
      <trkpt lat="47.21979" lon="-1.53215">
        <ele>6</ele>
        <time>2020-11-29T13:40:12Z</time>
      </trkpt>
      <trkpt lat="47.21978" lon="-1.53214">
        <ele>6</ele>
        <time>2020-11-29T13:40:12Z</time>
      </trkpt>
      <trkpt lat="47.21975" lon="-1.53213">
        <ele>6</ele>
        <time>2020-11-29T13:40:13Z</time>
      </trkpt>
      <trkpt lat="47.2197" lon="-1.53214">
        <ele>6</ele>
        <time>2020-11-29T13:40:14Z</time>
      </trkpt>
      <trkpt lat="47.21967" lon="-1.53219">
        <ele>6</ele>
        <time>2020-11-29T13:40:15Z</time>
      </trkpt>
      <trkpt lat="47.21965" lon="-1.53221">
        <ele>6</ele>
        <time>2020-11-29T13:40:16Z</time>
      </trkpt>
      <trkpt lat="47.2196" lon="-1.53227">
        <ele>6</ele>
        <time>2020-11-29T13:40:18Z</time>
      </trkpt>
      <trkpt lat="47.21959" lon="-1.53224">
        <ele>6</ele>
        <time>2020-11-29T13:40:18Z</time>
      </trkpt>
      <trkpt lat="47.21957" lon="-1.53222">
        <ele>6</ele>
        <time>2020-11-29T13:40:19Z</time>
      </trkpt>
      <trkpt lat="47.21955" lon="-1.53221">
        <ele>6</ele>
        <time>2020-11-29T13:40:19Z</time>
      </trkpt>
      <trkpt lat="47.21953" lon="-1.5322">
        <ele>6</ele>
        <time>2020-11-29T13:40:20Z</time>
      </trkpt>
      <trkpt lat="47.21951" lon="-1.53221">
        <ele>6</ele>
        <time>2020-11-29T13:40:21Z</time>
      </trkpt>
      <trkpt lat="47.2195" lon="-1.53222">
        <ele>6</ele>
        <time>2020-11-29T13:40:21Z</time>
      </trkpt>
      <trkpt lat="47.21949" lon="-1.53223">
        <ele>6</ele>
        <time>2020-11-29T13:40:21Z</time>
      </trkpt>
      <trkpt lat="47.21948" lon="-1.53225">
        <ele>6</ele>
        <time>2020-11-29T13:40:22Z</time>
      </trkpt>
      <trkpt lat="47.21946" lon="-1.53228">
        <ele>6</ele>
        <time>2020-11-29T13:40:22Z</time>
      </trkpt>
      <trkpt lat="47.21945" lon="-1.53231">
        <ele>6</ele>
        <time>2020-11-29T13:40:23Z</time>
      </trkpt>
      <trkpt lat="47.21945" lon="-1.53232">
        <ele>6</ele>
        <time>2020-11-29T13:40:23Z</time>
      </trkpt>
      <trkpt lat="47.21944" lon="-1.53233">
        <ele>6</ele>
        <time>2020-11-29T13:40:24Z</time>
      </trkpt>
      <trkpt lat="47.21942" lon="-1.53234">
        <ele>6</ele>
        <time>2020-11-29T13:40:24Z</time>
      </trkpt>
      <trkpt lat="47.21941" lon="-1.53234">
        <ele>6</ele>
        <time>2020-11-29T13:40:24Z</time>
      </trkpt>
      <trkpt lat="47.2194" lon="-1.53234">
        <ele>6</ele>
        <time>2020-11-29T13:40:25Z</time>
      </trkpt>
      <trkpt lat="47.2191" lon="-1.53221">
        <ele>5</ele>
        <time>2020-11-29T13:40:33Z</time>
      </trkpt>
      <trkpt lat="47.2189" lon="-1.53213">
        <ele>5</ele>
        <time>2020-11-29T13:40:39Z</time>
      </trkpt>
      <trkpt lat="47.21844" lon="-1.53195">
        <ele>5</ele>
        <time>2020-11-29T13:40:51Z</time>
      </trkpt>
      <trkpt lat="47.2181" lon="-1.53181">
        <ele>5</ele>
        <time>2020-11-29T13:41:01Z</time>
      </trkpt>
      <trkpt lat="47.21766" lon="-1.53163">
        <ele>5</ele>
        <time>2020-11-29T13:41:13Z</time>
      </trkpt>
      <trkpt lat="47.21762" lon="-1.53162">
        <ele>5</ele>
        <time>2020-11-29T13:41:14Z</time>
      </trkpt>
      <trkpt lat="47.21757" lon="-1.53162">
        <ele>5</ele>
        <time>2020-11-29T13:41:15Z</time>
      </trkpt>
      <trkpt lat="47.21753" lon="-1.53164">
        <ele>5</ele>
        <time>2020-11-29T13:41:16Z</time>
      </trkpt>
      <trkpt lat="47.21748" lon="-1.53167">
        <ele>5</ele>
        <time>2020-11-29T13:41:18Z</time>
      </trkpt>
      <trkpt lat="47.21744" lon="-1.53162">
        <ele>5</ele>
        <time>2020-11-29T13:41:19Z</time>
      </trkpt>
      <trkpt lat="47.21738" lon="-1.53157">
        <ele>5</ele>
        <time>2020-11-29T13:41:21Z</time>
      </trkpt>
      <trkpt lat="47.2173" lon="-1.5315">
        <ele>5</ele>
        <time>2020-11-29T13:41:24Z</time>
      </trkpt>
      <trkpt lat="47.21727" lon="-1.53148">
        <ele>5</ele>
        <time>2020-11-29T13:41:24Z</time>
      </trkpt>
      <trkpt lat="47.21722" lon="-1.53146">
        <ele>5</ele>
        <time>2020-11-29T13:41:26Z</time>
      </trkpt>
      <trkpt lat="47.21712" lon="-1.53141">
        <ele>7</ele>
        <time>2020-11-29T13:41:29Z</time>
      </trkpt>
      <trkpt lat="47.21708" lon="-1.5314">
        <ele>7</ele>
        <time>2020-11-29T13:41:30Z</time>
      </trkpt>
      <trkpt lat="47.21687" lon="-1.53132">
        <ele>7</ele>
        <time>2020-11-29T13:41:36Z</time>
      </trkpt>
      <trkpt lat="47.21617" lon="-1.53103">
        <ele>7</ele>
        <time>2020-11-29T13:41:55Z</time>
      </trkpt>
      <trkpt lat="47.21613" lon="-1.53102">
        <ele>10</ele>
        <time>2020-11-29T13:41:56Z</time>
      </trkpt>
      <trkpt lat="47.21582" lon="-1.53132">
        <ele>10</ele>
        <time>2020-11-29T13:42:06Z</time>
      </trkpt>
      <trkpt lat="47.21578" lon="-1.53137">
        <ele>10</ele>
        <time>2020-11-29T13:42:07Z</time>
      </trkpt>
      <trkpt lat="47.21573" lon="-1.53142">
        <ele>10</ele>
        <time>2020-11-29T13:42:09Z</time>
      </trkpt>
      <trkpt lat="47.21558" lon="-1.53112">
        <ele>10</ele>
        <time>2020-11-29T13:42:16Z</time>
      </trkpt>
      <trkpt lat="47.21543" lon="-1.53089">
        <ele>10</ele>
        <time>2020-11-29T13:42:22Z</time>
      </trkpt>
      <trkpt lat="47.21537" lon="-1.53079">
        <ele>11</ele>
        <time>2020-11-29T13:42:24Z</time>
      </trkpt>
      <trkpt lat="47.2153" lon="-1.5307">
        <ele>11</ele>
        <time>2020-11-29T13:42:26Z</time>
      </trkpt>
      <trkpt lat="47.21525" lon="-1.53064">
        <ele>11</ele>
        <time>2020-11-29T13:42:28Z</time>
      </trkpt>
      <trkpt lat="47.21519" lon="-1.53058">
        <ele>11</ele>
        <time>2020-11-29T13:42:30Z</time>
      </trkpt>
      <trkpt lat="47.21518" lon="-1.53058">
        <ele>11</ele>
        <time>2020-11-29T13:42:30Z</time>
      </trkpt>
      <trkpt lat="47.21517" lon="-1.53059">
        <ele>11</ele>
        <time>2020-11-29T13:42:31Z</time>
      </trkpt>
      <trkpt lat="47.21516" lon="-1.53059">
        <ele>11</ele>
        <time>2020-11-29T13:42:31Z</time>
      </trkpt>
      <trkpt lat="47.21515" lon="-1.5306">
        <ele>11</ele>
        <time>2020-11-29T13:42:31Z</time>
      </trkpt>
      <trkpt lat="47.21514" lon="-1.5306">
        <ele>11</ele>
        <time>2020-11-29T13:42:32Z</time>
      </trkpt>
      <trkpt lat="47.21513" lon="-1.5306">
        <ele>11</ele>
        <time>2020-11-29T13:42:32Z</time>
      </trkpt>
      <trkpt lat="47.21512" lon="-1.5306">
        <ele>11</ele>
        <time>2020-11-29T13:42:32Z</time>
      </trkpt>
      <trkpt lat="47.21511" lon="-1.53059">
        <ele>11</ele>
        <time>2020-11-29T13:42:32Z</time>
      </trkpt>
      <trkpt lat="47.2151" lon="-1.53059">
        <ele>11</ele>
        <time>2020-11-29T13:42:33Z</time>
      </trkpt>
      <trkpt lat="47.21508" lon="-1.53058">
        <ele>11</ele>
        <time>2020-11-29T13:42:33Z</time>
      </trkpt>
      <trkpt lat="47.21507" lon="-1.53057">
        <ele>11</ele>
        <time>2020-11-29T13:42:34Z</time>
      </trkpt>
      <trkpt lat="47.21506" lon="-1.53056">
        <ele>11</ele>
        <time>2020-11-29T13:42:34Z</time>
      </trkpt>
      <trkpt lat="47.21505" lon="-1.53055">
        <ele>11</ele>
        <time>2020-11-29T13:42:34Z</time>
      </trkpt>
      <trkpt lat="47.21504" lon="-1.53054">
        <ele>11</ele>
        <time>2020-11-29T13:42:35Z</time>
      </trkpt>
      <trkpt lat="47.21504" lon="-1.53052">
        <ele>11</ele>
        <time>2020-11-29T13:42:35Z</time>
      </trkpt>
      <trkpt lat="47.21503" lon="-1.53051">
        <ele>11</ele>
        <time>2020-11-29T13:42:35Z</time>
      </trkpt>
      <trkpt lat="47.21503" lon="-1.5305">
        <ele>11</ele>
        <time>2020-11-29T13:42:35Z</time>
      </trkpt>
      <trkpt lat="47.21502" lon="-1.53047">
        <ele>11</ele>
        <time>2020-11-29T13:42:36Z</time>
      </trkpt>
      <trkpt lat="47.21494" lon="-1.53041">
        <ele>11</ele>
        <time>2020-11-29T13:42:38Z</time>
      </trkpt>
      <trkpt lat="47.21479" lon="-1.5303">
        <ele>11</ele>
        <time>2020-11-29T13:42:43Z</time>
      </trkpt>
      <trkpt lat="47.21473" lon="-1.53026">
        <ele>11</ele>
        <time>2020-11-29T13:42:45Z</time>
      </trkpt>
      <trkpt lat="47.21464" lon="-1.53019">
        <ele>11</ele>
        <time>2020-11-29T13:42:47Z</time>
      </trkpt>
      <trkpt lat="47.21428" lon="-1.52996">
        <ele>3</ele>
        <time>2020-11-29T13:42:58Z</time>
      </trkpt>
      <trkpt lat="47.2142" lon="-1.52991">
        <ele>3</ele>
        <time>2020-11-29T13:43:00Z</time>
      </trkpt>
      <trkpt lat="47.21411" lon="-1.52986">
        <ele>3</ele>
        <time>2020-11-29T13:43:03Z</time>
      </trkpt>
      <trkpt lat="47.21407" lon="-1.52983">
        <ele>3</ele>
        <time>2020-11-29T13:43:04Z</time>
      </trkpt>
      <trkpt lat="47.21391" lon="-1.52975">
        <ele>3</ele>
        <time>2020-11-29T13:43:08Z</time>
      </trkpt>
      <trkpt lat="47.21386" lon="-1.52974">
        <ele>3</ele>
        <time>2020-11-29T13:43:10Z</time>
      </trkpt>
      <trkpt lat="47.21382" lon="-1.52973">
        <ele>3</ele>
        <time>2020-11-29T13:43:11Z</time>
      </trkpt>
      <trkpt lat="47.21378" lon="-1.52971">
        <ele>3</ele>
        <time>2020-11-29T13:43:12Z</time>
      </trkpt>
      <trkpt lat="47.21375" lon="-1.52971">
        <ele>3</ele>
        <time>2020-11-29T13:43:13Z</time>
      </trkpt>
      <trkpt lat="47.21373" lon="-1.52974">
        <ele>3</ele>
        <time>2020-11-29T13:43:14Z</time>
      </trkpt>
      <trkpt lat="47.21371" lon="-1.52976">
        <ele>3</ele>
        <time>2020-11-29T13:43:14Z</time>
      </trkpt>
      <trkpt lat="47.21369" lon="-1.52978">
        <ele>3</ele>
        <time>2020-11-29T13:43:15Z</time>
      </trkpt>
      <trkpt lat="47.21366" lon="-1.52978">
        <ele>3</ele>
        <time>2020-11-29T13:43:16Z</time>
      </trkpt>
      <trkpt lat="47.21363" lon="-1.52979">
        <ele>3</ele>
        <time>2020-11-29T13:43:16Z</time>
      </trkpt>
      <trkpt lat="47.2136" lon="-1.52978">
        <ele>3</ele>
        <time>2020-11-29T13:43:17Z</time>
      </trkpt>
      <trkpt lat="47.21357" lon="-1.52975">
        <ele>11.6</ele>
        <time>2020-11-29T13:43:18Z</time>
      </trkpt>
      <trkpt lat="47.21355" lon="-1.52971">
        <ele>11.7</ele>
        <time>2020-11-29T13:43:19Z</time>
      </trkpt>
      <trkpt lat="47.21353" lon="-1.52967">
        <ele>11.8</ele>
        <time>2020-11-29T13:43:20Z</time>
      </trkpt>
      <trkpt lat="47.21352" lon="-1.52961">
        <ele>11.9</ele>
        <time>2020-11-29T13:43:21Z</time>
      </trkpt>
      <trkpt lat="47.21346" lon="-1.52958">
        <ele>12</ele>
        <time>2020-11-29T13:43:23Z</time>
      </trkpt>
      <trkpt lat="47.21338" lon="-1.52954">
        <ele>12.1</ele>
        <time>2020-11-29T13:43:25Z</time>
      </trkpt>
      <trkpt lat="47.21139" lon="-1.52898">
        <ele>9</ele>
        <time>2020-11-29T13:44:19Z</time>
      </trkpt>
      <trkpt lat="47.21123" lon="-1.52893">
        <ele>9</ele>
        <time>2020-11-29T13:44:24Z</time>
      </trkpt>
      <trkpt lat="47.21121" lon="-1.52892">
        <ele>9</ele>
        <time>2020-11-29T13:44:24Z</time>
      </trkpt>
      <trkpt lat="47.21118" lon="-1.52895">
        <ele>9</ele>
        <time>2020-11-29T13:44:25Z</time>
      </trkpt>
      <trkpt lat="47.21113" lon="-1.52893">
        <ele>9</ele>
        <time>2020-11-29T13:44:27Z</time>
      </trkpt>
      <trkpt lat="47.21109" lon="-1.52888">
        <ele>9</ele>
        <time>2020-11-29T13:44:28Z</time>
      </trkpt>
      <trkpt lat="47.21087" lon="-1.52862">
        <ele>9</ele>
        <time>2020-11-29T13:44:36Z</time>
      </trkpt>
      <trkpt lat="47.21085" lon="-1.52857">
        <ele>9</ele>
        <time>2020-11-29T13:44:37Z</time>
      </trkpt>
      <trkpt lat="47.21076" lon="-1.52849">
        <ele>9</ele>
        <time>2020-11-29T13:44:39Z</time>
      </trkpt>
      <trkpt lat="47.21072" lon="-1.52844">
        <ele>9</ele>
        <time>2020-11-29T13:44:41Z</time>
      </trkpt>
      <trkpt lat="47.21071" lon="-1.52845">
        <ele>9</ele>
        <time>2020-11-29T13:44:41Z</time>
      </trkpt>
      <trkpt lat="47.21065" lon="-1.52852">
        <ele>9</ele>
        <time>2020-11-29T13:44:43Z</time>
      </trkpt>
      <trkpt lat="47.21039" lon="-1.52877">
        <ele>9</ele>
        <time>2020-11-29T13:44:51Z</time>
      </trkpt>
      <trkpt lat="47.21019" lon="-1.52896">
        <ele>9</ele>
        <time>2020-11-29T13:44:58Z</time>
      </trkpt>
      <trkpt lat="47.20994" lon="-1.52919">
        <ele>9</ele>
        <time>2020-11-29T13:45:06Z</time>
      </trkpt>
      <trkpt lat="47.20979" lon="-1.52933">
        <ele>10</ele>
        <time>2020-11-29T13:45:10Z</time>
      </trkpt>
      <trkpt lat="47.20968" lon="-1.52944">
        <ele>10</ele>
        <time>2020-11-29T13:45:14Z</time>
      </trkpt>
      <trkpt lat="47.20958" lon="-1.52954">
        <ele>10</ele>
        <time>2020-11-29T13:45:17Z</time>
      </trkpt>
      <trkpt lat="47.20911" lon="-1.52999">
        <ele>10</ele>
        <time>2020-11-29T13:45:32Z</time>
      </trkpt>
      <trkpt lat="47.20875" lon="-1.53038">
        <ele>12</ele>
        <time>2020-11-29T13:45:44Z</time>
      </trkpt>
      <trkpt lat="47.2087" lon="-1.53044">
        <ele>12</ele>
        <time>2020-11-29T13:45:46Z</time>
      </trkpt>
      <trkpt lat="47.20863" lon="-1.53056">
        <ele>12</ele>
        <time>2020-11-29T13:45:49Z</time>
      </trkpt>
      <trkpt lat="47.20865" lon="-1.53059">
        <ele>12</ele>
        <time>2020-11-29T13:45:49Z</time>
      </trkpt>
      <trkpt lat="47.20867" lon="-1.53061">
        <ele>12</ele>
        <time>2020-11-29T13:45:50Z</time>
      </trkpt>
      <trkpt lat="47.20869" lon="-1.53064">
        <ele>12</ele>
        <time>2020-11-29T13:45:51Z</time>
      </trkpt>
      <trkpt lat="47.2087" lon="-1.53068">
        <ele>12</ele>
        <time>2020-11-29T13:45:52Z</time>
      </trkpt>
      <trkpt lat="47.20871" lon="-1.53072">
        <ele>12</ele>
        <time>2020-11-29T13:45:52Z</time>
      </trkpt>
      <trkpt lat="47.2087" lon="-1.53077">
        <ele>12</ele>
        <time>2020-11-29T13:45:53Z</time>
      </trkpt>
      <trkpt lat="47.20867" lon="-1.5308">
        <ele>12</ele>
        <time>2020-11-29T13:45:54Z</time>
      </trkpt>
      <trkpt lat="47.20864" lon="-1.53081">
        <ele>12</ele>
        <time>2020-11-29T13:45:55Z</time>
      </trkpt>
      <trkpt lat="47.20862" lon="-1.53081">
        <ele>12</ele>
        <time>2020-11-29T13:45:56Z</time>
      </trkpt>
      <trkpt lat="47.20859" lon="-1.5308">
        <ele>12</ele>
        <time>2020-11-29T13:45:57Z</time>
      </trkpt>
      <trkpt lat="47.20856" lon="-1.53078">
        <ele>12</ele>
        <time>2020-11-29T13:45:57Z</time>
      </trkpt>
      <trkpt lat="47.20853" lon="-1.53076">
        <ele>12</ele>
        <time>2020-11-29T13:45:58Z</time>
      </trkpt>
      <trkpt lat="47.20851" lon="-1.53074">
        <ele>12</ele>
        <time>2020-11-29T13:45:59Z</time>
      </trkpt>
      <trkpt lat="47.20849" lon="-1.53069">
        <ele>12</ele>
        <time>2020-11-29T13:46:00Z</time>
      </trkpt>
      <trkpt lat="47.20838" lon="-1.53061">
        <ele>12</ele>
        <time>2020-11-29T13:46:03Z</time>
      </trkpt>
      <trkpt lat="47.20827" lon="-1.53051">
        <ele>12</ele>
        <time>2020-11-29T13:46:07Z</time>
      </trkpt>
      <trkpt lat="47.20817" lon="-1.53047">
        <ele>12</ele>
        <time>2020-11-29T13:46:09Z</time>
      </trkpt>
      <trkpt lat="47.20815" lon="-1.53046">
        <ele>12</ele>
        <time>2020-11-29T13:46:10Z</time>
      </trkpt>
      <trkpt lat="47.20803" lon="-1.53043">
        <ele>12</ele>
        <time>2020-11-29T13:46:13Z</time>
      </trkpt>
      <trkpt lat="47.20803" lon="-1.53043">
        <ele>12</ele>
        <time>2020-11-29T13:46:13Z</time>
      </trkpt>
      <trkpt lat="47.20801" lon="-1.53043">
        <ele>12</ele>
        <time>2020-11-29T13:46:14Z</time>
      </trkpt>
      <trkpt lat="47.208" lon="-1.53043">
        <ele>12</ele>
        <time>2020-11-29T13:46:14Z</time>
      </trkpt>
      <trkpt lat="47.20799" lon="-1.53042">
        <ele>12</ele>
        <time>2020-11-29T13:46:14Z</time>
      </trkpt>
      <trkpt lat="47.20798" lon="-1.53042">
        <ele>12</ele>
        <time>2020-11-29T13:46:15Z</time>
      </trkpt>
      <trkpt lat="47.20797" lon="-1.5304">
        <ele>12</ele>
        <time>2020-11-29T13:46:15Z</time>
      </trkpt>
      <trkpt lat="47.20796" lon="-1.53039">
        <ele>12</ele>
        <time>2020-11-29T13:46:15Z</time>
      </trkpt>
      <trkpt lat="47.20794" lon="-1.53037">
        <ele>12</ele>
        <time>2020-11-29T13:46:16Z</time>
      </trkpt>
      <trkpt lat="47.20794" lon="-1.53036">
        <ele>12</ele>
        <time>2020-11-29T13:46:16Z</time>
      </trkpt>
      <trkpt lat="47.20793" lon="-1.53034">
        <ele>12</ele>
        <time>2020-11-29T13:46:17Z</time>
      </trkpt>
      <trkpt lat="47.20793" lon="-1.53032">
        <ele>12</ele>
        <time>2020-11-29T13:46:17Z</time>
      </trkpt>
      <trkpt lat="47.20784" lon="-1.53021">
        <ele>12</ele>
        <time>2020-11-29T13:46:20Z</time>
      </trkpt>
      <trkpt lat="47.20783" lon="-1.53018">
        <ele>12</ele>
        <time>2020-11-29T13:46:21Z</time>
      </trkpt>
      <trkpt lat="47.20777" lon="-1.53009">
        <ele>12</ele>
        <time>2020-11-29T13:46:23Z</time>
      </trkpt>
      <trkpt lat="47.20767" lon="-1.52994">
        <ele>12</ele>
        <time>2020-11-29T13:46:27Z</time>
      </trkpt>
      <trkpt lat="47.20741" lon="-1.52972">
        <ele>9</ele>
        <time>2020-11-29T13:46:35Z</time>
      </trkpt>
      <trkpt lat="47.20736" lon="-1.52968">
        <ele>9</ele>
        <time>2020-11-29T13:46:36Z</time>
      </trkpt>
      <trkpt lat="47.20731" lon="-1.52964">
        <ele>9</ele>
        <time>2020-11-29T13:46:38Z</time>
      </trkpt>
      <trkpt lat="47.20717" lon="-1.52952">
        <ele>9</ele>
        <time>2020-11-29T13:46:42Z</time>
      </trkpt>
      <trkpt lat="47.2071" lon="-1.52946">
        <ele>9</ele>
        <time>2020-11-29T13:46:44Z</time>
      </trkpt>
      <trkpt lat="47.20701" lon="-1.52939">
        <ele>9</ele>
        <time>2020-11-29T13:46:47Z</time>
      </trkpt>
      <trkpt lat="47.20696" lon="-1.52935">
        <ele>9</ele>
        <time>2020-11-29T13:46:49Z</time>
      </trkpt>
      <trkpt lat="47.20653" lon="-1.52898">
        <ele>2</ele>
        <time>2020-11-29T13:47:02Z</time>
      </trkpt>
      <trkpt lat="47.20629" lon="-1.52878">
        <ele>2</ele>
        <time>2020-11-29T13:47:09Z</time>
      </trkpt>
      <trkpt lat="47.20624" lon="-1.52874">
        <ele>2</ele>
        <time>2020-11-29T13:47:11Z</time>
      </trkpt>
      <trkpt lat="47.20621" lon="-1.52872">
        <ele>2</ele>
        <time>2020-11-29T13:47:12Z</time>
      </trkpt>
      <trkpt lat="47.20614" lon="-1.52866">
        <ele>2</ele>
        <time>2020-11-29T13:47:14Z</time>
      </trkpt>
      <trkpt lat="47.20614" lon="-1.52867">
        <ele>2</ele>
        <time>2020-11-29T13:47:14Z</time>
      </trkpt>
      <trkpt lat="47.20613" lon="-1.52869">
        <ele>2</ele>
        <time>2020-11-29T13:47:15Z</time>
      </trkpt>
      <trkpt lat="47.20611" lon="-1.5287">
        <ele>2</ele>
        <time>2020-11-29T13:47:15Z</time>
      </trkpt>
      <trkpt lat="47.2061" lon="-1.5287">
        <ele>2</ele>
        <time>2020-11-29T13:47:15Z</time>
      </trkpt>
      <trkpt lat="47.20609" lon="-1.52871">
        <ele>2</ele>
        <time>2020-11-29T13:47:16Z</time>
      </trkpt>
      <trkpt lat="47.20607" lon="-1.52871">
        <ele>2</ele>
        <time>2020-11-29T13:47:16Z</time>
      </trkpt>
      <trkpt lat="47.20606" lon="-1.52871">
        <ele>2</ele>
        <time>2020-11-29T13:47:17Z</time>
      </trkpt>
      <trkpt lat="47.20605" lon="-1.52871">
        <ele>2</ele>
        <time>2020-11-29T13:47:17Z</time>
      </trkpt>
      <trkpt lat="47.20604" lon="-1.5287">
        <ele>2</ele>
        <time>2020-11-29T13:47:17Z</time>
      </trkpt>
      <trkpt lat="47.20603" lon="-1.52869">
        <ele>2</ele>
        <time>2020-11-29T13:47:17Z</time>
      </trkpt>
      <trkpt lat="47.20603" lon="-1.52868">
        <ele>2</ele>
        <time>2020-11-29T13:47:18Z</time>
      </trkpt>
      <trkpt lat="47.20602" lon="-1.52867">
        <ele>8.6</ele>
        <time>2020-11-29T13:47:18Z</time>
      </trkpt>
      <trkpt lat="47.20601" lon="-1.52867">
        <ele>8.6</ele>
        <time>2020-11-29T13:47:18Z</time>
      </trkpt>
      <trkpt lat="47.20601" lon="-1.52865">
        <ele>8.5</ele>
        <time>2020-11-29T13:47:19Z</time>
      </trkpt>
      <trkpt lat="47.206" lon="-1.52864">
        <ele>8.4</ele>
        <time>2020-11-29T13:47:19Z</time>
      </trkpt>
      <trkpt lat="47.206" lon="-1.52862">
        <ele>8.3</ele>
        <time>2020-11-29T13:47:19Z</time>
      </trkpt>
      <trkpt lat="47.206" lon="-1.5286">
        <ele>8.2</ele>
        <time>2020-11-29T13:47:20Z</time>
      </trkpt>
      <trkpt lat="47.206" lon="-1.52858">
        <ele>8.1</ele>
        <time>2020-11-29T13:47:20Z</time>
      </trkpt>
      <trkpt lat="47.206" lon="-1.52856">
        <ele>8</ele>
        <time>2020-11-29T13:47:20Z</time>
      </trkpt>
      <trkpt lat="47.206" lon="-1.52854">
        <ele>7.9</ele>
        <time>2020-11-29T13:47:21Z</time>
      </trkpt>
      <trkpt lat="47.20601" lon="-1.52853">
        <ele>7.9</ele>
        <time>2020-11-29T13:47:21Z</time>
      </trkpt>
      <trkpt lat="47.20601" lon="-1.52851">
        <ele>7.8</ele>
        <time>2020-11-29T13:47:21Z</time>
      </trkpt>
      <trkpt lat="47.20602" lon="-1.5285">
        <ele>7.8</ele>
        <time>2020-11-29T13:47:22Z</time>
      </trkpt>
      <trkpt lat="47.20603" lon="-1.52849">
        <ele>7.8</ele>
        <time>2020-11-29T13:47:22Z</time>
      </trkpt>
      <trkpt lat="47.20603" lon="-1.52849">
        <ele>7.8</ele>
        <time>2020-11-29T13:47:22Z</time>
      </trkpt>
      <trkpt lat="47.20604" lon="-1.52848">
        <ele>7.7</ele>
        <time>2020-11-29T13:47:22Z</time>
      </trkpt>
      <trkpt lat="47.20605" lon="-1.52848">
        <ele>7.8</ele>
        <time>2020-11-29T13:47:23Z</time>
      </trkpt>
      <trkpt lat="47.20606" lon="-1.52847">
        <ele>7.8</ele>
        <time>2020-11-29T13:47:23Z</time>
      </trkpt>
      <trkpt lat="47.20608" lon="-1.52847">
        <ele>7.9</ele>
        <time>2020-11-29T13:47:24Z</time>
      </trkpt>
      <trkpt lat="47.20609" lon="-1.52835">
        <ele>7.3</ele>
        <time>2020-11-29T13:47:26Z</time>
      </trkpt>
      <trkpt lat="47.2061" lon="-1.52826">
        <ele>7.4</ele>
        <time>2020-11-29T13:47:27Z</time>
      </trkpt>
      <trkpt lat="47.20613" lon="-1.52819">
        <ele>7.7</ele>
        <time>2020-11-29T13:47:29Z</time>
      </trkpt>
      <trkpt lat="47.20659" lon="-1.5273">
        <ele>9</ele>
        <time>2020-11-29T13:47:49Z</time>
      </trkpt>
      <trkpt lat="47.2067" lon="-1.5271">
        <ele>10.5</ele>
        <time>2020-11-29T13:47:54Z</time>
      </trkpt>
      <trkpt lat="47.20673" lon="-1.52705">
        <ele>10.7</ele>
        <time>2020-11-29T13:47:55Z</time>
      </trkpt>
      <trkpt lat="47.20678" lon="-1.52693">
        <ele>11.1</ele>
        <time>2020-11-29T13:47:58Z</time>
      </trkpt>
      <trkpt lat="47.20681" lon="-1.52681">
        <ele>11.5</ele>
        <time>2020-11-29T13:48:00Z</time>
      </trkpt>
      <trkpt lat="47.20675" lon="-1.5267">
        <ele>11.9</ele>
        <time>2020-11-29T13:48:03Z</time>
      </trkpt>
      <trkpt lat="47.20507" lon="-1.52392">
        <ele>13</ele>
        <time>2020-11-29T13:49:10Z</time>
      </trkpt>
      <trkpt lat="47.20495" lon="-1.52373">
        <ele>13</ele>
        <time>2020-11-29T13:49:15Z</time>
      </trkpt>
      <trkpt lat="47.20494" lon="-1.52371">
        <ele>13</ele>
        <time>2020-11-29T13:49:15Z</time>
      </trkpt>
      <trkpt lat="47.20492" lon="-1.5237">
        <ele>13</ele>
        <time>2020-11-29T13:49:16Z</time>
      </trkpt>
      <trkpt lat="47.2049" lon="-1.52373">
        <ele>13</ele>
        <time>2020-11-29T13:49:17Z</time>
      </trkpt>
      <trkpt lat="47.20487" lon="-1.52375">
        <ele>13</ele>
        <time>2020-11-29T13:49:17Z</time>
      </trkpt>
      <trkpt lat="47.20484" lon="-1.52375">
        <ele>13</ele>
        <time>2020-11-29T13:49:18Z</time>
      </trkpt>
      <trkpt lat="47.20481" lon="-1.52374">
        <ele>13</ele>
        <time>2020-11-29T13:49:19Z</time>
      </trkpt>
      <trkpt lat="47.20478" lon="-1.52372">
        <ele>13</ele>
        <time>2020-11-29T13:49:20Z</time>
      </trkpt>
      <trkpt lat="47.20476" lon="-1.52368">
        <ele>13</ele>
        <time>2020-11-29T13:49:21Z</time>
      </trkpt>
      <trkpt lat="47.20475" lon="-1.52363">
        <ele>13</ele>
        <time>2020-11-29T13:49:22Z</time>
      </trkpt>
      <trkpt lat="47.20475" lon="-1.52359">
        <ele>13</ele>
        <time>2020-11-29T13:49:22Z</time>
      </trkpt>
      <trkpt lat="47.20476" lon="-1.52354">
        <ele>13</ele>
        <time>2020-11-29T13:49:23Z</time>
      </trkpt>
      <trkpt lat="47.20478" lon="-1.5235">
        <ele>13</ele>
        <time>2020-11-29T13:49:24Z</time>
      </trkpt>
      <trkpt lat="47.2048" lon="-1.52348">
        <ele>13</ele>
        <time>2020-11-29T13:49:25Z</time>
      </trkpt>
      <trkpt lat="47.20484" lon="-1.52346">
        <ele>13</ele>
        <time>2020-11-29T13:49:26Z</time>
      </trkpt>
      <trkpt lat="47.20487" lon="-1.52347">
        <ele>13</ele>
        <time>2020-11-29T13:49:27Z</time>
      </trkpt>
      <trkpt lat="47.20489" lon="-1.52348">
        <ele>13</ele>
        <time>2020-11-29T13:49:27Z</time>
      </trkpt>
      <trkpt lat="47.20494" lon="-1.5233">
        <ele>13</ele>
        <time>2020-11-29T13:49:31Z</time>
      </trkpt>
      <trkpt lat="47.20496" lon="-1.52323">
        <ele>13</ele>
        <time>2020-11-29T13:49:32Z</time>
      </trkpt>
      <trkpt lat="47.20497" lon="-1.52319">
        <ele>13</ele>
        <time>2020-11-29T13:49:33Z</time>
      </trkpt>
      <trkpt lat="47.205" lon="-1.52301">
        <ele>15</ele>
        <time>2020-11-29T13:49:37Z</time>
      </trkpt>
      <trkpt lat="47.20503" lon="-1.52288">
        <ele>15</ele>
        <time>2020-11-29T13:49:39Z</time>
      </trkpt>
      <trkpt lat="47.20502" lon="-1.52287">
        <ele>15</ele>
        <time>2020-11-29T13:49:39Z</time>
      </trkpt>
      <trkpt lat="47.20501" lon="-1.52286">
        <ele>15</ele>
        <time>2020-11-29T13:49:40Z</time>
      </trkpt>
      <trkpt lat="47.205" lon="-1.52284">
        <ele>15</ele>
        <time>2020-11-29T13:49:40Z</time>
      </trkpt>
      <trkpt lat="47.20499" lon="-1.52283">
        <ele>15</ele>
        <time>2020-11-29T13:49:40Z</time>
      </trkpt>
      <trkpt lat="47.20499" lon="-1.52282">
        <ele>15</ele>
        <time>2020-11-29T13:49:41Z</time>
      </trkpt>
      <trkpt lat="47.20498" lon="-1.5228">
        <ele>15</ele>
        <time>2020-11-29T13:49:41Z</time>
      </trkpt>
      <trkpt lat="47.20498" lon="-1.52277">
        <ele>15</ele>
        <time>2020-11-29T13:49:42Z</time>
      </trkpt>
      <trkpt lat="47.20498" lon="-1.52275">
        <ele>15</ele>
        <time>2020-11-29T13:49:42Z</time>
      </trkpt>
      <trkpt lat="47.20499" lon="-1.52274">
        <ele>15</ele>
        <time>2020-11-29T13:49:42Z</time>
      </trkpt>
      <trkpt lat="47.20499" lon="-1.52272">
        <ele>15</ele>
        <time>2020-11-29T13:49:43Z</time>
      </trkpt>
      <trkpt lat="47.205" lon="-1.5227">
        <ele>15</ele>
        <time>2020-11-29T13:49:43Z</time>
      </trkpt>
      <trkpt lat="47.20492" lon="-1.52261">
        <ele>15</ele>
        <time>2020-11-29T13:49:46Z</time>
      </trkpt>
      <trkpt lat="47.20488" lon="-1.52257">
        <ele>15</ele>
        <time>2020-11-29T13:49:47Z</time>
      </trkpt>
      <trkpt lat="47.20475" lon="-1.52241">
        <ele>15</ele>
        <time>2020-11-29T13:49:52Z</time>
      </trkpt>
      <trkpt lat="47.20471" lon="-1.52235">
        <ele>15</ele>
        <time>2020-11-29T13:49:53Z</time>
      </trkpt>
      <trkpt lat="47.2047" lon="-1.52233">
        <ele>15</ele>
        <time>2020-11-29T13:49:54Z</time>
      </trkpt>
      <trkpt lat="47.20467" lon="-1.52227">
        <ele>15</ele>
        <time>2020-11-29T13:49:55Z</time>
      </trkpt>
      <trkpt lat="47.20465" lon="-1.52222">
        <ele>15</ele>
        <time>2020-11-29T13:49:56Z</time>
      </trkpt>
      <trkpt lat="47.20463" lon="-1.52211">
        <ele>15</ele>
        <time>2020-11-29T13:49:58Z</time>
      </trkpt>
      <trkpt lat="47.20462" lon="-1.52205">
        <ele>15</ele>
        <time>2020-11-29T13:49:59Z</time>
      </trkpt>
      <trkpt lat="47.20459" lon="-1.52199">
        <ele>15</ele>
        <time>2020-11-29T13:50:01Z</time>
      </trkpt>
      <trkpt lat="47.20454" lon="-1.52187">
        <ele>15</ele>
        <time>2020-11-29T13:50:03Z</time>
      </trkpt>
      <trkpt lat="47.20436" lon="-1.52156">
        <ele>16</ele>
        <time>2020-11-29T13:50:11Z</time>
      </trkpt>
      <trkpt lat="47.20434" lon="-1.52152">
        <ele>16</ele>
        <time>2020-11-29T13:50:11Z</time>
      </trkpt>
      <trkpt lat="47.20429" lon="-1.52145">
        <ele>16</ele>
        <time>2020-11-29T13:50:13Z</time>
      </trkpt>
      <trkpt lat="47.20417" lon="-1.52128">
        <ele>16</ele>
        <time>2020-11-29T13:50:18Z</time>
      </trkpt>
      <trkpt lat="47.20395" lon="-1.521">
        <ele>16</ele>
        <time>2020-11-29T13:50:25Z</time>
      </trkpt>
      <trkpt lat="47.20377" lon="-1.52076">
        <ele>17</ele>
        <time>2020-11-29T13:50:32Z</time>
      </trkpt>
      <trkpt lat="47.20372" lon="-1.52071">
        <ele>17</ele>
        <time>2020-11-29T13:50:34Z</time>
      </trkpt>
      <trkpt lat="47.20368" lon="-1.52067">
        <ele>17</ele>
        <time>2020-11-29T13:50:35Z</time>
      </trkpt>
      <trkpt lat="47.20367" lon="-1.52068">
        <ele>17</ele>
        <time>2020-11-29T13:50:35Z</time>
      </trkpt>
      <trkpt lat="47.20365" lon="-1.5207">
        <ele>17</ele>
        <time>2020-11-29T13:50:36Z</time>
      </trkpt>
      <trkpt lat="47.20362" lon="-1.52071">
        <ele>17</ele>
        <time>2020-11-29T13:50:37Z</time>
      </trkpt>
      <trkpt lat="47.20359" lon="-1.5207">
        <ele>17</ele>
        <time>2020-11-29T13:50:37Z</time>
      </trkpt>
      <trkpt lat="47.20358" lon="-1.52069">
        <ele>17</ele>
        <time>2020-11-29T13:50:38Z</time>
      </trkpt>
      <trkpt lat="47.20356" lon="-1.52067">
        <ele>17</ele>
        <time>2020-11-29T13:50:38Z</time>
      </trkpt>
      <trkpt lat="47.20354" lon="-1.52062">
        <ele>17</ele>
        <time>2020-11-29T13:50:40Z</time>
      </trkpt>
      <trkpt lat="47.20354" lon="-1.52056">
        <ele>17</ele>
        <time>2020-11-29T13:50:41Z</time>
      </trkpt>
      <trkpt lat="47.20355" lon="-1.52052">
        <ele>17</ele>
        <time>2020-11-29T13:50:41Z</time>
      </trkpt>
      <trkpt lat="47.20347" lon="-1.52042">
        <ele>17</ele>
        <time>2020-11-29T13:50:44Z</time>
      </trkpt>
      <trkpt lat="47.20344" lon="-1.5204">
        <ele>17</ele>
        <time>2020-11-29T13:50:45Z</time>
      </trkpt>
      <trkpt lat="47.2032" lon="-1.52014">
        <ele>17</ele>
        <time>2020-11-29T13:50:53Z</time>
      </trkpt>
      <trkpt lat="47.20319" lon="-1.52012">
        <ele>17</ele>
        <time>2020-11-29T13:50:53Z</time>
      </trkpt>
      <trkpt lat="47.20286" lon="-1.51976">
        <ele>17</ele>
        <time>2020-11-29T13:51:04Z</time>
      </trkpt>
      <trkpt lat="47.2027" lon="-1.51958">
        <ele>17</ele>
        <time>2020-11-29T13:51:10Z</time>
      </trkpt>
      <trkpt lat="47.20219" lon="-1.51899">
        <ele>17</ele>
        <time>2020-11-29T13:51:27Z</time>
      </trkpt>
      <trkpt lat="47.20213" lon="-1.51892">
        <ele>18</ele>
        <time>2020-11-29T13:51:29Z</time>
      </trkpt>
      <trkpt lat="47.20207" lon="-1.51881">
        <ele>18</ele>
        <time>2020-11-29T13:51:32Z</time>
      </trkpt>
      <trkpt lat="47.20178" lon="-1.51823">
        <ele>18</ele>
        <time>2020-11-29T13:51:45Z</time>
      </trkpt>
      <trkpt lat="47.20144" lon="-1.51763">
        <ele>20</ele>
        <time>2020-11-29T13:51:59Z</time>
      </trkpt>
      <trkpt lat="47.20102" lon="-1.51709">
        <ele>20</ele>
        <time>2020-11-29T13:52:14Z</time>
      </trkpt>
      <trkpt lat="47.20096" lon="-1.51701">
        <ele>20</ele>
        <time>2020-11-29T13:52:16Z</time>
      </trkpt>
      <trkpt lat="47.20088" lon="-1.51692">
        <ele>20</ele>
        <time>2020-11-29T13:52:19Z</time>
      </trkpt>
      <trkpt lat="47.20084" lon="-1.51679">
        <ele>20</ele>
        <time>2020-11-29T13:52:21Z</time>
      </trkpt>
      <trkpt lat="47.2008" lon="-1.51672">
        <ele>19</ele>
        <time>2020-11-29T13:52:23Z</time>
      </trkpt>
      <trkpt lat="47.20038" lon="-1.51598">
        <ele>19</ele>
        <time>2020-11-29T13:52:41Z</time>
      </trkpt>
      <trkpt lat="47.20007" lon="-1.51549">
        <ele>19</ele>
        <time>2020-11-29T13:52:53Z</time>
      </trkpt>
      <trkpt lat="47.19974" lon="-1.51503">
        <ele>19</ele>
        <time>2020-11-29T13:53:05Z</time>
      </trkpt>
      <trkpt lat="47.19959" lon="-1.51485">
        <ele>19</ele>
        <time>2020-11-29T13:53:10Z</time>
      </trkpt>
      <trkpt lat="47.19955" lon="-1.51482">
        <ele>19</ele>
        <time>2020-11-29T13:53:11Z</time>
      </trkpt>
      <trkpt lat="47.19948" lon="-1.5148">
        <ele>19</ele>
        <time>2020-11-29T13:53:13Z</time>
      </trkpt>
      <trkpt lat="47.19941" lon="-1.51483">
        <ele>19</ele>
        <time>2020-11-29T13:53:15Z</time>
      </trkpt>
      <trkpt lat="47.19901" lon="-1.51509">
        <ele>18</ele>
        <time>2020-11-29T13:53:27Z</time>
      </trkpt>
      <trkpt lat="47.19894" lon="-1.51518">
        <ele>18</ele>
        <time>2020-11-29T13:53:29Z</time>
      </trkpt>
      <trkpt lat="47.19885" lon="-1.51526">
        <ele>18</ele>
        <time>2020-11-29T13:53:32Z</time>
      </trkpt>
      <trkpt lat="47.19885" lon="-1.51529">
        <ele>18</ele>
        <time>2020-11-29T13:53:33Z</time>
      </trkpt>
      <trkpt lat="47.19884" lon="-1.51531">
        <ele>18</ele>
        <time>2020-11-29T13:53:33Z</time>
      </trkpt>
      <trkpt lat="47.19884" lon="-1.51533">
        <ele>18</ele>
        <time>2020-11-29T13:53:33Z</time>
      </trkpt>
      <trkpt lat="47.19883" lon="-1.51534">
        <ele>18</ele>
        <time>2020-11-29T13:53:34Z</time>
      </trkpt>
      <trkpt lat="47.19881" lon="-1.51536">
        <ele>18</ele>
        <time>2020-11-29T13:53:34Z</time>
      </trkpt>
      <trkpt lat="47.1988" lon="-1.51537">
        <ele>18</ele>
        <time>2020-11-29T13:53:35Z</time>
      </trkpt>
      <trkpt lat="47.19878" lon="-1.51537">
        <ele>18</ele>
        <time>2020-11-29T13:53:35Z</time>
      </trkpt>
      <trkpt lat="47.19877" lon="-1.51537">
        <ele>18</ele>
        <time>2020-11-29T13:53:35Z</time>
      </trkpt>
      <trkpt lat="47.19875" lon="-1.51537">
        <ele>18</ele>
        <time>2020-11-29T13:53:36Z</time>
      </trkpt>
      <trkpt lat="47.19874" lon="-1.51536">
        <ele>18</ele>
        <time>2020-11-29T13:53:36Z</time>
      </trkpt>
      <trkpt lat="47.19872" lon="-1.51535">
        <ele>18</ele>
        <time>2020-11-29T13:53:37Z</time>
      </trkpt>
      <trkpt lat="47.19871" lon="-1.51533">
        <ele>18</ele>
        <time>2020-11-29T13:53:37Z</time>
      </trkpt>
      <trkpt lat="47.1987" lon="-1.51532">
        <ele>18</ele>
        <time>2020-11-29T13:53:38Z</time>
      </trkpt>
      <trkpt lat="47.1987" lon="-1.5153">
        <ele>18</ele>
        <time>2020-11-29T13:53:38Z</time>
      </trkpt>
      <trkpt lat="47.19869" lon="-1.51529">
        <ele>18</ele>
        <time>2020-11-29T13:53:38Z</time>
      </trkpt>
      <trkpt lat="47.19869" lon="-1.51527">
        <ele>18</ele>
        <time>2020-11-29T13:53:39Z</time>
      </trkpt>
      <trkpt lat="47.19869" lon="-1.51526">
        <ele>18</ele>
        <time>2020-11-29T13:53:39Z</time>
      </trkpt>
      <trkpt lat="47.19869" lon="-1.51524">
        <ele>18</ele>
        <time>2020-11-29T13:53:39Z</time>
      </trkpt>
      <trkpt lat="47.19869" lon="-1.51522">
        <ele>18</ele>
        <time>2020-11-29T13:53:40Z</time>
      </trkpt>
      <trkpt lat="47.19859" lon="-1.51518">
        <ele>18</ele>
        <time>2020-11-29T13:53:42Z</time>
      </trkpt>
      <trkpt lat="47.19856" lon="-1.51514">
        <ele>18</ele>
        <time>2020-11-29T13:53:43Z</time>
      </trkpt>
      <trkpt lat="47.19821" lon="-1.51419">
        <ele>17</ele>
        <time>2020-11-29T13:54:03Z</time>
      </trkpt>
      <trkpt lat="47.19806" lon="-1.51388">
        <ele>17</ele>
        <time>2020-11-29T13:54:10Z</time>
      </trkpt>
      <trkpt lat="47.19775" lon="-1.51356">
        <ele>19</ele>
        <time>2020-11-29T13:54:20Z</time>
      </trkpt>
      <trkpt lat="47.19758" lon="-1.51337">
        <ele>19</ele>
        <time>2020-11-29T13:54:26Z</time>
      </trkpt>
      <trkpt lat="47.1973" lon="-1.51307">
        <ele>19</ele>
        <time>2020-11-29T13:54:35Z</time>
      </trkpt>
      <trkpt lat="47.19702" lon="-1.51278">
        <ele>20</ele>
        <time>2020-11-29T13:54:44Z</time>
      </trkpt>
      <trkpt lat="47.19682" lon="-1.51244">
        <ele>20</ele>
        <time>2020-11-29T13:54:52Z</time>
      </trkpt>
      <trkpt lat="47.19668" lon="-1.51221">
        <ele>20</ele>
        <time>2020-11-29T13:54:58Z</time>
      </trkpt>
      <trkpt lat="47.19603" lon="-1.51165">
        <ele>20</ele>
        <time>2020-11-29T13:55:18Z</time>
      </trkpt>
      <trkpt lat="47.19578" lon="-1.51139">
        <ele>20</ele>
        <time>2020-11-29T13:55:26Z</time>
      </trkpt>
      <trkpt lat="47.19565" lon="-1.51122">
        <ele>20</ele>
        <time>2020-11-29T13:55:31Z</time>
      </trkpt>
      <trkpt lat="47.19533" lon="-1.51058">
        <ele>20</ele>
        <time>2020-11-29T13:55:45Z</time>
      </trkpt>
      <trkpt lat="47.19526" lon="-1.51042">
        <ele>20</ele>
        <time>2020-11-29T13:55:49Z</time>
      </trkpt>
      <trkpt lat="47.19523" lon="-1.51032">
        <ele>20</ele>
        <time>2020-11-29T13:55:51Z</time>
      </trkpt>
      <trkpt lat="47.19519" lon="-1.51027">
        <ele>20</ele>
        <time>2020-11-29T13:55:52Z</time>
      </trkpt>
      <trkpt lat="47.19475" lon="-1.50968">
        <ele>21</ele>
        <time>2020-11-29T13:56:08Z</time>
      </trkpt>
      <trkpt lat="47.19456" lon="-1.50938">
        <ele>21</ele>
        <time>2020-11-29T13:56:16Z</time>
      </trkpt>
      <trkpt lat="47.19436" lon="-1.50904">
        <ele>21</ele>
        <time>2020-11-29T13:56:24Z</time>
      </trkpt>
      <trkpt lat="47.19381" lon="-1.50819">
        <ele>23</ele>
        <time>2020-11-29T13:56:45Z</time>
      </trkpt>
      <trkpt lat="47.19376" lon="-1.50811">
        <ele>23</ele>
        <time>2020-11-29T13:56:47Z</time>
      </trkpt>
      <trkpt lat="47.19296" lon="-1.5073">
        <ele>24</ele>
        <time>2020-11-29T13:57:13Z</time>
      </trkpt>
      <trkpt lat="47.19238" lon="-1.50652">
        <ele>24</ele>
        <time>2020-11-29T13:57:34Z</time>
      </trkpt>
      <trkpt lat="47.19219" lon="-1.50625">
        <ele>24</ele>
        <time>2020-11-29T13:57:41Z</time>
      </trkpt>
      <trkpt lat="47.19119" lon="-1.50509">
        <ele>25</ele>
        <time>2020-11-29T13:58:15Z</time>
      </trkpt>
      <trkpt lat="47.19074" lon="-1.50444">
        <ele>26</ele>
        <time>2020-11-29T13:58:32Z</time>
      </trkpt>
      <trkpt lat="47.1906" lon="-1.50431">
        <ele>26</ele>
        <time>2020-11-29T13:58:36Z</time>
      </trkpt>
      <trkpt lat="47.19043" lon="-1.50424">
        <ele>26</ele>
        <time>2020-11-29T13:58:41Z</time>
      </trkpt>
      <trkpt lat="47.18989" lon="-1.50417">
        <ele>26</ele>
        <time>2020-11-29T13:58:55Z</time>
      </trkpt>
      <trkpt lat="47.18942" lon="-1.50412">
        <ele>26</ele>
        <time>2020-11-29T13:59:08Z</time>
      </trkpt>
      <trkpt lat="47.1889" lon="-1.50431">
        <ele>27</ele>
        <time>2020-11-29T13:59:22Z</time>
      </trkpt>
      <trkpt lat="47.18879" lon="-1.50433">
        <ele>27</ele>
        <time>2020-11-29T13:59:25Z</time>
      </trkpt>
      <trkpt lat="47.18878" lon="-1.50416">
        <ele>27</ele>
        <time>2020-11-29T13:59:28Z</time>
      </trkpt>
      <trkpt lat="47.18873" lon="-1.50341">
        <ele>27</ele>
        <time>2020-11-29T13:59:42Z</time>
      </trkpt>
      <trkpt lat="47.18866" lon="-1.50219">
        <ele>27</ele>
        <time>2020-11-29T14:00:04Z</time>
      </trkpt>
      <trkpt lat="47.1886" lon="-1.50122">
        <ele>27</ele>
        <time>2020-11-29T14:00:22Z</time>
      </trkpt>
      <trkpt lat="47.18858" lon="-1.501">
        <ele>27</ele>
        <time>2020-11-29T14:00:26Z</time>
      </trkpt>
      <trkpt lat="47.18857" lon="-1.5008">
        <ele>27</ele>
        <time>2020-11-29T14:00:30Z</time>
      </trkpt>
      <trkpt lat="47.18856" lon="-1.5006">
        <ele>27</ele>
        <time>2020-11-29T14:00:33Z</time>
      </trkpt>
      <trkpt lat="47.18847" lon="-1.49931">
        <ele>28</ele>
        <time>2020-11-29T14:00:57Z</time>
      </trkpt>
      <trkpt lat="47.18845" lon="-1.49889">
        <ele>28</ele>
        <time>2020-11-29T14:01:05Z</time>
      </trkpt>
      <trkpt lat="47.18843" lon="-1.49851">
        <ele>28</ele>
        <time>2020-11-29T14:01:11Z</time>
      </trkpt>
      <trkpt lat="47.18754" lon="-1.49892">
        <ele>27</ele>
        <time>2020-11-29T14:01:36Z</time>
      </trkpt>
      <trkpt lat="47.18722" lon="-1.49917">
        <ele>27</ele>
        <time>2020-11-29T14:01:46Z</time>
      </trkpt>
      <trkpt lat="47.18716" lon="-1.49907">
        <ele>27</ele>
        <time>2020-11-29T14:01:48Z</time>
      </trkpt>
      <trkpt lat="47.18693" lon="-1.49857">
        <ele>27</ele>
        <time>2020-11-29T14:01:59Z</time>
      </trkpt>
      <trkpt lat="47.18687" lon="-1.4984">
        <ele>27</ele>
        <time>2020-11-29T14:02:03Z</time>
      </trkpt>
      <trkpt lat="47.18658" lon="-1.49751">
        <ele>27</ele>
        <time>2020-11-29T14:02:21Z</time>
      </trkpt>
      <trkpt lat="47.18634" lon="-1.49647">
        <ele>27</ele>
        <time>2020-11-29T14:02:41Z</time>
      </trkpt>
      <trkpt lat="47.18627" lon="-1.49625">
        <ele>27</ele>
        <time>2020-11-29T14:02:45Z</time>
      </trkpt>
      <trkpt lat="47.18615" lon="-1.49607">
        <ele>25</ele>
        <time>2020-11-29T14:02:50Z</time>
      </trkpt>
      <trkpt lat="47.18601" lon="-1.49587">
        <ele>25</ele>
        <time>2020-11-29T14:02:55Z</time>
      </trkpt>
      <trkpt lat="47.18598" lon="-1.49582">
        <ele>25</ele>
        <time>2020-11-29T14:02:56Z</time>
      </trkpt>
      <trkpt lat="47.18622" lon="-1.49559">
        <ele>25</ele>
        <time>2020-11-29T14:03:04Z</time>
      </trkpt>
      <trkpt lat="47.18627" lon="-1.49554">
        <ele>25</ele>
        <time>2020-11-29T14:03:05Z</time>
      </trkpt>
      <trkpt lat="47.18633" lon="-1.49545">
        <ele>25</ele>
        <time>2020-11-29T14:03:08Z</time>
      </trkpt>
      <trkpt lat="47.18637" lon="-1.49535">
        <ele>25</ele>
        <time>2020-11-29T14:03:10Z</time>
      </trkpt>
      <trkpt lat="47.1864" lon="-1.49523">
        <ele>25</ele>
        <time>2020-11-29T14:03:12Z</time>
      </trkpt>
      <trkpt lat="47.1864" lon="-1.4951">
        <ele>27</ele>
        <time>2020-11-29T14:03:15Z</time>
      </trkpt>
      <trkpt lat="47.18629" lon="-1.49461">
        <ele>27</ele>
        <time>2020-11-29T14:03:24Z</time>
      </trkpt>
      <trkpt lat="47.18618" lon="-1.49421">
        <ele>27</ele>
        <time>2020-11-29T14:03:32Z</time>
      </trkpt>
      <trkpt lat="47.18608" lon="-1.49383">
        <ele>27</ele>
        <time>2020-11-29T14:03:39Z</time>
      </trkpt>
      <trkpt lat="47.18607" lon="-1.49369">
        <ele>28</ele>
        <time>2020-11-29T14:03:42Z</time>
      </trkpt>
      <trkpt lat="47.18609" lon="-1.49361">
        <ele>28</ele>
        <time>2020-11-29T14:03:43Z</time>
      </trkpt>
      <trkpt lat="47.18603" lon="-1.49352">
        <ele>28</ele>
        <time>2020-11-29T14:03:46Z</time>
      </trkpt>
      <trkpt lat="47.18597" lon="-1.49338">
        <ele>28</ele>
        <time>2020-11-29T14:03:49Z</time>
      </trkpt>
      <trkpt lat="47.1859" lon="-1.4932">
        <ele>28</ele>
        <time>2020-11-29T14:03:52Z</time>
      </trkpt>
      <trkpt lat="47.1857" lon="-1.49259">
        <ele>28</ele>
        <time>2020-11-29T14:04:05Z</time>
      </trkpt>
      <trkpt lat="47.1856" lon="-1.49222">
        <ele>30</ele>
        <time>2020-11-29T14:04:12Z</time>
      </trkpt>
      <trkpt lat="47.18553" lon="-1.49199">
        <ele>30</ele>
        <time>2020-11-29T14:04:16Z</time>
      </trkpt>
      <trkpt lat="47.18534" lon="-1.49105">
        <ele>30</ele>
        <time>2020-11-29T14:04:34Z</time>
      </trkpt>
      <trkpt lat="47.18507" lon="-1.48964">
        <ele>33</ele>
        <time>2020-11-29T14:05:01Z</time>
      </trkpt>
      <trkpt lat="47.18499" lon="-1.48921">
        <ele>29</ele>
        <time>2020-11-29T14:05:09Z</time>
      </trkpt>
      <trkpt lat="47.18484" lon="-1.48822">
        <ele>29</ele>
        <time>2020-11-29T14:05:27Z</time>
      </trkpt>
      <trkpt lat="47.18477" lon="-1.48748">
        <ele>30</ele>
        <time>2020-11-29T14:05:41Z</time>
      </trkpt>
      <trkpt lat="47.18476" lon="-1.48738">
        <ele>30</ele>
        <time>2020-11-29T14:05:43Z</time>
      </trkpt>
      <trkpt lat="47.18442" lon="-1.48595">
        <ele>31</ele>
        <time>2020-11-29T14:06:10Z</time>
      </trkpt>
      <trkpt lat="47.18426" lon="-1.48528">
        <ele>31</ele>
        <time>2020-11-29T14:06:23Z</time>
      </trkpt>
      <trkpt lat="47.18422" lon="-1.48287">
        <ele>26</ele>
        <time>2020-11-29T14:07:07Z</time>
      </trkpt>
      <trkpt lat="47.18416" lon="-1.47904">
        <ele>15</ele>
        <time>2020-11-29T14:08:17Z</time>
      </trkpt>
      <trkpt lat="47.18416" lon="-1.47896">
        <ele>15</ele>
        <time>2020-11-29T14:08:18Z</time>
      </trkpt>
      <trkpt lat="47.18395" lon="-1.47904">
        <ele>15</ele>
        <time>2020-11-29T14:08:24Z</time>
      </trkpt>
      <trkpt lat="47.18353" lon="-1.47921">
        <ele>15</ele>
        <time>2020-11-29T14:08:35Z</time>
      </trkpt>
      <trkpt lat="47.18307" lon="-1.47938">
        <ele>11</ele>
        <time>2020-11-29T14:08:48Z</time>
      </trkpt>
      <trkpt lat="47.18265" lon="-1.47927">
        <ele>11</ele>
        <time>2020-11-29T14:08:59Z</time>
      </trkpt>
      <trkpt lat="47.18205" lon="-1.47914">
        <ele>9</ele>
        <time>2020-11-29T14:09:16Z</time>
      </trkpt>
      <trkpt lat="47.18187" lon="-1.47906">
        <ele>9</ele>
        <time>2020-11-29T14:09:21Z</time>
      </trkpt>
      <trkpt lat="47.18177" lon="-1.47894">
        <ele>9</ele>
        <time>2020-11-29T14:09:24Z</time>
      </trkpt>
      <trkpt lat="47.1817" lon="-1.47872">
        <ele>9</ele>
        <time>2020-11-29T14:09:29Z</time>
      </trkpt>
      <trkpt lat="47.18168" lon="-1.47836">
        <ele>10</ele>
        <time>2020-11-29T14:09:35Z</time>
      </trkpt>
      <trkpt lat="47.18162" lon="-1.47813">
        <ele>10</ele>
        <time>2020-11-29T14:09:40Z</time>
      </trkpt>
      <trkpt lat="47.1815" lon="-1.47795">
        <ele>10</ele>
        <time>2020-11-29T14:09:44Z</time>
      </trkpt>
      <trkpt lat="47.18107" lon="-1.47764">
        <ele>10</ele>
        <time>2020-11-29T14:09:57Z</time>
      </trkpt>
      <trkpt lat="47.18045" lon="-1.47744">
        <ele>10</ele>
        <time>2020-11-29T14:10:14Z</time>
      </trkpt>
      <trkpt lat="47.18035" lon="-1.47742">
        <ele>10</ele>
        <time>2020-11-29T14:10:17Z</time>
      </trkpt>
      <trkpt lat="47.18031" lon="-1.47741">
        <ele>10</ele>
        <time>2020-11-29T14:10:18Z</time>
      </trkpt>
      <trkpt lat="47.18053" lon="-1.47601">
        <ele>10</ele>
        <time>2020-11-29T14:10:44Z</time>
      </trkpt>
      <trkpt lat="47.18054" lon="-1.47598">
        <ele>10</ele>
        <time>2020-11-29T14:10:44Z</time>
      </trkpt>
      <trkpt lat="47.18059" lon="-1.47543">
        <ele>10</ele>
        <time>2020-11-29T14:10:54Z</time>
      </trkpt>
      <trkpt lat="47.1806" lon="-1.47536">
        <ele>10</ele>
        <time>2020-11-29T14:10:56Z</time>
      </trkpt>
      <trkpt lat="47.18061" lon="-1.4753">
        <ele>10</ele>
        <time>2020-11-29T14:10:57Z</time>
      </trkpt>
      <trkpt lat="47.17975" lon="-1.47509">
        <ele>8</ele>
        <time>2020-11-29T14:11:20Z</time>
      </trkpt>
      <trkpt lat="47.17931" lon="-1.47498">
        <ele>8</ele>
        <time>2020-11-29T14:11:32Z</time>
      </trkpt>
      <trkpt lat="47.17922" lon="-1.47496">
        <ele>8</ele>
        <time>2020-11-29T14:11:35Z</time>
      </trkpt>
      <trkpt lat="47.17921" lon="-1.475">
        <ele>8</ele>
        <time>2020-11-29T14:11:35Z</time>
      </trkpt>
      <trkpt lat="47.1792" lon="-1.47504">
        <ele>8</ele>
        <time>2020-11-29T14:11:36Z</time>
      </trkpt>
      <trkpt lat="47.17918" lon="-1.47507">
        <ele>8</ele>
        <time>2020-11-29T14:11:37Z</time>
      </trkpt>
      <trkpt lat="47.17916" lon="-1.4751">
        <ele>8</ele>
        <time>2020-11-29T14:11:38Z</time>
      </trkpt>
      <trkpt lat="47.17913" lon="-1.47512">
        <ele>8</ele>
        <time>2020-11-29T14:11:38Z</time>
      </trkpt>
      <trkpt lat="47.17911" lon="-1.47513">
        <ele>8</ele>
        <time>2020-11-29T14:11:39Z</time>
      </trkpt>
      <trkpt lat="47.17908" lon="-1.47514">
        <ele>8</ele>
        <time>2020-11-29T14:11:40Z</time>
      </trkpt>
      <trkpt lat="47.17905" lon="-1.47514">
        <ele>8</ele>
        <time>2020-11-29T14:11:41Z</time>
      </trkpt>
      <trkpt lat="47.179" lon="-1.47512">
        <ele>8</ele>
        <time>2020-11-29T14:11:42Z</time>
      </trkpt>
      <trkpt lat="47.17895" lon="-1.47508">
        <ele>8</ele>
        <time>2020-11-29T14:11:44Z</time>
      </trkpt>
      <trkpt lat="47.17892" lon="-1.47502">
        <ele>8</ele>
        <time>2020-11-29T14:11:45Z</time>
      </trkpt>
      <trkpt lat="47.17881" lon="-1.47491">
        <ele>9</ele>
        <time>2020-11-29T14:11:48Z</time>
      </trkpt>
      <trkpt lat="47.17864" lon="-1.47479">
        <ele>9</ele>
        <time>2020-11-29T14:11:54Z</time>
      </trkpt>
      <trkpt lat="47.17828" lon="-1.47469">
        <ele>9</ele>
        <time>2020-11-29T14:12:03Z</time>
      </trkpt>
      <trkpt lat="47.17782" lon="-1.4745">
        <ele>12</ele>
        <time>2020-11-29T14:12:16Z</time>
      </trkpt>
      <trkpt lat="47.17754" lon="-1.47437">
        <ele>12</ele>
        <time>2020-11-29T14:12:24Z</time>
      </trkpt>
      <trkpt lat="47.17642" lon="-1.47383">
        <ele>12</ele>
        <time>2020-11-29T14:12:55Z</time>
      </trkpt>
      <trkpt lat="47.17634" lon="-1.47379">
        <ele>12</ele>
        <time>2020-11-29T14:12:58Z</time>
      </trkpt>
      <trkpt lat="47.17609" lon="-1.47371">
        <ele>12</ele>
        <time>2020-11-29T14:13:05Z</time>
      </trkpt>
      <trkpt lat="47.17554" lon="-1.4736">
        <ele>14</ele>
        <time>2020-11-29T14:13:19Z</time>
      </trkpt>
      <trkpt lat="47.17446" lon="-1.4736">
        <ele>17</ele>
        <time>2020-11-29T14:13:48Z</time>
      </trkpt>
      <trkpt lat="47.17402" lon="-1.47361">
        <ele>17</ele>
        <time>2020-11-29T14:14:00Z</time>
      </trkpt>
      <trkpt lat="47.17374" lon="-1.47367">
        <ele>20</ele>
        <time>2020-11-29T14:14:08Z</time>
      </trkpt>
      <trkpt lat="47.17322" lon="-1.47378">
        <ele>20</ele>
        <time>2020-11-29T14:14:22Z</time>
      </trkpt>
      <trkpt lat="47.17312" lon="-1.47381">
        <ele>20</ele>
        <time>2020-11-29T14:14:24Z</time>
      </trkpt>
      <trkpt lat="47.17312" lon="-1.47384">
        <ele>20</ele>
        <time>2020-11-29T14:14:25Z</time>
      </trkpt>
      <trkpt lat="47.17312" lon="-1.47387">
        <ele>20</ele>
        <time>2020-11-29T14:14:25Z</time>
      </trkpt>
      <trkpt lat="47.17311" lon="-1.4739">
        <ele>20</ele>
        <time>2020-11-29T14:14:26Z</time>
      </trkpt>
      <trkpt lat="47.1731" lon="-1.47393">
        <ele>20</ele>
        <time>2020-11-29T14:14:27Z</time>
      </trkpt>
      <trkpt lat="47.17308" lon="-1.47395">
        <ele>20</ele>
        <time>2020-11-29T14:14:27Z</time>
      </trkpt>
      <trkpt lat="47.17306" lon="-1.47397">
        <ele>20</ele>
        <time>2020-11-29T14:14:28Z</time>
      </trkpt>
      <trkpt lat="47.17304" lon="-1.47398">
        <ele>20</ele>
        <time>2020-11-29T14:14:28Z</time>
      </trkpt>
      <trkpt lat="47.17301" lon="-1.47398">
        <ele>20</ele>
        <time>2020-11-29T14:14:29Z</time>
      </trkpt>
      <trkpt lat="47.17299" lon="-1.47398">
        <ele>23</ele>
        <time>2020-11-29T14:14:30Z</time>
      </trkpt>
      <trkpt lat="47.17296" lon="-1.47396">
        <ele>23</ele>
        <time>2020-11-29T14:14:31Z</time>
      </trkpt>
      <trkpt lat="47.17295" lon="-1.47394">
        <ele>23</ele>
        <time>2020-11-29T14:14:31Z</time>
      </trkpt>
      <trkpt lat="47.17293" lon="-1.47391">
        <ele>23</ele>
        <time>2020-11-29T14:14:32Z</time>
      </trkpt>
      <trkpt lat="47.17292" lon="-1.47388">
        <ele>23</ele>
        <time>2020-11-29T14:14:32Z</time>
      </trkpt>
      <trkpt lat="47.17292" lon="-1.47385">
        <ele>23</ele>
        <time>2020-11-29T14:14:33Z</time>
      </trkpt>
      <trkpt lat="47.17292" lon="-1.47382">
        <ele>23</ele>
        <time>2020-11-29T14:14:34Z</time>
      </trkpt>
      <trkpt lat="47.17292" lon="-1.47378">
        <ele>23</ele>
        <time>2020-11-29T14:14:34Z</time>
      </trkpt>
      <trkpt lat="47.17293" lon="-1.47375">
        <ele>23</ele>
        <time>2020-11-29T14:14:35Z</time>
      </trkpt>
      <trkpt lat="47.17295" lon="-1.47373">
        <ele>23</ele>
        <time>2020-11-29T14:14:36Z</time>
      </trkpt>
      <trkpt lat="47.17296" lon="-1.4737">
        <ele>23</ele>
        <time>2020-11-29T14:14:36Z</time>
      </trkpt>
      <trkpt lat="47.17298" lon="-1.47369">
        <ele>23</ele>
        <time>2020-11-29T14:14:37Z</time>
      </trkpt>
      <trkpt lat="47.17296" lon="-1.47353">
        <ele>23</ele>
        <time>2020-11-29T14:14:40Z</time>
      </trkpt>
      <trkpt lat="47.17286" lon="-1.47306">
        <ele>23</ele>
        <time>2020-11-29T14:14:49Z</time>
      </trkpt>
      <trkpt lat="47.17284" lon="-1.47293">
        <ele>23</ele>
        <time>2020-11-29T14:14:51Z</time>
      </trkpt>
      <trkpt lat="47.17283" lon="-1.47294">
        <ele>23</ele>
        <time>2020-11-29T14:14:51Z</time>
      </trkpt>
      <trkpt lat="47.17281" lon="-1.47295">
        <ele>23</ele>
        <time>2020-11-29T14:14:52Z</time>
      </trkpt>
      <trkpt lat="47.17279" lon="-1.47295">
        <ele>23</ele>
        <time>2020-11-29T14:14:52Z</time>
      </trkpt>
      <trkpt lat="47.17277" lon="-1.47295">
        <ele>23</ele>
        <time>2020-11-29T14:14:53Z</time>
      </trkpt>
      <trkpt lat="47.17275" lon="-1.47293">
        <ele>23</ele>
        <time>2020-11-29T14:14:54Z</time>
      </trkpt>
      <trkpt lat="47.17273" lon="-1.47291">
        <ele>23</ele>
        <time>2020-11-29T14:14:54Z</time>
      </trkpt>
      <trkpt lat="47.17272" lon="-1.47289">
        <ele>23</ele>
        <time>2020-11-29T14:14:55Z</time>
      </trkpt>
      <trkpt lat="47.17272" lon="-1.47286">
        <ele>23</ele>
        <time>2020-11-29T14:14:55Z</time>
      </trkpt>
      <trkpt lat="47.17271" lon="-1.47283">
        <ele>23</ele>
        <time>2020-11-29T14:14:56Z</time>
      </trkpt>
      <trkpt lat="47.17272" lon="-1.4728">
        <ele>23</ele>
        <time>2020-11-29T14:14:56Z</time>
      </trkpt>
      <trkpt lat="47.17273" lon="-1.47277">
        <ele>25</ele>
        <time>2020-11-29T14:14:57Z</time>
      </trkpt>
      <trkpt lat="47.17274" lon="-1.47275">
        <ele>25</ele>
        <time>2020-11-29T14:14:58Z</time>
      </trkpt>
      <trkpt lat="47.17276" lon="-1.47273">
        <ele>25</ele>
        <time>2020-11-29T14:14:58Z</time>
      </trkpt>
      <trkpt lat="47.17278" lon="-1.47272">
        <ele>25</ele>
        <time>2020-11-29T14:14:59Z</time>
      </trkpt>
      <trkpt lat="47.17279" lon="-1.47262">
        <ele>25</ele>
        <time>2020-11-29T14:15:01Z</time>
      </trkpt>
      <trkpt lat="47.17256" lon="-1.47134">
        <ele>29</ele>
        <time>2020-11-29T14:15:25Z</time>
      </trkpt>
      <trkpt lat="47.1725" lon="-1.47105">
        <ele>29</ele>
        <time>2020-11-29T14:15:30Z</time>
      </trkpt>
      <trkpt lat="47.17229" lon="-1.47031">
        <ele>29</ele>
        <time>2020-11-29T14:15:45Z</time>
      </trkpt>
      <trkpt lat="47.17209" lon="-1.46978">
        <ele>33</ele>
        <time>2020-11-29T14:15:56Z</time>
      </trkpt>
      <trkpt lat="47.17187" lon="-1.4693">
        <ele>33</ele>
        <time>2020-11-29T14:16:06Z</time>
      </trkpt>
      <trkpt lat="47.1714" lon="-1.46851">
        <ele>34</ele>
        <time>2020-11-29T14:16:25Z</time>
      </trkpt>
      <trkpt lat="47.1713" lon="-1.46838">
        <ele>34</ele>
        <time>2020-11-29T14:16:29Z</time>
      </trkpt>
      <trkpt lat="47.17129" lon="-1.46839">
        <ele>34</ele>
        <time>2020-11-29T14:16:29Z</time>
      </trkpt>
      <trkpt lat="47.17127" lon="-1.46841">
        <ele>34</ele>
        <time>2020-11-29T14:16:30Z</time>
      </trkpt>
      <trkpt lat="47.17125" lon="-1.46841">
        <ele>34</ele>
        <time>2020-11-29T14:16:30Z</time>
      </trkpt>
      <trkpt lat="47.17123" lon="-1.46842">
        <ele>34</ele>
        <time>2020-11-29T14:16:31Z</time>
      </trkpt>
      <trkpt lat="47.17121" lon="-1.46841">
        <ele>34</ele>
        <time>2020-11-29T14:16:31Z</time>
      </trkpt>
      <trkpt lat="47.17119" lon="-1.46841">
        <ele>34</ele>
        <time>2020-11-29T14:16:32Z</time>
      </trkpt>
      <trkpt lat="47.17117" lon="-1.46839">
        <ele>34</ele>
        <time>2020-11-29T14:16:33Z</time>
      </trkpt>
      <trkpt lat="47.17116" lon="-1.46838">
        <ele>34</ele>
        <time>2020-11-29T14:16:33Z</time>
      </trkpt>
      <trkpt lat="47.17114" lon="-1.46835">
        <ele>34</ele>
        <time>2020-11-29T14:16:34Z</time>
      </trkpt>
      <trkpt lat="47.17113" lon="-1.46832">
        <ele>34</ele>
        <time>2020-11-29T14:16:34Z</time>
      </trkpt>
      <trkpt lat="47.17113" lon="-1.46829">
        <ele>34</ele>
        <time>2020-11-29T14:16:35Z</time>
      </trkpt>
      <trkpt lat="47.17113" lon="-1.46826">
        <ele>34</ele>
        <time>2020-11-29T14:16:35Z</time>
      </trkpt>
      <trkpt lat="47.17113" lon="-1.46822">
        <ele>34</ele>
        <time>2020-11-29T14:16:36Z</time>
      </trkpt>
      <trkpt lat="47.17114" lon="-1.46819">
        <ele>34</ele>
        <time>2020-11-29T14:16:37Z</time>
      </trkpt>
      <trkpt lat="47.17115" lon="-1.46817">
        <ele>34</ele>
        <time>2020-11-29T14:16:37Z</time>
      </trkpt>
      <trkpt lat="47.17054" lon="-1.46755">
        <ele>36</ele>
        <time>2020-11-29T14:16:57Z</time>
      </trkpt>
      <trkpt lat="47.16998" lon="-1.4671">
        <ele>36</ele>
        <time>2020-11-29T14:17:14Z</time>
      </trkpt>
      <trkpt lat="47.16981" lon="-1.46701">
        <ele>37</ele>
        <time>2020-11-29T14:17:19Z</time>
      </trkpt>
      <trkpt lat="47.16976" lon="-1.46698">
        <ele>37</ele>
        <time>2020-11-29T14:17:20Z</time>
      </trkpt>
      <trkpt lat="47.16972" lon="-1.46697">
        <ele>37</ele>
        <time>2020-11-29T14:17:21Z</time>
      </trkpt>
      <trkpt lat="47.16969" lon="-1.46699">
        <ele>37</ele>
        <time>2020-11-29T14:17:22Z</time>
      </trkpt>
      <trkpt lat="47.16967" lon="-1.467">
        <ele>37</ele>
        <time>2020-11-29T14:17:23Z</time>
      </trkpt>
      <trkpt lat="47.16965" lon="-1.46701">
        <ele>37</ele>
        <time>2020-11-29T14:17:23Z</time>
      </trkpt>
      <trkpt lat="47.16961" lon="-1.467">
        <ele>37</ele>
        <time>2020-11-29T14:17:25Z</time>
      </trkpt>
      <trkpt lat="47.16958" lon="-1.46698">
        <ele>37</ele>
        <time>2020-11-29T14:17:25Z</time>
      </trkpt>
      <trkpt lat="47.16955" lon="-1.46695">
        <ele>37</ele>
        <time>2020-11-29T14:17:26Z</time>
      </trkpt>
      <trkpt lat="47.16953" lon="-1.46691">
        <ele>37</ele>
        <time>2020-11-29T14:17:27Z</time>
      </trkpt>
      <trkpt lat="47.16952" lon="-1.46686">
        <ele>37</ele>
        <time>2020-11-29T14:17:28Z</time>
      </trkpt>
      <trkpt lat="47.16952" lon="-1.46681">
        <ele>37</ele>
        <time>2020-11-29T14:17:29Z</time>
      </trkpt>
      <trkpt lat="47.1695" lon="-1.46677">
        <ele>37</ele>
        <time>2020-11-29T14:17:30Z</time>
      </trkpt>
      <trkpt lat="47.16945" lon="-1.4667">
        <ele>37</ele>
        <time>2020-11-29T14:17:32Z</time>
      </trkpt>
      <trkpt lat="47.16934" lon="-1.46658">
        <ele>37</ele>
        <time>2020-11-29T14:17:36Z</time>
      </trkpt>
      <trkpt lat="47.1688" lon="-1.46617">
        <ele>39</ele>
        <time>2020-11-29T14:17:52Z</time>
      </trkpt>
      <trkpt lat="47.1683" lon="-1.46563">
        <ele>39</ele>
        <time>2020-11-29T14:18:08Z</time>
      </trkpt>
      <trkpt lat="47.16826" lon="-1.46558">
        <ele>39</ele>
        <time>2020-11-29T14:18:10Z</time>
      </trkpt>
      <trkpt lat="47.1679" lon="-1.46521">
        <ele>37</ele>
        <time>2020-11-29T14:18:22Z</time>
      </trkpt>
      <trkpt lat="47.16771" lon="-1.465">
        <ele>37</ele>
        <time>2020-11-29T14:18:28Z</time>
      </trkpt>
      <trkpt lat="47.16711" lon="-1.46408">
        <ele>35</ele>
        <time>2020-11-29T14:18:51Z</time>
      </trkpt>
      <trkpt lat="47.16709" lon="-1.46405">
        <ele>35</ele>
        <time>2020-11-29T14:18:52Z</time>
      </trkpt>
      <trkpt lat="47.16656" lon="-1.4631">
        <ele>33</ele>
        <time>2020-11-29T14:19:14Z</time>
      </trkpt>
      <trkpt lat="47.16645" lon="-1.46291">
        <ele>33</ele>
        <time>2020-11-29T14:19:19Z</time>
      </trkpt>
      <trkpt lat="47.16632" lon="-1.46267">
        <ele>33</ele>
        <time>2020-11-29T14:19:24Z</time>
      </trkpt>
      <trkpt lat="47.16621" lon="-1.46246">
        <ele>33</ele>
        <time>2020-11-29T14:19:29Z</time>
      </trkpt>
      <trkpt lat="47.16619" lon="-1.46249">
        <ele>33</ele>
        <time>2020-11-29T14:19:30Z</time>
      </trkpt>
      <trkpt lat="47.16617" lon="-1.46252">
        <ele>33</ele>
        <time>2020-11-29T14:19:31Z</time>
      </trkpt>
      <trkpt lat="47.16614" lon="-1.46253">
        <ele>33</ele>
        <time>2020-11-29T14:19:31Z</time>
      </trkpt>
      <trkpt lat="47.16612" lon="-1.46253">
        <ele>33</ele>
        <time>2020-11-29T14:19:32Z</time>
      </trkpt>
      <trkpt lat="47.16609" lon="-1.46251">
        <ele>33</ele>
        <time>2020-11-29T14:19:33Z</time>
      </trkpt>
      <trkpt lat="47.16607" lon="-1.46249">
        <ele>33</ele>
        <time>2020-11-29T14:19:33Z</time>
      </trkpt>
      <trkpt lat="47.16606" lon="-1.46246">
        <ele>31</ele>
        <time>2020-11-29T14:19:34Z</time>
      </trkpt>
      <trkpt lat="47.16605" lon="-1.46243">
        <ele>31</ele>
        <time>2020-11-29T14:19:35Z</time>
      </trkpt>
      <trkpt lat="47.16605" lon="-1.46239">
        <ele>31</ele>
        <time>2020-11-29T14:19:35Z</time>
      </trkpt>
      <trkpt lat="47.16606" lon="-1.46236">
        <ele>31</ele>
        <time>2020-11-29T14:19:36Z</time>
      </trkpt>
      <trkpt lat="47.16607" lon="-1.46233">
        <ele>31</ele>
        <time>2020-11-29T14:19:37Z</time>
      </trkpt>
      <trkpt lat="47.16609" lon="-1.4623">
        <ele>31</ele>
        <time>2020-11-29T14:19:37Z</time>
      </trkpt>
      <trkpt lat="47.16611" lon="-1.46229">
        <ele>31</ele>
        <time>2020-11-29T14:19:38Z</time>
      </trkpt>
      <trkpt lat="47.16607" lon="-1.46217">
        <ele>31</ele>
        <time>2020-11-29T14:19:40Z</time>
      </trkpt>
      <trkpt lat="47.166" lon="-1.46205">
        <ele>31</ele>
        <time>2020-11-29T14:19:43Z</time>
      </trkpt>
      <trkpt lat="47.166" lon="-1.46203">
        <ele>31</ele>
        <time>2020-11-29T14:19:44Z</time>
      </trkpt>
      <trkpt lat="47.16579" lon="-1.46162">
        <ele>31</ele>
        <time>2020-11-29T14:19:53Z</time>
      </trkpt>
      <trkpt lat="47.16577" lon="-1.46157">
        <ele>31</ele>
        <time>2020-11-29T14:19:54Z</time>
      </trkpt>
      <trkpt lat="47.16558" lon="-1.46128">
        <ele>31</ele>
        <time>2020-11-29T14:20:01Z</time>
      </trkpt>
      <trkpt lat="47.16545" lon="-1.46104">
        <ele>29</ele>
        <time>2020-11-29T14:20:07Z</time>
      </trkpt>
      <trkpt lat="47.16536" lon="-1.46097">
        <ele>29</ele>
        <time>2020-11-29T14:20:10Z</time>
      </trkpt>
      <trkpt lat="47.16533" lon="-1.46098">
        <ele>29</ele>
        <time>2020-11-29T14:20:10Z</time>
      </trkpt>
      <trkpt lat="47.16531" lon="-1.46098">
        <ele>29</ele>
        <time>2020-11-29T14:20:11Z</time>
      </trkpt>
      <trkpt lat="47.16528" lon="-1.46098">
        <ele>29</ele>
        <time>2020-11-29T14:20:12Z</time>
      </trkpt>
      <trkpt lat="47.16525" lon="-1.46098">
        <ele>29</ele>
        <time>2020-11-29T14:20:13Z</time>
      </trkpt>
      <trkpt lat="47.16522" lon="-1.46097">
        <ele>29</ele>
        <time>2020-11-29T14:20:13Z</time>
      </trkpt>
      <trkpt lat="47.16519" lon="-1.46095">
        <ele>29</ele>
        <time>2020-11-29T14:20:14Z</time>
      </trkpt>
      <trkpt lat="47.16518" lon="-1.46094">
        <ele>29</ele>
        <time>2020-11-29T14:20:15Z</time>
      </trkpt>
      <trkpt lat="47.16516" lon="-1.46092">
        <ele>29</ele>
        <time>2020-11-29T14:20:15Z</time>
      </trkpt>
      <trkpt lat="47.16514" lon="-1.4609">
        <ele>29</ele>
        <time>2020-11-29T14:20:16Z</time>
      </trkpt>
      <trkpt lat="47.16513" lon="-1.46087">
        <ele>29</ele>
        <time>2020-11-29T14:20:16Z</time>
      </trkpt>
      <trkpt lat="47.16512" lon="-1.46085">
        <ele>29</ele>
        <time>2020-11-29T14:20:17Z</time>
      </trkpt>
      <trkpt lat="47.1651" lon="-1.46082">
        <ele>29</ele>
        <time>2020-11-29T14:20:18Z</time>
      </trkpt>
      <trkpt lat="47.16509" lon="-1.46079">
        <ele>29</ele>
        <time>2020-11-29T14:20:18Z</time>
      </trkpt>
      <trkpt lat="47.16508" lon="-1.46076">
        <ele>29</ele>
        <time>2020-11-29T14:20:19Z</time>
      </trkpt>
      <trkpt lat="47.16508" lon="-1.46073">
        <ele>29</ele>
        <time>2020-11-29T14:20:19Z</time>
      </trkpt>
      <trkpt lat="47.16508" lon="-1.46069">
        <ele>29</ele>
        <time>2020-11-29T14:20:20Z</time>
      </trkpt>
      <trkpt lat="47.16508" lon="-1.46065">
        <ele>29</ele>
        <time>2020-11-29T14:20:21Z</time>
      </trkpt>
      <trkpt lat="47.16508" lon="-1.46062">
        <ele>29</ele>
        <time>2020-11-29T14:20:21Z</time>
      </trkpt>
      <trkpt lat="47.16508" lon="-1.46059">
        <ele>29</ele>
        <time>2020-11-29T14:20:22Z</time>
      </trkpt>
      <trkpt lat="47.16509" lon="-1.46056">
        <ele>29</ele>
        <time>2020-11-29T14:20:23Z</time>
      </trkpt>
      <trkpt lat="47.1651" lon="-1.46053">
        <ele>29</ele>
        <time>2020-11-29T14:20:23Z</time>
      </trkpt>
      <trkpt lat="47.1651" lon="-1.4605">
        <ele>29</ele>
        <time>2020-11-29T14:20:24Z</time>
      </trkpt>
      <trkpt lat="47.16511" lon="-1.46048">
        <ele>29</ele>
        <time>2020-11-29T14:20:24Z</time>
      </trkpt>
      <trkpt lat="47.16513" lon="-1.46045">
        <ele>29</ele>
        <time>2020-11-29T14:20:25Z</time>
      </trkpt>
      <trkpt lat="47.16514" lon="-1.46043">
        <ele>29</ele>
        <time>2020-11-29T14:20:25Z</time>
      </trkpt>
      <trkpt lat="47.16515" lon="-1.46042">
        <ele>29</ele>
        <time>2020-11-29T14:20:26Z</time>
      </trkpt>
      <trkpt lat="47.16517" lon="-1.4604">
        <ele>29</ele>
        <time>2020-11-29T14:20:26Z</time>
      </trkpt>
      <trkpt lat="47.16519" lon="-1.46038">
        <ele>29</ele>
        <time>2020-11-29T14:20:27Z</time>
      </trkpt>
      <trkpt lat="47.16468" lon="-1.45878">
        <ele>33</ele>
        <time>2020-11-29T14:20:59Z</time>
      </trkpt>
      <trkpt lat="47.16462" lon="-1.45857">
        <ele>33</ele>
        <time>2020-11-29T14:21:03Z</time>
      </trkpt>
      <trkpt lat="47.16454" lon="-1.45827">
        <ele>33</ele>
        <time>2020-11-29T14:21:09Z</time>
      </trkpt>
      <trkpt lat="47.16414" lon="-1.45665">
        <ele>37</ele>
        <time>2020-11-29T14:21:40Z</time>
      </trkpt>
      <trkpt lat="47.16404" lon="-1.45631">
        <ele>37</ele>
        <time>2020-11-29T14:21:47Z</time>
      </trkpt>
      <trkpt lat="47.16393" lon="-1.45602">
        <ele>37</ele>
        <time>2020-11-29T14:21:53Z</time>
      </trkpt>
      <trkpt lat="47.16381" lon="-1.45577">
        <ele>37</ele>
        <time>2020-11-29T14:21:59Z</time>
      </trkpt>
      <trkpt lat="47.16335" lon="-1.45493">
        <ele>37</ele>
        <time>2020-11-29T14:22:18Z</time>
      </trkpt>
      <trkpt lat="47.1633" lon="-1.45483">
        <ele>35</ele>
        <time>2020-11-29T14:22:21Z</time>
      </trkpt>
      <trkpt lat="47.16306" lon="-1.45437">
        <ele>35</ele>
        <time>2020-11-29T14:22:31Z</time>
      </trkpt>
      <trkpt lat="47.16299" lon="-1.45418">
        <ele>35</ele>
        <time>2020-11-29T14:22:35Z</time>
      </trkpt>
      <trkpt lat="47.16294" lon="-1.45398">
        <ele>35</ele>
        <time>2020-11-29T14:22:39Z</time>
      </trkpt>
      <trkpt lat="47.16288" lon="-1.45345">
        <ele>35</ele>
        <time>2020-11-29T14:22:49Z</time>
      </trkpt>
      <trkpt lat="47.16282" lon="-1.45323">
        <ele>35</ele>
        <time>2020-11-29T14:22:53Z</time>
      </trkpt>
      <trkpt lat="47.16259" lon="-1.45259">
        <ele>35</ele>
        <time>2020-11-29T14:23:06Z</time>
      </trkpt>
      <trkpt lat="47.16247" lon="-1.45229">
        <ele>35</ele>
        <time>2020-11-29T14:23:12Z</time>
      </trkpt>
      <trkpt lat="47.1625" lon="-1.45221">
        <ele>35</ele>
        <time>2020-11-29T14:23:14Z</time>
      </trkpt>
      <trkpt lat="47.16253" lon="-1.45205">
        <ele>34</ele>
        <time>2020-11-29T14:23:17Z</time>
      </trkpt>
      <trkpt lat="47.16236" lon="-1.44668">
        <ele>33</ele>
        <time>2020-11-29T14:24:55Z</time>
      </trkpt>
      <trkpt lat="47.1623" lon="-1.44454">
        <ele>35</ele>
        <time>2020-11-29T14:25:34Z</time>
      </trkpt>
      <trkpt lat="47.1623" lon="-1.44441">
        <ele>35</ele>
        <time>2020-11-29T14:25:36Z</time>
      </trkpt>
      <trkpt lat="47.16221" lon="-1.4415">
        <ele>36</ele>
        <time>2020-11-29T14:26:29Z</time>
      </trkpt>
      <trkpt lat="47.16221" lon="-1.44146">
        <ele>36</ele>
        <time>2020-11-29T14:26:30Z</time>
      </trkpt>
      <trkpt lat="47.16219" lon="-1.44102">
        <ele>36</ele>
        <time>2020-11-29T14:26:38Z</time>
      </trkpt>
      <trkpt lat="47.16216" lon="-1.44013">
        <ele>36</ele>
        <time>2020-11-29T14:26:54Z</time>
      </trkpt>
      <trkpt lat="47.16215" lon="-1.43958">
        <ele>31</ele>
        <time>2020-11-29T14:27:04Z</time>
      </trkpt>
      <trkpt lat="47.16211" lon="-1.4385">
        <ele>31</ele>
        <time>2020-11-29T14:27:24Z</time>
      </trkpt>
      <trkpt lat="47.16206" lon="-1.43641">
        <ele>22</ele>
        <time>2020-11-29T14:28:02Z</time>
      </trkpt>
      <trkpt lat="47.16205" lon="-1.436">
        <ele>22</ele>
        <time>2020-11-29T14:28:09Z</time>
      </trkpt>
      <trkpt lat="47.16198" lon="-1.43498">
        <ele>20</ele>
        <time>2020-11-29T14:28:28Z</time>
      </trkpt>
      <trkpt lat="47.16188" lon="-1.43445">
        <ele>20</ele>
        <time>2020-11-29T14:28:38Z</time>
      </trkpt>
      <trkpt lat="47.16177" lon="-1.43403">
        <ele>20</ele>
        <time>2020-11-29T14:28:46Z</time>
      </trkpt>
      <trkpt lat="47.16166" lon="-1.43366">
        <ele>13</ele>
        <time>2020-11-29T14:28:53Z</time>
      </trkpt>
      <trkpt lat="47.16085" lon="-1.43188">
        <ele>11</ele>
        <time>2020-11-29T14:29:32Z</time>
      </trkpt>
      <trkpt lat="47.15967" lon="-1.42927">
        <ele>19</ele>
        <time>2020-11-29T14:30:29Z</time>
      </trkpt>
      <trkpt lat="47.15948" lon="-1.42884">
        <ele>25</ele>
        <time>2020-11-29T14:30:38Z</time>
      </trkpt>
      <trkpt lat="47.15937" lon="-1.42861">
        <ele>25</ele>
        <time>2020-11-29T14:30:43Z</time>
      </trkpt>
      <trkpt lat="47.1589" lon="-1.42758">
        <ele>30</ele>
        <time>2020-11-29T14:31:06Z</time>
      </trkpt>
      <trkpt lat="47.15868" lon="-1.4271">
        <ele>30</ele>
        <time>2020-11-29T14:31:16Z</time>
      </trkpt>
      <trkpt lat="47.15851" lon="-1.42655">
        <ele>30</ele>
        <time>2020-11-29T14:31:27Z</time>
      </trkpt>
      <trkpt lat="47.15837" lon="-1.42599">
        <ele>35</ele>
        <time>2020-11-29T14:31:38Z</time>
      </trkpt>
      <trkpt lat="47.1583" lon="-1.4255">
        <ele>35</ele>
        <time>2020-11-29T14:31:47Z</time>
      </trkpt>
      <trkpt lat="47.15827" lon="-1.42503">
        <ele>35</ele>
        <time>2020-11-29T14:31:56Z</time>
      </trkpt>
      <trkpt lat="47.15828" lon="-1.42407">
        <ele>40</ele>
        <time>2020-11-29T14:32:13Z</time>
      </trkpt>
      <trkpt lat="47.1583" lon="-1.42347">
        <ele>40</ele>
        <time>2020-11-29T14:32:24Z</time>
      </trkpt>
      <trkpt lat="47.15831" lon="-1.42307">
        <ele>43</ele>
        <time>2020-11-29T14:32:32Z</time>
      </trkpt>
      <trkpt lat="47.15834" lon="-1.42209">
        <ele>43</ele>
        <time>2020-11-29T14:32:49Z</time>
      </trkpt>
      <trkpt lat="47.15837" lon="-1.42093">
        <ele>46</ele>
        <time>2020-11-29T14:33:10Z</time>
      </trkpt>
      <trkpt lat="47.15837" lon="-1.42029">
        <ele>46</ele>
        <time>2020-11-29T14:33:22Z</time>
      </trkpt>
      <trkpt lat="47.15839" lon="-1.41951">
        <ele>46</ele>
        <time>2020-11-29T14:33:36Z</time>
      </trkpt>
      <trkpt lat="47.15839" lon="-1.41912">
        <ele>46</ele>
        <time>2020-11-29T14:33:43Z</time>
      </trkpt>
      <trkpt lat="47.15838" lon="-1.41883">
        <ele>46</ele>
        <time>2020-11-29T14:33:49Z</time>
      </trkpt>
      <trkpt lat="47.15836" lon="-1.41845">
        <ele>45</ele>
        <time>2020-11-29T14:33:56Z</time>
      </trkpt>
      <trkpt lat="47.15834" lon="-1.41809">
        <ele>45</ele>
        <time>2020-11-29T14:34:02Z</time>
      </trkpt>
      <trkpt lat="47.15828" lon="-1.41752">
        <ele>45</ele>
        <time>2020-11-29T14:34:13Z</time>
      </trkpt>
      <trkpt lat="47.15824" lon="-1.41711">
        <ele>43</ele>
        <time>2020-11-29T14:34:20Z</time>
      </trkpt>
      <trkpt lat="47.15817" lon="-1.41666">
        <ele>43</ele>
        <time>2020-11-29T14:34:28Z</time>
      </trkpt>
      <trkpt lat="47.15806" lon="-1.41606">
        <ele>43</ele>
        <time>2020-11-29T14:34:40Z</time>
      </trkpt>
      <trkpt lat="47.15793" lon="-1.41549">
        <ele>41</ele>
        <time>2020-11-29T14:34:51Z</time>
      </trkpt>
      <trkpt lat="47.15783" lon="-1.41509">
        <ele>41</ele>
        <time>2020-11-29T14:34:58Z</time>
      </trkpt>
      <trkpt lat="47.15774" lon="-1.41475">
        <ele>41</ele>
        <time>2020-11-29T14:35:05Z</time>
      </trkpt>
      <trkpt lat="47.15724" lon="-1.41321">
        <ele>39</ele>
        <time>2020-11-29T14:35:36Z</time>
      </trkpt>
      <trkpt lat="47.15676" lon="-1.41173">
        <ele>37</ele>
        <time>2020-11-29T14:36:06Z</time>
      </trkpt>
      <trkpt lat="47.15663" lon="-1.41122">
        <ele>38</ele>
        <time>2020-11-29T14:36:16Z</time>
      </trkpt>
      <trkpt lat="47.15572" lon="-1.40744">
        <ele>41</ele>
        <time>2020-11-29T14:37:29Z</time>
      </trkpt>
      <trkpt lat="47.15568" lon="-1.40721">
        <ele>39</ele>
        <time>2020-11-29T14:37:33Z</time>
      </trkpt>
      <trkpt lat="47.15564" lon="-1.40694">
        <ele>39</ele>
        <time>2020-11-29T14:37:38Z</time>
      </trkpt>
      <trkpt lat="47.15563" lon="-1.40667">
        <ele>39</ele>
        <time>2020-11-29T14:37:43Z</time>
      </trkpt>
      <trkpt lat="47.15565" lon="-1.40582">
        <ele>39</ele>
        <time>2020-11-29T14:37:58Z</time>
      </trkpt>
      <trkpt lat="47.15567" lon="-1.40516">
        <ele>36</ele>
        <time>2020-11-29T14:38:10Z</time>
      </trkpt>
      <trkpt lat="47.15569" lon="-1.40458">
        <ele>36</ele>
        <time>2020-11-29T14:38:21Z</time>
      </trkpt>
      <trkpt lat="47.15572" lon="-1.40395">
        <ele>31</ele>
        <time>2020-11-29T14:38:32Z</time>
      </trkpt>
      <trkpt lat="47.15572" lon="-1.40381">
        <ele>31</ele>
        <time>2020-11-29T14:38:35Z</time>
      </trkpt>
      <trkpt lat="47.15578" lon="-1.40286">
        <ele>31</ele>
        <time>2020-11-29T14:38:52Z</time>
      </trkpt>
      <trkpt lat="47.15578" lon="-1.40238">
        <ele>32</ele>
        <time>2020-11-29T14:39:01Z</time>
      </trkpt>
      <trkpt lat="47.15576" lon="-1.40209">
        <ele>32</ele>
        <time>2020-11-29T14:39:06Z</time>
      </trkpt>
      <trkpt lat="47.15573" lon="-1.40183">
        <ele>32</ele>
        <time>2020-11-29T14:39:11Z</time>
      </trkpt>
      <trkpt lat="47.15568" lon="-1.40164">
        <ele>32</ele>
        <time>2020-11-29T14:39:15Z</time>
      </trkpt>
      <trkpt lat="47.15561" lon="-1.40144">
        <ele>32</ele>
        <time>2020-11-29T14:39:19Z</time>
      </trkpt>
      <trkpt lat="47.15535" lon="-1.40092">
        <ele>37</ele>
        <time>2020-11-29T14:39:31Z</time>
      </trkpt>
      <trkpt lat="47.15522" lon="-1.40068">
        <ele>37</ele>
        <time>2020-11-29T14:39:36Z</time>
      </trkpt>
      <trkpt lat="47.15519" lon="-1.40062">
        <ele>37</ele>
        <time>2020-11-29T14:39:37Z</time>
      </trkpt>
      <trkpt lat="47.15515" lon="-1.40057">
        <ele>37</ele>
        <time>2020-11-29T14:39:39Z</time>
      </trkpt>
      <trkpt lat="47.15499" lon="-1.4005">
        <ele>37</ele>
        <time>2020-11-29T14:39:43Z</time>
      </trkpt>
      <trkpt lat="47.15494" lon="-1.40068">
        <ele>37</ele>
        <time>2020-11-29T14:39:47Z</time>
      </trkpt>
      <trkpt lat="47.15492" lon="-1.40073">
        <ele>37</ele>
        <time>2020-11-29T14:39:48Z</time>
      </trkpt>
      <trkpt lat="47.15488" lon="-1.40076">
        <ele>37</ele>
        <time>2020-11-29T14:39:49Z</time>
      </trkpt>
      <trkpt lat="47.15483" lon="-1.40079">
        <ele>37</ele>
        <time>2020-11-29T14:39:51Z</time>
      </trkpt>
      <trkpt lat="47.15478" lon="-1.4008">
        <ele>41</ele>
        <time>2020-11-29T14:39:52Z</time>
      </trkpt>
      <trkpt lat="47.15475" lon="-1.40079">
        <ele>41</ele>
        <time>2020-11-29T14:39:53Z</time>
      </trkpt>
      <trkpt lat="47.15472" lon="-1.40078">
        <ele>41</ele>
        <time>2020-11-29T14:39:54Z</time>
      </trkpt>
      <trkpt lat="47.15468" lon="-1.4007">
        <ele>41</ele>
        <time>2020-11-29T14:39:55Z</time>
      </trkpt>
      <trkpt lat="47.15465" lon="-1.40063">
        <ele>41</ele>
        <time>2020-11-29T14:39:57Z</time>
      </trkpt>
      <trkpt lat="47.15463" lon="-1.40059">
        <ele>41</ele>
        <time>2020-11-29T14:39:58Z</time>
      </trkpt>
      <trkpt lat="47.15458" lon="-1.40046">
        <ele>41</ele>
        <time>2020-11-29T14:40:00Z</time>
      </trkpt>
      <trkpt lat="47.15455" lon="-1.40026">
        <ele>41</ele>
        <time>2020-11-29T14:40:04Z</time>
      </trkpt>
      <trkpt lat="47.15448" lon="-1.39984">
        <ele>41</ele>
        <time>2020-11-29T14:40:12Z</time>
      </trkpt>
      <trkpt lat="47.15453" lon="-1.39954">
        <ele>44</ele>
        <time>2020-11-29T14:40:18Z</time>
      </trkpt>
      <trkpt lat="47.15442" lon="-1.39912">
        <ele>44</ele>
        <time>2020-11-29T14:40:26Z</time>
      </trkpt>
      <trkpt lat="47.15414" lon="-1.39826">
        <ele>44</ele>
        <time>2020-11-29T14:40:43Z</time>
      </trkpt>
      <trkpt lat="47.15406" lon="-1.39791">
        <ele>46</ele>
        <time>2020-11-29T14:40:50Z</time>
      </trkpt>
      <trkpt lat="47.15404" lon="-1.39782">
        <ele>46</ele>
        <time>2020-11-29T14:40:52Z</time>
      </trkpt>
      <trkpt lat="47.15402" lon="-1.39782">
        <ele>46</ele>
        <time>2020-11-29T14:40:52Z</time>
      </trkpt>
      <trkpt lat="47.154" lon="-1.3978">
        <ele>46</ele>
        <time>2020-11-29T14:40:53Z</time>
      </trkpt>
      <trkpt lat="47.15399" lon="-1.39778">
        <ele>46</ele>
        <time>2020-11-29T14:40:53Z</time>
      </trkpt>
      <trkpt lat="47.15398" lon="-1.39774">
        <ele>46</ele>
        <time>2020-11-29T14:40:54Z</time>
      </trkpt>
      <trkpt lat="47.15399" lon="-1.39771">
        <ele>46</ele>
        <time>2020-11-29T14:40:55Z</time>
      </trkpt>
      <trkpt lat="47.15401" lon="-1.39768">
        <ele>46</ele>
        <time>2020-11-29T14:40:55Z</time>
      </trkpt>
      <trkpt lat="47.15403" lon="-1.39767">
        <ele>46</ele>
        <time>2020-11-29T14:40:56Z</time>
      </trkpt>
      <trkpt lat="47.15404" lon="-1.39768">
        <ele>46</ele>
        <time>2020-11-29T14:40:56Z</time>
      </trkpt>
      <trkpt lat="47.15406" lon="-1.39769">
        <ele>46</ele>
        <time>2020-11-29T14:40:57Z</time>
      </trkpt>
      <trkpt lat="47.15411" lon="-1.39751">
        <ele>46</ele>
        <time>2020-11-29T14:41:00Z</time>
      </trkpt>
      <trkpt lat="47.15427" lon="-1.39597">
        <ele>51</ele>
        <time>2020-11-29T14:41:29Z</time>
      </trkpt>
      <trkpt lat="47.15426" lon="-1.39585">
        <ele>51</ele>
        <time>2020-11-29T14:41:31Z</time>
      </trkpt>
      <trkpt lat="47.15421" lon="-1.39584">
        <ele>51</ele>
        <time>2020-11-29T14:41:32Z</time>
      </trkpt>
      <trkpt lat="47.15418" lon="-1.39579">
        <ele>51</ele>
        <time>2020-11-29T14:41:33Z</time>
      </trkpt>
      <trkpt lat="47.15417" lon="-1.39572">
        <ele>51</ele>
        <time>2020-11-29T14:41:35Z</time>
      </trkpt>
      <trkpt lat="47.15419" lon="-1.39565">
        <ele>51</ele>
        <time>2020-11-29T14:41:36Z</time>
      </trkpt>
      <trkpt lat="47.15423" lon="-1.39561">
        <ele>51</ele>
        <time>2020-11-29T14:41:37Z</time>
      </trkpt>
      <trkpt lat="47.15429" lon="-1.39562">
        <ele>51</ele>
        <time>2020-11-29T14:41:39Z</time>
      </trkpt>
      <trkpt lat="47.15431" lon="-1.3955">
        <ele>54</ele>
        <time>2020-11-29T14:41:41Z</time>
      </trkpt>
      <trkpt lat="47.15432" lon="-1.39541">
        <ele>54</ele>
        <time>2020-11-29T14:41:43Z</time>
      </trkpt>
      <trkpt lat="47.15432" lon="-1.3953">
        <ele>54</ele>
        <time>2020-11-29T14:41:45Z</time>
      </trkpt>
      <trkpt lat="47.15433" lon="-1.39519">
        <ele>54</ele>
        <time>2020-11-29T14:41:47Z</time>
      </trkpt>
      <trkpt lat="47.15434" lon="-1.3951">
        <ele>54</ele>
        <time>2020-11-29T14:41:49Z</time>
      </trkpt>
      <trkpt lat="47.15436" lon="-1.39498">
        <ele>54</ele>
        <time>2020-11-29T14:41:51Z</time>
      </trkpt>
      <trkpt lat="47.15445" lon="-1.39422">
        <ele>54</ele>
        <time>2020-11-29T14:42:05Z</time>
      </trkpt>
      <trkpt lat="47.15464" lon="-1.39252">
        <ele>54</ele>
        <time>2020-11-29T14:42:36Z</time>
      </trkpt>
      <trkpt lat="47.1547" lon="-1.39212">
        <ele>54</ele>
        <time>2020-11-29T14:42:44Z</time>
      </trkpt>
      <trkpt lat="47.15493" lon="-1.39052">
        <ele>52</ele>
        <time>2020-11-29T14:43:13Z</time>
      </trkpt>
      <trkpt lat="47.15495" lon="-1.3904">
        <ele>52</ele>
        <time>2020-11-29T14:43:16Z</time>
      </trkpt>
      <trkpt lat="47.15497" lon="-1.39021">
        <ele>52</ele>
        <time>2020-11-29T14:43:19Z</time>
      </trkpt>
      <trkpt lat="47.15501" lon="-1.38993">
        <ele>52</ele>
        <time>2020-11-29T14:43:24Z</time>
      </trkpt>
      <trkpt lat="47.15509" lon="-1.38957">
        <ele>52</ele>
        <time>2020-11-29T14:43:31Z</time>
      </trkpt>
      <trkpt lat="47.15524" lon="-1.38919">
        <ele>49</ele>
        <time>2020-11-29T14:43:39Z</time>
      </trkpt>
      <trkpt lat="47.1567" lon="-1.38571">
        <ele>40</ele>
        <time>2020-11-29T14:44:53Z</time>
      </trkpt>
      <trkpt lat="47.15675" lon="-1.38562">
        <ele>40</ele>
        <time>2020-11-29T14:44:55Z</time>
      </trkpt>
      <trkpt lat="47.15687" lon="-1.38534">
        <ele>40</ele>
        <time>2020-11-29T14:45:02Z</time>
      </trkpt>
      <trkpt lat="47.15695" lon="-1.38503">
        <ele>40</ele>
        <time>2020-11-29T14:45:08Z</time>
      </trkpt>
      <trkpt lat="47.15698" lon="-1.38485">
        <ele>40</ele>
        <time>2020-11-29T14:45:11Z</time>
      </trkpt>
      <trkpt lat="47.15699" lon="-1.38466">
        <ele>40</ele>
        <time>2020-11-29T14:45:14Z</time>
      </trkpt>
      <trkpt lat="47.15698" lon="-1.38444">
        <ele>40</ele>
        <time>2020-11-29T14:45:18Z</time>
      </trkpt>
      <trkpt lat="47.15695" lon="-1.38418">
        <ele>42</ele>
        <time>2020-11-29T14:45:23Z</time>
      </trkpt>
      <trkpt lat="47.15688" lon="-1.38382">
        <ele>42</ele>
        <time>2020-11-29T14:45:30Z</time>
      </trkpt>
      <trkpt lat="47.15675" lon="-1.38324">
        <ele>42</ele>
        <time>2020-11-29T14:45:41Z</time>
      </trkpt>
      <trkpt lat="47.1567" lon="-1.383">
        <ele>42</ele>
        <time>2020-11-29T14:45:46Z</time>
      </trkpt>
      <trkpt lat="47.15668" lon="-1.3829">
        <ele>44</ele>
        <time>2020-11-29T14:45:48Z</time>
      </trkpt>
      <trkpt lat="47.15667" lon="-1.38281">
        <ele>44</ele>
        <time>2020-11-29T14:45:49Z</time>
      </trkpt>
      <trkpt lat="47.15668" lon="-1.38271">
        <ele>44</ele>
        <time>2020-11-29T14:45:51Z</time>
      </trkpt>
      <trkpt lat="47.15671" lon="-1.38262">
        <ele>44</ele>
        <time>2020-11-29T14:45:53Z</time>
      </trkpt>
      <trkpt lat="47.15674" lon="-1.38254">
        <ele>44</ele>
        <time>2020-11-29T14:45:54Z</time>
      </trkpt>
      <trkpt lat="47.15685" lon="-1.38235">
        <ele>44</ele>
        <time>2020-11-29T14:45:59Z</time>
      </trkpt>
      <trkpt lat="47.15696" lon="-1.38214">
        <ele>44</ele>
        <time>2020-11-29T14:46:04Z</time>
      </trkpt>
      <trkpt lat="47.15699" lon="-1.38202">
        <ele>44</ele>
        <time>2020-11-29T14:46:06Z</time>
      </trkpt>
      <trkpt lat="47.15701" lon="-1.38195">
        <ele>44</ele>
        <time>2020-11-29T14:46:08Z</time>
      </trkpt>
      <trkpt lat="47.15703" lon="-1.3819">
        <ele>44</ele>
        <time>2020-11-29T14:46:09Z</time>
      </trkpt>
      <trkpt lat="47.15689" lon="-1.38178">
        <ele>44</ele>
        <time>2020-11-29T14:46:13Z</time>
      </trkpt>
      <trkpt lat="47.1568" lon="-1.38171">
        <ele>45</ele>
        <time>2020-11-29T14:46:16Z</time>
      </trkpt>
      <trkpt lat="47.15645" lon="-1.38144">
        <ele>45</ele>
        <time>2020-11-29T14:46:26Z</time>
      </trkpt>
      <trkpt lat="47.15621" lon="-1.38127">
        <ele>45</ele>
        <time>2020-11-29T14:46:33Z</time>
      </trkpt>
      <trkpt lat="47.15602" lon="-1.38113">
        <ele>45</ele>
        <time>2020-11-29T14:46:39Z</time>
      </trkpt>
      <trkpt lat="47.15588" lon="-1.38101">
        <ele>43</ele>
        <time>2020-11-29T14:46:43Z</time>
      </trkpt>
      <trkpt lat="47.15577" lon="-1.3809">
        <ele>43</ele>
        <time>2020-11-29T14:46:47Z</time>
      </trkpt>
      <trkpt lat="47.15566" lon="-1.38076">
        <ele>43</ele>
        <time>2020-11-29T14:46:51Z</time>
      </trkpt>
      <trkpt lat="47.15555" lon="-1.38051">
        <ele>43</ele>
        <time>2020-11-29T14:46:56Z</time>
      </trkpt>
      <trkpt lat="47.15537" lon="-1.38004">
        <ele>43</ele>
        <time>2020-11-29T14:47:06Z</time>
      </trkpt>
      <trkpt lat="47.15523" lon="-1.37966">
        <ele>42</ele>
        <time>2020-11-29T14:47:14Z</time>
      </trkpt>
      <trkpt lat="47.15505" lon="-1.37916">
        <ele>42</ele>
        <time>2020-11-29T14:47:24Z</time>
      </trkpt>
      <trkpt lat="47.15491" lon="-1.37882">
        <ele>42</ele>
        <time>2020-11-29T14:47:31Z</time>
      </trkpt>
      <trkpt lat="47.15475" lon="-1.37847">
        <ele>42</ele>
        <time>2020-11-29T14:47:39Z</time>
      </trkpt>
      <trkpt lat="47.15459" lon="-1.37813">
        <ele>42</ele>
        <time>2020-11-29T14:47:47Z</time>
      </trkpt>
      <trkpt lat="47.1545" lon="-1.37792">
        <ele>42</ele>
        <time>2020-11-29T14:47:51Z</time>
      </trkpt>
      <trkpt lat="47.15438" lon="-1.37755">
        <ele>42</ele>
        <time>2020-11-29T14:47:58Z</time>
      </trkpt>
      <trkpt lat="47.15426" lon="-1.37718">
        <ele>43</ele>
        <time>2020-11-29T14:48:06Z</time>
      </trkpt>
      <trkpt lat="47.15406" lon="-1.37656">
        <ele>43</ele>
        <time>2020-11-29T14:48:18Z</time>
      </trkpt>
      <trkpt lat="47.1539" lon="-1.37606">
        <ele>43</ele>
        <time>2020-11-29T14:48:28Z</time>
      </trkpt>
      <trkpt lat="47.1537" lon="-1.37547">
        <ele>43</ele>
        <time>2020-11-29T14:48:40Z</time>
      </trkpt>
      <trkpt lat="47.15339" lon="-1.37455">
        <ele>43</ele>
        <time>2020-11-29T14:48:59Z</time>
      </trkpt>
      <trkpt lat="47.1531" lon="-1.37365">
        <ele>42</ele>
        <time>2020-11-29T14:49:17Z</time>
      </trkpt>
      <trkpt lat="47.15297" lon="-1.37326">
        <ele>42</ele>
        <time>2020-11-29T14:49:25Z</time>
      </trkpt>
      <trkpt lat="47.15283" lon="-1.37287">
        <ele>40</ele>
        <time>2020-11-29T14:49:33Z</time>
      </trkpt>
      <trkpt lat="47.15261" lon="-1.37234">
        <ele>40</ele>
        <time>2020-11-29T14:49:44Z</time>
      </trkpt>
      <trkpt lat="47.15227" lon="-1.37154">
        <ele>36</ele>
        <time>2020-11-29T14:50:01Z</time>
      </trkpt>
      <trkpt lat="47.15212" lon="-1.37111">
        <ele>36</ele>
        <time>2020-11-29T14:50:10Z</time>
      </trkpt>
      <trkpt lat="47.15197" lon="-1.37068">
        <ele>36</ele>
        <time>2020-11-29T14:50:19Z</time>
      </trkpt>
      <trkpt lat="47.15185" lon="-1.37025">
        <ele>32</ele>
        <time>2020-11-29T14:50:27Z</time>
      </trkpt>
      <trkpt lat="47.15179" lon="-1.36986">
        <ele>32</ele>
        <time>2020-11-29T14:50:35Z</time>
      </trkpt>
      <trkpt lat="47.15172" lon="-1.36928">
        <ele>32</ele>
        <time>2020-11-29T14:50:45Z</time>
      </trkpt>
      <trkpt lat="47.15164" lon="-1.36865">
        <ele>28</ele>
        <time>2020-11-29T14:50:57Z</time>
      </trkpt>
      <trkpt lat="47.15156" lon="-1.36801">
        <ele>28</ele>
        <time>2020-11-29T14:51:09Z</time>
      </trkpt>
      <trkpt lat="47.1515" lon="-1.36751">
        <ele>28</ele>
        <time>2020-11-29T14:51:18Z</time>
      </trkpt>
      <trkpt lat="47.15147" lon="-1.36726">
        <ele>26</ele>
        <time>2020-11-29T14:51:23Z</time>
      </trkpt>
      <trkpt lat="47.15144" lon="-1.36704">
        <ele>26</ele>
        <time>2020-11-29T14:51:27Z</time>
      </trkpt>
      <trkpt lat="47.15142" lon="-1.36688">
        <ele>26</ele>
        <time>2020-11-29T14:51:30Z</time>
      </trkpt>
      <trkpt lat="47.1514" lon="-1.36672">
        <ele>26</ele>
        <time>2020-11-29T14:51:33Z</time>
      </trkpt>
      <trkpt lat="47.15133" lon="-1.36622">
        <ele>26</ele>
        <time>2020-11-29T14:51:42Z</time>
      </trkpt>
      <trkpt lat="47.15128" lon="-1.36591">
        <ele>27</ele>
        <time>2020-11-29T14:51:48Z</time>
      </trkpt>
      <trkpt lat="47.15123" lon="-1.36562">
        <ele>27</ele>
        <time>2020-11-29T14:51:53Z</time>
      </trkpt>
      <trkpt lat="47.15112" lon="-1.36522">
        <ele>27</ele>
        <time>2020-11-29T14:52:01Z</time>
      </trkpt>
      <trkpt lat="47.15096" lon="-1.36476">
        <ele>27</ele>
        <time>2020-11-29T14:52:10Z</time>
      </trkpt>
      <trkpt lat="47.15075" lon="-1.3642">
        <ele>25</ele>
        <time>2020-11-29T14:52:22Z</time>
      </trkpt>
      <trkpt lat="47.15054" lon="-1.36365">
        <ele>25</ele>
        <time>2020-11-29T14:52:34Z</time>
      </trkpt>
      <trkpt lat="47.15033" lon="-1.36306">
        <ele>26</ele>
        <time>2020-11-29T14:52:46Z</time>
      </trkpt>
      <trkpt lat="47.15009" lon="-1.36244">
        <ele>26</ele>
        <time>2020-11-29T14:52:59Z</time>
      </trkpt>
      <trkpt lat="47.14972" lon="-1.36144">
        <ele>30</ele>
        <time>2020-11-29T14:53:19Z</time>
      </trkpt>
      <trkpt lat="47.14947" lon="-1.36074">
        <ele>30</ele>
        <time>2020-11-29T14:53:34Z</time>
      </trkpt>
      <trkpt lat="47.14944" lon="-1.36067">
        <ele>30</ele>
        <time>2020-11-29T14:53:35Z</time>
      </trkpt>
      <trkpt lat="47.14931" lon="-1.36036">
        <ele>33</ele>
        <time>2020-11-29T14:53:42Z</time>
      </trkpt>
      <trkpt lat="47.14913" lon="-1.36001">
        <ele>33</ele>
        <time>2020-11-29T14:53:50Z</time>
      </trkpt>
      <trkpt lat="47.14891" lon="-1.35965">
        <ele>33</ele>
        <time>2020-11-29T14:53:59Z</time>
      </trkpt>
      <trkpt lat="47.14879" lon="-1.35945">
        <ele>33</ele>
        <time>2020-11-29T14:54:03Z</time>
      </trkpt>
      <trkpt lat="47.14873" lon="-1.35935">
        <ele>33</ele>
        <time>2020-11-29T14:54:06Z</time>
      </trkpt>
      <trkpt lat="47.14855" lon="-1.35904">
        <ele>32</ele>
        <time>2020-11-29T14:54:13Z</time>
      </trkpt>
      <trkpt lat="47.14841" lon="-1.3587">
        <ele>32</ele>
        <time>2020-11-29T14:54:20Z</time>
      </trkpt>
      <trkpt lat="47.14829" lon="-1.35829">
        <ele>32</ele>
        <time>2020-11-29T14:54:29Z</time>
      </trkpt>
      <trkpt lat="47.14812" lon="-1.35772">
        <ele>28</ele>
        <time>2020-11-29T14:54:40Z</time>
      </trkpt>
      <trkpt lat="47.14783" lon="-1.35685">
        <ele>28</ele>
        <time>2020-11-29T14:54:57Z</time>
      </trkpt>
      <trkpt lat="47.14751" lon="-1.35593">
        <ele>28</ele>
        <time>2020-11-29T14:55:16Z</time>
      </trkpt>
      <trkpt lat="47.1474" lon="-1.3556">
        <ele>28</ele>
        <time>2020-11-29T14:55:23Z</time>
      </trkpt>
      <trkpt lat="47.1473" lon="-1.35531">
        <ele>28</ele>
        <time>2020-11-29T14:55:29Z</time>
      </trkpt>
      <trkpt lat="47.14723" lon="-1.35514">
        <ele>32</ele>
        <time>2020-11-29T14:55:32Z</time>
      </trkpt>
      <trkpt lat="47.14709" lon="-1.35473">
        <ele>32</ele>
        <time>2020-11-29T14:55:41Z</time>
      </trkpt>
      <trkpt lat="47.14695" lon="-1.35439">
        <ele>32</ele>
        <time>2020-11-29T14:55:48Z</time>
      </trkpt>
      <trkpt lat="47.14684" lon="-1.35413">
        <ele>32</ele>
        <time>2020-11-29T14:55:54Z</time>
      </trkpt>
      <trkpt lat="47.14665" lon="-1.35375">
        <ele>32</ele>
        <time>2020-11-29T14:56:02Z</time>
      </trkpt>
      <trkpt lat="47.14649" lon="-1.35345">
        <ele>32</ele>
        <time>2020-11-29T14:56:09Z</time>
      </trkpt>
      <trkpt lat="47.14643" lon="-1.35333">
        <ele>32</ele>
        <time>2020-11-29T14:56:12Z</time>
      </trkpt>
      <trkpt lat="47.14627" lon="-1.35303">
        <ele>32</ele>
        <time>2020-11-29T14:56:19Z</time>
      </trkpt>
      <trkpt lat="47.14613" lon="-1.35284">
        <ele>32</ele>
        <time>2020-11-29T14:56:24Z</time>
      </trkpt>
      <trkpt lat="47.14608" lon="-1.35279">
        <ele>34</ele>
        <time>2020-11-29T14:56:25Z</time>
      </trkpt>
      <trkpt lat="47.14605" lon="-1.35279">
        <ele>34</ele>
        <time>2020-11-29T14:56:26Z</time>
      </trkpt>
      <trkpt lat="47.14602" lon="-1.35277">
        <ele>34</ele>
        <time>2020-11-29T14:56:27Z</time>
      </trkpt>
      <trkpt lat="47.14599" lon="-1.35273">
        <ele>34</ele>
        <time>2020-11-29T14:56:28Z</time>
      </trkpt>
      <trkpt lat="47.14598" lon="-1.35269">
        <ele>34</ele>
        <time>2020-11-29T14:56:29Z</time>
      </trkpt>
      <trkpt lat="47.14597" lon="-1.35263">
        <ele>34</ele>
        <time>2020-11-29T14:56:30Z</time>
      </trkpt>
      <trkpt lat="47.14598" lon="-1.3526">
        <ele>34</ele>
        <time>2020-11-29T14:56:31Z</time>
      </trkpt>
      <trkpt lat="47.14599" lon="-1.35257">
        <ele>34</ele>
        <time>2020-11-29T14:56:31Z</time>
      </trkpt>
      <trkpt lat="47.14598" lon="-1.35241">
        <ele>34</ele>
        <time>2020-11-29T14:56:34Z</time>
      </trkpt>
      <trkpt lat="47.14596" lon="-1.35225">
        <ele>34</ele>
        <time>2020-11-29T14:56:37Z</time>
      </trkpt>
      <trkpt lat="47.1458" lon="-1.35166">
        <ele>34</ele>
        <time>2020-11-29T14:56:49Z</time>
      </trkpt>
      <trkpt lat="47.14573" lon="-1.35143">
        <ele>35</ele>
        <time>2020-11-29T14:56:53Z</time>
      </trkpt>
      <trkpt lat="47.14547" lon="-1.35069">
        <ele>35</ele>
        <time>2020-11-29T14:57:08Z</time>
      </trkpt>
      <trkpt lat="47.14543" lon="-1.35058">
        <ele>35</ele>
        <time>2020-11-29T14:57:11Z</time>
      </trkpt>
      <trkpt lat="47.14536" lon="-1.3504">
        <ele>35</ele>
        <time>2020-11-29T14:57:14Z</time>
      </trkpt>
      <trkpt lat="47.14529" lon="-1.35024">
        <ele>35</ele>
        <time>2020-11-29T14:57:18Z</time>
      </trkpt>
      <trkpt lat="47.14521" lon="-1.3501">
        <ele>34</ele>
        <time>2020-11-29T14:57:21Z</time>
      </trkpt>
      <trkpt lat="47.1451" lon="-1.34993">
        <ele>34</ele>
        <time>2020-11-29T14:57:25Z</time>
      </trkpt>
      <trkpt lat="47.14502" lon="-1.34982">
        <ele>34</ele>
        <time>2020-11-29T14:57:28Z</time>
      </trkpt>
      <trkpt lat="47.14455" lon="-1.34916">
        <ele>34</ele>
        <time>2020-11-29T14:57:46Z</time>
      </trkpt>
      <trkpt lat="47.1444" lon="-1.3489">
        <ele>35</ele>
        <time>2020-11-29T14:57:52Z</time>
      </trkpt>
      <trkpt lat="47.14403" lon="-1.34811">
        <ele>35</ele>
        <time>2020-11-29T14:58:09Z</time>
      </trkpt>
      <trkpt lat="47.14393" lon="-1.34785">
        <ele>35</ele>
        <time>2020-11-29T14:58:15Z</time>
      </trkpt>
      <trkpt lat="47.14383" lon="-1.34762">
        <ele>35</ele>
        <time>2020-11-29T14:58:20Z</time>
      </trkpt>
      <trkpt lat="47.14377" lon="-1.34753">
        <ele>35</ele>
        <time>2020-11-29T14:58:22Z</time>
      </trkpt>
      <trkpt lat="47.14375" lon="-1.34755">
        <ele>35</ele>
        <time>2020-11-29T14:58:23Z</time>
      </trkpt>
      <trkpt lat="47.14372" lon="-1.34754">
        <ele>35</ele>
        <time>2020-11-29T14:58:24Z</time>
      </trkpt>
      <trkpt lat="47.14369" lon="-1.34752">
        <ele>35</ele>
        <time>2020-11-29T14:58:24Z</time>
      </trkpt>
      <trkpt lat="47.14367" lon="-1.34749">
        <ele>35</ele>
        <time>2020-11-29T14:58:25Z</time>
      </trkpt>
      <trkpt lat="47.14367" lon="-1.34745">
        <ele>35</ele>
        <time>2020-11-29T14:58:26Z</time>
      </trkpt>
      <trkpt lat="47.14367" lon="-1.3474">
        <ele>35</ele>
        <time>2020-11-29T14:58:27Z</time>
      </trkpt>
      <trkpt lat="47.14369" lon="-1.34737">
        <ele>35</ele>
        <time>2020-11-29T14:58:28Z</time>
      </trkpt>
      <trkpt lat="47.14364" lon="-1.34727">
        <ele>35</ele>
        <time>2020-11-29T14:58:30Z</time>
      </trkpt>
      <trkpt lat="47.14343" lon="-1.34686">
        <ele>35</ele>
        <time>2020-11-29T14:58:39Z</time>
      </trkpt>
      <trkpt lat="47.14338" lon="-1.34675">
        <ele>35</ele>
        <time>2020-11-29T14:58:42Z</time>
      </trkpt>
      <trkpt lat="47.14332" lon="-1.34666">
        <ele>32</ele>
        <time>2020-11-29T14:58:44Z</time>
      </trkpt>
      <trkpt lat="47.1431" lon="-1.3462">
        <ele>32</ele>
        <time>2020-11-29T14:58:54Z</time>
      </trkpt>
      <trkpt lat="47.143" lon="-1.34595">
        <ele>32</ele>
        <time>2020-11-29T14:58:59Z</time>
      </trkpt>
      <trkpt lat="47.14271" lon="-1.34507">
        <ele>32</ele>
        <time>2020-11-29T14:59:17Z</time>
      </trkpt>
      <trkpt lat="47.1427" lon="-1.34505">
        <ele>32</ele>
        <time>2020-11-29T14:59:18Z</time>
      </trkpt>
      <trkpt lat="47.14269" lon="-1.345">
        <ele>32</ele>
        <time>2020-11-29T14:59:19Z</time>
      </trkpt>
      <trkpt lat="47.14267" lon="-1.34497">
        <ele>32</ele>
        <time>2020-11-29T14:59:19Z</time>
      </trkpt>
      <trkpt lat="47.14259" lon="-1.34478">
        <ele>32</ele>
        <time>2020-11-29T14:59:23Z</time>
      </trkpt>
      <trkpt lat="47.14254" lon="-1.34458">
        <ele>32</ele>
        <time>2020-11-29T14:59:27Z</time>
      </trkpt>
      <trkpt lat="47.14253" lon="-1.34442">
        <ele>32</ele>
        <time>2020-11-29T14:59:30Z</time>
      </trkpt>
      <trkpt lat="47.14253" lon="-1.34428">
        <ele>32</ele>
        <time>2020-11-29T14:59:33Z</time>
      </trkpt>
      <trkpt lat="47.14253" lon="-1.3441">
        <ele>32</ele>
        <time>2020-11-29T14:59:36Z</time>
      </trkpt>
      <trkpt lat="47.14253" lon="-1.34408">
        <ele>32</ele>
        <time>2020-11-29T14:59:36Z</time>
      </trkpt>
      <trkpt lat="47.14254" lon="-1.344">
        <ele>32</ele>
        <time>2020-11-29T14:59:38Z</time>
      </trkpt>
      <trkpt lat="47.14255" lon="-1.34377">
        <ele>31</ele>
        <time>2020-11-29T14:59:42Z</time>
      </trkpt>
      <trkpt lat="47.14254" lon="-1.34358">
        <ele>31</ele>
        <time>2020-11-29T14:59:45Z</time>
      </trkpt>
      <trkpt lat="47.1425" lon="-1.34344">
        <ele>31</ele>
        <time>2020-11-29T14:59:48Z</time>
      </trkpt>
      <trkpt lat="47.14247" lon="-1.34332">
        <ele>31</ele>
        <time>2020-11-29T14:59:51Z</time>
      </trkpt>
      <trkpt lat="47.14239" lon="-1.34308">
        <ele>31</ele>
        <time>2020-11-29T14:59:55Z</time>
      </trkpt>
      <trkpt lat="47.14228" lon="-1.34287">
        <ele>31</ele>
        <time>2020-11-29T15:00:00Z</time>
      </trkpt>
      <trkpt lat="47.14212" lon="-1.34267">
        <ele>31</ele>
        <time>2020-11-29T15:00:06Z</time>
      </trkpt>
      <trkpt lat="47.14192" lon="-1.34242">
        <ele>30</ele>
        <time>2020-11-29T15:00:13Z</time>
      </trkpt>
      <trkpt lat="47.14187" lon="-1.34232">
        <ele>30</ele>
        <time>2020-11-29T15:00:15Z</time>
      </trkpt>
      <trkpt lat="47.14185" lon="-1.34225">
        <ele>30</ele>
        <time>2020-11-29T15:00:16Z</time>
      </trkpt>
      <trkpt lat="47.14182" lon="-1.34216">
        <ele>30</ele>
        <time>2020-11-29T15:00:18Z</time>
      </trkpt>
      <trkpt lat="47.14153" lon="-1.3409">
        <ele>29</ele>
        <time>2020-11-29T15:00:42Z</time>
      </trkpt>
      <trkpt lat="47.14151" lon="-1.34084">
        <ele>29</ele>
        <time>2020-11-29T15:00:44Z</time>
      </trkpt>
      <trkpt lat="47.14138" lon="-1.34057">
        <ele>29</ele>
        <time>2020-11-29T15:00:50Z</time>
      </trkpt>
      <trkpt lat="47.1413" lon="-1.34036">
        <ele>29</ele>
        <time>2020-11-29T15:00:54Z</time>
      </trkpt>
      <trkpt lat="47.1412" lon="-1.34022">
        <ele>29</ele>
        <time>2020-11-29T15:00:58Z</time>
      </trkpt>
      <trkpt lat="47.14112" lon="-1.34009">
        <ele>29</ele>
        <time>2020-11-29T15:01:01Z</time>
      </trkpt>
      <trkpt lat="47.14084" lon="-1.33956">
        <ele>28</ele>
        <time>2020-11-29T15:01:13Z</time>
      </trkpt>
      <trkpt lat="47.14059" lon="-1.33908">
        <ele>29</ele>
        <time>2020-11-29T15:01:24Z</time>
      </trkpt>
      <trkpt lat="47.1405" lon="-1.33888">
        <ele>29</ele>
        <time>2020-11-29T15:01:28Z</time>
      </trkpt>
      <trkpt lat="47.14048" lon="-1.33874">
        <ele>29</ele>
        <time>2020-11-29T15:01:31Z</time>
      </trkpt>
      <trkpt lat="47.1404" lon="-1.33867">
        <ele>29</ele>
        <time>2020-11-29T15:01:34Z</time>
      </trkpt>
      <trkpt lat="47.14029" lon="-1.33873">
        <ele>29</ele>
        <time>2020-11-29T15:01:37Z</time>
      </trkpt>
      <trkpt lat="47.14012" lon="-1.33892">
        <ele>30</ele>
        <time>2020-11-29T15:01:42Z</time>
      </trkpt>
      <trkpt lat="47.13993" lon="-1.33904">
        <ele>30</ele>
        <time>2020-11-29T15:01:48Z</time>
      </trkpt>
      <trkpt lat="47.14012" lon="-1.33892">
        <ele>30</ele>
        <time>2020-11-29T15:01:53Z</time>
      </trkpt>
      <trkpt lat="47.14021" lon="-1.33882">
        <ele>30</ele>
        <time>2020-11-29T15:01:56Z</time>
      </trkpt>
      <trkpt lat="47.14029" lon="-1.33873">
        <ele>30</ele>
        <time>2020-11-29T15:01:59Z</time>
      </trkpt>
      <trkpt lat="47.1404" lon="-1.33867">
        <ele>30</ele>
        <time>2020-11-29T15:02:02Z</time>
      </trkpt>
      <trkpt lat="47.14048" lon="-1.33874">
        <ele>30</ele>
        <time>2020-11-29T15:02:05Z</time>
      </trkpt>
      <trkpt lat="47.1405" lon="-1.33888">
        <ele>30</ele>
        <time>2020-11-29T15:02:07Z</time>
      </trkpt>
      <trkpt lat="47.14059" lon="-1.33908">
        <ele>32</ele>
        <time>2020-11-29T15:02:12Z</time>
      </trkpt>
      <trkpt lat="47.14084" lon="-1.33956">
        <ele>32</ele>
        <time>2020-11-29T15:02:23Z</time>
      </trkpt>
      <trkpt lat="47.14112" lon="-1.34009">
        <ele>32</ele>
        <time>2020-11-29T15:02:35Z</time>
      </trkpt>
      <trkpt lat="47.1412" lon="-1.34022">
        <ele>33</ele>
        <time>2020-11-29T15:02:38Z</time>
      </trkpt>
      <trkpt lat="47.1413" lon="-1.34036">
        <ele>33</ele>
        <time>2020-11-29T15:02:42Z</time>
      </trkpt>
      <trkpt lat="47.14142" lon="-1.3402">
        <ele>33</ele>
        <time>2020-11-29T15:02:46Z</time>
      </trkpt>
      <trkpt lat="47.14159" lon="-1.34003">
        <ele>33</ele>
        <time>2020-11-29T15:02:52Z</time>
      </trkpt>
      <trkpt lat="47.14184" lon="-1.33972">
        <ele>33</ele>
        <time>2020-11-29T15:03:00Z</time>
      </trkpt>
      <trkpt lat="47.14197" lon="-1.33954">
        <ele>33</ele>
        <time>2020-11-29T15:03:05Z</time>
      </trkpt>
      <trkpt lat="47.14216" lon="-1.33931">
        <ele>33</ele>
        <time>2020-11-29T15:03:12Z</time>
      </trkpt>
      <trkpt lat="47.14246" lon="-1.33895">
        <ele>33</ele>
        <time>2020-11-29T15:03:22Z</time>
      </trkpt>
      <trkpt lat="47.14276" lon="-1.33858">
        <ele>33</ele>
        <time>2020-11-29T15:03:33Z</time>
      </trkpt>
      <trkpt lat="47.14296" lon="-1.33835">
        <ele>33</ele>
        <time>2020-11-29T15:03:39Z</time>
      </trkpt>
      <trkpt lat="47.14317" lon="-1.3381">
        <ele>33</ele>
        <time>2020-11-29T15:03:47Z</time>
      </trkpt>
      <trkpt lat="47.14336" lon="-1.33786">
        <ele>33</ele>
        <time>2020-11-29T15:03:53Z</time>
      </trkpt>
      <trkpt lat="47.14355" lon="-1.33761">
        <ele>36</ele>
        <time>2020-11-29T15:04:00Z</time>
      </trkpt>
      <trkpt lat="47.14361" lon="-1.33754">
        <ele>36</ele>
        <time>2020-11-29T15:04:02Z</time>
      </trkpt>
      <trkpt lat="47.1436" lon="-1.33752">
        <ele>36</ele>
        <time>2020-11-29T15:04:03Z</time>
      </trkpt>
      <trkpt lat="47.1436" lon="-1.33749">
        <ele>36</ele>
        <time>2020-11-29T15:04:03Z</time>
      </trkpt>
      <trkpt lat="47.14361" lon="-1.33747">
        <ele>36</ele>
        <time>2020-11-29T15:04:04Z</time>
      </trkpt>
      <trkpt lat="47.14362" lon="-1.33745">
        <ele>36</ele>
        <time>2020-11-29T15:04:04Z</time>
      </trkpt>
      <trkpt lat="47.14364" lon="-1.33744">
        <ele>36</ele>
        <time>2020-11-29T15:04:05Z</time>
      </trkpt>
      <trkpt lat="47.14366" lon="-1.33745">
        <ele>36</ele>
        <time>2020-11-29T15:04:05Z</time>
      </trkpt>
      <trkpt lat="47.14372" lon="-1.33734">
        <ele>36</ele>
        <time>2020-11-29T15:04:08Z</time>
      </trkpt>
      <trkpt lat="47.14377" lon="-1.33724">
        <ele>36</ele>
        <time>2020-11-29T15:04:10Z</time>
      </trkpt>
      <trkpt lat="47.14382" lon="-1.33713">
        <ele>36</ele>
        <time>2020-11-29T15:04:12Z</time>
      </trkpt>
      <trkpt lat="47.14387" lon="-1.33701">
        <ele>36</ele>
        <time>2020-11-29T15:04:15Z</time>
      </trkpt>
      <trkpt lat="47.1439" lon="-1.33691">
        <ele>36</ele>
        <time>2020-11-29T15:04:17Z</time>
      </trkpt>
      <trkpt lat="47.14393" lon="-1.33677">
        <ele>36</ele>
        <time>2020-11-29T15:04:20Z</time>
      </trkpt>
      <trkpt lat="47.14397" lon="-1.33664">
        <ele>36</ele>
        <time>2020-11-29T15:04:22Z</time>
      </trkpt>
      <trkpt lat="47.14402" lon="-1.33642">
        <ele>37</ele>
        <time>2020-11-29T15:04:26Z</time>
      </trkpt>
      <trkpt lat="47.14408" lon="-1.33612">
        <ele>37</ele>
        <time>2020-11-29T15:04:32Z</time>
      </trkpt>
      <trkpt lat="47.14434" lon="-1.33487">
        <ele>36</ele>
        <time>2020-11-29T15:04:56Z</time>
      </trkpt>
      <trkpt lat="47.14442" lon="-1.33447">
        <ele>36</ele>
        <time>2020-11-29T15:05:03Z</time>
      </trkpt>
      <trkpt lat="47.1446" lon="-1.33359">
        <ele>36</ele>
        <time>2020-11-29T15:05:20Z</time>
      </trkpt>
      <trkpt lat="47.14466" lon="-1.33329">
        <ele>37</ele>
        <time>2020-11-29T15:05:26Z</time>
      </trkpt>
      <trkpt lat="47.14474" lon="-1.33299">
        <ele>37</ele>
        <time>2020-11-29T15:05:32Z</time>
      </trkpt>
      <trkpt lat="47.14483" lon="-1.33264">
        <ele>37</ele>
        <time>2020-11-29T15:05:38Z</time>
      </trkpt>
      <trkpt lat="47.14496" lon="-1.33214">
        <ele>37</ele>
        <time>2020-11-29T15:05:48Z</time>
      </trkpt>
      <trkpt lat="47.14505" lon="-1.33179">
        <ele>36</ele>
        <time>2020-11-29T15:05:55Z</time>
      </trkpt>
      <trkpt lat="47.14507" lon="-1.33168">
        <ele>36</ele>
        <time>2020-11-29T15:05:57Z</time>
      </trkpt>
      <trkpt lat="47.14509" lon="-1.33157">
        <ele>36</ele>
        <time>2020-11-29T15:05:59Z</time>
      </trkpt>
      <trkpt lat="47.14512" lon="-1.33136">
        <ele>36</ele>
        <time>2020-11-29T15:06:03Z</time>
      </trkpt>
      <trkpt lat="47.14513" lon="-1.3312">
        <ele>36</ele>
        <time>2020-11-29T15:06:06Z</time>
      </trkpt>
      <trkpt lat="47.14514" lon="-1.33104">
        <ele>36</ele>
        <time>2020-11-29T15:06:09Z</time>
      </trkpt>
      <trkpt lat="47.14515" lon="-1.33082">
        <ele>36</ele>
        <time>2020-11-29T15:06:13Z</time>
      </trkpt>
      <trkpt lat="47.14516" lon="-1.33059">
        <ele>33</ele>
        <time>2020-11-29T15:06:17Z</time>
      </trkpt>
      <trkpt lat="47.14516" lon="-1.33044">
        <ele>33</ele>
        <time>2020-11-29T15:06:20Z</time>
      </trkpt>
      <trkpt lat="47.14516" lon="-1.3303">
        <ele>33</ele>
        <time>2020-11-29T15:06:22Z</time>
      </trkpt>
      <trkpt lat="47.14514" lon="-1.33014">
        <ele>33</ele>
        <time>2020-11-29T15:06:25Z</time>
      </trkpt>
      <trkpt lat="47.14512" lon="-1.32995">
        <ele>33</ele>
        <time>2020-11-29T15:06:29Z</time>
      </trkpt>
      <trkpt lat="47.14506" lon="-1.32951">
        <ele>33</ele>
        <time>2020-11-29T15:06:37Z</time>
      </trkpt>
      <trkpt lat="47.14498" lon="-1.32898">
        <ele>30</ele>
        <time>2020-11-29T15:06:47Z</time>
      </trkpt>
      <trkpt lat="47.14488" lon="-1.32836">
        <ele>30</ele>
        <time>2020-11-29T15:06:58Z</time>
      </trkpt>
      <trkpt lat="47.14469" lon="-1.3271">
        <ele>32</ele>
        <time>2020-11-29T15:07:22Z</time>
      </trkpt>
      <trkpt lat="47.14452" lon="-1.32613">
        <ele>35</ele>
        <time>2020-11-29T15:07:40Z</time>
      </trkpt>
      <trkpt lat="47.14448" lon="-1.32588">
        <ele>35</ele>
        <time>2020-11-29T15:07:45Z</time>
      </trkpt>
      <trkpt lat="47.1445" lon="-1.32573">
        <ele>35</ele>
        <time>2020-11-29T15:07:47Z</time>
      </trkpt>
      <trkpt lat="47.14452" lon="-1.32564">
        <ele>35</ele>
        <time>2020-11-29T15:07:49Z</time>
      </trkpt>
      <trkpt lat="47.14541" lon="-1.32593">
        <ele>37</ele>
        <time>2020-11-29T15:08:13Z</time>
      </trkpt>
      <trkpt lat="47.14614" lon="-1.32637">
        <ele>36</ele>
        <time>2020-11-29T15:08:35Z</time>
      </trkpt>
      <trkpt lat="47.14673" lon="-1.3267">
        <ele>36</ele>
        <time>2020-11-29T15:08:51Z</time>
      </trkpt>
      <trkpt lat="47.14747" lon="-1.32698">
        <ele>37</ele>
        <time>2020-11-29T15:09:12Z</time>
      </trkpt>
      <trkpt lat="47.14756" lon="-1.327">
        <ele>37</ele>
        <time>2020-11-29T15:09:14Z</time>
      </trkpt>
      <trkpt lat="47.14804" lon="-1.32695">
        <ele>38</ele>
        <time>2020-11-29T15:09:27Z</time>
      </trkpt>
      <trkpt lat="47.14826" lon="-1.32683">
        <ele>38</ele>
        <time>2020-11-29T15:09:33Z</time>
      </trkpt>
      <trkpt lat="47.14843" lon="-1.32669">
        <ele>38</ele>
        <time>2020-11-29T15:09:39Z</time>
      </trkpt>
      <trkpt lat="47.14881" lon="-1.32623">
        <ele>38</ele>
        <time>2020-11-29T15:09:52Z</time>
      </trkpt>
      <trkpt lat="47.14958" lon="-1.32527">
        <ele>37</ele>
        <time>2020-11-29T15:10:19Z</time>
      </trkpt>
      <trkpt lat="47.14999" lon="-1.32471">
        <ele>37</ele>
        <time>2020-11-29T15:10:34Z</time>
      </trkpt>
      <trkpt lat="47.15027" lon="-1.32429">
        <ele>35</ele>
        <time>2020-11-29T15:10:44Z</time>
      </trkpt>
      <trkpt lat="47.15073" lon="-1.32375">
        <ele>35</ele>
        <time>2020-11-29T15:11:00Z</time>
      </trkpt>
      <trkpt lat="47.15119" lon="-1.32326">
        <ele>36</ele>
        <time>2020-11-29T15:11:15Z</time>
      </trkpt>
      <trkpt lat="47.15154" lon="-1.32287">
        <ele>36</ele>
        <time>2020-11-29T15:11:27Z</time>
      </trkpt>
      <trkpt lat="47.15176" lon="-1.32265">
        <ele>36</ele>
        <time>2020-11-29T15:11:34Z</time>
      </trkpt>
      <trkpt lat="47.15184" lon="-1.32258">
        <ele>36</ele>
        <time>2020-11-29T15:11:37Z</time>
      </trkpt>
      <trkpt lat="47.15191" lon="-1.32252">
        <ele>36</ele>
        <time>2020-11-29T15:11:39Z</time>
      </trkpt>
      <trkpt lat="47.15209" lon="-1.3224">
        <ele>35</ele>
        <time>2020-11-29T15:11:44Z</time>
      </trkpt>
      <trkpt lat="47.15229" lon="-1.3223">
        <ele>35</ele>
        <time>2020-11-29T15:11:50Z</time>
      </trkpt>
      <trkpt lat="47.15246" lon="-1.32222">
        <ele>35</ele>
        <time>2020-11-29T15:11:54Z</time>
      </trkpt>
      <trkpt lat="47.15279" lon="-1.32208">
        <ele>35</ele>
        <time>2020-11-29T15:12:04Z</time>
      </trkpt>
      <trkpt lat="47.15309" lon="-1.32197">
        <ele>35</ele>
        <time>2020-11-29T15:12:12Z</time>
      </trkpt>
      <trkpt lat="47.1535" lon="-1.32187">
        <ele>35</ele>
        <time>2020-11-29T15:12:23Z</time>
      </trkpt>
      <trkpt lat="47.15399" lon="-1.32175">
        <ele>34</ele>
        <time>2020-11-29T15:12:36Z</time>
      </trkpt>
      <trkpt lat="47.15431" lon="-1.32165">
        <ele>34</ele>
        <time>2020-11-29T15:12:45Z</time>
      </trkpt>
      <trkpt lat="47.15453" lon="-1.32157">
        <ele>34</ele>
        <time>2020-11-29T15:12:51Z</time>
      </trkpt>
      <trkpt lat="47.15468" lon="-1.32149">
        <ele>34</ele>
        <time>2020-11-29T15:12:55Z</time>
      </trkpt>
      <trkpt lat="47.15464" lon="-1.3212">
        <ele>33</ele>
        <time>2020-11-29T15:13:01Z</time>
      </trkpt>
      <trkpt lat="47.15447" lon="-1.32003">
        <ele>33</ele>
        <time>2020-11-29T15:13:22Z</time>
      </trkpt>
      <trkpt lat="47.15445" lon="-1.31972">
        <ele>33</ele>
        <time>2020-11-29T15:13:28Z</time>
      </trkpt>
      <trkpt lat="47.15443" lon="-1.31919">
        <ele>33</ele>
        <time>2020-11-29T15:13:38Z</time>
      </trkpt>
      <trkpt lat="47.15444" lon="-1.31879">
        <ele>33</ele>
        <time>2020-11-29T15:13:45Z</time>
      </trkpt>
      <trkpt lat="47.15446" lon="-1.31826">
        <ele>36</ele>
        <time>2020-11-29T15:13:55Z</time>
      </trkpt>
      <trkpt lat="47.15449" lon="-1.31738">
        <ele>36</ele>
        <time>2020-11-29T15:14:11Z</time>
      </trkpt>
      <trkpt lat="47.15452" lon="-1.31705">
        <ele>35</ele>
        <time>2020-11-29T15:14:17Z</time>
      </trkpt>
      <trkpt lat="47.15455" lon="-1.3169">
        <ele>35</ele>
        <time>2020-11-29T15:14:20Z</time>
      </trkpt>
      <trkpt lat="47.15457" lon="-1.31685">
        <ele>35</ele>
        <time>2020-11-29T15:14:21Z</time>
      </trkpt>
      <trkpt lat="47.15461" lon="-1.31693">
        <ele>35</ele>
        <time>2020-11-29T15:14:22Z</time>
      </trkpt>
      <trkpt lat="47.15467" lon="-1.31705">
        <ele>35</ele>
        <time>2020-11-29T15:14:25Z</time>
      </trkpt>
      <trkpt lat="47.1548" lon="-1.31726">
        <ele>35</ele>
        <time>2020-11-29T15:14:30Z</time>
      </trkpt>
      <trkpt lat="47.15493" lon="-1.31744">
        <ele>35</ele>
        <time>2020-11-29T15:14:35Z</time>
      </trkpt>
      <trkpt lat="47.15505" lon="-1.31759">
        <ele>35</ele>
        <time>2020-11-29T15:14:39Z</time>
      </trkpt>
      <trkpt lat="47.15516" lon="-1.31772">
        <ele>33</ele>
        <time>2020-11-29T15:14:43Z</time>
      </trkpt>
      <trkpt lat="47.15528" lon="-1.31784">
        <ele>33</ele>
        <time>2020-11-29T15:14:47Z</time>
      </trkpt>
      <trkpt lat="47.1554" lon="-1.31795">
        <ele>33</ele>
        <time>2020-11-29T15:14:51Z</time>
      </trkpt>
      <trkpt lat="47.15552" lon="-1.31806">
        <ele>33</ele>
        <time>2020-11-29T15:14:54Z</time>
      </trkpt>
      <trkpt lat="47.15589" lon="-1.31832">
        <ele>33</ele>
        <time>2020-11-29T15:15:05Z</time>
      </trkpt>
      <trkpt lat="47.15634" lon="-1.31863">
        <ele>33</ele>
        <time>2020-11-29T15:15:19Z</time>
      </trkpt>
      <trkpt lat="47.15678" lon="-1.31892">
        <ele>33</ele>
        <time>2020-11-29T15:15:32Z</time>
      </trkpt>
      <trkpt lat="47.15701" lon="-1.31909">
        <ele>33</ele>
        <time>2020-11-29T15:15:38Z</time>
      </trkpt>
      <trkpt lat="47.15749" lon="-1.31943">
        <ele>33</ele>
        <time>2020-11-29T15:15:53Z</time>
      </trkpt>
      <trkpt lat="47.1577" lon="-1.31952">
        <ele>33</ele>
        <time>2020-11-29T15:15:59Z</time>
      </trkpt>
      <trkpt lat="47.15775" lon="-1.31954">
        <ele>33</ele>
        <time>2020-11-29T15:16:00Z</time>
      </trkpt>
      <trkpt lat="47.1578" lon="-1.31956">
        <ele>33</ele>
        <time>2020-11-29T15:16:01Z</time>
      </trkpt>
      <trkpt lat="47.15798" lon="-1.31961">
        <ele>33</ele>
        <time>2020-11-29T15:16:06Z</time>
      </trkpt>
      <trkpt lat="47.15825" lon="-1.31966">
        <ele>33</ele>
        <time>2020-11-29T15:16:13Z</time>
      </trkpt>
      <trkpt lat="47.15858" lon="-1.31972">
        <ele>33</ele>
        <time>2020-11-29T15:16:22Z</time>
      </trkpt>
      <trkpt lat="47.1589" lon="-1.31977">
        <ele>32</ele>
        <time>2020-11-29T15:16:31Z</time>
      </trkpt>
      <trkpt lat="47.15917" lon="-1.31981">
        <ele>32</ele>
        <time>2020-11-29T15:16:38Z</time>
      </trkpt>
      <trkpt lat="47.15939" lon="-1.31984">
        <ele>32</ele>
        <time>2020-11-29T15:16:44Z</time>
      </trkpt>
      <trkpt lat="47.1596" lon="-1.31986">
        <ele>32</ele>
        <time>2020-11-29T15:16:50Z</time>
      </trkpt>
      <trkpt lat="47.15971" lon="-1.31985">
        <ele>32</ele>
        <time>2020-11-29T15:16:53Z</time>
      </trkpt>
      <trkpt lat="47.15984" lon="-1.31984">
        <ele>32</ele>
        <time>2020-11-29T15:16:56Z</time>
      </trkpt>
      <trkpt lat="47.15999" lon="-1.31982">
        <ele>29</ele>
        <time>2020-11-29T15:17:00Z</time>
      </trkpt>
      <trkpt lat="47.16014" lon="-1.31981">
        <ele>29</ele>
        <time>2020-11-29T15:17:04Z</time>
      </trkpt>
      <trkpt lat="47.16029" lon="-1.31981">
        <ele>29</ele>
        <time>2020-11-29T15:17:08Z</time>
      </trkpt>
      <trkpt lat="47.16045" lon="-1.31979">
        <ele>29</ele>
        <time>2020-11-29T15:17:12Z</time>
      </trkpt>
      <trkpt lat="47.16053" lon="-1.31978">
        <ele>29</ele>
        <time>2020-11-29T15:17:15Z</time>
      </trkpt>
      <trkpt lat="47.16071" lon="-1.31981">
        <ele>29</ele>
        <time>2020-11-29T15:17:19Z</time>
      </trkpt>
      <trkpt lat="47.16075" lon="-1.31982">
        <ele>29</ele>
        <time>2020-11-29T15:17:21Z</time>
      </trkpt>
      <trkpt lat="47.16085" lon="-1.31987">
        <ele>29</ele>
        <time>2020-11-29T15:17:23Z</time>
      </trkpt>
      <trkpt lat="47.16094" lon="-1.31994">
        <ele>28</ele>
        <time>2020-11-29T15:17:26Z</time>
      </trkpt>
      <trkpt lat="47.16104" lon="-1.32008">
        <ele>28</ele>
        <time>2020-11-29T15:17:30Z</time>
      </trkpt>
      <trkpt lat="47.16115" lon="-1.32021">
        <ele>28</ele>
        <time>2020-11-29T15:17:34Z</time>
      </trkpt>
      <trkpt lat="47.16128" lon="-1.32038">
        <ele>28</ele>
        <time>2020-11-29T15:17:38Z</time>
      </trkpt>
      <trkpt lat="47.16142" lon="-1.32059">
        <ele>28</ele>
        <time>2020-11-29T15:17:44Z</time>
      </trkpt>
      <trkpt lat="47.16156" lon="-1.32082">
        <ele>28</ele>
        <time>2020-11-29T15:17:49Z</time>
      </trkpt>
      <trkpt lat="47.16171" lon="-1.32108">
        <ele>28</ele>
        <time>2020-11-29T15:17:55Z</time>
      </trkpt>
      <trkpt lat="47.16179" lon="-1.32122">
        <ele>28</ele>
        <time>2020-11-29T15:17:59Z</time>
      </trkpt>
      <trkpt lat="47.16191" lon="-1.32149">
        <ele>28</ele>
        <time>2020-11-29T15:18:05Z</time>
      </trkpt>
      <trkpt lat="47.16207" lon="-1.3219">
        <ele>28</ele>
        <time>2020-11-29T15:18:13Z</time>
      </trkpt>
      <trkpt lat="47.16214" lon="-1.32217">
        <ele>27</ele>
        <time>2020-11-29T15:18:18Z</time>
      </trkpt>
      <trkpt lat="47.16226" lon="-1.32263">
        <ele>27</ele>
        <time>2020-11-29T15:18:27Z</time>
      </trkpt>
      <trkpt lat="47.16233" lon="-1.32285">
        <ele>27</ele>
        <time>2020-11-29T15:18:32Z</time>
      </trkpt>
      <trkpt lat="47.16242" lon="-1.32304">
        <ele>27</ele>
        <time>2020-11-29T15:18:36Z</time>
      </trkpt>
      <trkpt lat="47.16248" lon="-1.32314">
        <ele>27</ele>
        <time>2020-11-29T15:18:38Z</time>
      </trkpt>
      <trkpt lat="47.16263" lon="-1.32327">
        <ele>27</ele>
        <time>2020-11-29T15:18:43Z</time>
      </trkpt>
      <trkpt lat="47.16281" lon="-1.32338">
        <ele>29</ele>
        <time>2020-11-29T15:18:48Z</time>
      </trkpt>
      <trkpt lat="47.16303" lon="-1.32348">
        <ele>29</ele>
        <time>2020-11-29T15:18:54Z</time>
      </trkpt>
      <trkpt lat="47.16306" lon="-1.32349">
        <ele>29</ele>
        <time>2020-11-29T15:18:55Z</time>
      </trkpt>
      <trkpt lat="47.16321" lon="-1.32354">
        <ele>29</ele>
        <time>2020-11-29T15:18:59Z</time>
      </trkpt>
      <trkpt lat="47.16358" lon="-1.32361">
        <ele>29</ele>
        <time>2020-11-29T15:19:09Z</time>
      </trkpt>
      <trkpt lat="47.16411" lon="-1.32371">
        <ele>30</ele>
        <time>2020-11-29T15:19:24Z</time>
      </trkpt>
      <trkpt lat="47.1647" lon="-1.32381">
        <ele>30</ele>
        <time>2020-11-29T15:19:39Z</time>
      </trkpt>
      <trkpt lat="47.16531" lon="-1.32391">
        <ele>28</ele>
        <time>2020-11-29T15:19:56Z</time>
      </trkpt>
      <trkpt lat="47.16539" lon="-1.32392">
        <ele>28</ele>
        <time>2020-11-29T15:19:58Z</time>
      </trkpt>
      <trkpt lat="47.16548" lon="-1.32393">
        <ele>28</ele>
        <time>2020-11-29T15:20:00Z</time>
      </trkpt>
      <trkpt lat="47.16572" lon="-1.3239">
        <ele>28</ele>
        <time>2020-11-29T15:20:07Z</time>
      </trkpt>
      <trkpt lat="47.16594" lon="-1.32387">
        <ele>28</ele>
        <time>2020-11-29T15:20:13Z</time>
      </trkpt>
      <trkpt lat="47.16608" lon="-1.32385">
        <ele>28</ele>
        <time>2020-11-29T15:20:16Z</time>
      </trkpt>
      <trkpt lat="47.16621" lon="-1.32385">
        <ele>28</ele>
        <time>2020-11-29T15:20:20Z</time>
      </trkpt>
      <trkpt lat="47.16639" lon="-1.32388">
        <ele>28</ele>
        <time>2020-11-29T15:20:25Z</time>
      </trkpt>
      <trkpt lat="47.16655" lon="-1.32394">
        <ele>28</ele>
        <time>2020-11-29T15:20:29Z</time>
      </trkpt>
      <trkpt lat="47.16678" lon="-1.32406">
        <ele>28</ele>
        <time>2020-11-29T15:20:36Z</time>
      </trkpt>
      <trkpt lat="47.16683" lon="-1.32409">
        <ele>27</ele>
        <time>2020-11-29T15:20:37Z</time>
      </trkpt>
      <trkpt lat="47.16692" lon="-1.32413">
        <ele>27</ele>
        <time>2020-11-29T15:20:40Z</time>
      </trkpt>
      <trkpt lat="47.16706" lon="-1.32421">
        <ele>27</ele>
        <time>2020-11-29T15:20:44Z</time>
      </trkpt>
      <trkpt lat="47.16725" lon="-1.3243">
        <ele>27</ele>
        <time>2020-11-29T15:20:49Z</time>
      </trkpt>
      <trkpt lat="47.16738" lon="-1.32435">
        <ele>27</ele>
        <time>2020-11-29T15:20:53Z</time>
      </trkpt>
      <trkpt lat="47.1675" lon="-1.32439">
        <ele>27</ele>
        <time>2020-11-29T15:20:56Z</time>
      </trkpt>
      <trkpt lat="47.16762" lon="-1.32442">
        <ele>27</ele>
        <time>2020-11-29T15:20:59Z</time>
      </trkpt>
      <trkpt lat="47.16777" lon="-1.32443">
        <ele>27</ele>
        <time>2020-11-29T15:21:03Z</time>
      </trkpt>
      <trkpt lat="47.16792" lon="-1.32444">
        <ele>25</ele>
        <time>2020-11-29T15:21:07Z</time>
      </trkpt>
      <trkpt lat="47.16808" lon="-1.32445">
        <ele>25</ele>
        <time>2020-11-29T15:21:11Z</time>
      </trkpt>
      <trkpt lat="47.16822" lon="-1.32448">
        <ele>25</ele>
        <time>2020-11-29T15:21:15Z</time>
      </trkpt>
      <trkpt lat="47.16833" lon="-1.32454">
        <ele>25</ele>
        <time>2020-11-29T15:21:18Z</time>
      </trkpt>
      <trkpt lat="47.16836" lon="-1.32456">
        <ele>25</ele>
        <time>2020-11-29T15:21:19Z</time>
      </trkpt>
      <trkpt lat="47.16845" lon="-1.32464">
        <ele>25</ele>
        <time>2020-11-29T15:21:22Z</time>
      </trkpt>
      <trkpt lat="47.16858" lon="-1.32477">
        <ele>25</ele>
        <time>2020-11-29T15:21:26Z</time>
      </trkpt>
      <trkpt lat="47.16871" lon="-1.32494">
        <ele>25</ele>
        <time>2020-11-29T15:21:31Z</time>
      </trkpt>
      <trkpt lat="47.16889" lon="-1.32517">
        <ele>24</ele>
        <time>2020-11-29T15:21:37Z</time>
      </trkpt>
      <trkpt lat="47.16906" lon="-1.32537">
        <ele>24</ele>
        <time>2020-11-29T15:21:43Z</time>
      </trkpt>
      <trkpt lat="47.16935" lon="-1.32574">
        <ele>24</ele>
        <time>2020-11-29T15:21:53Z</time>
      </trkpt>
      <trkpt lat="47.16954" lon="-1.32598">
        <ele>23</ele>
        <time>2020-11-29T15:22:00Z</time>
      </trkpt>
      <trkpt lat="47.16969" lon="-1.32615">
        <ele>23</ele>
        <time>2020-11-29T15:22:05Z</time>
      </trkpt>
      <trkpt lat="47.16984" lon="-1.32631">
        <ele>23</ele>
        <time>2020-11-29T15:22:10Z</time>
      </trkpt>
      <trkpt lat="47.16994" lon="-1.32642">
        <ele>23</ele>
        <time>2020-11-29T15:22:13Z</time>
      </trkpt>
      <trkpt lat="47.17016" lon="-1.3266">
        <ele>23</ele>
        <time>2020-11-29T15:22:20Z</time>
      </trkpt>
      <trkpt lat="47.17032" lon="-1.32673">
        <ele>23</ele>
        <time>2020-11-29T15:22:25Z</time>
      </trkpt>
      <trkpt lat="47.17053" lon="-1.32692">
        <ele>23</ele>
        <time>2020-11-29T15:22:32Z</time>
      </trkpt>
      <trkpt lat="47.17072" lon="-1.32707">
        <ele>23</ele>
        <time>2020-11-29T15:22:37Z</time>
      </trkpt>
      <trkpt lat="47.17085" lon="-1.32718">
        <ele>23</ele>
        <time>2020-11-29T15:22:41Z</time>
      </trkpt>
      <trkpt lat="47.17093" lon="-1.32728">
        <ele>23</ele>
        <time>2020-11-29T15:22:44Z</time>
      </trkpt>
      <trkpt lat="47.17103" lon="-1.32743">
        <ele>23</ele>
        <time>2020-11-29T15:22:48Z</time>
      </trkpt>
      <trkpt lat="47.17111" lon="-1.32759">
        <ele>23</ele>
        <time>2020-11-29T15:22:52Z</time>
      </trkpt>
      <trkpt lat="47.17135" lon="-1.32813">
        <ele>23</ele>
        <time>2020-11-29T15:23:03Z</time>
      </trkpt>
      <trkpt lat="47.17146" lon="-1.32837">
        <ele>23</ele>
        <time>2020-11-29T15:23:09Z</time>
      </trkpt>
      <trkpt lat="47.17155" lon="-1.32856">
        <ele>23</ele>
        <time>2020-11-29T15:23:13Z</time>
      </trkpt>
      <trkpt lat="47.17166" lon="-1.32873">
        <ele>23</ele>
        <time>2020-11-29T15:23:17Z</time>
      </trkpt>
      <trkpt lat="47.17177" lon="-1.32885">
        <ele>23</ele>
        <time>2020-11-29T15:23:21Z</time>
      </trkpt>
      <trkpt lat="47.17188" lon="-1.32892">
        <ele>17</ele>
        <time>2020-11-29T15:23:24Z</time>
      </trkpt>
      <trkpt lat="47.17199" lon="-1.32899">
        <ele>17</ele>
        <time>2020-11-29T15:23:27Z</time>
      </trkpt>
      <trkpt lat="47.17209" lon="-1.32902">
        <ele>17</ele>
        <time>2020-11-29T15:23:30Z</time>
      </trkpt>
      <trkpt lat="47.17219" lon="-1.32903">
        <ele>17</ele>
        <time>2020-11-29T15:23:32Z</time>
      </trkpt>
      <trkpt lat="47.17238" lon="-1.32904">
        <ele>17</ele>
        <time>2020-11-29T15:23:38Z</time>
      </trkpt>
      <trkpt lat="47.17275" lon="-1.32905">
        <ele>17</ele>
        <time>2020-11-29T15:23:47Z</time>
      </trkpt>
      <trkpt lat="47.17306" lon="-1.32905">
        <ele>15</ele>
        <time>2020-11-29T15:23:56Z</time>
      </trkpt>
      <trkpt lat="47.17339" lon="-1.32904">
        <ele>15</ele>
        <time>2020-11-29T15:24:05Z</time>
      </trkpt>
      <trkpt lat="47.17376" lon="-1.32905">
        <ele>15</ele>
        <time>2020-11-29T15:24:14Z</time>
      </trkpt>
      <trkpt lat="47.17413" lon="-1.32906">
        <ele>15</ele>
        <time>2020-11-29T15:24:24Z</time>
      </trkpt>
      <trkpt lat="47.17434" lon="-1.32908">
        <ele>15</ele>
        <time>2020-11-29T15:24:30Z</time>
      </trkpt>
      <trkpt lat="47.17448" lon="-1.32912">
        <ele>15</ele>
        <time>2020-11-29T15:24:34Z</time>
      </trkpt>
      <trkpt lat="47.17454" lon="-1.32915">
        <ele>15</ele>
        <time>2020-11-29T15:24:35Z</time>
      </trkpt>
      <trkpt lat="47.17461" lon="-1.32918">
        <ele>15</ele>
        <time>2020-11-29T15:24:37Z</time>
      </trkpt>
      <trkpt lat="47.17472" lon="-1.32929">
        <ele>15</ele>
        <time>2020-11-29T15:24:41Z</time>
      </trkpt>
      <trkpt lat="47.17487" lon="-1.32949">
        <ele>15</ele>
        <time>2020-11-29T15:24:46Z</time>
      </trkpt>
      <trkpt lat="47.17502" lon="-1.32971">
        <ele>15</ele>
        <time>2020-11-29T15:24:52Z</time>
      </trkpt>
      <trkpt lat="47.17523" lon="-1.33004">
        <ele>15</ele>
        <time>2020-11-29T15:25:00Z</time>
      </trkpt>
      <trkpt lat="47.17541" lon="-1.33031">
        <ele>14</ele>
        <time>2020-11-29T15:25:07Z</time>
      </trkpt>
      <trkpt lat="47.17556" lon="-1.33055">
        <ele>14</ele>
        <time>2020-11-29T15:25:13Z</time>
      </trkpt>
      <trkpt lat="47.1757" lon="-1.33082">
        <ele>14</ele>
        <time>2020-11-29T15:25:19Z</time>
      </trkpt>
      <trkpt lat="47.17581" lon="-1.3311">
        <ele>14</ele>
        <time>2020-11-29T15:25:25Z</time>
      </trkpt>
      <trkpt lat="47.17592" lon="-1.3314">
        <ele>13</ele>
        <time>2020-11-29T15:25:31Z</time>
      </trkpt>
      <trkpt lat="47.17603" lon="-1.33177">
        <ele>13</ele>
        <time>2020-11-29T15:25:39Z</time>
      </trkpt>
      <trkpt lat="47.1761" lon="-1.332">
        <ele>13</ele>
        <time>2020-11-29T15:25:43Z</time>
      </trkpt>
      <trkpt lat="47.17616" lon="-1.33228">
        <ele>13</ele>
        <time>2020-11-29T15:25:49Z</time>
      </trkpt>
      <trkpt lat="47.1762" lon="-1.33242">
        <ele>13</ele>
        <time>2020-11-29T15:25:51Z</time>
      </trkpt>
      <trkpt lat="47.17622" lon="-1.33253">
        <ele>13</ele>
        <time>2020-11-29T15:25:53Z</time>
      </trkpt>
      <trkpt lat="47.1763" lon="-1.33277">
        <ele>11</ele>
        <time>2020-11-29T15:25:58Z</time>
      </trkpt>
      <trkpt lat="47.17633" lon="-1.33285">
        <ele>11</ele>
        <time>2020-11-29T15:26:00Z</time>
      </trkpt>
      <trkpt lat="47.1764" lon="-1.33292">
        <ele>11</ele>
        <time>2020-11-29T15:26:02Z</time>
      </trkpt>
      <trkpt lat="47.17645" lon="-1.33294">
        <ele>11</ele>
        <time>2020-11-29T15:26:03Z</time>
      </trkpt>
      <trkpt lat="47.17648" lon="-1.33279">
        <ele>11</ele>
        <time>2020-11-29T15:26:06Z</time>
      </trkpt>
      <trkpt lat="47.17656" lon="-1.33251">
        <ele>11</ele>
        <time>2020-11-29T15:26:12Z</time>
      </trkpt>
      <trkpt lat="47.17664" lon="-1.33228">
        <ele>11</ele>
        <time>2020-11-29T15:26:17Z</time>
      </trkpt>
      <trkpt lat="47.17666" lon="-1.33223">
        <ele>11</ele>
        <time>2020-11-29T15:26:18Z</time>
      </trkpt>
      <trkpt lat="47.17669" lon="-1.33214">
        <ele>11</ele>
        <time>2020-11-29T15:26:19Z</time>
      </trkpt>
      <trkpt lat="47.17672" lon="-1.33203">
        <ele>11</ele>
        <time>2020-11-29T15:26:22Z</time>
      </trkpt>
      <trkpt lat="47.17681" lon="-1.33176">
        <ele>12</ele>
        <time>2020-11-29T15:26:27Z</time>
      </trkpt>
      <trkpt lat="47.17684" lon="-1.33165">
        <ele>12</ele>
        <time>2020-11-29T15:26:29Z</time>
      </trkpt>
      <trkpt lat="47.17687" lon="-1.33155">
        <ele>12</ele>
        <time>2020-11-29T15:26:31Z</time>
      </trkpt>
      <trkpt lat="47.17692" lon="-1.3313">
        <ele>12</ele>
        <time>2020-11-29T15:26:36Z</time>
      </trkpt>
      <trkpt lat="47.17698" lon="-1.33101">
        <ele>12</ele>
        <time>2020-11-29T15:26:41Z</time>
      </trkpt>
      <trkpt lat="47.17706" lon="-1.33056">
        <ele>12</ele>
        <time>2020-11-29T15:26:50Z</time>
      </trkpt>
      <trkpt lat="47.17712" lon="-1.33014">
        <ele>15</ele>
        <time>2020-11-29T15:26:58Z</time>
      </trkpt>
      <trkpt lat="47.17717" lon="-1.32975">
        <ele>15</ele>
        <time>2020-11-29T15:27:05Z</time>
      </trkpt>
      <trkpt lat="47.17723" lon="-1.32931">
        <ele>15</ele>
        <time>2020-11-29T15:27:13Z</time>
      </trkpt>
      <trkpt lat="47.17728" lon="-1.3289">
        <ele>16</ele>
        <time>2020-11-29T15:27:21Z</time>
      </trkpt>
      <trkpt lat="47.17733" lon="-1.32851">
        <ele>16</ele>
        <time>2020-11-29T15:27:28Z</time>
      </trkpt>
      <trkpt lat="47.17735" lon="-1.32831">
        <ele>16</ele>
        <time>2020-11-29T15:27:31Z</time>
      </trkpt>
      <trkpt lat="47.17736" lon="-1.32807">
        <ele>16</ele>
        <time>2020-11-29T15:27:36Z</time>
      </trkpt>
      <trkpt lat="47.17736" lon="-1.32789">
        <ele>16</ele>
        <time>2020-11-29T15:27:39Z</time>
      </trkpt>
      <trkpt lat="47.17736" lon="-1.32773">
        <ele>16</ele>
        <time>2020-11-29T15:27:42Z</time>
      </trkpt>
      <trkpt lat="47.17735" lon="-1.32747">
        <ele>18</ele>
        <time>2020-11-29T15:27:47Z</time>
      </trkpt>
      <trkpt lat="47.17734" lon="-1.32719">
        <ele>18</ele>
        <time>2020-11-29T15:27:52Z</time>
      </trkpt>
      <trkpt lat="47.17733" lon="-1.32693">
        <ele>18</ele>
        <time>2020-11-29T15:27:57Z</time>
      </trkpt>
      <trkpt lat="47.17732" lon="-1.32675">
        <ele>18</ele>
        <time>2020-11-29T15:28:00Z</time>
      </trkpt>
      <trkpt lat="47.1773" lon="-1.32655">
        <ele>18</ele>
        <time>2020-11-29T15:28:03Z</time>
      </trkpt>
      <trkpt lat="47.17727" lon="-1.32635">
        <ele>18</ele>
        <time>2020-11-29T15:28:07Z</time>
      </trkpt>
      <trkpt lat="47.17722" lon="-1.32604">
        <ele>18</ele>
        <time>2020-11-29T15:28:13Z</time>
      </trkpt>
      <trkpt lat="47.17717" lon="-1.32572">
        <ele>18</ele>
        <time>2020-11-29T15:28:19Z</time>
      </trkpt>
      <trkpt lat="47.17712" lon="-1.32542">
        <ele>18</ele>
        <time>2020-11-29T15:28:25Z</time>
      </trkpt>
      <trkpt lat="47.17707" lon="-1.32513">
        <ele>18</ele>
        <time>2020-11-29T15:28:30Z</time>
      </trkpt>
      <trkpt lat="47.17704" lon="-1.3249">
        <ele>18</ele>
        <time>2020-11-29T15:28:34Z</time>
      </trkpt>
      <trkpt lat="47.177" lon="-1.32465">
        <ele>18</ele>
        <time>2020-11-29T15:28:39Z</time>
      </trkpt>
      <trkpt lat="47.17696" lon="-1.3245">
        <ele>18</ele>
        <time>2020-11-29T15:28:42Z</time>
      </trkpt>
      <trkpt lat="47.17691" lon="-1.32433">
        <ele>18</ele>
        <time>2020-11-29T15:28:45Z</time>
      </trkpt>
      <trkpt lat="47.17694" lon="-1.32429">
        <ele>18</ele>
        <time>2020-11-29T15:28:46Z</time>
      </trkpt>
      <trkpt lat="47.17699" lon="-1.32422">
        <ele>18</ele>
        <time>2020-11-29T15:28:48Z</time>
      </trkpt>
      <trkpt lat="47.1771" lon="-1.32407">
        <ele>18</ele>
        <time>2020-11-29T15:28:52Z</time>
      </trkpt>
      <trkpt lat="47.17723" lon="-1.32387">
        <ele>18</ele>
        <time>2020-11-29T15:28:57Z</time>
      </trkpt>
      <trkpt lat="47.17732" lon="-1.32373">
        <ele>18</ele>
        <time>2020-11-29T15:29:01Z</time>
      </trkpt>
      <trkpt lat="47.17739" lon="-1.3236">
        <ele>18</ele>
        <time>2020-11-29T15:29:04Z</time>
      </trkpt>
      <trkpt lat="47.1775" lon="-1.32344">
        <ele>18</ele>
        <time>2020-11-29T15:29:08Z</time>
      </trkpt>
      <trkpt lat="47.17762" lon="-1.32322">
        <ele>18</ele>
        <time>2020-11-29T15:29:13Z</time>
      </trkpt>
      <trkpt lat="47.17774" lon="-1.32305">
        <ele>18</ele>
        <time>2020-11-29T15:29:17Z</time>
      </trkpt>
      <trkpt lat="47.17787" lon="-1.32285">
        <ele>18</ele>
        <time>2020-11-29T15:29:22Z</time>
      </trkpt>
      <trkpt lat="47.17795" lon="-1.32271">
        <ele>18</ele>
        <time>2020-11-29T15:29:26Z</time>
      </trkpt>
      <trkpt lat="47.17805" lon="-1.32254">
        <ele>18</ele>
        <time>2020-11-29T15:29:30Z</time>
      </trkpt>
      <trkpt lat="47.17815" lon="-1.32238">
        <ele>18</ele>
        <time>2020-11-29T15:29:34Z</time>
      </trkpt>
      <trkpt lat="47.17827" lon="-1.32225">
        <ele>17</ele>
        <time>2020-11-29T15:29:38Z</time>
      </trkpt>
      <trkpt lat="47.17836" lon="-1.32218">
        <ele>17</ele>
        <time>2020-11-29T15:29:40Z</time>
      </trkpt>
      <trkpt lat="47.17841" lon="-1.32215">
        <ele>17</ele>
        <time>2020-11-29T15:29:42Z</time>
      </trkpt>
      <trkpt lat="47.17853" lon="-1.3221">
        <ele>17</ele>
        <time>2020-11-29T15:29:45Z</time>
      </trkpt>
      <trkpt lat="47.17862" lon="-1.32208">
        <ele>17</ele>
        <time>2020-11-29T15:29:48Z</time>
      </trkpt>
      <trkpt lat="47.17872" lon="-1.32207">
        <ele>17</ele>
        <time>2020-11-29T15:29:50Z</time>
      </trkpt>
      <trkpt lat="47.17883" lon="-1.32209">
        <ele>17</ele>
        <time>2020-11-29T15:29:53Z</time>
      </trkpt>
      <trkpt lat="47.17893" lon="-1.32212">
        <ele>17</ele>
        <time>2020-11-29T15:29:56Z</time>
      </trkpt>
      <trkpt lat="47.17905" lon="-1.32217">
        <ele>17</ele>
        <time>2020-11-29T15:29:59Z</time>
      </trkpt>
      <trkpt lat="47.17913" lon="-1.3222">
        <ele>17</ele>
        <time>2020-11-29T15:30:02Z</time>
      </trkpt>
      <trkpt lat="47.1792" lon="-1.32223">
        <ele>16</ele>
        <time>2020-11-29T15:30:04Z</time>
      </trkpt>
      <trkpt lat="47.17929" lon="-1.32226">
        <ele>16</ele>
        <time>2020-11-29T15:30:06Z</time>
      </trkpt>
      <trkpt lat="47.17938" lon="-1.32229">
        <ele>16</ele>
        <time>2020-11-29T15:30:08Z</time>
      </trkpt>
      <trkpt lat="47.17945" lon="-1.32231">
        <ele>16</ele>
        <time>2020-11-29T15:30:10Z</time>
      </trkpt>
      <trkpt lat="47.17954" lon="-1.32234">
        <ele>16</ele>
        <time>2020-11-29T15:30:13Z</time>
      </trkpt>
      <trkpt lat="47.17962" lon="-1.32235">
        <ele>16</ele>
        <time>2020-11-29T15:30:15Z</time>
      </trkpt>
      <trkpt lat="47.17971" lon="-1.32235">
        <ele>16</ele>
        <time>2020-11-29T15:30:17Z</time>
      </trkpt>
      <trkpt lat="47.17982" lon="-1.32234">
        <ele>16</ele>
        <time>2020-11-29T15:30:20Z</time>
      </trkpt>
      <trkpt lat="47.17991" lon="-1.32232">
        <ele>16</ele>
        <time>2020-11-29T15:30:23Z</time>
      </trkpt>
      <trkpt lat="47.18003" lon="-1.32229">
        <ele>16</ele>
        <time>2020-11-29T15:30:26Z</time>
      </trkpt>
      <trkpt lat="47.18014" lon="-1.32223">
        <ele>16</ele>
        <time>2020-11-29T15:30:29Z</time>
      </trkpt>
      <trkpt lat="47.18026" lon="-1.32215">
        <ele>13</ele>
        <time>2020-11-29T15:30:33Z</time>
      </trkpt>
      <trkpt lat="47.18035" lon="-1.32207">
        <ele>13</ele>
        <time>2020-11-29T15:30:35Z</time>
      </trkpt>
      <trkpt lat="47.18046" lon="-1.32198">
        <ele>13</ele>
        <time>2020-11-29T15:30:39Z</time>
      </trkpt>
      <trkpt lat="47.18055" lon="-1.32188">
        <ele>13</ele>
        <time>2020-11-29T15:30:42Z</time>
      </trkpt>
      <trkpt lat="47.18066" lon="-1.32178">
        <ele>13</ele>
        <time>2020-11-29T15:30:45Z</time>
      </trkpt>
      <trkpt lat="47.18075" lon="-1.3217">
        <ele>13</ele>
        <time>2020-11-29T15:30:48Z</time>
      </trkpt>
      <trkpt lat="47.18083" lon="-1.32164">
        <ele>13</ele>
        <time>2020-11-29T15:30:51Z</time>
      </trkpt>
      <trkpt lat="47.18092" lon="-1.32159">
        <ele>13</ele>
        <time>2020-11-29T15:30:53Z</time>
      </trkpt>
      <trkpt lat="47.18094" lon="-1.32157">
        <ele>13</ele>
        <time>2020-11-29T15:30:54Z</time>
      </trkpt>
      <trkpt lat="47.18104" lon="-1.32153">
        <ele>13</ele>
        <time>2020-11-29T15:30:56Z</time>
      </trkpt>
      <trkpt lat="47.18116" lon="-1.3215">
        <ele>14</ele>
        <time>2020-11-29T15:31:00Z</time>
      </trkpt>
      <trkpt lat="47.18128" lon="-1.32148">
        <ele>14</ele>
        <time>2020-11-29T15:31:03Z</time>
      </trkpt>
      <trkpt lat="47.18138" lon="-1.32147">
        <ele>14</ele>
        <time>2020-11-29T15:31:06Z</time>
      </trkpt>
      <trkpt lat="47.18147" lon="-1.32147">
        <ele>14</ele>
        <time>2020-11-29T15:31:08Z</time>
      </trkpt>
      <trkpt lat="47.18157" lon="-1.32146">
        <ele>14</ele>
        <time>2020-11-29T15:31:11Z</time>
      </trkpt>
      <trkpt lat="47.18166" lon="-1.32146">
        <ele>14</ele>
        <time>2020-11-29T15:31:13Z</time>
      </trkpt>
      <trkpt lat="47.18176" lon="-1.32145">
        <ele>14</ele>
        <time>2020-11-29T15:31:16Z</time>
      </trkpt>
      <trkpt lat="47.18186" lon="-1.32144">
        <ele>14</ele>
        <time>2020-11-29T15:31:18Z</time>
      </trkpt>
      <trkpt lat="47.18197" lon="-1.32143">
        <ele>14</ele>
        <time>2020-11-29T15:31:21Z</time>
      </trkpt>
      <trkpt lat="47.18205" lon="-1.32141">
        <ele>14</ele>
        <time>2020-11-29T15:31:24Z</time>
      </trkpt>
      <trkpt lat="47.18215" lon="-1.32139">
        <ele>15</ele>
        <time>2020-11-29T15:31:26Z</time>
      </trkpt>
      <trkpt lat="47.18223" lon="-1.32138">
        <ele>15</ele>
        <time>2020-11-29T15:31:28Z</time>
      </trkpt>
      <trkpt lat="47.18235" lon="-1.32134">
        <ele>15</ele>
        <time>2020-11-29T15:31:32Z</time>
      </trkpt>
      <trkpt lat="47.18247" lon="-1.32129">
        <ele>15</ele>
        <time>2020-11-29T15:31:35Z</time>
      </trkpt>
      <trkpt lat="47.18255" lon="-1.32125">
        <ele>15</ele>
        <time>2020-11-29T15:31:37Z</time>
      </trkpt>
      <trkpt lat="47.18265" lon="-1.32117">
        <ele>15</ele>
        <time>2020-11-29T15:31:40Z</time>
      </trkpt>
      <trkpt lat="47.18273" lon="-1.32111">
        <ele>15</ele>
        <time>2020-11-29T15:31:43Z</time>
      </trkpt>
      <trkpt lat="47.18282" lon="-1.32103">
        <ele>15</ele>
        <time>2020-11-29T15:31:46Z</time>
      </trkpt>
      <trkpt lat="47.18289" lon="-1.32094">
        <ele>15</ele>
        <time>2020-11-29T15:31:48Z</time>
      </trkpt>
      <trkpt lat="47.18297" lon="-1.32085">
        <ele>15</ele>
        <time>2020-11-29T15:31:51Z</time>
      </trkpt>
      <trkpt lat="47.18305" lon="-1.32073">
        <ele>17</ele>
        <time>2020-11-29T15:31:54Z</time>
      </trkpt>
      <trkpt lat="47.18311" lon="-1.32061">
        <ele>17</ele>
        <time>2020-11-29T15:31:56Z</time>
      </trkpt>
      <trkpt lat="47.18318" lon="-1.32051">
        <ele>17</ele>
        <time>2020-11-29T15:31:59Z</time>
      </trkpt>
      <trkpt lat="47.18326" lon="-1.32036">
        <ele>17</ele>
        <time>2020-11-29T15:32:03Z</time>
      </trkpt>
      <trkpt lat="47.18331" lon="-1.32026">
        <ele>17</ele>
        <time>2020-11-29T15:32:05Z</time>
      </trkpt>
      <trkpt lat="47.18336" lon="-1.32013">
        <ele>17</ele>
        <time>2020-11-29T15:32:08Z</time>
      </trkpt>
      <trkpt lat="47.18341" lon="-1.32003">
        <ele>17</ele>
        <time>2020-11-29T15:32:10Z</time>
      </trkpt>
      <trkpt lat="47.18347" lon="-1.31998">
        <ele>17</ele>
        <time>2020-11-29T15:32:12Z</time>
      </trkpt>
      <trkpt lat="47.18351" lon="-1.31997">
        <ele>17</ele>
        <time>2020-11-29T15:32:13Z</time>
      </trkpt>
      <trkpt lat="47.18351" lon="-1.31993">
        <ele>17</ele>
        <time>2020-11-29T15:32:13Z</time>
      </trkpt>
      <trkpt lat="47.18352" lon="-1.31987">
        <ele>17</ele>
        <time>2020-11-29T15:32:15Z</time>
      </trkpt>
      <trkpt lat="47.18356" lon="-1.31974">
        <ele>17</ele>
        <time>2020-11-29T15:32:17Z</time>
      </trkpt>
      <trkpt lat="47.18363" lon="-1.31956">
        <ele>18</ele>
        <time>2020-11-29T15:32:21Z</time>
      </trkpt>
      <trkpt lat="47.1837" lon="-1.31942">
        <ele>18</ele>
        <time>2020-11-29T15:32:24Z</time>
      </trkpt>
      <trkpt lat="47.18377" lon="-1.31928">
        <ele>18</ele>
        <time>2020-11-29T15:32:27Z</time>
      </trkpt>
      <trkpt lat="47.18396" lon="-1.3189">
        <ele>18</ele>
        <time>2020-11-29T15:32:36Z</time>
      </trkpt>
      <trkpt lat="47.18407" lon="-1.3187">
        <ele>18</ele>
        <time>2020-11-29T15:32:40Z</time>
      </trkpt>
      <trkpt lat="47.1842" lon="-1.31843">
        <ele>18</ele>
        <time>2020-11-29T15:32:46Z</time>
      </trkpt>
      <trkpt lat="47.18435" lon="-1.31811">
        <ele>18</ele>
        <time>2020-11-29T15:32:54Z</time>
      </trkpt>
      <trkpt lat="47.18442" lon="-1.31797">
        <ele>18</ele>
        <time>2020-11-29T15:32:57Z</time>
      </trkpt>
      <trkpt lat="47.18452" lon="-1.31777">
        <ele>18</ele>
        <time>2020-11-29T15:33:01Z</time>
      </trkpt>
      <trkpt lat="47.18462" lon="-1.31758">
        <ele>18</ele>
        <time>2020-11-29T15:33:06Z</time>
      </trkpt>
      <trkpt lat="47.18469" lon="-1.31741">
        <ele>18</ele>
        <time>2020-11-29T15:33:09Z</time>
      </trkpt>
      <trkpt lat="47.18479" lon="-1.31722">
        <ele>18</ele>
        <time>2020-11-29T15:33:14Z</time>
      </trkpt>
      <trkpt lat="47.18495" lon="-1.31692">
        <ele>19</ele>
        <time>2020-11-29T15:33:20Z</time>
      </trkpt>
      <trkpt lat="47.18503" lon="-1.31675">
        <ele>19</ele>
        <time>2020-11-29T15:33:24Z</time>
      </trkpt>
      <trkpt lat="47.18516" lon="-1.31647">
        <ele>19</ele>
        <time>2020-11-29T15:33:30Z</time>
      </trkpt>
      <trkpt lat="47.18524" lon="-1.31632">
        <ele>19</ele>
        <time>2020-11-29T15:33:34Z</time>
      </trkpt>
      <trkpt lat="47.1853" lon="-1.31619">
        <ele>19</ele>
        <time>2020-11-29T15:33:37Z</time>
      </trkpt>
      <trkpt lat="47.18537" lon="-1.31604">
        <ele>19</ele>
        <time>2020-11-29T15:33:40Z</time>
      </trkpt>
      <trkpt lat="47.18544" lon="-1.31591">
        <ele>21</ele>
        <time>2020-11-29T15:33:43Z</time>
      </trkpt>
      <trkpt lat="47.1855" lon="-1.31577">
        <ele>21</ele>
        <time>2020-11-29T15:33:46Z</time>
      </trkpt>
      <trkpt lat="47.18551" lon="-1.31567">
        <ele>21</ele>
        <time>2020-11-29T15:33:48Z</time>
      </trkpt>
      <trkpt lat="47.18553" lon="-1.3156">
        <ele>21</ele>
        <time>2020-11-29T15:33:49Z</time>
      </trkpt>
      <trkpt lat="47.18553" lon="-1.31558">
        <ele>21</ele>
        <time>2020-11-29T15:33:50Z</time>
      </trkpt>
      <trkpt lat="47.18557" lon="-1.31551">
        <ele>21</ele>
        <time>2020-11-29T15:33:51Z</time>
      </trkpt>
      <trkpt lat="47.1856" lon="-1.31549">
        <ele>21</ele>
        <time>2020-11-29T15:33:52Z</time>
      </trkpt>
      <trkpt lat="47.18563" lon="-1.31546">
        <ele>21</ele>
        <time>2020-11-29T15:33:53Z</time>
      </trkpt>
      <trkpt lat="47.18569" lon="-1.31542">
        <ele>21</ele>
        <time>2020-11-29T15:33:55Z</time>
      </trkpt>
      <trkpt lat="47.18578" lon="-1.31522">
        <ele>21</ele>
        <time>2020-11-29T15:33:59Z</time>
      </trkpt>
      <trkpt lat="47.18593" lon="-1.31491">
        <ele>21</ele>
        <time>2020-11-29T15:34:06Z</time>
      </trkpt>
      <trkpt lat="47.18605" lon="-1.31466">
        <ele>24</ele>
        <time>2020-11-29T15:34:12Z</time>
      </trkpt>
      <trkpt lat="47.18616" lon="-1.31445">
        <ele>24</ele>
        <time>2020-11-29T15:34:16Z</time>
      </trkpt>
      <trkpt lat="47.18625" lon="-1.31425">
        <ele>24</ele>
        <time>2020-11-29T15:34:21Z</time>
      </trkpt>
      <trkpt lat="47.18633" lon="-1.31408">
        <ele>24</ele>
        <time>2020-11-29T15:34:25Z</time>
      </trkpt>
      <trkpt lat="47.1864" lon="-1.31396">
        <ele>24</ele>
        <time>2020-11-29T15:34:27Z</time>
      </trkpt>
      <trkpt lat="47.18646" lon="-1.31387">
        <ele>24</ele>
        <time>2020-11-29T15:34:30Z</time>
      </trkpt>
      <trkpt lat="47.18657" lon="-1.31375">
        <ele>24</ele>
        <time>2020-11-29T15:34:33Z</time>
      </trkpt>
      <trkpt lat="47.18669" lon="-1.31366">
        <ele>24</ele>
        <time>2020-11-29T15:34:37Z</time>
      </trkpt>
      <trkpt lat="47.18682" lon="-1.31358">
        <ele>26</ele>
        <time>2020-11-29T15:34:41Z</time>
      </trkpt>
      <trkpt lat="47.18696" lon="-1.31352">
        <ele>26</ele>
        <time>2020-11-29T15:34:45Z</time>
      </trkpt>
      <trkpt lat="47.18707" lon="-1.31347">
        <ele>26</ele>
        <time>2020-11-29T15:34:48Z</time>
      </trkpt>
      <trkpt lat="47.18718" lon="-1.31344">
        <ele>26</ele>
        <time>2020-11-29T15:34:51Z</time>
      </trkpt>
      <trkpt lat="47.18738" lon="-1.31339">
        <ele>26</ele>
        <time>2020-11-29T15:34:56Z</time>
      </trkpt>
      <trkpt lat="47.1875" lon="-1.31336">
        <ele>26</ele>
        <time>2020-11-29T15:34:59Z</time>
      </trkpt>
      <trkpt lat="47.18769" lon="-1.3133">
        <ele>26</ele>
        <time>2020-11-29T15:35:05Z</time>
      </trkpt>
      <trkpt lat="47.18781" lon="-1.31326">
        <ele>30</ele>
        <time>2020-11-29T15:35:08Z</time>
      </trkpt>
      <trkpt lat="47.18796" lon="-1.31321">
        <ele>30</ele>
        <time>2020-11-29T15:35:12Z</time>
      </trkpt>
      <trkpt lat="47.18805" lon="-1.31318">
        <ele>30</ele>
        <time>2020-11-29T15:35:14Z</time>
      </trkpt>
      <trkpt lat="47.18818" lon="-1.31312">
        <ele>30</ele>
        <time>2020-11-29T15:35:18Z</time>
      </trkpt>
      <trkpt lat="47.18831" lon="-1.31304">
        <ele>30</ele>
        <time>2020-11-29T15:35:22Z</time>
      </trkpt>
      <trkpt lat="47.18841" lon="-1.31296">
        <ele>30</ele>
        <time>2020-11-29T15:35:25Z</time>
      </trkpt>
      <trkpt lat="47.18853" lon="-1.31285">
        <ele>30</ele>
        <time>2020-11-29T15:35:29Z</time>
      </trkpt>
      <trkpt lat="47.18862" lon="-1.31277">
        <ele>30</ele>
        <time>2020-11-29T15:35:32Z</time>
      </trkpt>
      <trkpt lat="47.18874" lon="-1.31269">
        <ele>30</ele>
        <time>2020-11-29T15:35:35Z</time>
      </trkpt>
      <trkpt lat="47.18887" lon="-1.3126">
        <ele>30</ele>
        <time>2020-11-29T15:35:39Z</time>
      </trkpt>
      <trkpt lat="47.18901" lon="-1.3125">
        <ele>30</ele>
        <time>2020-11-29T15:35:43Z</time>
      </trkpt>
      <trkpt lat="47.18924" lon="-1.31237">
        <ele>30</ele>
        <time>2020-11-29T15:35:50Z</time>
      </trkpt>
      <trkpt lat="47.18939" lon="-1.31228">
        <ele>30</ele>
        <time>2020-11-29T15:35:54Z</time>
      </trkpt>
      <trkpt lat="47.18951" lon="-1.3122">
        <ele>30</ele>
        <time>2020-11-29T15:35:57Z</time>
      </trkpt>
      <trkpt lat="47.18963" lon="-1.31214">
        <ele>24</ele>
        <time>2020-11-29T15:36:01Z</time>
      </trkpt>
      <trkpt lat="47.18972" lon="-1.31207">
        <ele>24</ele>
        <time>2020-11-29T15:36:04Z</time>
      </trkpt>
      <trkpt lat="47.18986" lon="-1.31198">
        <ele>24</ele>
        <time>2020-11-29T15:36:08Z</time>
      </trkpt>
      <trkpt lat="47.19001" lon="-1.31184">
        <ele>24</ele>
        <time>2020-11-29T15:36:12Z</time>
      </trkpt>
      <trkpt lat="47.19013" lon="-1.31174">
        <ele>24</ele>
        <time>2020-11-29T15:36:16Z</time>
      </trkpt>
      <trkpt lat="47.19031" lon="-1.31155">
        <ele>24</ele>
        <time>2020-11-29T15:36:22Z</time>
      </trkpt>
      <trkpt lat="47.19045" lon="-1.31145">
        <ele>24</ele>
        <time>2020-11-29T15:36:26Z</time>
      </trkpt>
      <trkpt lat="47.19062" lon="-1.3113">
        <ele>22</ele>
        <time>2020-11-29T15:36:31Z</time>
      </trkpt>
      <trkpt lat="47.19083" lon="-1.31112">
        <ele>22</ele>
        <time>2020-11-29T15:36:38Z</time>
      </trkpt>
      <trkpt lat="47.19095" lon="-1.31103">
        <ele>22</ele>
        <time>2020-11-29T15:36:42Z</time>
      </trkpt>
      <trkpt lat="47.1911" lon="-1.31091">
        <ele>22</ele>
        <time>2020-11-29T15:36:46Z</time>
      </trkpt>
      <trkpt lat="47.19122" lon="-1.31083">
        <ele>22</ele>
        <time>2020-11-29T15:36:50Z</time>
      </trkpt>
      <trkpt lat="47.1914" lon="-1.31075">
        <ele>22</ele>
        <time>2020-11-29T15:36:55Z</time>
      </trkpt>
      <trkpt lat="47.19156" lon="-1.3107">
        <ele>26</ele>
        <time>2020-11-29T15:36:59Z</time>
      </trkpt>
      <trkpt lat="47.1917" lon="-1.31067">
        <ele>26</ele>
        <time>2020-11-29T15:37:03Z</time>
      </trkpt>
      <trkpt lat="47.19187" lon="-1.31066">
        <ele>26</ele>
        <time>2020-11-29T15:37:07Z</time>
      </trkpt>
      <trkpt lat="47.192" lon="-1.31071">
        <ele>26</ele>
        <time>2020-11-29T15:37:11Z</time>
      </trkpt>
      <trkpt lat="47.19214" lon="-1.31078">
        <ele>26</ele>
        <time>2020-11-29T15:37:15Z</time>
      </trkpt>
      <trkpt lat="47.19245" lon="-1.31096">
        <ele>27</ele>
        <time>2020-11-29T15:37:24Z</time>
      </trkpt>
      <trkpt lat="47.19261" lon="-1.3111">
        <ele>27</ele>
        <time>2020-11-29T15:37:29Z</time>
      </trkpt>
      <trkpt lat="47.19288" lon="-1.31108">
        <ele>27</ele>
        <time>2020-11-29T15:37:36Z</time>
      </trkpt>
      <trkpt lat="47.19355" lon="-1.31083">
        <ele>30</ele>
        <time>2020-11-29T15:37:54Z</time>
      </trkpt>
      <trkpt lat="47.19474" lon="-1.31026">
        <ele>33</ele>
        <time>2020-11-29T15:38:28Z</time>
      </trkpt>
      <trkpt lat="47.19493" lon="-1.31017">
        <ele>33</ele>
        <time>2020-11-29T15:38:33Z</time>
      </trkpt>
      <trkpt lat="47.19501" lon="-1.31012">
        <ele>33</ele>
        <time>2020-11-29T15:38:36Z</time>
      </trkpt>
      <trkpt lat="47.19625" lon="-1.30944">
        <ele>39</ele>
        <time>2020-11-29T15:39:11Z</time>
      </trkpt>
      <trkpt lat="47.1965" lon="-1.30932">
        <ele>45</ele>
        <time>2020-11-29T15:39:18Z</time>
      </trkpt>
      <trkpt lat="47.19818" lon="-1.30854">
        <ele>51</ele>
        <time>2020-11-29T15:40:05Z</time>
      </trkpt>
      <trkpt lat="47.1994" lon="-1.30796">
        <ele>54</ele>
        <time>2020-11-29T15:40:39Z</time>
      </trkpt>
      <trkpt lat="47.19959" lon="-1.30787">
        <ele>54</ele>
        <time>2020-11-29T15:40:45Z</time>
      </trkpt>
      <trkpt lat="47.20021" lon="-1.30757">
        <ele>54</ele>
        <time>2020-11-29T15:41:02Z</time>
      </trkpt>
      <trkpt lat="47.20114" lon="-1.30712">
        <ele>58</ele>
        <time>2020-11-29T15:41:28Z</time>
      </trkpt>
      <trkpt lat="47.20187" lon="-1.30675">
        <ele>59</ele>
        <time>2020-11-29T15:41:49Z</time>
      </trkpt>
      <trkpt lat="47.2028" lon="-1.3063">
        <ele>62</ele>
        <time>2020-11-29T15:42:15Z</time>
      </trkpt>
      <trkpt lat="47.20288" lon="-1.30629">
        <ele>62</ele>
        <time>2020-11-29T15:42:17Z</time>
      </trkpt>
      <trkpt lat="47.20291" lon="-1.3063">
        <ele>62</ele>
        <time>2020-11-29T15:42:18Z</time>
      </trkpt>
      <trkpt lat="47.20306" lon="-1.30618">
        <ele>62</ele>
        <time>2020-11-29T15:42:23Z</time>
      </trkpt>
      <trkpt lat="47.2038" lon="-1.30582">
        <ele>67</ele>
        <time>2020-11-29T15:42:43Z</time>
      </trkpt>
      <trkpt lat="47.20386" lon="-1.3058">
        <ele>67</ele>
        <time>2020-11-29T15:42:45Z</time>
      </trkpt>
      <trkpt lat="47.20397" lon="-1.30572">
        <ele>67</ele>
        <time>2020-11-29T15:42:48Z</time>
      </trkpt>
      <trkpt lat="47.20425" lon="-1.30552">
        <ele>68</ele>
        <time>2020-11-29T15:42:57Z</time>
      </trkpt>
      <trkpt lat="47.20433" lon="-1.30543">
        <ele>68</ele>
        <time>2020-11-29T15:42:59Z</time>
      </trkpt>
      <trkpt lat="47.20435" lon="-1.3054">
        <ele>68</ele>
        <time>2020-11-29T15:43:00Z</time>
      </trkpt>
      <trkpt lat="47.20442" lon="-1.30549">
        <ele>68</ele>
        <time>2020-11-29T15:43:03Z</time>
      </trkpt>
      <trkpt lat="47.20446" lon="-1.30553">
        <ele>68</ele>
        <time>2020-11-29T15:43:04Z</time>
      </trkpt>
      <trkpt lat="47.20449" lon="-1.30549">
        <ele>68</ele>
        <time>2020-11-29T15:43:05Z</time>
      </trkpt>
      <trkpt lat="47.20462" lon="-1.30529">
        <ele>68</ele>
        <time>2020-11-29T15:43:10Z</time>
      </trkpt>
      <trkpt lat="47.20475" lon="-1.30511">
        <ele>68</ele>
        <time>2020-11-29T15:43:15Z</time>
      </trkpt>
      <trkpt lat="47.20478" lon="-1.30506">
        <ele>68</ele>
        <time>2020-11-29T15:43:16Z</time>
      </trkpt>
      <trkpt lat="47.20496" lon="-1.30482">
        <ele>68</ele>
        <time>2020-11-29T15:43:23Z</time>
      </trkpt>
      <trkpt lat="47.20552" lon="-1.30411">
        <ele>71</ele>
        <time>2020-11-29T15:43:42Z</time>
      </trkpt>
      <trkpt lat="47.20558" lon="-1.30404">
        <ele>71</ele>
        <time>2020-11-29T15:43:44Z</time>
      </trkpt>
      <trkpt lat="47.20607" lon="-1.30353">
        <ele>73</ele>
        <time>2020-11-29T15:44:00Z</time>
      </trkpt>
      <trkpt lat="47.20626" lon="-1.3033">
        <ele>73</ele>
        <time>2020-11-29T15:44:07Z</time>
      </trkpt>
      <trkpt lat="47.20632" lon="-1.30323">
        <ele>73</ele>
        <time>2020-11-29T15:44:09Z</time>
      </trkpt>
      <trkpt lat="47.20641" lon="-1.3031">
        <ele>73</ele>
        <time>2020-11-29T15:44:13Z</time>
      </trkpt>
      <trkpt lat="47.20648" lon="-1.303">
        <ele>73</ele>
        <time>2020-11-29T15:44:15Z</time>
      </trkpt>
      <trkpt lat="47.20674" lon="-1.30256">
        <ele>75</ele>
        <time>2020-11-29T15:44:26Z</time>
      </trkpt>
      <trkpt lat="47.20679" lon="-1.30248">
        <ele>75</ele>
        <time>2020-11-29T15:44:28Z</time>
      </trkpt>
      <trkpt lat="47.20686" lon="-1.30234">
        <ele>75</ele>
        <time>2020-11-29T15:44:31Z</time>
      </trkpt>
      <trkpt lat="47.20707" lon="-1.30185">
        <ele>75</ele>
        <time>2020-11-29T15:44:41Z</time>
      </trkpt>
      <trkpt lat="47.20743" lon="-1.30094">
        <ele>77</ele>
        <time>2020-11-29T15:45:00Z</time>
      </trkpt>
      <trkpt lat="47.20759" lon="-1.30055">
        <ele>77</ele>
        <time>2020-11-29T15:45:09Z</time>
      </trkpt>
      <trkpt lat="47.20794" lon="-1.29972">
        <ele>78</ele>
        <time>2020-11-29T15:45:26Z</time>
      </trkpt>
      <trkpt lat="47.20809" lon="-1.29941">
        <ele>78</ele>
        <time>2020-11-29T15:45:33Z</time>
      </trkpt>
      <trkpt lat="47.20824" lon="-1.29917">
        <ele>78</ele>
        <time>2020-11-29T15:45:39Z</time>
      </trkpt>
      <trkpt lat="47.20836" lon="-1.29899">
        <ele>79</ele>
        <time>2020-11-29T15:45:44Z</time>
      </trkpt>
      <trkpt lat="47.20847" lon="-1.29885">
        <ele>79</ele>
        <time>2020-11-29T15:45:48Z</time>
      </trkpt>
      <trkpt lat="47.20852" lon="-1.29878">
        <ele>79</ele>
        <time>2020-11-29T15:45:50Z</time>
      </trkpt>
      <trkpt lat="47.209" lon="-1.29814">
        <ele>79</ele>
        <time>2020-11-29T15:46:07Z</time>
      </trkpt>
      <trkpt lat="47.20935" lon="-1.29767">
        <ele>79</ele>
        <time>2020-11-29T15:46:20Z</time>
      </trkpt>
      <trkpt lat="47.20977" lon="-1.2971">
        <ele>79</ele>
        <time>2020-11-29T15:46:35Z</time>
      </trkpt>
      <trkpt lat="47.21071" lon="-1.29585">
        <ele>80</ele>
        <time>2020-11-29T15:47:09Z</time>
      </trkpt>
      <trkpt lat="47.21108" lon="-1.29536">
        <ele>80</ele>
        <time>2020-11-29T15:47:22Z</time>
      </trkpt>
      <trkpt lat="47.21136" lon="-1.29497">
        <ele>80</ele>
        <time>2020-11-29T15:47:32Z</time>
      </trkpt>
      <trkpt lat="47.21141" lon="-1.2949">
        <ele>82</ele>
        <time>2020-11-29T15:47:34Z</time>
      </trkpt>
      <trkpt lat="47.21202" lon="-1.29394">
        <ele>81</ele>
        <time>2020-11-29T15:47:58Z</time>
      </trkpt>
      <trkpt lat="47.21252" lon="-1.29316">
        <ele>81</ele>
        <time>2020-11-29T15:48:17Z</time>
      </trkpt>
      <trkpt lat="47.21257" lon="-1.2932">
        <ele>81</ele>
        <time>2020-11-29T15:48:19Z</time>
      </trkpt>
      <trkpt lat="47.21294" lon="-1.29347">
        <ele>84</ele>
        <time>2020-11-29T15:48:30Z</time>
      </trkpt>
      <trkpt lat="47.21354" lon="-1.29394">
        <ele>84</ele>
        <time>2020-11-29T15:48:48Z</time>
      </trkpt>
      <trkpt lat="47.21376" lon="-1.29411">
        <ele>82</ele>
        <time>2020-11-29T15:48:55Z</time>
      </trkpt>
      <trkpt lat="47.21389" lon="-1.29425">
        <ele>82</ele>
        <time>2020-11-29T15:48:59Z</time>
      </trkpt>
      <trkpt lat="47.21403" lon="-1.29444">
        <ele>82</ele>
        <time>2020-11-29T15:49:04Z</time>
      </trkpt>
      <trkpt lat="47.21422" lon="-1.29474">
        <ele>82</ele>
        <time>2020-11-29T15:49:12Z</time>
      </trkpt>
      <trkpt lat="47.21438" lon="-1.29502">
        <ele>79</ele>
        <time>2020-11-29T15:49:18Z</time>
      </trkpt>
      <trkpt lat="47.21457" lon="-1.29525">
        <ele>79</ele>
        <time>2020-11-29T15:49:25Z</time>
      </trkpt>
      <trkpt lat="47.21542" lon="-1.29607">
        <ele>79</ele>
        <time>2020-11-29T15:49:52Z</time>
      </trkpt>
      <trkpt lat="47.21539" lon="-1.29638">
        <ele>79</ele>
        <time>2020-11-29T15:49:58Z</time>
      </trkpt>
      <trkpt lat="47.21533" lon="-1.29728">
        <ele>79</ele>
        <time>2020-11-29T15:50:14Z</time>
      </trkpt>
      <trkpt lat="47.21531" lon="-1.2978">
        <ele>79</ele>
        <time>2020-11-29T15:50:24Z</time>
      </trkpt>
      <trkpt lat="47.21527" lon="-1.29864">
        <ele>79</ele>
        <time>2020-11-29T15:50:39Z</time>
      </trkpt>
      <trkpt lat="47.21532" lon="-1.29962">
        <ele>79</ele>
        <time>2020-11-29T15:50:57Z</time>
      </trkpt>
      <trkpt lat="47.21534" lon="-1.3001">
        <ele>79</ele>
        <time>2020-11-29T15:51:05Z</time>
      </trkpt>
      <trkpt lat="47.21539" lon="-1.30197">
        <ele>78</ele>
        <time>2020-11-29T15:51:39Z</time>
      </trkpt>
      <trkpt lat="47.21533" lon="-1.30271">
        <ele>78</ele>
        <time>2020-11-29T15:51:53Z</time>
      </trkpt>
      <trkpt lat="47.21522" lon="-1.30402">
        <ele>77</ele>
        <time>2020-11-29T15:52:17Z</time>
      </trkpt>
      <trkpt lat="47.21505" lon="-1.30511">
        <ele>76</ele>
        <time>2020-11-29T15:52:37Z</time>
      </trkpt>
      <trkpt lat="47.215" lon="-1.30557">
        <ele>76</ele>
        <time>2020-11-29T15:52:45Z</time>
      </trkpt>
      <trkpt lat="47.21506" lon="-1.30557">
        <ele>76</ele>
        <time>2020-11-29T15:52:47Z</time>
      </trkpt>
      <trkpt lat="47.21568" lon="-1.30557">
        <ele>77</ele>
        <time>2020-11-29T15:53:04Z</time>
      </trkpt>
      <trkpt lat="47.21575" lon="-1.30556">
        <ele>77</ele>
        <time>2020-11-29T15:53:05Z</time>
      </trkpt>
      <trkpt lat="47.21586" lon="-1.30557">
        <ele>77</ele>
        <time>2020-11-29T15:53:08Z</time>
      </trkpt>
      <trkpt lat="47.21598" lon="-1.3056">
        <ele>77</ele>
        <time>2020-11-29T15:53:12Z</time>
      </trkpt>
      <trkpt lat="47.21624" lon="-1.30569">
        <ele>77</ele>
        <time>2020-11-29T15:53:19Z</time>
      </trkpt>
      <trkpt lat="47.21768" lon="-1.30634">
        <ele>75</ele>
        <time>2020-11-29T15:53:59Z</time>
      </trkpt>
      <trkpt lat="47.21942" lon="-1.30719">
        <ele>63</ele>
        <time>2020-11-29T15:54:48Z</time>
      </trkpt>
      <trkpt lat="47.21967" lon="-1.30731">
        <ele>63</ele>
        <time>2020-11-29T15:54:55Z</time>
      </trkpt>
      <trkpt lat="47.22082" lon="-1.30787">
        <ele>58</ele>
        <time>2020-11-29T15:55:27Z</time>
      </trkpt>
      <trkpt lat="47.22226" lon="-1.30851">
        <ele>53</ele>
        <time>2020-11-29T15:56:08Z</time>
      </trkpt>
      <trkpt lat="47.22358" lon="-1.30919">
        <ele>49</ele>
        <time>2020-11-29T15:56:45Z</time>
      </trkpt>
      <trkpt lat="47.22357" lon="-1.30924">
        <ele>49</ele>
        <time>2020-11-29T15:56:46Z</time>
      </trkpt>
      <trkpt lat="47.22351" lon="-1.30963">
        <ele>49</ele>
        <time>2020-11-29T15:56:53Z</time>
      </trkpt>
      <trkpt lat="47.22335" lon="-1.31073">
        <ele>47</ele>
        <time>2020-11-29T15:57:14Z</time>
      </trkpt>
      <trkpt lat="47.22309" lon="-1.31274">
        <ele>45</ele>
        <time>2020-11-29T15:57:51Z</time>
      </trkpt>
      <trkpt lat="47.2229" lon="-1.31463">
        <ele>42</ele>
        <time>2020-11-29T15:58:25Z</time>
      </trkpt>
      <trkpt lat="47.22275" lon="-1.31606">
        <ele>42</ele>
        <time>2020-11-29T15:58:52Z</time>
      </trkpt>
      <trkpt lat="47.22261" lon="-1.31705">
        <ele>40</ele>
        <time>2020-11-29T15:59:10Z</time>
      </trkpt>
      <trkpt lat="47.2225" lon="-1.31745">
        <ele>40</ele>
        <time>2020-11-29T15:59:18Z</time>
      </trkpt>
      <trkpt lat="47.22241" lon="-1.31762">
        <ele>41</ele>
        <time>2020-11-29T15:59:22Z</time>
      </trkpt>
      <trkpt lat="47.22214" lon="-1.31822">
        <ele>41</ele>
        <time>2020-11-29T15:59:35Z</time>
      </trkpt>
      <trkpt lat="47.22183" lon="-1.31886">
        <ele>41</ele>
        <time>2020-11-29T15:59:49Z</time>
      </trkpt>
      <trkpt lat="47.22172" lon="-1.31908">
        <ele>41</ele>
        <time>2020-11-29T15:59:54Z</time>
      </trkpt>
      <trkpt lat="47.22115" lon="-1.32021">
        <ele>43</ele>
        <time>2020-11-29T16:00:20Z</time>
      </trkpt>
      <trkpt lat="47.22063" lon="-1.32136">
        <ele>44</ele>
        <time>2020-11-29T16:00:45Z</time>
      </trkpt>
      <trkpt lat="47.22048" lon="-1.32187">
        <ele>44</ele>
        <time>2020-11-29T16:00:55Z</time>
      </trkpt>
      <trkpt lat="47.22045" lon="-1.32225">
        <ele>44</ele>
        <time>2020-11-29T16:01:02Z</time>
      </trkpt>
      <trkpt lat="47.22045" lon="-1.32231">
        <ele>44</ele>
        <time>2020-11-29T16:01:03Z</time>
      </trkpt>
      <trkpt lat="47.22044" lon="-1.32278">
        <ele>46</ele>
        <time>2020-11-29T16:01:11Z</time>
      </trkpt>
      <trkpt lat="47.22035" lon="-1.32316">
        <ele>46</ele>
        <time>2020-11-29T16:01:19Z</time>
      </trkpt>
      <trkpt lat="47.22009" lon="-1.32377">
        <ele>46</ele>
        <time>2020-11-29T16:01:32Z</time>
      </trkpt>
      <trkpt lat="47.21947" lon="-1.32513">
        <ele>50</ele>
        <time>2020-11-29T16:02:01Z</time>
      </trkpt>
      <trkpt lat="47.21945" lon="-1.32519">
        <ele>50</ele>
        <time>2020-11-29T16:02:03Z</time>
      </trkpt>
      <trkpt lat="47.21872" lon="-1.32677">
        <ele>49</ele>
        <time>2020-11-29T16:02:37Z</time>
      </trkpt>
      <trkpt lat="47.21831" lon="-1.32768">
        <ele>49</ele>
        <time>2020-11-29T16:02:57Z</time>
      </trkpt>
      <trkpt lat="47.21785" lon="-1.32871">
        <ele>48</ele>
        <time>2020-11-29T16:03:19Z</time>
      </trkpt>
      <trkpt lat="47.21771" lon="-1.32921">
        <ele>48</ele>
        <time>2020-11-29T16:03:29Z</time>
      </trkpt>
      <trkpt lat="47.21753" lon="-1.32995">
        <ele>44</ele>
        <time>2020-11-29T16:03:43Z</time>
      </trkpt>
      <trkpt lat="47.21732" lon="-1.33082">
        <ele>37</ele>
        <time>2020-11-29T16:04:00Z</time>
      </trkpt>
      <trkpt lat="47.21697" lon="-1.33168">
        <ele>37</ele>
        <time>2020-11-29T16:04:18Z</time>
      </trkpt>
      <trkpt lat="47.21696" lon="-1.33172">
        <ele>37</ele>
        <time>2020-11-29T16:04:19Z</time>
      </trkpt>
      <trkpt lat="47.21684" lon="-1.33208">
        <ele>30</ele>
        <time>2020-11-29T16:04:26Z</time>
      </trkpt>
      <trkpt lat="47.21684" lon="-1.33246">
        <ele>30</ele>
        <time>2020-11-29T16:04:33Z</time>
      </trkpt>
      <trkpt lat="47.21688" lon="-1.33334">
        <ele>30</ele>
        <time>2020-11-29T16:04:49Z</time>
      </trkpt>
      <trkpt lat="47.21695" lon="-1.33453">
        <ele>25</ele>
        <time>2020-11-29T16:05:11Z</time>
      </trkpt>
      <trkpt lat="47.21695" lon="-1.33462">
        <ele>25</ele>
        <time>2020-11-29T16:05:13Z</time>
      </trkpt>
      <trkpt lat="47.21695" lon="-1.33502">
        <ele>22</ele>
        <time>2020-11-29T16:05:20Z</time>
      </trkpt>
      <trkpt lat="47.21689" lon="-1.33534">
        <ele>22</ele>
        <time>2020-11-29T16:05:26Z</time>
      </trkpt>
      <trkpt lat="47.21672" lon="-1.3362">
        <ele>22</ele>
        <time>2020-11-29T16:05:42Z</time>
      </trkpt>
      <trkpt lat="47.21656" lon="-1.33707">
        <ele>19</ele>
        <time>2020-11-29T16:05:59Z</time>
      </trkpt>
      <trkpt lat="47.21705" lon="-1.33733">
        <ele>19</ele>
        <time>2020-11-29T16:06:12Z</time>
      </trkpt>
      <trkpt lat="47.21687" lon="-1.33777">
        <ele>19</ele>
        <time>2020-11-29T16:06:22Z</time>
      </trkpt>
      <trkpt lat="47.21676" lon="-1.33802">
        <ele>19</ele>
        <time>2020-11-29T16:06:27Z</time>
      </trkpt>
      <trkpt lat="47.21664" lon="-1.33832">
        <ele>19</ele>
        <time>2020-11-29T16:06:34Z</time>
      </trkpt>
      <trkpt lat="47.21659" lon="-1.33841">
        <ele>19</ele>
        <time>2020-11-29T16:06:36Z</time>
      </trkpt>
      <trkpt lat="47.21654" lon="-1.33849">
        <ele>19</ele>
        <time>2020-11-29T16:06:38Z</time>
      </trkpt>
      <trkpt lat="47.21646" lon="-1.33859">
        <ele>19</ele>
        <time>2020-11-29T16:06:40Z</time>
      </trkpt>
      <trkpt lat="47.21638" lon="-1.33866">
        <ele>18</ele>
        <time>2020-11-29T16:06:43Z</time>
      </trkpt>
      <trkpt lat="47.2163" lon="-1.3387">
        <ele>18</ele>
        <time>2020-11-29T16:06:45Z</time>
      </trkpt>
      <trkpt lat="47.2162" lon="-1.33874">
        <ele>18</ele>
        <time>2020-11-29T16:06:48Z</time>
      </trkpt>
      <trkpt lat="47.21607" lon="-1.33877">
        <ele>18</ele>
        <time>2020-11-29T16:06:51Z</time>
      </trkpt>
      <trkpt lat="47.21593" lon="-1.33878">
        <ele>18</ele>
        <time>2020-11-29T16:06:55Z</time>
      </trkpt>
      <trkpt lat="47.21577" lon="-1.3388">
        <ele>18</ele>
        <time>2020-11-29T16:06:59Z</time>
      </trkpt>
      <trkpt lat="47.21573" lon="-1.33881">
        <ele>18</ele>
        <time>2020-11-29T16:07:01Z</time>
      </trkpt>
      <trkpt lat="47.2156" lon="-1.33883">
        <ele>18</ele>
        <time>2020-11-29T16:07:04Z</time>
      </trkpt>
      <trkpt lat="47.2155" lon="-1.33886">
        <ele>18</ele>
        <time>2020-11-29T16:07:07Z</time>
      </trkpt>
      <trkpt lat="47.21542" lon="-1.33888">
        <ele>18</ele>
        <time>2020-11-29T16:07:09Z</time>
      </trkpt>
      <trkpt lat="47.21533" lon="-1.33893">
        <ele>17</ele>
        <time>2020-11-29T16:07:12Z</time>
      </trkpt>
      <trkpt lat="47.21519" lon="-1.33902">
        <ele>17</ele>
        <time>2020-11-29T16:07:16Z</time>
      </trkpt>
      <trkpt lat="47.21517" lon="-1.33903">
        <ele>17</ele>
        <time>2020-11-29T16:07:16Z</time>
      </trkpt>
      <trkpt lat="47.21496" lon="-1.3392">
        <ele>17</ele>
        <time>2020-11-29T16:07:23Z</time>
      </trkpt>
      <trkpt lat="47.2148" lon="-1.33932">
        <ele>17</ele>
        <time>2020-11-29T16:07:27Z</time>
      </trkpt>
      <trkpt lat="47.21458" lon="-1.3395">
        <ele>17</ele>
        <time>2020-11-29T16:07:34Z</time>
      </trkpt>
      <trkpt lat="47.21445" lon="-1.33957">
        <ele>16</ele>
        <time>2020-11-29T16:07:38Z</time>
      </trkpt>
      <trkpt lat="47.21435" lon="-1.33962">
        <ele>16</ele>
        <time>2020-11-29T16:07:41Z</time>
      </trkpt>
      <trkpt lat="47.21418" lon="-1.33968">
        <ele>16</ele>
        <time>2020-11-29T16:07:45Z</time>
      </trkpt>
      <trkpt lat="47.21369" lon="-1.33983">
        <ele>16</ele>
        <time>2020-11-29T16:07:59Z</time>
      </trkpt>
      <trkpt lat="47.21329" lon="-1.33994">
        <ele>15</ele>
        <time>2020-11-29T16:08:10Z</time>
      </trkpt>
      <trkpt lat="47.21308" lon="-1.34001">
        <ele>15</ele>
        <time>2020-11-29T16:08:15Z</time>
      </trkpt>
      <trkpt lat="47.21275" lon="-1.34012">
        <ele>15</ele>
        <time>2020-11-29T16:08:24Z</time>
      </trkpt>
      <trkpt lat="47.21262" lon="-1.34018">
        <ele>15</ele>
        <time>2020-11-29T16:08:28Z</time>
      </trkpt>
      <trkpt lat="47.21251" lon="-1.34026">
        <ele>13</ele>
        <time>2020-11-29T16:08:31Z</time>
      </trkpt>
      <trkpt lat="47.21244" lon="-1.34035">
        <ele>13</ele>
        <time>2020-11-29T16:08:34Z</time>
      </trkpt>
      <trkpt lat="47.21236" lon="-1.34055">
        <ele>13</ele>
        <time>2020-11-29T16:08:38Z</time>
      </trkpt>
      <trkpt lat="47.2123" lon="-1.34082">
        <ele>13</ele>
        <time>2020-11-29T16:08:43Z</time>
      </trkpt>
      <trkpt lat="47.21224" lon="-1.34121">
        <ele>13</ele>
        <time>2020-11-29T16:08:50Z</time>
      </trkpt>
      <trkpt lat="47.21217" lon="-1.34175">
        <ele>11</ele>
        <time>2020-11-29T16:09:00Z</time>
      </trkpt>
      <trkpt lat="47.21217" lon="-1.34179">
        <ele>11</ele>
        <time>2020-11-29T16:09:01Z</time>
      </trkpt>
      <trkpt lat="47.21213" lon="-1.34215">
        <ele>11</ele>
        <time>2020-11-29T16:09:08Z</time>
      </trkpt>
      <trkpt lat="47.21206" lon="-1.34286">
        <ele>11</ele>
        <time>2020-11-29T16:09:21Z</time>
      </trkpt>
      <trkpt lat="47.21194" lon="-1.34384">
        <ele>12</ele>
        <time>2020-11-29T16:09:39Z</time>
      </trkpt>
      <trkpt lat="47.2119" lon="-1.34431">
        <ele>12</ele>
        <time>2020-11-29T16:09:47Z</time>
      </trkpt>
      <trkpt lat="47.21188" lon="-1.34461">
        <ele>12</ele>
        <time>2020-11-29T16:09:53Z</time>
      </trkpt>
      <trkpt lat="47.21187" lon="-1.345">
        <ele>12</ele>
        <time>2020-11-29T16:10:00Z</time>
      </trkpt>
      <trkpt lat="47.21188" lon="-1.34553">
        <ele>12</ele>
        <time>2020-11-29T16:10:10Z</time>
      </trkpt>
      <trkpt lat="47.21188" lon="-1.3464">
        <ele>10</ele>
        <time>2020-11-29T16:10:25Z</time>
      </trkpt>
      <trkpt lat="47.21188" lon="-1.34685">
        <ele>10</ele>
        <time>2020-11-29T16:10:34Z</time>
      </trkpt>
      <trkpt lat="47.21188" lon="-1.34699">
        <ele>10</ele>
        <time>2020-11-29T16:10:36Z</time>
      </trkpt>
      <trkpt lat="47.21189" lon="-1.3475">
        <ele>10</ele>
        <time>2020-11-29T16:10:45Z</time>
      </trkpt>
      <trkpt lat="47.21189" lon="-1.34774">
        <ele>9</ele>
        <time>2020-11-29T16:10:50Z</time>
      </trkpt>
      <trkpt lat="47.21188" lon="-1.34792">
        <ele>9</ele>
        <time>2020-11-29T16:10:53Z</time>
      </trkpt>
      <trkpt lat="47.21185" lon="-1.3481">
        <ele>9</ele>
        <time>2020-11-29T16:10:56Z</time>
      </trkpt>
      <trkpt lat="47.2118" lon="-1.34826">
        <ele>9</ele>
        <time>2020-11-29T16:10:59Z</time>
      </trkpt>
      <trkpt lat="47.21175" lon="-1.34839">
        <ele>9</ele>
        <time>2020-11-29T16:11:02Z</time>
      </trkpt>
      <trkpt lat="47.21169" lon="-1.34849">
        <ele>9</ele>
        <time>2020-11-29T16:11:05Z</time>
      </trkpt>
      <trkpt lat="47.21164" lon="-1.34856">
        <ele>9</ele>
        <time>2020-11-29T16:11:06Z</time>
      </trkpt>
      <trkpt lat="47.21146" lon="-1.34876">
        <ele>9</ele>
        <time>2020-11-29T16:11:12Z</time>
      </trkpt>
      <trkpt lat="47.21134" lon="-1.3489">
        <ele>10</ele>
        <time>2020-11-29T16:11:17Z</time>
      </trkpt>
      <trkpt lat="47.21127" lon="-1.34898">
        <ele>10</ele>
        <time>2020-11-29T16:11:19Z</time>
      </trkpt>
      <trkpt lat="47.21121" lon="-1.34907">
        <ele>10</ele>
        <time>2020-11-29T16:11:21Z</time>
      </trkpt>
      <trkpt lat="47.21113" lon="-1.34919">
        <ele>10</ele>
        <time>2020-11-29T16:11:24Z</time>
      </trkpt>
      <trkpt lat="47.21109" lon="-1.34931">
        <ele>10</ele>
        <time>2020-11-29T16:11:27Z</time>
      </trkpt>
      <trkpt lat="47.21103" lon="-1.34949">
        <ele>10</ele>
        <time>2020-11-29T16:11:30Z</time>
      </trkpt>
      <trkpt lat="47.21101" lon="-1.34968">
        <ele>10</ele>
        <time>2020-11-29T16:11:34Z</time>
      </trkpt>
      <trkpt lat="47.211" lon="-1.34987">
        <ele>10</ele>
        <time>2020-11-29T16:11:37Z</time>
      </trkpt>
      <trkpt lat="47.21101" lon="-1.35017">
        <ele>10</ele>
        <time>2020-11-29T16:11:43Z</time>
      </trkpt>
      <trkpt lat="47.21102" lon="-1.35092">
        <ele>10</ele>
        <time>2020-11-29T16:11:56Z</time>
      </trkpt>
      <trkpt lat="47.21104" lon="-1.35182">
        <ele>11</ele>
        <time>2020-11-29T16:12:13Z</time>
      </trkpt>
      <trkpt lat="47.21105" lon="-1.35229">
        <ele>11</ele>
        <time>2020-11-29T16:12:21Z</time>
      </trkpt>
      <trkpt lat="47.21106" lon="-1.35301">
        <ele>11</ele>
        <time>2020-11-29T16:12:34Z</time>
      </trkpt>
      <trkpt lat="47.21107" lon="-1.35365">
        <ele>10</ele>
        <time>2020-11-29T16:12:46Z</time>
      </trkpt>
      <trkpt lat="47.21107" lon="-1.35369">
        <ele>10</ele>
        <time>2020-11-29T16:12:47Z</time>
      </trkpt>
      <trkpt lat="47.2112" lon="-1.35372">
        <ele>10</ele>
        <time>2020-11-29T16:12:50Z</time>
      </trkpt>
      <trkpt lat="47.21168" lon="-1.35384">
        <ele>8</ele>
        <time>2020-11-29T16:13:03Z</time>
      </trkpt>
      <trkpt lat="47.2118" lon="-1.35387">
        <ele>8</ele>
        <time>2020-11-29T16:13:06Z</time>
      </trkpt>
      <trkpt lat="47.2119" lon="-1.35389">
        <ele>8</ele>
        <time>2020-11-29T16:13:09Z</time>
      </trkpt>
      <trkpt lat="47.21204" lon="-1.35394">
        <ele>8</ele>
        <time>2020-11-29T16:13:13Z</time>
      </trkpt>
      <trkpt lat="47.21215" lon="-1.35398">
        <ele>8</ele>
        <time>2020-11-29T16:13:16Z</time>
      </trkpt>
      <trkpt lat="47.21225" lon="-1.35402">
        <ele>8</ele>
        <time>2020-11-29T16:13:19Z</time>
      </trkpt>
      <trkpt lat="47.21232" lon="-1.35407">
        <ele>8</ele>
        <time>2020-11-29T16:13:21Z</time>
      </trkpt>
      <trkpt lat="47.21238" lon="-1.35411">
        <ele>8</ele>
        <time>2020-11-29T16:13:23Z</time>
      </trkpt>
      <trkpt lat="47.21244" lon="-1.35416">
        <ele>8</ele>
        <time>2020-11-29T16:13:24Z</time>
      </trkpt>
      <trkpt lat="47.21252" lon="-1.35422">
        <ele>8</ele>
        <time>2020-11-29T16:13:27Z</time>
      </trkpt>
      <trkpt lat="47.21258" lon="-1.35429">
        <ele>8</ele>
        <time>2020-11-29T16:13:29Z</time>
      </trkpt>
      <trkpt lat="47.21268" lon="-1.3544">
        <ele>10</ele>
        <time>2020-11-29T16:13:32Z</time>
      </trkpt>
      <trkpt lat="47.21285" lon="-1.35459">
        <ele>10</ele>
        <time>2020-11-29T16:13:38Z</time>
      </trkpt>
      <trkpt lat="47.21299" lon="-1.35475">
        <ele>10</ele>
        <time>2020-11-29T16:13:43Z</time>
      </trkpt>
      <trkpt lat="47.2132" lon="-1.35501">
        <ele>10</ele>
        <time>2020-11-29T16:13:50Z</time>
      </trkpt>
      <trkpt lat="47.21345" lon="-1.3553">
        <ele>16</ele>
        <time>2020-11-29T16:13:59Z</time>
      </trkpt>
      <trkpt lat="47.2136" lon="-1.35548">
        <ele>16</ele>
        <time>2020-11-29T16:14:04Z</time>
      </trkpt>
      <trkpt lat="47.21382" lon="-1.35573">
        <ele>16</ele>
        <time>2020-11-29T16:14:11Z</time>
      </trkpt>
      <trkpt lat="47.21439" lon="-1.3564">
        <ele>26</ele>
        <time>2020-11-29T16:14:31Z</time>
      </trkpt>
      <trkpt lat="47.21482" lon="-1.3569">
        <ele>26</ele>
        <time>2020-11-29T16:14:45Z</time>
      </trkpt>
      <trkpt lat="47.21501" lon="-1.35713">
        <ele>26</ele>
        <time>2020-11-29T16:14:52Z</time>
      </trkpt>
      <trkpt lat="47.2152" lon="-1.35735">
        <ele>32</ele>
        <time>2020-11-29T16:14:58Z</time>
      </trkpt>
      <trkpt lat="47.21533" lon="-1.3575">
        <ele>32</ele>
        <time>2020-11-29T16:15:03Z</time>
      </trkpt>
      <trkpt lat="47.21548" lon="-1.35764">
        <ele>32</ele>
        <time>2020-11-29T16:15:07Z</time>
      </trkpt>
      <trkpt lat="47.21558" lon="-1.35772">
        <ele>32</ele>
        <time>2020-11-29T16:15:10Z</time>
      </trkpt>
      <trkpt lat="47.2157" lon="-1.35779">
        <ele>32</ele>
        <time>2020-11-29T16:15:14Z</time>
      </trkpt>
      <trkpt lat="47.21583" lon="-1.35786">
        <ele>32</ele>
        <time>2020-11-29T16:15:18Z</time>
      </trkpt>
      <trkpt lat="47.21593" lon="-1.3579">
        <ele>32</ele>
        <time>2020-11-29T16:15:20Z</time>
      </trkpt>
      <trkpt lat="47.21602" lon="-1.35792">
        <ele>34</ele>
        <time>2020-11-29T16:15:23Z</time>
      </trkpt>
      <trkpt lat="47.2161" lon="-1.35794">
        <ele>34</ele>
        <time>2020-11-29T16:15:25Z</time>
      </trkpt>
      <trkpt lat="47.21611" lon="-1.35799">
        <ele>34</ele>
        <time>2020-11-29T16:15:26Z</time>
      </trkpt>
      <trkpt lat="47.21615" lon="-1.35805">
        <ele>34</ele>
        <time>2020-11-29T16:15:27Z</time>
      </trkpt>
      <trkpt lat="47.21622" lon="-1.35814">
        <ele>34</ele>
        <time>2020-11-29T16:15:30Z</time>
      </trkpt>
      <trkpt lat="47.21631" lon="-1.35823">
        <ele>34</ele>
        <time>2020-11-29T16:15:33Z</time>
      </trkpt>
      <trkpt lat="47.21654" lon="-1.35844">
        <ele>34</ele>
        <time>2020-11-29T16:15:40Z</time>
      </trkpt>
      <trkpt lat="47.21678" lon="-1.35864">
        <ele>34</ele>
        <time>2020-11-29T16:15:47Z</time>
      </trkpt>
      <trkpt lat="47.21697" lon="-1.3588">
        <ele>31</ele>
        <time>2020-11-29T16:15:53Z</time>
      </trkpt>
      <trkpt lat="47.21717" lon="-1.35893">
        <ele>31</ele>
        <time>2020-11-29T16:15:59Z</time>
      </trkpt>
      <trkpt lat="47.21733" lon="-1.35902">
        <ele>31</ele>
        <time>2020-11-29T16:16:04Z</time>
      </trkpt>
      <trkpt lat="47.2175" lon="-1.3591">
        <ele>31</ele>
        <time>2020-11-29T16:16:08Z</time>
      </trkpt>
      <trkpt lat="47.21763" lon="-1.35916">
        <ele>31</ele>
        <time>2020-11-29T16:16:12Z</time>
      </trkpt>
      <trkpt lat="47.21775" lon="-1.3592">
        <ele>31</ele>
        <time>2020-11-29T16:16:15Z</time>
      </trkpt>
      <trkpt lat="47.21781" lon="-1.35922">
        <ele>25</ele>
        <time>2020-11-29T16:16:17Z</time>
      </trkpt>
      <trkpt lat="47.21791" lon="-1.35926">
        <ele>25</ele>
        <time>2020-11-29T16:16:20Z</time>
      </trkpt>
      <trkpt lat="47.21835" lon="-1.35938">
        <ele>25</ele>
        <time>2020-11-29T16:16:32Z</time>
      </trkpt>
      <trkpt lat="47.21869" lon="-1.35947">
        <ele>25</ele>
        <time>2020-11-29T16:16:41Z</time>
      </trkpt>
      <trkpt lat="47.21879" lon="-1.35952">
        <ele>21</ele>
        <time>2020-11-29T16:16:44Z</time>
      </trkpt>
      <trkpt lat="47.21886" lon="-1.35957">
        <ele>21</ele>
        <time>2020-11-29T16:16:46Z</time>
      </trkpt>
      <trkpt lat="47.21893" lon="-1.35962">
        <ele>21</ele>
        <time>2020-11-29T16:16:48Z</time>
      </trkpt>
      <trkpt lat="47.21898" lon="-1.35968">
        <ele>21</ele>
        <time>2020-11-29T16:16:50Z</time>
      </trkpt>
      <trkpt lat="47.21904" lon="-1.35978">
        <ele>21</ele>
        <time>2020-11-29T16:16:52Z</time>
      </trkpt>
      <trkpt lat="47.21908" lon="-1.35985">
        <ele>21</ele>
        <time>2020-11-29T16:16:54Z</time>
      </trkpt>
      <trkpt lat="47.21911" lon="-1.35995">
        <ele>21</ele>
        <time>2020-11-29T16:16:56Z</time>
      </trkpt>
      <trkpt lat="47.21914" lon="-1.36007">
        <ele>21</ele>
        <time>2020-11-29T16:16:58Z</time>
      </trkpt>
      <trkpt lat="47.21917" lon="-1.3602">
        <ele>21</ele>
        <time>2020-11-29T16:17:01Z</time>
      </trkpt>
      <trkpt lat="47.2192" lon="-1.36042">
        <ele>21</ele>
        <time>2020-11-29T16:17:05Z</time>
      </trkpt>
      <trkpt lat="47.21923" lon="-1.3606">
        <ele>21</ele>
        <time>2020-11-29T16:17:08Z</time>
      </trkpt>
      <trkpt lat="47.21926" lon="-1.36074">
        <ele>19</ele>
        <time>2020-11-29T16:17:11Z</time>
      </trkpt>
      <trkpt lat="47.21929" lon="-1.36085">
        <ele>19</ele>
        <time>2020-11-29T16:17:13Z</time>
      </trkpt>
      <trkpt lat="47.21934" lon="-1.361">
        <ele>19</ele>
        <time>2020-11-29T16:17:16Z</time>
      </trkpt>
      <trkpt lat="47.21938" lon="-1.36111">
        <ele>19</ele>
        <time>2020-11-29T16:17:18Z</time>
      </trkpt>
      <trkpt lat="47.21943" lon="-1.36123">
        <ele>19</ele>
        <time>2020-11-29T16:17:21Z</time>
      </trkpt>
      <trkpt lat="47.21948" lon="-1.36132">
        <ele>19</ele>
        <time>2020-11-29T16:17:23Z</time>
      </trkpt>
      <trkpt lat="47.21956" lon="-1.36146">
        <ele>19</ele>
        <time>2020-11-29T16:17:26Z</time>
      </trkpt>
      <trkpt lat="47.21966" lon="-1.3616">
        <ele>19</ele>
        <time>2020-11-29T16:17:30Z</time>
      </trkpt>
      <trkpt lat="47.21978" lon="-1.36175">
        <ele>19</ele>
        <time>2020-11-29T16:17:34Z</time>
      </trkpt>
      <trkpt lat="47.21999" lon="-1.362">
        <ele>17</ele>
        <time>2020-11-29T16:17:41Z</time>
      </trkpt>
      <trkpt lat="47.22035" lon="-1.36242">
        <ele>17</ele>
        <time>2020-11-29T16:17:53Z</time>
      </trkpt>
      <trkpt lat="47.22078" lon="-1.36292">
        <ele>16</ele>
        <time>2020-11-29T16:18:08Z</time>
      </trkpt>
      <trkpt lat="47.2208" lon="-1.36295">
        <ele>16</ele>
        <time>2020-11-29T16:18:09Z</time>
      </trkpt>
      <trkpt lat="47.22122" lon="-1.36345">
        <ele>16</ele>
        <time>2020-11-29T16:18:23Z</time>
      </trkpt>
      <trkpt lat="47.22147" lon="-1.36374">
        <ele>16</ele>
        <time>2020-11-29T16:18:32Z</time>
      </trkpt>
      <trkpt lat="47.22149" lon="-1.36377">
        <ele>17</ele>
        <time>2020-11-29T16:18:33Z</time>
      </trkpt>
      <trkpt lat="47.22164" lon="-1.36392">
        <ele>17</ele>
        <time>2020-11-29T16:18:37Z</time>
      </trkpt>
      <trkpt lat="47.2218" lon="-1.36407">
        <ele>17</ele>
        <time>2020-11-29T16:18:43Z</time>
      </trkpt>
      <trkpt lat="47.22194" lon="-1.36419">
        <ele>17</ele>
        <time>2020-11-29T16:18:47Z</time>
      </trkpt>
      <trkpt lat="47.22208" lon="-1.36429">
        <ele>17</ele>
        <time>2020-11-29T16:18:51Z</time>
      </trkpt>
      <trkpt lat="47.22225" lon="-1.36441">
        <ele>17</ele>
        <time>2020-11-29T16:18:56Z</time>
      </trkpt>
      <trkpt lat="47.22258" lon="-1.36463">
        <ele>18</ele>
        <time>2020-11-29T16:19:06Z</time>
      </trkpt>
      <trkpt lat="47.22281" lon="-1.36479">
        <ele>18</ele>
        <time>2020-11-29T16:19:13Z</time>
      </trkpt>
      <trkpt lat="47.22292" lon="-1.36487">
        <ele>18</ele>
        <time>2020-11-29T16:19:16Z</time>
      </trkpt>
      <trkpt lat="47.223" lon="-1.36494">
        <ele>18</ele>
        <time>2020-11-29T16:19:18Z</time>
      </trkpt>
      <trkpt lat="47.22313" lon="-1.36509">
        <ele>18</ele>
        <time>2020-11-29T16:19:23Z</time>
      </trkpt>
      <trkpt lat="47.2232" lon="-1.36521">
        <ele>18</ele>
        <time>2020-11-29T16:19:26Z</time>
      </trkpt>
      <trkpt lat="47.22326" lon="-1.36534">
        <ele>18</ele>
        <time>2020-11-29T16:19:28Z</time>
      </trkpt>
      <trkpt lat="47.22334" lon="-1.36556">
        <ele>18</ele>
        <time>2020-11-29T16:19:33Z</time>
      </trkpt>
      <trkpt lat="47.22357" lon="-1.36652">
        <ele>18</ele>
        <time>2020-11-29T16:19:51Z</time>
      </trkpt>
      <trkpt lat="47.22365" lon="-1.36679">
        <ele>16</ele>
        <time>2020-11-29T16:19:57Z</time>
      </trkpt>
      <trkpt lat="47.22379" lon="-1.36713">
        <ele>16</ele>
        <time>2020-11-29T16:20:04Z</time>
      </trkpt>
      <trkpt lat="47.22397" lon="-1.36749">
        <ele>16</ele>
        <time>2020-11-29T16:20:12Z</time>
      </trkpt>
      <trkpt lat="47.22432" lon="-1.36811">
        <ele>10</ele>
        <time>2020-11-29T16:20:27Z</time>
      </trkpt>
      <trkpt lat="47.22445" lon="-1.3684">
        <ele>10</ele>
        <time>2020-11-29T16:20:33Z</time>
      </trkpt>
      <trkpt lat="47.2249" lon="-1.36958">
        <ele>6</ele>
        <time>2020-11-29T16:20:58Z</time>
      </trkpt>
      <trkpt lat="47.22493" lon="-1.36966">
        <ele>6</ele>
        <time>2020-11-29T16:20:59Z</time>
      </trkpt>
      <trkpt lat="47.22505" lon="-1.36996">
        <ele>6</ele>
        <time>2020-11-29T16:21:06Z</time>
      </trkpt>
      <trkpt lat="47.22517" lon="-1.37027">
        <ele>6</ele>
        <time>2020-11-29T16:21:12Z</time>
      </trkpt>
      <trkpt lat="47.22539" lon="-1.37068">
        <ele>5</ele>
        <time>2020-11-29T16:21:21Z</time>
      </trkpt>
      <trkpt lat="47.22547" lon="-1.37079">
        <ele>5</ele>
        <time>2020-11-29T16:21:24Z</time>
      </trkpt>
      <trkpt lat="47.22562" lon="-1.3709">
        <ele>5</ele>
        <time>2020-11-29T16:21:29Z</time>
      </trkpt>
      <trkpt lat="47.2257" lon="-1.37098">
        <ele>5</ele>
        <time>2020-11-29T16:21:31Z</time>
      </trkpt>
      <trkpt lat="47.22588" lon="-1.37124">
        <ele>5</ele>
        <time>2020-11-29T16:21:38Z</time>
      </trkpt>
      <trkpt lat="47.22659" lon="-1.37211">
        <ele>5</ele>
        <time>2020-11-29T16:22:03Z</time>
      </trkpt>
      <trkpt lat="47.22698" lon="-1.37268">
        <ele>7</ele>
        <time>2020-11-29T16:22:18Z</time>
      </trkpt>
      <trkpt lat="47.22718" lon="-1.37293">
        <ele>7</ele>
        <time>2020-11-29T16:22:25Z</time>
      </trkpt>
      <trkpt lat="47.22734" lon="-1.37318">
        <ele>7</ele>
        <time>2020-11-29T16:22:31Z</time>
      </trkpt>
      <trkpt lat="47.22747" lon="-1.37337">
        <ele>7</ele>
        <time>2020-11-29T16:22:36Z</time>
      </trkpt>
      <trkpt lat="47.22761" lon="-1.37362">
        <ele>5</ele>
        <time>2020-11-29T16:22:42Z</time>
      </trkpt>
      <trkpt lat="47.22773" lon="-1.37385">
        <ele>5</ele>
        <time>2020-11-29T16:22:47Z</time>
      </trkpt>
      <trkpt lat="47.22787" lon="-1.37413">
        <ele>5</ele>
        <time>2020-11-29T16:22:53Z</time>
      </trkpt>
      <trkpt lat="47.22798" lon="-1.37438">
        <ele>5</ele>
        <time>2020-11-29T16:22:59Z</time>
      </trkpt>
      <trkpt lat="47.22812" lon="-1.37473">
        <ele>5</ele>
        <time>2020-11-29T16:23:06Z</time>
      </trkpt>
      <trkpt lat="47.22836" lon="-1.37539">
        <ele>6</ele>
        <time>2020-11-29T16:23:20Z</time>
      </trkpt>
      <trkpt lat="47.22857" lon="-1.37596">
        <ele>6</ele>
        <time>2020-11-29T16:23:31Z</time>
      </trkpt>
      <trkpt lat="47.22861" lon="-1.37606">
        <ele>6</ele>
        <time>2020-11-29T16:23:33Z</time>
      </trkpt>
      <trkpt lat="47.22872" lon="-1.37633">
        <ele>5</ele>
        <time>2020-11-29T16:23:39Z</time>
      </trkpt>
      <trkpt lat="47.22879" lon="-1.37646">
        <ele>5</ele>
        <time>2020-11-29T16:23:42Z</time>
      </trkpt>
      <trkpt lat="47.22888" lon="-1.37659">
        <ele>5</ele>
        <time>2020-11-29T16:23:45Z</time>
      </trkpt>
      <trkpt lat="47.22897" lon="-1.37669">
        <ele>5</ele>
        <time>2020-11-29T16:23:48Z</time>
      </trkpt>
      <trkpt lat="47.22938" lon="-1.37707">
        <ele>5</ele>
        <time>2020-11-29T16:24:01Z</time>
      </trkpt>
      <trkpt lat="47.22953" lon="-1.37718">
        <ele>7</ele>
        <time>2020-11-29T16:24:06Z</time>
      </trkpt>
      <trkpt lat="47.22965" lon="-1.37726">
        <ele>7</ele>
        <time>2020-11-29T16:24:09Z</time>
      </trkpt>
      <trkpt lat="47.22974" lon="-1.37731">
        <ele>7</ele>
        <time>2020-11-29T16:24:12Z</time>
      </trkpt>
      <trkpt lat="47.22987" lon="-1.37736">
        <ele>7</ele>
        <time>2020-11-29T16:24:16Z</time>
      </trkpt>
      <trkpt lat="47.23001" lon="-1.3774">
        <ele>7</ele>
        <time>2020-11-29T16:24:19Z</time>
      </trkpt>
      <trkpt lat="47.23024" lon="-1.37747">
        <ele>7</ele>
        <time>2020-11-29T16:24:26Z</time>
      </trkpt>
      <trkpt lat="47.23035" lon="-1.37749">
        <ele>7</ele>
        <time>2020-11-29T16:24:29Z</time>
      </trkpt>
      <trkpt lat="47.23044" lon="-1.37752">
        <ele>7</ele>
        <time>2020-11-29T16:24:31Z</time>
      </trkpt>
      <trkpt lat="47.23052" lon="-1.37754">
        <ele>10</ele>
        <time>2020-11-29T16:24:33Z</time>
      </trkpt>
      <trkpt lat="47.2306" lon="-1.37758">
        <ele>10</ele>
        <time>2020-11-29T16:24:36Z</time>
      </trkpt>
      <trkpt lat="47.2307" lon="-1.37764">
        <ele>10</ele>
        <time>2020-11-29T16:24:38Z</time>
      </trkpt>
      <trkpt lat="47.23083" lon="-1.37775">
        <ele>10</ele>
        <time>2020-11-29T16:24:42Z</time>
      </trkpt>
      <trkpt lat="47.23092" lon="-1.37786">
        <ele>10</ele>
        <time>2020-11-29T16:24:46Z</time>
      </trkpt>
      <trkpt lat="47.23093" lon="-1.37788">
        <ele>10</ele>
        <time>2020-11-29T16:24:46Z</time>
      </trkpt>
      <trkpt lat="47.231" lon="-1.37798">
        <ele>10</ele>
        <time>2020-11-29T16:24:49Z</time>
      </trkpt>
      <trkpt lat="47.23116" lon="-1.37829">
        <ele>10</ele>
        <time>2020-11-29T16:24:56Z</time>
      </trkpt>
      <trkpt lat="47.23144" lon="-1.37884">
        <ele>10</ele>
        <time>2020-11-29T16:25:08Z</time>
      </trkpt>
      <trkpt lat="47.23157" lon="-1.37909">
        <ele>10</ele>
        <time>2020-11-29T16:25:14Z</time>
      </trkpt>
      <trkpt lat="47.23165" lon="-1.37922">
        <ele>10</ele>
        <time>2020-11-29T16:25:17Z</time>
      </trkpt>
      <trkpt lat="47.23167" lon="-1.37925">
        <ele>10</ele>
        <time>2020-11-29T16:25:18Z</time>
      </trkpt>
      <trkpt lat="47.23172" lon="-1.37932">
        <ele>10</ele>
        <time>2020-11-29T16:25:20Z</time>
      </trkpt>
      <trkpt lat="47.23179" lon="-1.37938">
        <ele>10</ele>
        <time>2020-11-29T16:25:22Z</time>
      </trkpt>
      <trkpt lat="47.23185" lon="-1.37945">
        <ele>10</ele>
        <time>2020-11-29T16:25:24Z</time>
      </trkpt>
      <trkpt lat="47.2319" lon="-1.37949">
        <ele>10</ele>
        <time>2020-11-29T16:25:25Z</time>
      </trkpt>
      <trkpt lat="47.23203" lon="-1.37958">
        <ele>12</ele>
        <time>2020-11-29T16:25:29Z</time>
      </trkpt>
      <trkpt lat="47.23214" lon="-1.37966">
        <ele>12</ele>
        <time>2020-11-29T16:25:32Z</time>
      </trkpt>
      <trkpt lat="47.23222" lon="-1.37974">
        <ele>12</ele>
        <time>2020-11-29T16:25:35Z</time>
      </trkpt>
      <trkpt lat="47.23229" lon="-1.37981">
        <ele>12</ele>
        <time>2020-11-29T16:25:37Z</time>
      </trkpt>
      <trkpt lat="47.23234" lon="-1.37989">
        <ele>12</ele>
        <time>2020-11-29T16:25:39Z</time>
      </trkpt>
      <trkpt lat="47.23241" lon="-1.38">
        <ele>12</ele>
        <time>2020-11-29T16:25:42Z</time>
      </trkpt>
      <trkpt lat="47.23249" lon="-1.38014">
        <ele>12</ele>
        <time>2020-11-29T16:25:45Z</time>
      </trkpt>
      <trkpt lat="47.23255" lon="-1.38025">
        <ele>12</ele>
        <time>2020-11-29T16:25:48Z</time>
      </trkpt>
      <trkpt lat="47.23267" lon="-1.38049">
        <ele>12</ele>
        <time>2020-11-29T16:25:53Z</time>
      </trkpt>
      <trkpt lat="47.23274" lon="-1.38062">
        <ele>13</ele>
        <time>2020-11-29T16:25:56Z</time>
      </trkpt>
      <trkpt lat="47.23286" lon="-1.38085">
        <ele>13</ele>
        <time>2020-11-29T16:26:02Z</time>
      </trkpt>
      <trkpt lat="47.233" lon="-1.38111">
        <ele>13</ele>
        <time>2020-11-29T16:26:08Z</time>
      </trkpt>
      <trkpt lat="47.2331" lon="-1.38131">
        <ele>13</ele>
        <time>2020-11-29T16:26:12Z</time>
      </trkpt>
      <trkpt lat="47.23316" lon="-1.38142">
        <ele>13</ele>
        <time>2020-11-29T16:26:15Z</time>
      </trkpt>
      <trkpt lat="47.23351" lon="-1.38209">
        <ele>14</ele>
        <time>2020-11-29T16:26:30Z</time>
      </trkpt>
      <trkpt lat="47.23357" lon="-1.38222">
        <ele>14</ele>
        <time>2020-11-29T16:26:33Z</time>
      </trkpt>
      <trkpt lat="47.2337" lon="-1.38247">
        <ele>14</ele>
        <time>2020-11-29T16:26:39Z</time>
      </trkpt>
      <trkpt lat="47.23384" lon="-1.38274">
        <ele>14</ele>
        <time>2020-11-29T16:26:45Z</time>
      </trkpt>
      <trkpt lat="47.23426" lon="-1.38352">
        <ele>13</ele>
        <time>2020-11-29T16:27:03Z</time>
      </trkpt>
      <trkpt lat="47.23445" lon="-1.38388">
        <ele>13</ele>
        <time>2020-11-29T16:27:11Z</time>
      </trkpt>
      <trkpt lat="47.2345" lon="-1.38403">
        <ele>13</ele>
        <time>2020-11-29T16:27:14Z</time>
      </trkpt>
      <trkpt lat="47.23458" lon="-1.38431">
        <ele>15</ele>
        <time>2020-11-29T16:27:20Z</time>
      </trkpt>
      <trkpt lat="47.23462" lon="-1.38445">
        <ele>15</ele>
        <time>2020-11-29T16:27:22Z</time>
      </trkpt>
      <trkpt lat="47.23467" lon="-1.38453">
        <ele>15</ele>
        <time>2020-11-29T16:27:24Z</time>
      </trkpt>
      <trkpt lat="47.23475" lon="-1.38459">
        <ele>15</ele>
        <time>2020-11-29T16:27:27Z</time>
      </trkpt>
      <trkpt lat="47.23483" lon="-1.38463">
        <ele>15</ele>
        <time>2020-11-29T16:27:29Z</time>
      </trkpt>
      <trkpt lat="47.23485" lon="-1.38457">
        <ele>15</ele>
        <time>2020-11-29T16:27:30Z</time>
      </trkpt>
      <trkpt lat="47.23489" lon="-1.38453">
        <ele>15</ele>
        <time>2020-11-29T16:27:32Z</time>
      </trkpt>
      <trkpt lat="47.23493" lon="-1.38452">
        <ele>15</ele>
        <time>2020-11-29T16:27:33Z</time>
      </trkpt>
      <trkpt lat="47.23498" lon="-1.38452">
        <ele>15</ele>
        <time>2020-11-29T16:27:34Z</time>
      </trkpt>
      <trkpt lat="47.23502" lon="-1.38455">
        <ele>15</ele>
        <time>2020-11-29T16:27:35Z</time>
      </trkpt>
      <trkpt lat="47.23505" lon="-1.38459">
        <ele>15</ele>
        <time>2020-11-29T16:27:36Z</time>
      </trkpt>
      <trkpt lat="47.23507" lon="-1.38465">
        <ele>15</ele>
        <time>2020-11-29T16:27:37Z</time>
      </trkpt>
      <trkpt lat="47.23508" lon="-1.38472">
        <ele>15</ele>
        <time>2020-11-29T16:27:39Z</time>
      </trkpt>
      <trkpt lat="47.23507" lon="-1.38478">
        <ele>15</ele>
        <time>2020-11-29T16:27:40Z</time>
      </trkpt>
      <trkpt lat="47.2352" lon="-1.38488">
        <ele>15</ele>
        <time>2020-11-29T16:27:44Z</time>
      </trkpt>
      <trkpt lat="47.23525" lon="-1.38499">
        <ele>17</ele>
        <time>2020-11-29T16:27:46Z</time>
      </trkpt>
      <trkpt lat="47.23528" lon="-1.38513">
        <ele>17</ele>
        <time>2020-11-29T16:27:49Z</time>
      </trkpt>
      <trkpt lat="47.2353" lon="-1.38557">
        <ele>17</ele>
        <time>2020-11-29T16:27:57Z</time>
      </trkpt>
      <trkpt lat="47.23534" lon="-1.38579">
        <ele>17</ele>
        <time>2020-11-29T16:28:01Z</time>
      </trkpt>
      <trkpt lat="47.2354" lon="-1.38597">
        <ele>17</ele>
        <time>2020-11-29T16:28:05Z</time>
      </trkpt>
      <trkpt lat="47.23545" lon="-1.38609">
        <ele>17</ele>
        <time>2020-11-29T16:28:07Z</time>
      </trkpt>
      <trkpt lat="47.23553" lon="-1.38628">
        <ele>17</ele>
        <time>2020-11-29T16:28:11Z</time>
      </trkpt>
      <trkpt lat="47.23568" lon="-1.38658">
        <ele>18</ele>
        <time>2020-11-29T16:28:18Z</time>
      </trkpt>
      <trkpt lat="47.23574" lon="-1.38668">
        <ele>18</ele>
        <time>2020-11-29T16:28:20Z</time>
      </trkpt>
      <trkpt lat="47.23587" lon="-1.38688">
        <ele>18</ele>
        <time>2020-11-29T16:28:25Z</time>
      </trkpt>
      <trkpt lat="47.2368" lon="-1.38797">
        <ele>17</ele>
        <time>2020-11-29T16:28:57Z</time>
      </trkpt>
      <trkpt lat="47.23685" lon="-1.38803">
        <ele>17</ele>
        <time>2020-11-29T16:28:59Z</time>
      </trkpt>
      <trkpt lat="47.23715" lon="-1.38841">
        <ele>16</ele>
        <time>2020-11-29T16:29:09Z</time>
      </trkpt>
      <trkpt lat="47.23734" lon="-1.38869">
        <ele>16</ele>
        <time>2020-11-29T16:29:17Z</time>
      </trkpt>
      <trkpt lat="47.23781" lon="-1.38944">
        <ele>16</ele>
        <time>2020-11-29T16:29:35Z</time>
      </trkpt>
      <trkpt lat="47.23799" lon="-1.38974">
        <ele>16</ele>
        <time>2020-11-29T16:29:42Z</time>
      </trkpt>
      <trkpt lat="47.23811" lon="-1.38988">
        <ele>16</ele>
        <time>2020-11-29T16:29:47Z</time>
      </trkpt>
      <trkpt lat="47.2382" lon="-1.38997">
        <ele>16</ele>
        <time>2020-11-29T16:29:49Z</time>
      </trkpt>
      <trkpt lat="47.23824" lon="-1.39001">
        <ele>16</ele>
        <time>2020-11-29T16:29:51Z</time>
      </trkpt>
      <trkpt lat="47.2387" lon="-1.39033">
        <ele>17</ele>
        <time>2020-11-29T16:30:04Z</time>
      </trkpt>
      <trkpt lat="47.23882" lon="-1.39042">
        <ele>17</ele>
        <time>2020-11-29T16:30:08Z</time>
      </trkpt>
      <trkpt lat="47.23891" lon="-1.39051">
        <ele>17</ele>
        <time>2020-11-29T16:30:11Z</time>
      </trkpt>
      <trkpt lat="47.23898" lon="-1.3906">
        <ele>17</ele>
        <time>2020-11-29T16:30:13Z</time>
      </trkpt>
      <trkpt lat="47.23907" lon="-1.39072">
        <ele>17</ele>
        <time>2020-11-29T16:30:17Z</time>
      </trkpt>
      <trkpt lat="47.23922" lon="-1.39097">
        <ele>17</ele>
        <time>2020-11-29T16:30:23Z</time>
      </trkpt>
      <trkpt lat="47.2396" lon="-1.39161">
        <ele>17</ele>
        <time>2020-11-29T16:30:38Z</time>
      </trkpt>
      <trkpt lat="47.23969" lon="-1.39175">
        <ele>17</ele>
        <time>2020-11-29T16:30:41Z</time>
      </trkpt>
      <trkpt lat="47.2398" lon="-1.39185">
        <ele>17</ele>
        <time>2020-11-29T16:30:45Z</time>
      </trkpt>
      <trkpt lat="47.23994" lon="-1.39195">
        <ele>17</ele>
        <time>2020-11-29T16:30:49Z</time>
      </trkpt>
      <trkpt lat="47.2413" lon="-1.3926">
        <ele>17</ele>
        <time>2020-11-29T16:31:27Z</time>
      </trkpt>
      <trkpt lat="47.24216" lon="-1.39301">
        <ele>17</ele>
        <time>2020-11-29T16:31:51Z</time>
      </trkpt>
      <trkpt lat="47.24229" lon="-1.39307">
        <ele>19</ele>
        <time>2020-11-29T16:31:55Z</time>
      </trkpt>
      <trkpt lat="47.24244" lon="-1.39316">
        <ele>19</ele>
        <time>2020-11-29T16:31:59Z</time>
      </trkpt>
      <trkpt lat="47.24254" lon="-1.39323">
        <ele>19</ele>
        <time>2020-11-29T16:32:02Z</time>
      </trkpt>
      <trkpt lat="47.24264" lon="-1.39335">
        <ele>19</ele>
        <time>2020-11-29T16:32:06Z</time>
      </trkpt>
      <trkpt lat="47.24291" lon="-1.39375">
        <ele>19</ele>
        <time>2020-11-29T16:32:16Z</time>
      </trkpt>
      <trkpt lat="47.24317" lon="-1.39413">
        <ele>19</ele>
        <time>2020-11-29T16:32:26Z</time>
      </trkpt>
      <trkpt lat="47.24337" lon="-1.39442">
        <ele>19</ele>
        <time>2020-11-29T16:32:33Z</time>
      </trkpt>
      <trkpt lat="47.24361" lon="-1.39479">
        <ele>19</ele>
        <time>2020-11-29T16:32:43Z</time>
      </trkpt>
      <trkpt lat="47.24371" lon="-1.39492">
        <ele>19</ele>
        <time>2020-11-29T16:32:46Z</time>
      </trkpt>
      <trkpt lat="47.24389" lon="-1.39507">
        <ele>19</ele>
        <time>2020-11-29T16:32:52Z</time>
      </trkpt>
      <trkpt lat="47.2442" lon="-1.3953">
        <ele>19</ele>
        <time>2020-11-29T16:33:01Z</time>
      </trkpt>
      <trkpt lat="47.24444" lon="-1.39547">
        <ele>19</ele>
        <time>2020-11-29T16:33:08Z</time>
      </trkpt>
      <trkpt lat="47.24486" lon="-1.39581">
        <ele>17</ele>
        <time>2020-11-29T16:33:21Z</time>
      </trkpt>
      <trkpt lat="47.24505" lon="-1.39599">
        <ele>17</ele>
        <time>2020-11-29T16:33:27Z</time>
      </trkpt>
      <trkpt lat="47.24509" lon="-1.39604">
        <ele>17</ele>
        <time>2020-11-29T16:33:28Z</time>
      </trkpt>
      <trkpt lat="47.24514" lon="-1.39611">
        <ele>17</ele>
        <time>2020-11-29T16:33:30Z</time>
      </trkpt>
      <trkpt lat="47.24518" lon="-1.39623">
        <ele>17</ele>
        <time>2020-11-29T16:33:33Z</time>
      </trkpt>
      <trkpt lat="47.24526" lon="-1.39649">
        <ele>17</ele>
        <time>2020-11-29T16:33:38Z</time>
      </trkpt>
      <trkpt lat="47.24534" lon="-1.3967">
        <ele>17</ele>
        <time>2020-11-29T16:33:42Z</time>
      </trkpt>
      <trkpt lat="47.24537" lon="-1.39677">
        <ele>17</ele>
        <time>2020-11-29T16:33:44Z</time>
      </trkpt>
      <trkpt lat="47.24528" lon="-1.3969">
        <ele>17</ele>
        <time>2020-11-29T16:33:47Z</time>
      </trkpt>
      <trkpt lat="47.24532" lon="-1.39699">
        <ele>17</ele>
        <time>2020-11-29T16:33:49Z</time>
      </trkpt>
      <trkpt lat="47.24571" lon="-1.39788">
        <ele>17</ele>
        <time>2020-11-29T16:34:08Z</time>
      </trkpt>
      <trkpt lat="47.24575" lon="-1.39797">
        <ele>17</ele>
        <time>2020-11-29T16:34:10Z</time>
      </trkpt>
      <trkpt lat="47.24624" lon="-1.39909">
        <ele>18</ele>
        <time>2020-11-29T16:34:34Z</time>
      </trkpt>
      <trkpt lat="47.24638" lon="-1.39938">
        <ele>16</ele>
        <time>2020-11-29T16:34:41Z</time>
      </trkpt>
      <trkpt lat="47.24685" lon="-1.4002">
        <ele>16</ele>
        <time>2020-11-29T16:35:00Z</time>
      </trkpt>
      <trkpt lat="47.24713" lon="-1.40067">
        <ele>15</ele>
        <time>2020-11-29T16:35:12Z</time>
      </trkpt>
      <trkpt lat="47.24716" lon="-1.40072">
        <ele>15</ele>
        <time>2020-11-29T16:35:13Z</time>
      </trkpt>
      <trkpt lat="47.2472" lon="-1.40077">
        <ele>15</ele>
        <time>2020-11-29T16:35:14Z</time>
      </trkpt>
      <trkpt lat="47.24744" lon="-1.40116">
        <ele>15</ele>
        <time>2020-11-29T16:35:24Z</time>
      </trkpt>
      <trkpt lat="47.24788" lon="-1.40193">
        <ele>15</ele>
        <time>2020-11-29T16:35:42Z</time>
      </trkpt>
      <trkpt lat="47.2481" lon="-1.40223">
        <ele>15</ele>
        <time>2020-11-29T16:35:50Z</time>
      </trkpt>
      <trkpt lat="47.24877" lon="-1.40301">
        <ele>14</ele>
        <time>2020-11-29T16:36:13Z</time>
      </trkpt>
      <trkpt lat="47.24912" lon="-1.40342">
        <ele>14</ele>
        <time>2020-11-29T16:36:25Z</time>
      </trkpt>
      <trkpt lat="47.2494" lon="-1.40376">
        <ele>12</ele>
        <time>2020-11-29T16:36:34Z</time>
      </trkpt>
      <trkpt lat="47.24943" lon="-1.40379">
        <ele>12</ele>
        <time>2020-11-29T16:36:35Z</time>
      </trkpt>
      <trkpt lat="47.24985" lon="-1.40429">
        <ele>12</ele>
        <time>2020-11-29T16:36:50Z</time>
      </trkpt>
      <trkpt lat="47.25018" lon="-1.40469">
        <ele>8</ele>
        <time>2020-11-29T16:37:01Z</time>
      </trkpt>
      <trkpt lat="47.25068" lon="-1.4053">
        <ele>8</ele>
        <time>2020-11-29T16:37:19Z</time>
      </trkpt>
      <trkpt lat="47.25079" lon="-1.40543">
        <ele>8</ele>
        <time>2020-11-29T16:37:22Z</time>
      </trkpt>
      <trkpt lat="47.25082" lon="-1.40546">
        <ele>8</ele>
        <time>2020-11-29T16:37:23Z</time>
      </trkpt>
      <trkpt lat="47.25203" lon="-1.40693">
        <ele>3</ele>
        <time>2020-11-29T16:38:05Z</time>
      </trkpt>
      <trkpt lat="47.25206" lon="-1.40695">
        <ele>3</ele>
        <time>2020-11-29T16:38:06Z</time>
      </trkpt>
      <trkpt lat="47.25252" lon="-1.40751">
        <ele>3</ele>
        <time>2020-11-29T16:38:22Z</time>
      </trkpt>
      <trkpt lat="47.25263" lon="-1.40764">
        <ele>3</ele>
        <time>2020-11-29T16:38:26Z</time>
      </trkpt>
      <trkpt lat="47.25279" lon="-1.40784">
        <ele>3</ele>
        <time>2020-11-29T16:38:31Z</time>
      </trkpt>
      <trkpt lat="47.25307" lon="-1.40817">
        <ele>3</ele>
        <time>2020-11-29T16:38:41Z</time>
      </trkpt>
      <trkpt lat="47.25341" lon="-1.40857">
        <ele>4</ele>
        <time>2020-11-29T16:38:53Z</time>
      </trkpt>
      <trkpt lat="47.25395" lon="-1.40921">
        <ele>4</ele>
        <time>2020-11-29T16:39:11Z</time>
      </trkpt>
      <trkpt lat="47.25495" lon="-1.41015">
        <ele>5</ele>
        <time>2020-11-29T16:39:43Z</time>
      </trkpt>
      <trkpt lat="47.25498" lon="-1.41019">
        <ele>5</ele>
        <time>2020-11-29T16:39:44Z</time>
      </trkpt>
      <trkpt lat="47.25502" lon="-1.41012">
        <ele>5</ele>
        <time>2020-11-29T16:39:46Z</time>
      </trkpt>
      <trkpt lat="47.25507" lon="-1.41008">
        <ele>5</ele>
        <time>2020-11-29T16:39:47Z</time>
      </trkpt>
      <trkpt lat="47.25513" lon="-1.41005">
        <ele>5</ele>
        <time>2020-11-29T16:39:49Z</time>
      </trkpt>
      <trkpt lat="47.25519" lon="-1.41006">
        <ele>5</ele>
        <time>2020-11-29T16:39:50Z</time>
      </trkpt>
      <trkpt lat="47.25526" lon="-1.41009">
        <ele>5</ele>
        <time>2020-11-29T16:39:52Z</time>
      </trkpt>
      <trkpt lat="47.25531" lon="-1.41016">
        <ele>5</ele>
        <time>2020-11-29T16:39:54Z</time>
      </trkpt>
      <trkpt lat="47.25534" lon="-1.41025">
        <ele>5</ele>
        <time>2020-11-29T16:39:56Z</time>
      </trkpt>
      <trkpt lat="47.25535" lon="-1.41033">
        <ele>5</ele>
        <time>2020-11-29T16:39:58Z</time>
      </trkpt>
      <trkpt lat="47.25534" lon="-1.41042">
        <ele>5</ele>
        <time>2020-11-29T16:39:59Z</time>
      </trkpt>
      <trkpt lat="47.25532" lon="-1.41049">
        <ele>5</ele>
        <time>2020-11-29T16:40:01Z</time>
      </trkpt>
      <trkpt lat="47.25529" lon="-1.41056">
        <ele>5</ele>
        <time>2020-11-29T16:40:02Z</time>
      </trkpt>
      <trkpt lat="47.25524" lon="-1.41061">
        <ele>5</ele>
        <time>2020-11-29T16:40:04Z</time>
      </trkpt>
      <trkpt lat="47.25528" lon="-1.41077">
        <ele>5</ele>
        <time>2020-11-29T16:40:07Z</time>
      </trkpt>
      <trkpt lat="47.25544" lon="-1.41126">
        <ele>3</ele>
        <time>2020-11-29T16:40:17Z</time>
      </trkpt>
      <trkpt lat="47.25551" lon="-1.41155">
        <ele>3</ele>
        <time>2020-11-29T16:40:22Z</time>
      </trkpt>
      <trkpt lat="47.25558" lon="-1.41192">
        <ele>3</ele>
        <time>2020-11-29T16:40:29Z</time>
      </trkpt>
      <trkpt lat="47.25605" lon="-1.41622">
        <ele>4</ele>
        <time>2020-11-29T16:41:48Z</time>
      </trkpt>
      <trkpt lat="47.25606" lon="-1.4163">
        <ele>4</ele>
        <time>2020-11-29T16:41:50Z</time>
      </trkpt>
      <trkpt lat="47.25656" lon="-1.42092">
        <ele>4</ele>
        <time>2020-11-29T16:43:14Z</time>
      </trkpt>
      <trkpt lat="47.25662" lon="-1.42142">
        <ele>4</ele>
        <time>2020-11-29T16:43:24Z</time>
      </trkpt>
      <trkpt lat="47.25687" lon="-1.42366">
        <ele>3</ele>
        <time>2020-11-29T16:44:05Z</time>
      </trkpt>
      <trkpt lat="47.2569" lon="-1.42393">
        <ele>3</ele>
        <time>2020-11-29T16:44:10Z</time>
      </trkpt>
      <trkpt lat="47.25692" lon="-1.4241">
        <ele>3</ele>
        <time>2020-11-29T16:44:13Z</time>
      </trkpt>
      <trkpt lat="47.25707" lon="-1.42551">
        <ele>6</ele>
        <time>2020-11-29T16:44:39Z</time>
      </trkpt>
      <trkpt lat="47.25708" lon="-1.42564">
        <ele>6</ele>
        <time>2020-11-29T16:44:41Z</time>
      </trkpt>
      <trkpt lat="47.25715" lon="-1.42599">
        <ele>6</ele>
        <time>2020-11-29T16:44:48Z</time>
      </trkpt>
      <trkpt lat="47.25717" lon="-1.42607">
        <ele>7</ele>
        <time>2020-11-29T16:44:49Z</time>
      </trkpt>
      <trkpt lat="47.2572" lon="-1.42605">
        <ele>7</ele>
        <time>2020-11-29T16:44:50Z</time>
      </trkpt>
      <trkpt lat="47.25723" lon="-1.42605">
        <ele>7</ele>
        <time>2020-11-29T16:44:51Z</time>
      </trkpt>
      <trkpt lat="47.25725" lon="-1.42606">
        <ele>7</ele>
        <time>2020-11-29T16:44:52Z</time>
      </trkpt>
      <trkpt lat="47.25728" lon="-1.42609">
        <ele>7</ele>
        <time>2020-11-29T16:44:53Z</time>
      </trkpt>
      <trkpt lat="47.25729" lon="-1.42612">
        <ele>7</ele>
        <time>2020-11-29T16:44:53Z</time>
      </trkpt>
      <trkpt lat="47.2573" lon="-1.42615">
        <ele>7</ele>
        <time>2020-11-29T16:44:54Z</time>
      </trkpt>
      <trkpt lat="47.2573" lon="-1.42618">
        <ele>7</ele>
        <time>2020-11-29T16:44:54Z</time>
      </trkpt>
      <trkpt lat="47.25729" lon="-1.42622">
        <ele>7</ele>
        <time>2020-11-29T16:44:55Z</time>
      </trkpt>
      <trkpt lat="47.25728" lon="-1.42624">
        <ele>7</ele>
        <time>2020-11-29T16:44:56Z</time>
      </trkpt>
      <trkpt lat="47.25733" lon="-1.42634">
        <ele>7</ele>
        <time>2020-11-29T16:44:58Z</time>
      </trkpt>
      <trkpt lat="47.25841" lon="-1.42898">
        <ele>3</ele>
        <time>2020-11-29T16:45:54Z</time>
      </trkpt>
      <trkpt lat="47.25894" lon="-1.4303">
        <ele>1</ele>
        <time>2020-11-29T16:46:21Z</time>
      </trkpt>
      <trkpt lat="47.25918" lon="-1.43091">
        <ele>1</ele>
        <time>2020-11-29T16:46:34Z</time>
      </trkpt>
      <trkpt lat="47.25928" lon="-1.43112">
        <ele>1</ele>
        <time>2020-11-29T16:46:39Z</time>
      </trkpt>
      <trkpt lat="47.25937" lon="-1.43128">
        <ele>5</ele>
        <time>2020-11-29T16:46:43Z</time>
      </trkpt>
      <trkpt lat="47.25968" lon="-1.43173">
        <ele>5</ele>
        <time>2020-11-29T16:46:54Z</time>
      </trkpt>
      <trkpt lat="47.26226" lon="-1.43544">
        <ele>4</ele>
        <time>2020-11-29T16:48:31Z</time>
      </trkpt>
      <trkpt lat="47.26237" lon="-1.43559">
        <ele>4</ele>
        <time>2020-11-29T16:48:35Z</time>
      </trkpt>
      <trkpt lat="47.26241" lon="-1.43566">
        <ele>4</ele>
        <time>2020-11-29T16:48:36Z</time>
      </trkpt>
      <trkpt lat="47.26261" lon="-1.43595">
        <ele>4</ele>
        <time>2020-11-29T16:48:44Z</time>
      </trkpt>
      <trkpt lat="47.26328" lon="-1.43691">
        <ele>5</ele>
        <time>2020-11-29T16:49:09Z</time>
      </trkpt>
      <trkpt lat="47.26342" lon="-1.43712">
        <ele>5</ele>
        <time>2020-11-29T16:49:14Z</time>
      </trkpt>
      <trkpt lat="47.26382" lon="-1.4377">
        <ele>5</ele>
        <time>2020-11-29T16:49:29Z</time>
      </trkpt>
      <trkpt lat="47.26405" lon="-1.43803">
        <ele>5</ele>
        <time>2020-11-29T16:49:38Z</time>
      </trkpt>
      <trkpt lat="47.26413" lon="-1.43813">
        <ele>5</ele>
        <time>2020-11-29T16:49:40Z</time>
      </trkpt>
      <trkpt lat="47.26443" lon="-1.43854">
        <ele>5</ele>
        <time>2020-11-29T16:49:51Z</time>
      </trkpt>
      <trkpt lat="47.26451" lon="-1.43866">
        <ele>7</ele>
        <time>2020-11-29T16:49:54Z</time>
      </trkpt>
      <trkpt lat="47.26477" lon="-1.43903">
        <ele>7</ele>
        <time>2020-11-29T16:50:04Z</time>
      </trkpt>
      <trkpt lat="47.26505" lon="-1.43943">
        <ele>7</ele>
        <time>2020-11-29T16:50:15Z</time>
      </trkpt>
      <trkpt lat="47.26508" lon="-1.4395">
        <ele>7</ele>
        <time>2020-11-29T16:50:16Z</time>
      </trkpt>
      <trkpt lat="47.26514" lon="-1.43967">
        <ele>7</ele>
        <time>2020-11-29T16:50:20Z</time>
      </trkpt>
      <trkpt lat="47.26504" lon="-1.4397">
        <ele>9</ele>
        <time>2020-11-29T16:50:22Z</time>
      </trkpt>
      <trkpt lat="47.26498" lon="-1.43969">
        <ele>9</ele>
        <time>2020-11-29T16:50:24Z</time>
      </trkpt>
      <trkpt lat="47.26487" lon="-1.43963">
        <ele>9</ele>
        <time>2020-11-29T16:50:27Z</time>
      </trkpt>
      <trkpt lat="47.26469" lon="-1.43957">
        <ele>9</ele>
        <time>2020-11-29T16:50:32Z</time>
      </trkpt>
      <trkpt lat="47.26452" lon="-1.43952">
        <ele>9</ele>
        <time>2020-11-29T16:50:37Z</time>
      </trkpt>
      <trkpt lat="47.26447" lon="-1.43953">
        <ele>9</ele>
        <time>2020-11-29T16:50:38Z</time>
      </trkpt>
      <trkpt lat="47.26442" lon="-1.43951">
        <ele>9</ele>
        <time>2020-11-29T16:50:39Z</time>
      </trkpt>
      <trkpt lat="47.26437" lon="-1.4395">
        <ele>9</ele>
        <time>2020-11-29T16:50:41Z</time>
      </trkpt>
      <trkpt lat="47.26433" lon="-1.43949">
        <ele>9</ele>
        <time>2020-11-29T16:50:42Z</time>
      </trkpt>
      <trkpt lat="47.2643" lon="-1.43948">
        <ele>9</ele>
        <time>2020-11-29T16:50:43Z</time>
      </trkpt>
      <trkpt lat="47.26424" lon="-1.43947">
        <ele>9</ele>
        <time>2020-11-29T16:50:44Z</time>
      </trkpt>
      <trkpt lat="47.26417" lon="-1.4398">
        <ele>11</ele>
        <time>2020-11-29T16:50:50Z</time>
      </trkpt>
      <trkpt lat="47.26416" lon="-1.43983">
        <ele>11</ele>
        <time>2020-11-29T16:50:51Z</time>
      </trkpt>
      <trkpt lat="47.26411" lon="-1.44">
        <ele>11</ele>
        <time>2020-11-29T16:50:54Z</time>
      </trkpt>
      <trkpt lat="47.26405" lon="-1.44012">
        <ele>11</ele>
        <time>2020-11-29T16:50:57Z</time>
      </trkpt>
      <trkpt lat="47.26399" lon="-1.44025">
        <ele>11</ele>
        <time>2020-11-29T16:51:00Z</time>
      </trkpt>
      <trkpt lat="47.26392" lon="-1.44041">
        <ele>11</ele>
        <time>2020-11-29T16:51:03Z</time>
      </trkpt>
      <trkpt lat="47.26389" lon="-1.44053">
        <ele>11</ele>
        <time>2020-11-29T16:51:06Z</time>
      </trkpt>
      <trkpt lat="47.26388" lon="-1.44065">
        <ele>12</ele>
        <time>2020-11-29T16:51:08Z</time>
      </trkpt>
      <trkpt lat="47.26387" lon="-1.44076">
        <ele>12</ele>
        <time>2020-11-29T16:51:10Z</time>
      </trkpt>
      <trkpt lat="47.26384" lon="-1.44086">
        <ele>12</ele>
        <time>2020-11-29T16:51:12Z</time>
      </trkpt>
      <trkpt lat="47.2638" lon="-1.44094">
        <ele>12</ele>
        <time>2020-11-29T16:51:14Z</time>
      </trkpt>
      <trkpt lat="47.26375" lon="-1.44101">
        <ele>12</ele>
        <time>2020-11-29T16:51:16Z</time>
      </trkpt>
      <trkpt lat="47.26368" lon="-1.44106">
        <ele>12</ele>
        <time>2020-11-29T16:51:18Z</time>
      </trkpt>
      <trkpt lat="47.26357" lon="-1.44111">
        <ele>12</ele>
        <time>2020-11-29T16:51:21Z</time>
      </trkpt>
      <trkpt lat="47.26303" lon="-1.4411">
        <ele>11</ele>
        <time>2020-11-29T16:51:35Z</time>
      </trkpt>
      <trkpt lat="47.26295" lon="-1.44109">
        <ele>11</ele>
        <time>2020-11-29T16:51:37Z</time>
      </trkpt>
      <trkpt lat="47.26294" lon="-1.44144">
        <ele>11</ele>
        <time>2020-11-29T16:51:44Z</time>
      </trkpt>
      <trkpt lat="47.26289" lon="-1.44158">
        <ele>11</ele>
        <time>2020-11-29T16:51:46Z</time>
      </trkpt>
      <trkpt lat="47.26268" lon="-1.44161">
        <ele>11</ele>
        <time>2020-11-29T16:51:52Z</time>
      </trkpt>
      <trkpt lat="47.26263" lon="-1.44164">
        <ele>11</ele>
        <time>2020-11-29T16:51:54Z</time>
      </trkpt>
      <trkpt lat="47.26248" lon="-1.44193">
        <ele>11</ele>
        <time>2020-11-29T16:52:00Z</time>
      </trkpt>
      <trkpt lat="47.26219" lon="-1.44237">
        <ele>10</ele>
        <time>2020-11-29T16:52:11Z</time>
      </trkpt>
      <trkpt lat="47.26184" lon="-1.44295">
        <ele>10</ele>
        <time>2020-11-29T16:52:25Z</time>
      </trkpt>
      <trkpt lat="47.26165" lon="-1.44347">
        <ele>11</ele>
        <time>2020-11-29T16:52:36Z</time>
      </trkpt>
      <trkpt lat="47.2615" lon="-1.44394">
        <ele>11</ele>
        <time>2020-11-29T16:52:45Z</time>
      </trkpt>
      <trkpt lat="47.26119" lon="-1.44477">
        <ele>13</ele>
        <time>2020-11-29T16:53:03Z</time>
      </trkpt>
      <trkpt lat="47.26115" lon="-1.44495">
        <ele>13</ele>
        <time>2020-11-29T16:53:06Z</time>
      </trkpt>
      <trkpt lat="47.26118" lon="-1.44514">
        <ele>13</ele>
        <time>2020-11-29T16:53:10Z</time>
      </trkpt>
      <trkpt lat="47.26135" lon="-1.44536">
        <ele>13</ele>
        <time>2020-11-29T16:53:16Z</time>
      </trkpt>
      <trkpt lat="47.26193" lon="-1.44616">
        <ele>12</ele>
        <time>2020-11-29T16:53:37Z</time>
      </trkpt>
      <trkpt lat="47.26208" lon="-1.44638">
        <ele>12</ele>
        <time>2020-11-29T16:53:43Z</time>
      </trkpt>
      <trkpt lat="47.26209" lon="-1.4464">
        <ele>12</ele>
        <time>2020-11-29T16:53:43Z</time>
      </trkpt>
      <trkpt lat="47.26214" lon="-1.44646">
        <ele>12</ele>
        <time>2020-11-29T16:53:45Z</time>
      </trkpt>
      <trkpt lat="47.26215" lon="-1.44645">
        <ele>12</ele>
        <time>2020-11-29T16:53:45Z</time>
      </trkpt>
      <trkpt lat="47.26216" lon="-1.44644">
        <ele>12</ele>
        <time>2020-11-29T16:53:45Z</time>
      </trkpt>
      <trkpt lat="47.26217" lon="-1.44643">
        <ele>12</ele>
        <time>2020-11-29T16:53:46Z</time>
      </trkpt>
      <trkpt lat="47.26218" lon="-1.44642">
        <ele>12</ele>
        <time>2020-11-29T16:53:46Z</time>
      </trkpt>
      <trkpt lat="47.2622" lon="-1.44641">
        <ele>12</ele>
        <time>2020-11-29T16:53:47Z</time>
      </trkpt>
      <trkpt lat="47.26221" lon="-1.44641">
        <ele>12</ele>
        <time>2020-11-29T16:53:47Z</time>
      </trkpt>
      <trkpt lat="47.26222" lon="-1.4464">
        <ele>12</ele>
        <time>2020-11-29T16:53:47Z</time>
      </trkpt>
      <trkpt lat="47.26224" lon="-1.4464">
        <ele>12</ele>
        <time>2020-11-29T16:53:48Z</time>
      </trkpt>
      <trkpt lat="47.26225" lon="-1.44641">
        <ele>12</ele>
        <time>2020-11-29T16:53:48Z</time>
      </trkpt>
      <trkpt lat="47.26226" lon="-1.44641">
        <ele>12</ele>
        <time>2020-11-29T16:53:48Z</time>
      </trkpt>
      <trkpt lat="47.26228" lon="-1.44642">
        <ele>12</ele>
        <time>2020-11-29T16:53:49Z</time>
      </trkpt>
      <trkpt lat="47.26229" lon="-1.44643">
        <ele>12</ele>
        <time>2020-11-29T16:53:49Z</time>
      </trkpt>
      <trkpt lat="47.2623" lon="-1.44644">
        <ele>12</ele>
        <time>2020-11-29T16:53:50Z</time>
      </trkpt>
      <trkpt lat="47.26231" lon="-1.44645">
        <ele>12</ele>
        <time>2020-11-29T16:53:50Z</time>
      </trkpt>
      <trkpt lat="47.26232" lon="-1.44647">
        <ele>12</ele>
        <time>2020-11-29T16:53:50Z</time>
      </trkpt>
      <trkpt lat="47.26233" lon="-1.44649">
        <ele>12</ele>
        <time>2020-11-29T16:53:51Z</time>
      </trkpt>
      <trkpt lat="47.26234" lon="-1.4465">
        <ele>12</ele>
        <time>2020-11-29T16:53:51Z</time>
      </trkpt>
      <trkpt lat="47.26234" lon="-1.44653">
        <ele>10</ele>
        <time>2020-11-29T16:53:52Z</time>
      </trkpt>
      <trkpt lat="47.26235" lon="-1.44656">
        <ele>10</ele>
        <time>2020-11-29T16:53:52Z</time>
      </trkpt>
      <trkpt lat="47.26235" lon="-1.44658">
        <ele>10</ele>
        <time>2020-11-29T16:53:53Z</time>
      </trkpt>
      <trkpt lat="47.26235" lon="-1.44661">
        <ele>10</ele>
        <time>2020-11-29T16:53:53Z</time>
      </trkpt>
      <trkpt lat="47.26234" lon="-1.44663">
        <ele>10</ele>
        <time>2020-11-29T16:53:54Z</time>
      </trkpt>
      <trkpt lat="47.26234" lon="-1.44665">
        <ele>10</ele>
        <time>2020-11-29T16:53:54Z</time>
      </trkpt>
      <trkpt lat="47.26233" lon="-1.44666">
        <ele>10</ele>
        <time>2020-11-29T16:53:54Z</time>
      </trkpt>
      <trkpt lat="47.26232" lon="-1.44669">
        <ele>10</ele>
        <time>2020-11-29T16:53:55Z</time>
      </trkpt>
      <trkpt lat="47.26231" lon="-1.44671">
        <ele>10</ele>
        <time>2020-11-29T16:53:55Z</time>
      </trkpt>
      <trkpt lat="47.2623" lon="-1.44672">
        <ele>10</ele>
        <time>2020-11-29T16:53:56Z</time>
      </trkpt>
      <trkpt lat="47.26228" lon="-1.44673">
        <ele>10</ele>
        <time>2020-11-29T16:53:56Z</time>
      </trkpt>
      <trkpt lat="47.26227" lon="-1.44674">
        <ele>10</ele>
        <time>2020-11-29T16:53:57Z</time>
      </trkpt>
      <trkpt lat="47.26225" lon="-1.44675">
        <ele>10</ele>
        <time>2020-11-29T16:53:57Z</time>
      </trkpt>
      <trkpt lat="47.26224" lon="-1.44675">
        <ele>10</ele>
        <time>2020-11-29T16:53:57Z</time>
      </trkpt>
      <trkpt lat="47.26222" lon="-1.44675">
        <ele>10</ele>
        <time>2020-11-29T16:53:58Z</time>
      </trkpt>
      <trkpt lat="47.26221" lon="-1.44675">
        <ele>10</ele>
        <time>2020-11-29T16:53:58Z</time>
      </trkpt>
      <trkpt lat="47.26219" lon="-1.44674">
        <ele>10</ele>
        <time>2020-11-29T16:53:59Z</time>
      </trkpt>
      <trkpt lat="47.26205" lon="-1.44685">
        <ele>10</ele>
        <time>2020-11-29T16:54:03Z</time>
      </trkpt>
      <trkpt lat="47.26197" lon="-1.44692">
        <ele>10</ele>
        <time>2020-11-29T16:54:05Z</time>
      </trkpt>
      <trkpt lat="47.26174" lon="-1.44716">
        <ele>11</ele>
        <time>2020-11-29T16:54:13Z</time>
      </trkpt>
      <trkpt lat="47.26158" lon="-1.44736">
        <ele>11</ele>
        <time>2020-11-29T16:54:19Z</time>
      </trkpt>
      <trkpt lat="47.26121" lon="-1.44796">
        <ele>11</ele>
        <time>2020-11-29T16:54:33Z</time>
      </trkpt>
      <trkpt lat="47.26064" lon="-1.44888">
        <ele>11</ele>
        <time>2020-11-29T16:54:56Z</time>
      </trkpt>
      <trkpt lat="47.26027" lon="-1.44954">
        <ele>11</ele>
        <time>2020-11-29T16:55:11Z</time>
      </trkpt>
      <trkpt lat="47.26029" lon="-1.44958">
        <ele>11</ele>
        <time>2020-11-29T16:55:12Z</time>
      </trkpt>
      <trkpt lat="47.2603" lon="-1.44963">
        <ele>11</ele>
        <time>2020-11-29T16:55:13Z</time>
      </trkpt>
      <trkpt lat="47.26029" lon="-1.44968">
        <ele>11</ele>
        <time>2020-11-29T16:55:14Z</time>
      </trkpt>
      <trkpt lat="47.26027" lon="-1.44972">
        <ele>11</ele>
        <time>2020-11-29T16:55:15Z</time>
      </trkpt>
      <trkpt lat="47.26023" lon="-1.44974">
        <ele>11</ele>
        <time>2020-11-29T16:55:16Z</time>
      </trkpt>
      <trkpt lat="47.2602" lon="-1.44974">
        <ele>11</ele>
        <time>2020-11-29T16:55:17Z</time>
      </trkpt>
      <trkpt lat="47.26016" lon="-1.4497">
        <ele>11</ele>
        <time>2020-11-29T16:55:18Z</time>
      </trkpt>
      <trkpt lat="47.2598" lon="-1.45032">
        <ele>11</ele>
        <time>2020-11-29T16:55:33Z</time>
      </trkpt>
      <trkpt lat="47.25955" lon="-1.45083">
        <ele>10</ele>
        <time>2020-11-29T16:55:45Z</time>
      </trkpt>
      <trkpt lat="47.25919" lon="-1.45171">
        <ele>10</ele>
        <time>2020-11-29T16:56:03Z</time>
      </trkpt>
      <trkpt lat="47.25872" lon="-1.45297">
        <ele>9</ele>
        <time>2020-11-29T16:56:29Z</time>
      </trkpt>
      <trkpt lat="47.25846" lon="-1.45365">
        <ele>8</ele>
        <time>2020-11-29T16:56:43Z</time>
      </trkpt>
      <trkpt lat="47.25832" lon="-1.45401">
        <ele>8</ele>
        <time>2020-11-29T16:56:51Z</time>
      </trkpt>
      <trkpt lat="47.2583" lon="-1.45409">
        <ele>8</ele>
        <time>2020-11-29T16:56:52Z</time>
      </trkpt>
      <trkpt lat="47.25827" lon="-1.45421">
        <ele>8</ele>
        <time>2020-11-29T16:56:55Z</time>
      </trkpt>
      <trkpt lat="47.25825" lon="-1.45428">
        <ele>8</ele>
        <time>2020-11-29T16:56:56Z</time>
      </trkpt>
      <trkpt lat="47.2582" lon="-1.45445">
        <ele>7</ele>
        <time>2020-11-29T16:56:59Z</time>
      </trkpt>
      <trkpt lat="47.25814" lon="-1.45474">
        <ele>7</ele>
        <time>2020-11-29T16:57:05Z</time>
      </trkpt>
      <trkpt lat="47.25808" lon="-1.4551">
        <ele>7</ele>
        <time>2020-11-29T16:57:12Z</time>
      </trkpt>
      <trkpt lat="47.25805" lon="-1.45542">
        <ele>7</ele>
        <time>2020-11-29T16:57:18Z</time>
      </trkpt>
      <trkpt lat="47.25804" lon="-1.45574">
        <ele>7</ele>
        <time>2020-11-29T16:57:23Z</time>
      </trkpt>
      <trkpt lat="47.25804" lon="-1.45603">
        <ele>7</ele>
        <time>2020-11-29T16:57:29Z</time>
      </trkpt>
      <trkpt lat="47.25806" lon="-1.45625">
        <ele>7</ele>
        <time>2020-11-29T16:57:33Z</time>
      </trkpt>
      <trkpt lat="47.25811" lon="-1.45674">
        <ele>7</ele>
        <time>2020-11-29T16:57:42Z</time>
      </trkpt>
      <trkpt lat="47.25816" lon="-1.45721">
        <ele>7</ele>
        <time>2020-11-29T16:57:50Z</time>
      </trkpt>
      <trkpt lat="47.25817" lon="-1.45774">
        <ele>9</ele>
        <time>2020-11-29T16:58:00Z</time>
      </trkpt>
      <trkpt lat="47.25813" lon="-1.45845">
        <ele>9</ele>
        <time>2020-11-29T16:58:13Z</time>
      </trkpt>
      <trkpt lat="47.25812" lon="-1.45877">
        <ele>9</ele>
        <time>2020-11-29T16:58:19Z</time>
      </trkpt>
      <trkpt lat="47.2581" lon="-1.45913">
        <ele>11</ele>
        <time>2020-11-29T16:58:25Z</time>
      </trkpt>
      <trkpt lat="47.25807" lon="-1.45945">
        <ele>11</ele>
        <time>2020-11-29T16:58:31Z</time>
      </trkpt>
      <trkpt lat="47.25806" lon="-1.45982">
        <ele>11</ele>
        <time>2020-11-29T16:58:38Z</time>
      </trkpt>
      <trkpt lat="47.25789" lon="-1.46172">
        <ele>12</ele>
        <time>2020-11-29T16:59:12Z</time>
      </trkpt>
      <trkpt lat="47.25788" lon="-1.46193">
        <ele>12</ele>
        <time>2020-11-29T16:59:16Z</time>
      </trkpt>
      <trkpt lat="47.2579" lon="-1.46215">
        <ele>12</ele>
        <time>2020-11-29T16:59:20Z</time>
      </trkpt>
      <trkpt lat="47.25787" lon="-1.46231">
        <ele>12</ele>
        <time>2020-11-29T16:59:23Z</time>
      </trkpt>
      <trkpt lat="47.25786" lon="-1.46241">
        <ele>12</ele>
        <time>2020-11-29T16:59:25Z</time>
      </trkpt>
      <trkpt lat="47.25781" lon="-1.46282">
        <ele>12</ele>
        <time>2020-11-29T16:59:33Z</time>
      </trkpt>
      <trkpt lat="47.25774" lon="-1.4633">
        <ele>12</ele>
        <time>2020-11-29T16:59:42Z</time>
      </trkpt>
      <trkpt lat="47.25768" lon="-1.46363">
        <ele>14</ele>
        <time>2020-11-29T16:59:48Z</time>
      </trkpt>
      <trkpt lat="47.25711" lon="-1.46608">
        <ele>13</ele>
        <time>2020-11-29T17:00:35Z</time>
      </trkpt>
      <trkpt lat="47.25702" lon="-1.46647">
        <ele>12</ele>
        <time>2020-11-29T17:00:42Z</time>
      </trkpt>
      <trkpt lat="47.25684" lon="-1.46728">
        <ele>12</ele>
        <time>2020-11-29T17:00:58Z</time>
      </trkpt>
      <trkpt lat="47.25673" lon="-1.46774">
        <ele>12</ele>
        <time>2020-11-29T17:01:07Z</time>
      </trkpt>
      <trkpt lat="47.25668" lon="-1.46797">
        <ele>13</ele>
        <time>2020-11-29T17:01:11Z</time>
      </trkpt>
      <trkpt lat="47.25664" lon="-1.46816">
        <ele>13</ele>
        <time>2020-11-29T17:01:15Z</time>
      </trkpt>
      <trkpt lat="47.25658" lon="-1.46838">
        <ele>13</ele>
        <time>2020-11-29T17:01:19Z</time>
      </trkpt>
      <trkpt lat="47.25652" lon="-1.46858">
        <ele>13</ele>
        <time>2020-11-29T17:01:23Z</time>
      </trkpt>
      <trkpt lat="47.25649" lon="-1.4687">
        <ele>13</ele>
        <time>2020-11-29T17:01:25Z</time>
      </trkpt>
      <trkpt lat="47.25651" lon="-1.46872">
        <ele>13</ele>
        <time>2020-11-29T17:01:26Z</time>
      </trkpt>
      <trkpt lat="47.25653" lon="-1.46875">
        <ele>13</ele>
        <time>2020-11-29T17:01:27Z</time>
      </trkpt>
      <trkpt lat="47.25654" lon="-1.46879">
        <ele>13</ele>
        <time>2020-11-29T17:01:27Z</time>
      </trkpt>
      <trkpt lat="47.25654" lon="-1.46883">
        <ele>13</ele>
        <time>2020-11-29T17:01:28Z</time>
      </trkpt>
      <trkpt lat="47.25653" lon="-1.46887">
        <ele>13</ele>
        <time>2020-11-29T17:01:29Z</time>
      </trkpt>
      <trkpt lat="47.25652" lon="-1.4689">
        <ele>13</ele>
        <time>2020-11-29T17:01:29Z</time>
      </trkpt>
      <trkpt lat="47.25649" lon="-1.46893">
        <ele>13</ele>
        <time>2020-11-29T17:01:30Z</time>
      </trkpt>
      <trkpt lat="47.25647" lon="-1.46895">
        <ele>13</ele>
        <time>2020-11-29T17:01:31Z</time>
      </trkpt>
      <trkpt lat="47.25644" lon="-1.46895">
        <ele>13</ele>
        <time>2020-11-29T17:01:32Z</time>
      </trkpt>
      <trkpt lat="47.25641" lon="-1.46894">
        <ele>13</ele>
        <time>2020-11-29T17:01:33Z</time>
      </trkpt>
      <trkpt lat="47.25638" lon="-1.46903">
        <ele>13</ele>
        <time>2020-11-29T17:01:34Z</time>
      </trkpt>
      <trkpt lat="47.256" lon="-1.47008">
        <ele>13</ele>
        <time>2020-11-29T17:01:56Z</time>
      </trkpt>
      <trkpt lat="47.25586" lon="-1.47044">
        <ele>15</ele>
        <time>2020-11-29T17:02:04Z</time>
      </trkpt>
      <trkpt lat="47.25581" lon="-1.47057">
        <ele>15</ele>
        <time>2020-11-29T17:02:06Z</time>
      </trkpt>
      <trkpt lat="47.25575" lon="-1.4707">
        <ele>15</ele>
        <time>2020-11-29T17:02:09Z</time>
      </trkpt>
      <trkpt lat="47.25567" lon="-1.47089">
        <ele>15</ele>
        <time>2020-11-29T17:02:13Z</time>
      </trkpt>
      <trkpt lat="47.25558" lon="-1.47108">
        <ele>15</ele>
        <time>2020-11-29T17:02:17Z</time>
      </trkpt>
      <trkpt lat="47.25546" lon="-1.4713">
        <ele>15</ele>
        <time>2020-11-29T17:02:23Z</time>
      </trkpt>
      <trkpt lat="47.25534" lon="-1.47149">
        <ele>15</ele>
        <time>2020-11-29T17:02:27Z</time>
      </trkpt>
      <trkpt lat="47.25525" lon="-1.47163">
        <ele>14</ele>
        <time>2020-11-29T17:02:31Z</time>
      </trkpt>
      <trkpt lat="47.25519" lon="-1.47171">
        <ele>14</ele>
        <time>2020-11-29T17:02:33Z</time>
      </trkpt>
      <trkpt lat="47.25492" lon="-1.47205">
        <ele>14</ele>
        <time>2020-11-29T17:02:42Z</time>
      </trkpt>
      <trkpt lat="47.25487" lon="-1.47212">
        <ele>14</ele>
        <time>2020-11-29T17:02:44Z</time>
      </trkpt>
      <trkpt lat="47.25489" lon="-1.47215">
        <ele>14</ele>
        <time>2020-11-29T17:02:45Z</time>
      </trkpt>
      <trkpt lat="47.2549" lon="-1.4722">
        <ele>14</ele>
        <time>2020-11-29T17:02:46Z</time>
      </trkpt>
      <trkpt lat="47.25489" lon="-1.47224">
        <ele>14</ele>
        <time>2020-11-29T17:02:47Z</time>
      </trkpt>
      <trkpt lat="47.25488" lon="-1.47228">
        <ele>14</ele>
        <time>2020-11-29T17:02:47Z</time>
      </trkpt>
      <trkpt lat="47.25487" lon="-1.47232">
        <ele>14</ele>
        <time>2020-11-29T17:02:48Z</time>
      </trkpt>
      <trkpt lat="47.25485" lon="-1.47234">
        <ele>14</ele>
        <time>2020-11-29T17:02:49Z</time>
      </trkpt>
      <trkpt lat="47.25482" lon="-1.47235">
        <ele>14</ele>
        <time>2020-11-29T17:02:50Z</time>
      </trkpt>
      <trkpt lat="47.25479" lon="-1.47236">
        <ele>14</ele>
        <time>2020-11-29T17:02:51Z</time>
      </trkpt>
      <trkpt lat="47.25476" lon="-1.47235">
        <ele>14</ele>
        <time>2020-11-29T17:02:51Z</time>
      </trkpt>
      <trkpt lat="47.25471" lon="-1.47244">
        <ele>14</ele>
        <time>2020-11-29T17:02:53Z</time>
      </trkpt>
      <trkpt lat="47.25465" lon="-1.47255">
        <ele>14</ele>
        <time>2020-11-29T17:02:56Z</time>
      </trkpt>
      <trkpt lat="47.25433" lon="-1.47306">
        <ele>13</ele>
        <time>2020-11-29T17:03:09Z</time>
      </trkpt>
      <trkpt lat="47.25423" lon="-1.47324">
        <ele>13</ele>
        <time>2020-11-29T17:03:13Z</time>
      </trkpt>
      <trkpt lat="47.2541" lon="-1.47347">
        <ele>13</ele>
        <time>2020-11-29T17:03:18Z</time>
      </trkpt>
      <trkpt lat="47.25401" lon="-1.47364">
        <ele>13</ele>
        <time>2020-11-29T17:03:22Z</time>
      </trkpt>
      <trkpt lat="47.25393" lon="-1.4738">
        <ele>13</ele>
        <time>2020-11-29T17:03:26Z</time>
      </trkpt>
      <trkpt lat="47.25392" lon="-1.47381">
        <ele>12</ele>
        <time>2020-11-29T17:03:26Z</time>
      </trkpt>
      <trkpt lat="47.25387" lon="-1.47391">
        <ele>12</ele>
        <time>2020-11-29T17:03:28Z</time>
      </trkpt>
      <trkpt lat="47.25382" lon="-1.47404">
        <ele>12</ele>
        <time>2020-11-29T17:03:31Z</time>
      </trkpt>
      <trkpt lat="47.25378" lon="-1.47413">
        <ele>12</ele>
        <time>2020-11-29T17:03:33Z</time>
      </trkpt>
      <trkpt lat="47.25372" lon="-1.47428">
        <ele>12</ele>
        <time>2020-11-29T17:03:36Z</time>
      </trkpt>
      <trkpt lat="47.25363" lon="-1.47455">
        <ele>12</ele>
        <time>2020-11-29T17:03:42Z</time>
      </trkpt>
      <trkpt lat="47.25352" lon="-1.47489">
        <ele>12</ele>
        <time>2020-11-29T17:03:48Z</time>
      </trkpt>
      <trkpt lat="47.25342" lon="-1.47521">
        <ele>12</ele>
        <time>2020-11-29T17:03:55Z</time>
      </trkpt>
      <trkpt lat="47.25337" lon="-1.4754">
        <ele>12</ele>
        <time>2020-11-29T17:03:59Z</time>
      </trkpt>
      <trkpt lat="47.2534" lon="-1.47543">
        <ele>12</ele>
        <time>2020-11-29T17:03:59Z</time>
      </trkpt>
      <trkpt lat="47.25344" lon="-1.47549">
        <ele>12</ele>
        <time>2020-11-29T17:04:01Z</time>
      </trkpt>
      <trkpt lat="47.25346" lon="-1.47557">
        <ele>12</ele>
        <time>2020-11-29T17:04:03Z</time>
      </trkpt>
      <trkpt lat="47.25347" lon="-1.47567">
        <ele>12</ele>
        <time>2020-11-29T17:04:04Z</time>
      </trkpt>
      <trkpt lat="47.25345" lon="-1.47575">
        <ele>12</ele>
        <time>2020-11-29T17:04:06Z</time>
      </trkpt>
      <trkpt lat="47.25342" lon="-1.47581">
        <ele>12</ele>
        <time>2020-11-29T17:04:07Z</time>
      </trkpt>
      <trkpt lat="47.25338" lon="-1.47585">
        <ele>12</ele>
        <time>2020-11-29T17:04:09Z</time>
      </trkpt>
      <trkpt lat="47.25337" lon="-1.47586">
        <ele>12</ele>
        <time>2020-11-29T17:04:09Z</time>
      </trkpt>
      <trkpt lat="47.25331" lon="-1.47588">
        <ele>12</ele>
        <time>2020-11-29T17:04:11Z</time>
      </trkpt>
      <trkpt lat="47.25324" lon="-1.47594">
        <ele>12</ele>
        <time>2020-11-29T17:04:13Z</time>
      </trkpt>
      <trkpt lat="47.25319" lon="-1.47601">
        <ele>12</ele>
        <time>2020-11-29T17:04:15Z</time>
      </trkpt>
      <trkpt lat="47.25318" lon="-1.47603">
        <ele>12</ele>
        <time>2020-11-29T17:04:15Z</time>
      </trkpt>
      <trkpt lat="47.25315" lon="-1.47608">
        <ele>12</ele>
        <time>2020-11-29T17:04:16Z</time>
      </trkpt>
      <trkpt lat="47.25311" lon="-1.47616">
        <ele>12</ele>
        <time>2020-11-29T17:04:18Z</time>
      </trkpt>
      <trkpt lat="47.25306" lon="-1.47624">
        <ele>12</ele>
        <time>2020-11-29T17:04:20Z</time>
      </trkpt>
      <trkpt lat="47.25299" lon="-1.47635">
        <ele>9</ele>
        <time>2020-11-29T17:04:23Z</time>
      </trkpt>
      <trkpt lat="47.25295" lon="-1.47643">
        <ele>9</ele>
        <time>2020-11-29T17:04:25Z</time>
      </trkpt>
      <trkpt lat="47.25287" lon="-1.47658">
        <ele>9</ele>
        <time>2020-11-29T17:04:28Z</time>
      </trkpt>
      <trkpt lat="47.25274" lon="-1.4768">
        <ele>9</ele>
        <time>2020-11-29T17:04:33Z</time>
      </trkpt>
      <trkpt lat="47.2526" lon="-1.47701">
        <ele>9</ele>
        <time>2020-11-29T17:04:39Z</time>
      </trkpt>
      <trkpt lat="47.25226" lon="-1.47757">
        <ele>10</ele>
        <time>2020-11-29T17:04:52Z</time>
      </trkpt>
      <trkpt lat="47.25223" lon="-1.47763">
        <ele>10</ele>
        <time>2020-11-29T17:04:54Z</time>
      </trkpt>
      <trkpt lat="47.2522" lon="-1.47772">
        <ele>10</ele>
        <time>2020-11-29T17:04:55Z</time>
      </trkpt>
      <trkpt lat="47.25217" lon="-1.4778">
        <ele>10</ele>
        <time>2020-11-29T17:04:57Z</time>
      </trkpt>
      <trkpt lat="47.25214" lon="-1.47788">
        <ele>10</ele>
        <time>2020-11-29T17:04:59Z</time>
      </trkpt>
      <trkpt lat="47.25213" lon="-1.47796">
        <ele>10</ele>
        <time>2020-11-29T17:05:00Z</time>
      </trkpt>
      <trkpt lat="47.25211" lon="-1.47806">
        <ele>10</ele>
        <time>2020-11-29T17:05:02Z</time>
      </trkpt>
      <trkpt lat="47.25211" lon="-1.47808">
        <ele>10</ele>
        <time>2020-11-29T17:05:02Z</time>
      </trkpt>
      <trkpt lat="47.25213" lon="-1.4781">
        <ele>10</ele>
        <time>2020-11-29T17:05:03Z</time>
      </trkpt>
      <trkpt lat="47.25214" lon="-1.47814">
        <ele>10</ele>
        <time>2020-11-29T17:05:04Z</time>
      </trkpt>
      <trkpt lat="47.25215" lon="-1.47815">
        <ele>10</ele>
        <time>2020-11-29T17:05:04Z</time>
      </trkpt>
      <trkpt lat="47.25216" lon="-1.47819">
        <ele>10</ele>
        <time>2020-11-29T17:05:05Z</time>
      </trkpt>
      <trkpt lat="47.25216" lon="-1.4782">
        <ele>10</ele>
        <time>2020-11-29T17:05:05Z</time>
      </trkpt>
      <trkpt lat="47.25216" lon="-1.47824">
        <ele>10</ele>
        <time>2020-11-29T17:05:06Z</time>
      </trkpt>
      <trkpt lat="47.25216" lon="-1.47825">
        <ele>10</ele>
        <time>2020-11-29T17:05:06Z</time>
      </trkpt>
      <trkpt lat="47.25216" lon="-1.47827">
        <ele>10</ele>
        <time>2020-11-29T17:05:06Z</time>
      </trkpt>
      <trkpt lat="47.25215" lon="-1.47829">
        <ele>10</ele>
        <time>2020-11-29T17:05:07Z</time>
      </trkpt>
      <trkpt lat="47.25214" lon="-1.47832">
        <ele>10</ele>
        <time>2020-11-29T17:05:07Z</time>
      </trkpt>
      <trkpt lat="47.25213" lon="-1.47834">
        <ele>10</ele>
        <time>2020-11-29T17:05:08Z</time>
      </trkpt>
      <trkpt lat="47.25213" lon="-1.47835">
        <ele>10</ele>
        <time>2020-11-29T17:05:08Z</time>
      </trkpt>
      <trkpt lat="47.25212" lon="-1.47836">
        <ele>10</ele>
        <time>2020-11-29T17:05:08Z</time>
      </trkpt>
      <trkpt lat="47.25212" lon="-1.47837">
        <ele>10</ele>
        <time>2020-11-29T17:05:09Z</time>
      </trkpt>
      <trkpt lat="47.2521" lon="-1.47838">
        <ele>10</ele>
        <time>2020-11-29T17:05:09Z</time>
      </trkpt>
      <trkpt lat="47.2521" lon="-1.47839">
        <ele>10</ele>
        <time>2020-11-29T17:05:09Z</time>
      </trkpt>
      <trkpt lat="47.25209" lon="-1.4784">
        <ele>10</ele>
        <time>2020-11-29T17:05:10Z</time>
      </trkpt>
      <trkpt lat="47.25208" lon="-1.4784">
        <ele>10</ele>
        <time>2020-11-29T17:05:10Z</time>
      </trkpt>
      <trkpt lat="47.25206" lon="-1.47841">
        <ele>10</ele>
        <time>2020-11-29T17:05:11Z</time>
      </trkpt>
      <trkpt lat="47.25205" lon="-1.47841">
        <ele>10</ele>
        <time>2020-11-29T17:05:11Z</time>
      </trkpt>
      <trkpt lat="47.25204" lon="-1.47842">
        <ele>10</ele>
        <time>2020-11-29T17:05:11Z</time>
      </trkpt>
      <trkpt lat="47.25203" lon="-1.47842">
        <ele>10</ele>
        <time>2020-11-29T17:05:11Z</time>
      </trkpt>
      <trkpt lat="47.25201" lon="-1.47841">
        <ele>10</ele>
        <time>2020-11-29T17:05:12Z</time>
      </trkpt>
      <trkpt lat="47.25199" lon="-1.47841">
        <ele>10</ele>
        <time>2020-11-29T17:05:12Z</time>
      </trkpt>
      <trkpt lat="47.25198" lon="-1.4784">
        <ele>10</ele>
        <time>2020-11-29T17:05:13Z</time>
      </trkpt>
      <trkpt lat="47.25197" lon="-1.47839">
        <ele>10</ele>
        <time>2020-11-29T17:05:13Z</time>
      </trkpt>
      <trkpt lat="47.25196" lon="-1.47838">
        <ele>10</ele>
        <time>2020-11-29T17:05:13Z</time>
      </trkpt>
      <trkpt lat="47.25195" lon="-1.47837">
        <ele>10</ele>
        <time>2020-11-29T17:05:14Z</time>
      </trkpt>
      <trkpt lat="47.25194" lon="-1.47837">
        <ele>10</ele>
        <time>2020-11-29T17:05:14Z</time>
      </trkpt>
      <trkpt lat="47.25193" lon="-1.47835">
        <ele>10</ele>
        <time>2020-11-29T17:05:14Z</time>
      </trkpt>
      <trkpt lat="47.25183" lon="-1.4784">
        <ele>10</ele>
        <time>2020-11-29T17:05:17Z</time>
      </trkpt>
      <trkpt lat="47.25174" lon="-1.47849">
        <ele>10</ele>
        <time>2020-11-29T17:05:20Z</time>
      </trkpt>
      <trkpt lat="47.25164" lon="-1.47861">
        <ele>10</ele>
        <time>2020-11-29T17:05:24Z</time>
      </trkpt>
      <trkpt lat="47.25157" lon="-1.47875">
        <ele>10</ele>
        <time>2020-11-29T17:05:27Z</time>
      </trkpt>
      <trkpt lat="47.25148" lon="-1.47891">
        <ele>10</ele>
        <time>2020-11-29T17:05:31Z</time>
      </trkpt>
      <trkpt lat="47.25139" lon="-1.47904">
        <ele>10</ele>
        <time>2020-11-29T17:05:34Z</time>
      </trkpt>
      <trkpt lat="47.25119" lon="-1.47961">
        <ele>12</ele>
        <time>2020-11-29T17:05:46Z</time>
      </trkpt>
      <trkpt lat="47.25107" lon="-1.48024">
        <ele>12</ele>
        <time>2020-11-29T17:05:57Z</time>
      </trkpt>
      <trkpt lat="47.25103" lon="-1.48043">
        <ele>12</ele>
        <time>2020-11-29T17:06:01Z</time>
      </trkpt>
      <trkpt lat="47.25101" lon="-1.48047">
        <ele>12</ele>
        <time>2020-11-29T17:06:02Z</time>
      </trkpt>
      <trkpt lat="47.25102" lon="-1.48048">
        <ele>12</ele>
        <time>2020-11-29T17:06:02Z</time>
      </trkpt>
      <trkpt lat="47.25104" lon="-1.48049">
        <ele>12</ele>
        <time>2020-11-29T17:06:03Z</time>
      </trkpt>
      <trkpt lat="47.25105" lon="-1.48052">
        <ele>12</ele>
        <time>2020-11-29T17:06:03Z</time>
      </trkpt>
      <trkpt lat="47.25106" lon="-1.48054">
        <ele>12</ele>
        <time>2020-11-29T17:06:04Z</time>
      </trkpt>
      <trkpt lat="47.25106" lon="-1.48057">
        <ele>12</ele>
        <time>2020-11-29T17:06:04Z</time>
      </trkpt>
      <trkpt lat="47.25105" lon="-1.48059">
        <ele>12</ele>
        <time>2020-11-29T17:06:05Z</time>
      </trkpt>
      <trkpt lat="47.25104" lon="-1.48061">
        <ele>12</ele>
        <time>2020-11-29T17:06:05Z</time>
      </trkpt>
      <trkpt lat="47.25103" lon="-1.48063">
        <ele>12</ele>
        <time>2020-11-29T17:06:06Z</time>
      </trkpt>
      <trkpt lat="47.25101" lon="-1.48064">
        <ele>12</ele>
        <time>2020-11-29T17:06:06Z</time>
      </trkpt>
      <trkpt lat="47.25099" lon="-1.48064">
        <ele>12</ele>
        <time>2020-11-29T17:06:07Z</time>
      </trkpt>
      <trkpt lat="47.25099" lon="-1.48067">
        <ele>12</ele>
        <time>2020-11-29T17:06:07Z</time>
      </trkpt>
      <trkpt lat="47.251" lon="-1.48076">
        <ele>12</ele>
        <time>2020-11-29T17:06:09Z</time>
      </trkpt>
      <trkpt lat="47.251" lon="-1.48093">
        <ele>12</ele>
        <time>2020-11-29T17:06:12Z</time>
      </trkpt>
      <trkpt lat="47.25098" lon="-1.48161">
        <ele>12</ele>
        <time>2020-11-29T17:06:25Z</time>
      </trkpt>
      <trkpt lat="47.25095" lon="-1.48248">
        <ele>13</ele>
        <time>2020-11-29T17:06:40Z</time>
      </trkpt>
      <trkpt lat="47.25096" lon="-1.48261">
        <ele>13</ele>
        <time>2020-11-29T17:06:43Z</time>
      </trkpt>
      <trkpt lat="47.25096" lon="-1.48265">
        <ele>13</ele>
        <time>2020-11-29T17:06:43Z</time>
      </trkpt>
      <trkpt lat="47.25095" lon="-1.4827">
        <ele>13</ele>
        <time>2020-11-29T17:06:44Z</time>
      </trkpt>
      <trkpt lat="47.25094" lon="-1.48274">
        <ele>13</ele>
        <time>2020-11-29T17:06:45Z</time>
      </trkpt>
      <trkpt lat="47.25093" lon="-1.4828">
        <ele>13</ele>
        <time>2020-11-29T17:06:46Z</time>
      </trkpt>
      <trkpt lat="47.25094" lon="-1.4829">
        <ele>13</ele>
        <time>2020-11-29T17:06:48Z</time>
      </trkpt>
      <trkpt lat="47.25094" lon="-1.48291">
        <ele>13</ele>
        <time>2020-11-29T17:06:48Z</time>
      </trkpt>
      <trkpt lat="47.25094" lon="-1.48292">
        <ele>13</ele>
        <time>2020-11-29T17:06:48Z</time>
      </trkpt>
      <trkpt lat="47.25094" lon="-1.48293">
        <ele>13</ele>
        <time>2020-11-29T17:06:49Z</time>
      </trkpt>
      <trkpt lat="47.25094" lon="-1.48295">
        <ele>13</ele>
        <time>2020-11-29T17:06:49Z</time>
      </trkpt>
      <trkpt lat="47.25094" lon="-1.48297">
        <ele>13</ele>
        <time>2020-11-29T17:06:49Z</time>
      </trkpt>
      <trkpt lat="47.25094" lon="-1.48298">
        <ele>13</ele>
        <time>2020-11-29T17:06:50Z</time>
      </trkpt>
      <trkpt lat="47.25096" lon="-1.48306">
        <ele>13</ele>
        <time>2020-11-29T17:06:51Z</time>
      </trkpt>
      <trkpt lat="47.25095" lon="-1.48323">
        <ele>13</ele>
        <time>2020-11-29T17:06:54Z</time>
      </trkpt>
      <trkpt lat="47.25095" lon="-1.48333">
        <ele>13</ele>
        <time>2020-11-29T17:06:56Z</time>
      </trkpt>
      <trkpt lat="47.25095" lon="-1.4834">
        <ele>13</ele>
        <time>2020-11-29T17:06:57Z</time>
      </trkpt>
      <trkpt lat="47.25096" lon="-1.48341">
        <ele>13</ele>
        <time>2020-11-29T17:06:58Z</time>
      </trkpt>
      <trkpt lat="47.25096" lon="-1.48341">
        <ele>13</ele>
        <time>2020-11-29T17:06:58Z</time>
      </trkpt>
      <trkpt lat="47.25096" lon="-1.48342">
        <ele>13</ele>
        <time>2020-11-29T17:06:58Z</time>
      </trkpt>
      <trkpt lat="47.25096" lon="-1.48343">
        <ele>13</ele>
        <time>2020-11-29T17:06:58Z</time>
      </trkpt>
      <trkpt lat="47.25096" lon="-1.48343">
        <ele>13</ele>
        <time>2020-11-29T17:06:58Z</time>
      </trkpt>
      <trkpt lat="47.25096" lon="-1.48344">
        <ele>13</ele>
        <time>2020-11-29T17:06:58Z</time>
      </trkpt>
      <trkpt lat="47.25096" lon="-1.48345">
        <ele>13</ele>
        <time>2020-11-29T17:06:58Z</time>
      </trkpt>
      <trkpt lat="47.25096" lon="-1.48346">
        <ele>13</ele>
        <time>2020-11-29T17:06:58Z</time>
      </trkpt>
      <trkpt lat="47.25096" lon="-1.48347">
        <ele>13</ele>
        <time>2020-11-29T17:06:59Z</time>
      </trkpt>
      <trkpt lat="47.25096" lon="-1.48348">
        <ele>13</ele>
        <time>2020-11-29T17:06:59Z</time>
      </trkpt>
      <trkpt lat="47.25096" lon="-1.48349">
        <ele>13</ele>
        <time>2020-11-29T17:06:59Z</time>
      </trkpt>
      <trkpt lat="47.25095" lon="-1.48349">
        <ele>13</ele>
        <time>2020-11-29T17:06:59Z</time>
      </trkpt>
      <trkpt lat="47.25095" lon="-1.4835">
        <ele>13</ele>
        <time>2020-11-29T17:06:59Z</time>
      </trkpt>
      <trkpt lat="47.25095" lon="-1.4835">
        <ele>13</ele>
        <time>2020-11-29T17:06:59Z</time>
      </trkpt>
      <trkpt lat="47.25094" lon="-1.48351">
        <ele>13</ele>
        <time>2020-11-29T17:07:00Z</time>
      </trkpt>
      <trkpt lat="47.25094" lon="-1.48351">
        <ele>13</ele>
        <time>2020-11-29T17:07:00Z</time>
      </trkpt>
      <trkpt lat="47.25093" lon="-1.48355">
        <ele>13</ele>
        <time>2020-11-29T17:07:01Z</time>
      </trkpt>
      <trkpt lat="47.25092" lon="-1.48358">
        <ele>13</ele>
        <time>2020-11-29T17:07:01Z</time>
      </trkpt>
      <trkpt lat="47.2509" lon="-1.48364">
        <ele>13</ele>
        <time>2020-11-29T17:07:02Z</time>
      </trkpt>
      <trkpt lat="47.25088" lon="-1.48374">
        <ele>13</ele>
        <time>2020-11-29T17:07:04Z</time>
      </trkpt>
      <trkpt lat="47.25086" lon="-1.48381">
        <ele>13</ele>
        <time>2020-11-29T17:07:06Z</time>
      </trkpt>
      <trkpt lat="47.25083" lon="-1.48389">
        <ele>13</ele>
        <time>2020-11-29T17:07:07Z</time>
      </trkpt>
      <trkpt lat="47.2508" lon="-1.48398">
        <ele>13</ele>
        <time>2020-11-29T17:07:09Z</time>
      </trkpt>
      <trkpt lat="47.25075" lon="-1.48407">
        <ele>13</ele>
        <time>2020-11-29T17:07:11Z</time>
      </trkpt>
      <trkpt lat="47.25072" lon="-1.48415">
        <ele>13</ele>
        <time>2020-11-29T17:07:13Z</time>
      </trkpt>
      <trkpt lat="47.25069" lon="-1.48421">
        <ele>13</ele>
        <time>2020-11-29T17:07:14Z</time>
      </trkpt>
      <trkpt lat="47.25065" lon="-1.48431">
        <ele>13</ele>
        <time>2020-11-29T17:07:16Z</time>
      </trkpt>
      <trkpt lat="47.25061" lon="-1.48441">
        <ele>13</ele>
        <time>2020-11-29T17:07:18Z</time>
      </trkpt>
      <trkpt lat="47.25056" lon="-1.48448">
        <ele>13</ele>
        <time>2020-11-29T17:07:20Z</time>
      </trkpt>
      <trkpt lat="47.25044" lon="-1.48476">
        <ele>13</ele>
        <time>2020-11-29T17:07:26Z</time>
      </trkpt>
      <trkpt lat="47.25039" lon="-1.48486">
        <ele>13</ele>
        <time>2020-11-29T17:07:29Z</time>
      </trkpt>
      <trkpt lat="47.25029" lon="-1.4851">
        <ele>13</ele>
        <time>2020-11-29T17:07:34Z</time>
      </trkpt>
      <trkpt lat="47.25026" lon="-1.48516">
        <ele>13</ele>
        <time>2020-11-29T17:07:35Z</time>
      </trkpt>
      <trkpt lat="47.25022" lon="-1.48525">
        <ele>13</ele>
        <time>2020-11-29T17:07:37Z</time>
      </trkpt>
      <trkpt lat="47.24968" lon="-1.48648">
        <ele>14</ele>
        <time>2020-11-29T17:08:04Z</time>
      </trkpt>
      <trkpt lat="47.2496" lon="-1.48671">
        <ele>14</ele>
        <time>2020-11-29T17:08:08Z</time>
      </trkpt>
      <trkpt lat="47.24957" lon="-1.48679">
        <ele>14</ele>
        <time>2020-11-29T17:08:10Z</time>
      </trkpt>
      <trkpt lat="47.24956" lon="-1.48683">
        <ele>14</ele>
        <time>2020-11-29T17:08:11Z</time>
      </trkpt>
      <trkpt lat="47.24957" lon="-1.48685">
        <ele>14</ele>
        <time>2020-11-29T17:08:11Z</time>
      </trkpt>
      <trkpt lat="47.24958" lon="-1.48688">
        <ele>14</ele>
        <time>2020-11-29T17:08:12Z</time>
      </trkpt>
      <trkpt lat="47.24959" lon="-1.48691">
        <ele>14</ele>
        <time>2020-11-29T17:08:12Z</time>
      </trkpt>
      <trkpt lat="47.24959" lon="-1.48695">
        <ele>14</ele>
        <time>2020-11-29T17:08:13Z</time>
      </trkpt>
      <trkpt lat="47.24959" lon="-1.48698">
        <ele>14</ele>
        <time>2020-11-29T17:08:14Z</time>
      </trkpt>
      <trkpt lat="47.24957" lon="-1.487">
        <ele>14</ele>
        <time>2020-11-29T17:08:14Z</time>
      </trkpt>
      <trkpt lat="47.24955" lon="-1.48703">
        <ele>14</ele>
        <time>2020-11-29T17:08:15Z</time>
      </trkpt>
      <trkpt lat="47.24953" lon="-1.48705">
        <ele>14</ele>
        <time>2020-11-29T17:08:16Z</time>
      </trkpt>
      <trkpt lat="47.2495" lon="-1.48705">
        <ele>14</ele>
        <time>2020-11-29T17:08:16Z</time>
      </trkpt>
      <trkpt lat="47.24948" lon="-1.48704">
        <ele>14</ele>
        <time>2020-11-29T17:08:17Z</time>
      </trkpt>
      <trkpt lat="47.24946" lon="-1.48708">
        <ele>14</ele>
        <time>2020-11-29T17:08:18Z</time>
      </trkpt>
      <trkpt lat="47.24944" lon="-1.48712">
        <ele>14</ele>
        <time>2020-11-29T17:08:19Z</time>
      </trkpt>
      <trkpt lat="47.2493" lon="-1.48738">
        <ele>14</ele>
        <time>2020-11-29T17:08:25Z</time>
      </trkpt>
      <trkpt lat="47.24916" lon="-1.48772">
        <ele>15</ele>
        <time>2020-11-29T17:08:32Z</time>
      </trkpt>
      <trkpt lat="47.2491" lon="-1.48788">
        <ele>15</ele>
        <time>2020-11-29T17:08:35Z</time>
      </trkpt>
      <trkpt lat="47.24906" lon="-1.488">
        <ele>15</ele>
        <time>2020-11-29T17:08:38Z</time>
      </trkpt>
      <trkpt lat="47.24905" lon="-1.48804">
        <ele>15</ele>
        <time>2020-11-29T17:08:39Z</time>
      </trkpt>
      <trkpt lat="47.249" lon="-1.48822">
        <ele>15</ele>
        <time>2020-11-29T17:08:42Z</time>
      </trkpt>
      <trkpt lat="47.24897" lon="-1.48829">
        <ele>15</ele>
        <time>2020-11-29T17:08:44Z</time>
      </trkpt>
      <trkpt lat="47.24895" lon="-1.48836">
        <ele>15</ele>
        <time>2020-11-29T17:08:45Z</time>
      </trkpt>
      <trkpt lat="47.24892" lon="-1.4884">
        <ele>15</ele>
        <time>2020-11-29T17:08:46Z</time>
      </trkpt>
      <trkpt lat="47.24889" lon="-1.48844">
        <ele>15</ele>
        <time>2020-11-29T17:08:47Z</time>
      </trkpt>
      <trkpt lat="47.24892" lon="-1.48847">
        <ele>15</ele>
        <time>2020-11-29T17:08:48Z</time>
      </trkpt>
      <trkpt lat="47.24893" lon="-1.4885">
        <ele>15</ele>
        <time>2020-11-29T17:08:49Z</time>
      </trkpt>
      <trkpt lat="47.24893" lon="-1.48853">
        <ele>15</ele>
        <time>2020-11-29T17:08:49Z</time>
      </trkpt>
      <trkpt lat="47.24893" lon="-1.48857">
        <ele>15</ele>
        <time>2020-11-29T17:08:50Z</time>
      </trkpt>
      <trkpt lat="47.24892" lon="-1.4886">
        <ele>15</ele>
        <time>2020-11-29T17:08:51Z</time>
      </trkpt>
      <trkpt lat="47.2489" lon="-1.48863">
        <ele>15</ele>
        <time>2020-11-29T17:08:51Z</time>
      </trkpt>
      <trkpt lat="47.24888" lon="-1.48865">
        <ele>15</ele>
        <time>2020-11-29T17:08:52Z</time>
      </trkpt>
      <trkpt lat="47.24884" lon="-1.48866">
        <ele>15</ele>
        <time>2020-11-29T17:08:53Z</time>
      </trkpt>
      <trkpt lat="47.24884" lon="-1.4887">
        <ele>15</ele>
        <time>2020-11-29T17:08:54Z</time>
      </trkpt>
      <trkpt lat="47.24882" lon="-1.48884">
        <ele>15</ele>
        <time>2020-11-29T17:08:56Z</time>
      </trkpt>
      <trkpt lat="47.2488" lon="-1.489">
        <ele>15</ele>
        <time>2020-11-29T17:08:59Z</time>
      </trkpt>
      <trkpt lat="47.24878" lon="-1.48918">
        <ele>15</ele>
        <time>2020-11-29T17:09:03Z</time>
      </trkpt>
      <trkpt lat="47.24876" lon="-1.48932">
        <ele>15</ele>
        <time>2020-11-29T17:09:05Z</time>
      </trkpt>
      <trkpt lat="47.24865" lon="-1.48967">
        <ele>15</ele>
        <time>2020-11-29T17:09:12Z</time>
      </trkpt>
      <trkpt lat="47.24847" lon="-1.4902">
        <ele>15</ele>
        <time>2020-11-29T17:09:23Z</time>
      </trkpt>
      <trkpt lat="47.24845" lon="-1.49028">
        <ele>15</ele>
        <time>2020-11-29T17:09:25Z</time>
      </trkpt>
      <trkpt lat="47.24842" lon="-1.49036">
        <ele>14</ele>
        <time>2020-11-29T17:09:26Z</time>
      </trkpt>
      <trkpt lat="47.24836" lon="-1.49051">
        <ele>14</ele>
        <time>2020-11-29T17:09:29Z</time>
      </trkpt>
      <trkpt lat="47.24823" lon="-1.49079">
        <ele>14</ele>
        <time>2020-11-29T17:09:36Z</time>
      </trkpt>
      <trkpt lat="47.24818" lon="-1.49086">
        <ele>14</ele>
        <time>2020-11-29T17:09:37Z</time>
      </trkpt>
      <trkpt lat="47.24813" lon="-1.49092">
        <ele>14</ele>
        <time>2020-11-29T17:09:39Z</time>
      </trkpt>
      <trkpt lat="47.24806" lon="-1.49099">
        <ele>14</ele>
        <time>2020-11-29T17:09:41Z</time>
      </trkpt>
      <trkpt lat="47.24804" lon="-1.49101">
        <ele>14</ele>
        <time>2020-11-29T17:09:42Z</time>
      </trkpt>
      <trkpt lat="47.24784" lon="-1.49122">
        <ele>14</ele>
        <time>2020-11-29T17:09:49Z</time>
      </trkpt>
      <trkpt lat="47.24774" lon="-1.49133">
        <ele>14</ele>
        <time>2020-11-29T17:09:52Z</time>
      </trkpt>
      <trkpt lat="47.24764" lon="-1.49145">
        <ele>12</ele>
        <time>2020-11-29T17:09:55Z</time>
      </trkpt>
      <trkpt lat="47.24756" lon="-1.49158">
        <ele>12</ele>
        <time>2020-11-29T17:09:59Z</time>
      </trkpt>
      <trkpt lat="47.24753" lon="-1.49164">
        <ele>12</ele>
        <time>2020-11-29T17:10:00Z</time>
      </trkpt>
      <trkpt lat="47.24746" lon="-1.49176">
        <ele>12</ele>
        <time>2020-11-29T17:10:03Z</time>
      </trkpt>
      <trkpt lat="47.24745" lon="-1.49179">
        <ele>12</ele>
        <time>2020-11-29T17:10:03Z</time>
      </trkpt>
      <trkpt lat="47.24745" lon="-1.49181">
        <ele>12</ele>
        <time>2020-11-29T17:10:04Z</time>
      </trkpt>
      <trkpt lat="47.24742" lon="-1.49187">
        <ele>12</ele>
        <time>2020-11-29T17:10:05Z</time>
      </trkpt>
      <trkpt lat="47.24739" lon="-1.49198">
        <ele>12</ele>
        <time>2020-11-29T17:10:07Z</time>
      </trkpt>
      <trkpt lat="47.24733" lon="-1.49218">
        <ele>12</ele>
        <time>2020-11-29T17:10:11Z</time>
      </trkpt>
      <trkpt lat="47.24722" lon="-1.49265">
        <ele>12</ele>
        <time>2020-11-29T17:10:20Z</time>
      </trkpt>
      <trkpt lat="47.24712" lon="-1.49306">
        <ele>8</ele>
        <time>2020-11-29T17:10:28Z</time>
      </trkpt>
      <trkpt lat="47.24706" lon="-1.49332">
        <ele>8</ele>
        <time>2020-11-29T17:10:33Z</time>
      </trkpt>
      <trkpt lat="47.24699" lon="-1.4936">
        <ele>8</ele>
        <time>2020-11-29T17:10:39Z</time>
      </trkpt>
      <trkpt lat="47.24694" lon="-1.4938">
        <ele>8</ele>
        <time>2020-11-29T17:10:42Z</time>
      </trkpt>
      <trkpt lat="47.24677" lon="-1.49445">
        <ele>10</ele>
        <time>2020-11-29T17:10:55Z</time>
      </trkpt>
      <trkpt lat="47.24677" lon="-1.49452">
        <ele>10</ele>
        <time>2020-11-29T17:10:56Z</time>
      </trkpt>
      <trkpt lat="47.2468" lon="-1.49454">
        <ele>10</ele>
        <time>2020-11-29T17:10:57Z</time>
      </trkpt>
      <trkpt lat="47.24682" lon="-1.49457">
        <ele>10</ele>
        <time>2020-11-29T17:10:58Z</time>
      </trkpt>
      <trkpt lat="47.24683" lon="-1.49462">
        <ele>10</ele>
        <time>2020-11-29T17:10:59Z</time>
      </trkpt>
      <trkpt lat="47.24683" lon="-1.49467">
        <ele>10</ele>
        <time>2020-11-29T17:11:00Z</time>
      </trkpt>
      <trkpt lat="47.24682" lon="-1.4947">
        <ele>10</ele>
        <time>2020-11-29T17:11:00Z</time>
      </trkpt>
      <trkpt lat="47.24681" lon="-1.49473">
        <ele>10</ele>
        <time>2020-11-29T17:11:01Z</time>
      </trkpt>
      <trkpt lat="47.24678" lon="-1.49475">
        <ele>10</ele>
        <time>2020-11-29T17:11:02Z</time>
      </trkpt>
      <trkpt lat="47.24676" lon="-1.49476">
        <ele>10</ele>
        <time>2020-11-29T17:11:02Z</time>
      </trkpt>
      <trkpt lat="47.24674" lon="-1.49476">
        <ele>10</ele>
        <time>2020-11-29T17:11:03Z</time>
      </trkpt>
      <trkpt lat="47.24671" lon="-1.49474">
        <ele>10</ele>
        <time>2020-11-29T17:11:04Z</time>
      </trkpt>
      <trkpt lat="47.2467" lon="-1.49481">
        <ele>10</ele>
        <time>2020-11-29T17:11:05Z</time>
      </trkpt>
      <trkpt lat="47.24666" lon="-1.49497">
        <ele>10</ele>
        <time>2020-11-29T17:11:08Z</time>
      </trkpt>
      <trkpt lat="47.2466" lon="-1.49525">
        <ele>10</ele>
        <time>2020-11-29T17:11:14Z</time>
      </trkpt>
      <trkpt lat="47.24658" lon="-1.49535">
        <ele>10</ele>
        <time>2020-11-29T17:11:15Z</time>
      </trkpt>
      <trkpt lat="47.24661" lon="-1.49534">
        <ele>15</ele>
        <time>2020-11-29T17:11:16Z</time>
      </trkpt>
      <trkpt lat="47.24663" lon="-1.49535">
        <ele>15</ele>
        <time>2020-11-29T17:11:17Z</time>
      </trkpt>
      <trkpt lat="47.24666" lon="-1.49537">
        <ele>15</ele>
        <time>2020-11-29T17:11:18Z</time>
      </trkpt>
      <trkpt lat="47.24667" lon="-1.49539">
        <ele>15</ele>
        <time>2020-11-29T17:11:18Z</time>
      </trkpt>
      <trkpt lat="47.24669" lon="-1.49543">
        <ele>15</ele>
        <time>2020-11-29T17:11:19Z</time>
      </trkpt>
      <trkpt lat="47.2467" lon="-1.49546">
        <ele>15</ele>
        <time>2020-11-29T17:11:20Z</time>
      </trkpt>
      <trkpt lat="47.2467" lon="-1.4955">
        <ele>15</ele>
        <time>2020-11-29T17:11:20Z</time>
      </trkpt>
      <trkpt lat="47.24669" lon="-1.49553">
        <ele>15</ele>
        <time>2020-11-29T17:11:21Z</time>
      </trkpt>
      <trkpt lat="47.24668" lon="-1.49557">
        <ele>15</ele>
        <time>2020-11-29T17:11:22Z</time>
      </trkpt>
      <trkpt lat="47.24666" lon="-1.4956">
        <ele>15</ele>
        <time>2020-11-29T17:11:23Z</time>
      </trkpt>
      <trkpt lat="47.24664" lon="-1.49562">
        <ele>15</ele>
        <time>2020-11-29T17:11:23Z</time>
      </trkpt>
      <trkpt lat="47.24662" lon="-1.49563">
        <ele>15</ele>
        <time>2020-11-29T17:11:24Z</time>
      </trkpt>
      <trkpt lat="47.24659" lon="-1.49563">
        <ele>15</ele>
        <time>2020-11-29T17:11:25Z</time>
      </trkpt>
      <trkpt lat="47.24657" lon="-1.49562">
        <ele>15</ele>
        <time>2020-11-29T17:11:25Z</time>
      </trkpt>
      <trkpt lat="47.24657" lon="-1.49573">
        <ele>15</ele>
        <time>2020-11-29T17:11:27Z</time>
      </trkpt>
      <trkpt lat="47.24661" lon="-1.49646">
        <ele>15</ele>
        <time>2020-11-29T17:11:40Z</time>
      </trkpt>
      <trkpt lat="47.24663" lon="-1.49663">
        <ele>16</ele>
        <time>2020-11-29T17:11:44Z</time>
      </trkpt>
      <trkpt lat="47.24667" lon="-1.49735">
        <ele>16</ele>
        <time>2020-11-29T17:11:57Z</time>
      </trkpt>
      <trkpt lat="47.24668" lon="-1.49747">
        <ele>16</ele>
        <time>2020-11-29T17:11:59Z</time>
      </trkpt>
      <trkpt lat="47.2467" lon="-1.49789">
        <ele>16</ele>
        <time>2020-11-29T17:12:06Z</time>
      </trkpt>
      <trkpt lat="47.2467" lon="-1.49829">
        <ele>16</ele>
        <time>2020-11-29T17:12:14Z</time>
      </trkpt>
      <trkpt lat="47.2467" lon="-1.49881">
        <ele>16</ele>
        <time>2020-11-29T17:12:23Z</time>
      </trkpt>
      <trkpt lat="47.24672" lon="-1.49882">
        <ele>16</ele>
        <time>2020-11-29T17:12:24Z</time>
      </trkpt>
      <trkpt lat="47.24674" lon="-1.49884">
        <ele>16</ele>
        <time>2020-11-29T17:12:24Z</time>
      </trkpt>
      <trkpt lat="47.24676" lon="-1.49887">
        <ele>16</ele>
        <time>2020-11-29T17:12:25Z</time>
      </trkpt>
      <trkpt lat="47.24677" lon="-1.49891">
        <ele>16</ele>
        <time>2020-11-29T17:12:26Z</time>
      </trkpt>
      <trkpt lat="47.24677" lon="-1.49895">
        <ele>16</ele>
        <time>2020-11-29T17:12:27Z</time>
      </trkpt>
      <trkpt lat="47.24676" lon="-1.49898">
        <ele>16</ele>
        <time>2020-11-29T17:12:27Z</time>
      </trkpt>
      <trkpt lat="47.24675" lon="-1.499">
        <ele>16</ele>
        <time>2020-11-29T17:12:28Z</time>
      </trkpt>
      <trkpt lat="47.24673" lon="-1.49902">
        <ele>16</ele>
        <time>2020-11-29T17:12:28Z</time>
      </trkpt>
      <trkpt lat="47.24672" lon="-1.49903">
        <ele>16</ele>
        <time>2020-11-29T17:12:29Z</time>
      </trkpt>
      <trkpt lat="47.2467" lon="-1.49904">
        <ele>16</ele>
        <time>2020-11-29T17:12:29Z</time>
      </trkpt>
      <trkpt lat="47.2467" lon="-1.49931">
        <ele>16</ele>
        <time>2020-11-29T17:12:34Z</time>
      </trkpt>
      <trkpt lat="47.24669" lon="-1.49962">
        <ele>13</ele>
        <time>2020-11-29T17:12:40Z</time>
      </trkpt>
      <trkpt lat="47.24668" lon="-1.49995">
        <ele>13</ele>
        <time>2020-11-29T17:12:46Z</time>
      </trkpt>
      <trkpt lat="47.24668" lon="-1.50005">
        <ele>13</ele>
        <time>2020-11-29T17:12:48Z</time>
      </trkpt>
      <trkpt lat="47.24671" lon="-1.50006">
        <ele>13</ele>
        <time>2020-11-29T17:12:48Z</time>
      </trkpt>
      <trkpt lat="47.24673" lon="-1.50008">
        <ele>13</ele>
        <time>2020-11-29T17:12:49Z</time>
      </trkpt>
      <trkpt lat="47.24675" lon="-1.50012">
        <ele>13</ele>
        <time>2020-11-29T17:12:50Z</time>
      </trkpt>
      <trkpt lat="47.24676" lon="-1.50016">
        <ele>13</ele>
        <time>2020-11-29T17:12:51Z</time>
      </trkpt>
      <trkpt lat="47.24675" lon="-1.50021">
        <ele>13</ele>
        <time>2020-11-29T17:12:52Z</time>
      </trkpt>
      <trkpt lat="47.24674" lon="-1.50023">
        <ele>13</ele>
        <time>2020-11-29T17:12:52Z</time>
      </trkpt>
      <trkpt lat="47.24672" lon="-1.50025">
        <ele>13</ele>
        <time>2020-11-29T17:12:53Z</time>
      </trkpt>
      <trkpt lat="47.2467" lon="-1.50032">
        <ele>13</ele>
        <time>2020-11-29T17:12:54Z</time>
      </trkpt>
      <trkpt lat="47.24667" lon="-1.50042">
        <ele>13</ele>
        <time>2020-11-29T17:12:56Z</time>
      </trkpt>
      <trkpt lat="47.24661" lon="-1.50077">
        <ele>13</ele>
        <time>2020-11-29T17:13:03Z</time>
      </trkpt>
      <trkpt lat="47.24654" lon="-1.50112">
        <ele>13</ele>
        <time>2020-11-29T17:13:09Z</time>
      </trkpt>
      <trkpt lat="47.24654" lon="-1.50117">
        <ele>13</ele>
        <time>2020-11-29T17:13:10Z</time>
      </trkpt>
      <trkpt lat="47.24653" lon="-1.50122">
        <ele>13</ele>
        <time>2020-11-29T17:13:11Z</time>
      </trkpt>
      <trkpt lat="47.2465" lon="-1.50125">
        <ele>13</ele>
        <time>2020-11-29T17:13:12Z</time>
      </trkpt>
      <trkpt lat="47.2464" lon="-1.50162">
        <ele>13</ele>
        <time>2020-11-29T17:13:19Z</time>
      </trkpt>
      <trkpt lat="47.24633" lon="-1.50187">
        <ele>13</ele>
        <time>2020-11-29T17:13:24Z</time>
      </trkpt>
      <trkpt lat="47.24629" lon="-1.50196">
        <ele>13</ele>
        <time>2020-11-29T17:13:26Z</time>
      </trkpt>
      <trkpt lat="47.24627" lon="-1.50201">
        <ele>13</ele>
        <time>2020-11-29T17:13:27Z</time>
      </trkpt>
      <trkpt lat="47.24628" lon="-1.50203">
        <ele>13</ele>
        <time>2020-11-29T17:13:28Z</time>
      </trkpt>
      <trkpt lat="47.24628" lon="-1.50205">
        <ele>13</ele>
        <time>2020-11-29T17:13:28Z</time>
      </trkpt>
      <trkpt lat="47.24627" lon="-1.50208">
        <ele>13</ele>
        <time>2020-11-29T17:13:29Z</time>
      </trkpt>
      <trkpt lat="47.24626" lon="-1.5021">
        <ele>13</ele>
        <time>2020-11-29T17:13:29Z</time>
      </trkpt>
      <trkpt lat="47.24625" lon="-1.50213">
        <ele>13</ele>
        <time>2020-11-29T17:13:30Z</time>
      </trkpt>
      <trkpt lat="47.24623" lon="-1.50215">
        <ele>13</ele>
        <time>2020-11-29T17:13:30Z</time>
      </trkpt>
      <trkpt lat="47.24621" lon="-1.50216">
        <ele>13</ele>
        <time>2020-11-29T17:13:31Z</time>
      </trkpt>
      <trkpt lat="47.24619" lon="-1.5022">
        <ele>13</ele>
        <time>2020-11-29T17:13:32Z</time>
      </trkpt>
      <trkpt lat="47.24617" lon="-1.50225">
        <ele>13</ele>
        <time>2020-11-29T17:13:33Z</time>
      </trkpt>
      <trkpt lat="47.24604" lon="-1.50243">
        <ele>12</ele>
        <time>2020-11-29T17:13:38Z</time>
      </trkpt>
      <trkpt lat="47.24593" lon="-1.50256">
        <ele>12</ele>
        <time>2020-11-29T17:13:41Z</time>
      </trkpt>
      <trkpt lat="47.24581" lon="-1.50268">
        <ele>12</ele>
        <time>2020-11-29T17:13:45Z</time>
      </trkpt>
      <trkpt lat="47.24554" lon="-1.50301">
        <ele>12</ele>
        <time>2020-11-29T17:13:55Z</time>
      </trkpt>
      <trkpt lat="47.24519" lon="-1.50342">
        <ele>11</ele>
        <time>2020-11-29T17:14:07Z</time>
      </trkpt>
      <trkpt lat="47.24511" lon="-1.50352">
        <ele>11</ele>
        <time>2020-11-29T17:14:09Z</time>
      </trkpt>
      <trkpt lat="47.24431" lon="-1.50446">
        <ele>9</ele>
        <time>2020-11-29T17:14:37Z</time>
      </trkpt>
      <trkpt lat="47.24423" lon="-1.50457">
        <ele>9</ele>
        <time>2020-11-29T17:14:40Z</time>
      </trkpt>
      <trkpt lat="47.24413" lon="-1.50468">
        <ele>9</ele>
        <time>2020-11-29T17:14:43Z</time>
      </trkpt>
      <trkpt lat="47.24403" lon="-1.50481">
        <ele>9</ele>
        <time>2020-11-29T17:14:47Z</time>
      </trkpt>
      <trkpt lat="47.24397" lon="-1.5049">
        <ele>9</ele>
        <time>2020-11-29T17:14:49Z</time>
      </trkpt>
      <trkpt lat="47.24393" lon="-1.50511">
        <ele>9</ele>
        <time>2020-11-29T17:14:53Z</time>
      </trkpt>
      <trkpt lat="47.24376" lon="-1.50531">
        <ele>10</ele>
        <time>2020-11-29T17:14:59Z</time>
      </trkpt>
      <trkpt lat="47.24339" lon="-1.50566">
        <ele>10</ele>
        <time>2020-11-29T17:15:10Z</time>
      </trkpt>
      <trkpt lat="47.24325" lon="-1.5058">
        <ele>10</ele>
        <time>2020-11-29T17:15:15Z</time>
      </trkpt>
      <trkpt lat="47.24313" lon="-1.50591">
        <ele>10</ele>
        <time>2020-11-29T17:15:19Z</time>
      </trkpt>
      <trkpt lat="47.24311" lon="-1.50592">
        <ele>10</ele>
        <time>2020-11-29T17:15:19Z</time>
      </trkpt>
      <trkpt lat="47.24298" lon="-1.50602">
        <ele>10</ele>
        <time>2020-11-29T17:15:23Z</time>
      </trkpt>
      <trkpt lat="47.24284" lon="-1.50614">
        <ele>10</ele>
        <time>2020-11-29T17:15:27Z</time>
      </trkpt>
      <trkpt lat="47.24258" lon="-1.50636">
        <ele>10</ele>
        <time>2020-11-29T17:15:35Z</time>
      </trkpt>
      <trkpt lat="47.24252" lon="-1.50642">
        <ele>10</ele>
        <time>2020-11-29T17:15:37Z</time>
      </trkpt>
      <trkpt lat="47.24243" lon="-1.5065">
        <ele>10</ele>
        <time>2020-11-29T17:15:40Z</time>
      </trkpt>
      <trkpt lat="47.24226" lon="-1.50665">
        <ele>10</ele>
        <time>2020-11-29T17:15:45Z</time>
      </trkpt>
      <trkpt lat="47.24219" lon="-1.50675">
        <ele>10</ele>
        <time>2020-11-29T17:15:48Z</time>
      </trkpt>
      <trkpt lat="47.24211" lon="-1.50686">
        <ele>10</ele>
        <time>2020-11-29T17:15:51Z</time>
      </trkpt>
      <trkpt lat="47.2421" lon="-1.50688">
        <ele>9</ele>
        <time>2020-11-29T17:15:51Z</time>
      </trkpt>
      <trkpt lat="47.24209" lon="-1.50692">
        <ele>9</ele>
        <time>2020-11-29T17:15:52Z</time>
      </trkpt>
      <trkpt lat="47.242" lon="-1.50703">
        <ele>9</ele>
        <time>2020-11-29T17:15:55Z</time>
      </trkpt>
      <trkpt lat="47.24191" lon="-1.50716">
        <ele>9</ele>
        <time>2020-11-29T17:15:59Z</time>
      </trkpt>
      <trkpt lat="47.24185" lon="-1.50726">
        <ele>9</ele>
        <time>2020-11-29T17:16:01Z</time>
      </trkpt>
      <trkpt lat="47.2418" lon="-1.50735">
        <ele>9</ele>
        <time>2020-11-29T17:16:03Z</time>
      </trkpt>
      <trkpt lat="47.24176" lon="-1.50739">
        <ele>9</ele>
        <time>2020-11-29T17:16:05Z</time>
      </trkpt>
      <trkpt lat="47.24167" lon="-1.50761">
        <ele>9</ele>
        <time>2020-11-29T17:16:09Z</time>
      </trkpt>
      <trkpt lat="47.2416" lon="-1.5076">
        <ele>9</ele>
        <time>2020-11-29T17:16:11Z</time>
      </trkpt>
      <trkpt lat="47.24161" lon="-1.5077">
        <ele>9</ele>
        <time>2020-11-29T17:16:13Z</time>
      </trkpt>
      <trkpt lat="47.24154" lon="-1.50805">
        <ele>9</ele>
        <time>2020-11-29T17:16:20Z</time>
      </trkpt>
      <trkpt lat="47.24148" lon="-1.5084">
        <ele>9</ele>
        <time>2020-11-29T17:16:26Z</time>
      </trkpt>
      <trkpt lat="47.24147" lon="-1.50845">
        <ele>9</ele>
        <time>2020-11-29T17:16:27Z</time>
      </trkpt>
      <trkpt lat="47.24145" lon="-1.50858">
        <ele>9</ele>
        <time>2020-11-29T17:16:29Z</time>
      </trkpt>
      <trkpt lat="47.24136" lon="-1.50867">
        <ele>9</ele>
        <time>2020-11-29T17:16:32Z</time>
      </trkpt>
      <trkpt lat="47.24125" lon="-1.50878">
        <ele>9</ele>
        <time>2020-11-29T17:16:36Z</time>
      </trkpt>
      <trkpt lat="47.24127" lon="-1.50893">
        <ele>9</ele>
        <time>2020-11-29T17:16:39Z</time>
      </trkpt>
      <trkpt lat="47.24126" lon="-1.50899">
        <ele>9</ele>
        <time>2020-11-29T17:16:40Z</time>
      </trkpt>
      <trkpt lat="47.24117" lon="-1.50898">
        <ele>9</ele>
        <time>2020-11-29T17:16:42Z</time>
      </trkpt>
      <trkpt lat="47.24117" lon="-1.50888">
        <ele>9</ele>
        <time>2020-11-29T17:16:44Z</time>
      </trkpt>
      <trkpt lat="47.24115" lon="-1.50885">
        <ele>9</ele>
        <time>2020-11-29T17:16:45Z</time>
      </trkpt>
      <trkpt lat="47.24111" lon="-1.50881">
        <ele>9</ele>
        <time>2020-11-29T17:16:46Z</time>
      </trkpt>
      <trkpt lat="47.24112" lon="-1.50869">
        <ele>9</ele>
        <time>2020-11-29T17:16:48Z</time>
      </trkpt>
      <trkpt lat="47.24116" lon="-1.50871">
        <ele>9</ele>
        <time>2020-11-29T17:16:49Z</time>
      </trkpt>
      <trkpt lat="47.24125" lon="-1.50878">
        <ele>9</ele>
        <time>2020-11-29T17:16:52Z</time>
      </trkpt>
      <trkpt lat="47.24127" lon="-1.50893">
        <ele>9</ele>
        <time>2020-11-29T17:16:55Z</time>
      </trkpt>
      <trkpt lat="47.24126" lon="-1.50899">
        <ele>9</ele>
        <time>2020-11-29T17:16:56Z</time>
      </trkpt>
      <trkpt lat="47.24125" lon="-1.50907">
        <ele>9</ele>
        <time>2020-11-29T17:16:57Z</time>
      </trkpt>
      <trkpt lat="47.24108" lon="-1.51004">
        <ele>10</ele>
        <time>2020-11-29T17:17:16Z</time>
      </trkpt>
      <trkpt lat="47.24106" lon="-1.5102">
        <ele>10</ele>
        <time>2020-11-29T17:17:19Z</time>
      </trkpt>
      <trkpt lat="47.24094" lon="-1.51072">
        <ele>10</ele>
        <time>2020-11-29T17:17:29Z</time>
      </trkpt>
      <trkpt lat="47.24082" lon="-1.51109">
        <ele>10</ele>
        <time>2020-11-29T17:17:36Z</time>
      </trkpt>
      <trkpt lat="47.24078" lon="-1.51121">
        <ele>10</ele>
        <time>2020-11-29T17:17:38Z</time>
      </trkpt>
      <trkpt lat="47.24067" lon="-1.51149">
        <ele>13</ele>
        <time>2020-11-29T17:17:44Z</time>
      </trkpt>
      <trkpt lat="47.24055" lon="-1.51177">
        <ele>13</ele>
        <time>2020-11-29T17:17:50Z</time>
      </trkpt>
      <trkpt lat="47.2405" lon="-1.51193">
        <ele>13</ele>
        <time>2020-11-29T17:17:54Z</time>
      </trkpt>
      <trkpt lat="47.24049" lon="-1.51198">
        <ele>13</ele>
        <time>2020-11-29T17:17:54Z</time>
      </trkpt>
      <trkpt lat="47.2405" lon="-1.51199">
        <ele>13</ele>
        <time>2020-11-29T17:17:55Z</time>
      </trkpt>
      <trkpt lat="47.24052" lon="-1.51201">
        <ele>13</ele>
        <time>2020-11-29T17:17:55Z</time>
      </trkpt>
      <trkpt lat="47.24054" lon="-1.51202">
        <ele>13</ele>
        <time>2020-11-29T17:17:56Z</time>
      </trkpt>
      <trkpt lat="47.24055" lon="-1.51204">
        <ele>13</ele>
        <time>2020-11-29T17:17:56Z</time>
      </trkpt>
      <trkpt lat="47.24056" lon="-1.51206">
        <ele>13</ele>
        <time>2020-11-29T17:17:57Z</time>
      </trkpt>
      <trkpt lat="47.24058" lon="-1.51208">
        <ele>13</ele>
        <time>2020-11-29T17:17:58Z</time>
      </trkpt>
      <trkpt lat="47.24059" lon="-1.51211">
        <ele>13</ele>
        <time>2020-11-29T17:17:58Z</time>
      </trkpt>
      <trkpt lat="47.2406" lon="-1.51213">
        <ele>13</ele>
        <time>2020-11-29T17:17:59Z</time>
      </trkpt>
      <trkpt lat="47.24061" lon="-1.51216">
        <ele>13</ele>
        <time>2020-11-29T17:17:59Z</time>
      </trkpt>
      <trkpt lat="47.24062" lon="-1.5122">
        <ele>13</ele>
        <time>2020-11-29T17:18:00Z</time>
      </trkpt>
      <trkpt lat="47.24062" lon="-1.51223">
        <ele>13</ele>
        <time>2020-11-29T17:18:01Z</time>
      </trkpt>
      <trkpt lat="47.24063" lon="-1.51227">
        <ele>13</ele>
        <time>2020-11-29T17:18:01Z</time>
      </trkpt>
      <trkpt lat="47.24063" lon="-1.5123">
        <ele>13</ele>
        <time>2020-11-29T17:18:02Z</time>
      </trkpt>
      <trkpt lat="47.24062" lon="-1.51234">
        <ele>13</ele>
        <time>2020-11-29T17:18:03Z</time>
      </trkpt>
      <trkpt lat="47.24062" lon="-1.51237">
        <ele>13</ele>
        <time>2020-11-29T17:18:03Z</time>
      </trkpt>
      <trkpt lat="47.24061" lon="-1.51241">
        <ele>13</ele>
        <time>2020-11-29T17:18:04Z</time>
      </trkpt>
      <trkpt lat="47.2406" lon="-1.51245">
        <ele>13</ele>
        <time>2020-11-29T17:18:05Z</time>
      </trkpt>
      <trkpt lat="47.24059" lon="-1.51248">
        <ele>13</ele>
        <time>2020-11-29T17:18:05Z</time>
      </trkpt>
      <trkpt lat="47.24057" lon="-1.51251">
        <ele>13</ele>
        <time>2020-11-29T17:18:06Z</time>
      </trkpt>
      <trkpt lat="47.24056" lon="-1.51254">
        <ele>13</ele>
        <time>2020-11-29T17:18:07Z</time>
      </trkpt>
      <trkpt lat="47.24054" lon="-1.51257">
        <ele>13</ele>
        <time>2020-11-29T17:18:07Z</time>
      </trkpt>
      <trkpt lat="47.24052" lon="-1.51259">
        <ele>13</ele>
        <time>2020-11-29T17:18:08Z</time>
      </trkpt>
      <trkpt lat="47.24049" lon="-1.51261">
        <ele>13</ele>
        <time>2020-11-29T17:18:09Z</time>
      </trkpt>
      <trkpt lat="47.24047" lon="-1.51262">
        <ele>12</ele>
        <time>2020-11-29T17:18:10Z</time>
      </trkpt>
      <trkpt lat="47.24044" lon="-1.51263">
        <ele>12</ele>
        <time>2020-11-29T17:18:10Z</time>
      </trkpt>
      <trkpt lat="47.24042" lon="-1.51264">
        <ele>12</ele>
        <time>2020-11-29T17:18:11Z</time>
      </trkpt>
      <trkpt lat="47.24039" lon="-1.51264">
        <ele>12</ele>
        <time>2020-11-29T17:18:12Z</time>
      </trkpt>
      <trkpt lat="47.24036" lon="-1.51264">
        <ele>12</ele>
        <time>2020-11-29T17:18:13Z</time>
      </trkpt>
      <trkpt lat="47.24034" lon="-1.51263">
        <ele>12</ele>
        <time>2020-11-29T17:18:13Z</time>
      </trkpt>
      <trkpt lat="47.24031" lon="-1.51262">
        <ele>12</ele>
        <time>2020-11-29T17:18:14Z</time>
      </trkpt>
      <trkpt lat="47.24028" lon="-1.5126">
        <ele>12</ele>
        <time>2020-11-29T17:18:15Z</time>
      </trkpt>
      <trkpt lat="47.24026" lon="-1.51258">
        <ele>12</ele>
        <time>2020-11-29T17:18:15Z</time>
      </trkpt>
      <trkpt lat="47.24024" lon="-1.51255">
        <ele>12</ele>
        <time>2020-11-29T17:18:16Z</time>
      </trkpt>
      <trkpt lat="47.24017" lon="-1.51265">
        <ele>12</ele>
        <time>2020-11-29T17:18:19Z</time>
      </trkpt>
      <trkpt lat="47.23995" lon="-1.51289">
        <ele>12</ele>
        <time>2020-11-29T17:18:26Z</time>
      </trkpt>
      <trkpt lat="47.23993" lon="-1.51292">
        <ele>12</ele>
        <time>2020-11-29T17:18:27Z</time>
      </trkpt>
      <trkpt lat="47.23972" lon="-1.51315">
        <ele>12</ele>
        <time>2020-11-29T17:18:34Z</time>
      </trkpt>
      <trkpt lat="47.2396" lon="-1.51328">
        <ele>14</ele>
        <time>2020-11-29T17:18:38Z</time>
      </trkpt>
      <trkpt lat="47.23954" lon="-1.51335">
        <ele>14</ele>
        <time>2020-11-29T17:18:40Z</time>
      </trkpt>
      <trkpt lat="47.23919" lon="-1.51375">
        <ele>14</ele>
        <time>2020-11-29T17:18:52Z</time>
      </trkpt>
      <trkpt lat="47.23913" lon="-1.51381">
        <ele>14</ele>
        <time>2020-11-29T17:18:54Z</time>
      </trkpt>
      <trkpt lat="47.23881" lon="-1.51429">
        <ele>11</ele>
        <time>2020-11-29T17:19:06Z</time>
      </trkpt>
      <trkpt lat="47.23874" lon="-1.5144">
        <ele>11</ele>
        <time>2020-11-29T17:19:09Z</time>
      </trkpt>
      <trkpt lat="47.23868" lon="-1.51449">
        <ele>11</ele>
        <time>2020-11-29T17:19:11Z</time>
      </trkpt>
      <trkpt lat="47.23835" lon="-1.515">
        <ele>11</ele>
        <time>2020-11-29T17:19:24Z</time>
      </trkpt>
      <trkpt lat="47.23831" lon="-1.51506">
        <ele>11</ele>
        <time>2020-11-29T17:19:25Z</time>
      </trkpt>
      <trkpt lat="47.23825" lon="-1.51515">
        <ele>11</ele>
        <time>2020-11-29T17:19:27Z</time>
      </trkpt>
      <trkpt lat="47.23809" lon="-1.51543">
        <ele>12</ele>
        <time>2020-11-29T17:19:34Z</time>
      </trkpt>
      <trkpt lat="47.23791" lon="-1.51572">
        <ele>12</ele>
        <time>2020-11-29T17:19:41Z</time>
      </trkpt>
      <trkpt lat="47.23786" lon="-1.51583">
        <ele>12</ele>
        <time>2020-11-29T17:19:44Z</time>
      </trkpt>
      <trkpt lat="47.23785" lon="-1.51585">
        <ele>12</ele>
        <time>2020-11-29T17:19:44Z</time>
      </trkpt>
      <trkpt lat="47.23779" lon="-1.51596">
        <ele>12</ele>
        <time>2020-11-29T17:19:47Z</time>
      </trkpt>
      <trkpt lat="47.23774" lon="-1.51607">
        <ele>12</ele>
        <time>2020-11-29T17:19:49Z</time>
      </trkpt>
      <trkpt lat="47.23748" lon="-1.51662">
        <ele>15</ele>
        <time>2020-11-29T17:20:01Z</time>
      </trkpt>
      <trkpt lat="47.23737" lon="-1.51674">
        <ele>15</ele>
        <time>2020-11-29T17:20:05Z</time>
      </trkpt>
      <trkpt lat="47.23735" lon="-1.51677">
        <ele>15</ele>
        <time>2020-11-29T17:20:06Z</time>
      </trkpt>
      <trkpt lat="47.23727" lon="-1.51683">
        <ele>15</ele>
        <time>2020-11-29T17:20:08Z</time>
      </trkpt>
      <trkpt lat="47.23724" lon="-1.51701">
        <ele>15</ele>
        <time>2020-11-29T17:20:11Z</time>
      </trkpt>
      <trkpt lat="47.23721" lon="-1.51717">
        <ele>15</ele>
        <time>2020-11-29T17:20:14Z</time>
      </trkpt>
      <trkpt lat="47.23713" lon="-1.51726">
        <ele>15</ele>
        <time>2020-11-29T17:20:17Z</time>
      </trkpt>
      <trkpt lat="47.23711" lon="-1.51729">
        <ele>15</ele>
        <time>2020-11-29T17:20:18Z</time>
      </trkpt>
      <trkpt lat="47.237" lon="-1.51742">
        <ele>15</ele>
        <time>2020-11-29T17:20:22Z</time>
      </trkpt>
      <trkpt lat="47.23687" lon="-1.51761">
        <ele>15</ele>
        <time>2020-11-29T17:20:27Z</time>
      </trkpt>
      <trkpt lat="47.2363" lon="-1.5183">
        <ele>13</ele>
        <time>2020-11-29T17:20:46Z</time>
      </trkpt>
      <trkpt lat="47.23612" lon="-1.51851">
        <ele>13</ele>
        <time>2020-11-29T17:20:52Z</time>
      </trkpt>
      <trkpt lat="47.23599" lon="-1.51867">
        <ele>12</ele>
        <time>2020-11-29T17:20:57Z</time>
      </trkpt>
      <trkpt lat="47.2359" lon="-1.51883">
        <ele>12</ele>
        <time>2020-11-29T17:21:01Z</time>
      </trkpt>
      <trkpt lat="47.2358" lon="-1.519">
        <ele>12</ele>
        <time>2020-11-29T17:21:05Z</time>
      </trkpt>
      <trkpt lat="47.23577" lon="-1.51904">
        <ele>12</ele>
        <time>2020-11-29T17:21:06Z</time>
      </trkpt>
      <trkpt lat="47.23574" lon="-1.51907">
        <ele>12</ele>
        <time>2020-11-29T17:21:07Z</time>
      </trkpt>
      <trkpt lat="47.23574" lon="-1.51909">
        <ele>12</ele>
        <time>2020-11-29T17:21:07Z</time>
      </trkpt>
      <trkpt lat="47.23574" lon="-1.51909">
        <ele>12</ele>
        <time>2020-11-29T17:21:07Z</time>
      </trkpt>
      <trkpt lat="47.23573" lon="-1.51911">
        <ele>12</ele>
        <time>2020-11-29T17:21:08Z</time>
      </trkpt>
      <trkpt lat="47.23573" lon="-1.51912">
        <ele>12</ele>
        <time>2020-11-29T17:21:08Z</time>
      </trkpt>
      <trkpt lat="47.23572" lon="-1.51912">
        <ele>12</ele>
        <time>2020-11-29T17:21:08Z</time>
      </trkpt>
      <trkpt lat="47.23572" lon="-1.51913">
        <ele>12</ele>
        <time>2020-11-29T17:21:08Z</time>
      </trkpt>
      <trkpt lat="47.23571" lon="-1.51914">
        <ele>12</ele>
        <time>2020-11-29T17:21:09Z</time>
      </trkpt>
      <trkpt lat="47.23571" lon="-1.51914">
        <ele>12</ele>
        <time>2020-11-29T17:21:09Z</time>
      </trkpt>
      <trkpt lat="47.23571" lon="-1.51915">
        <ele>12</ele>
        <time>2020-11-29T17:21:09Z</time>
      </trkpt>
      <trkpt lat="47.23562" lon="-1.51933">
        <ele>12</ele>
        <time>2020-11-29T17:21:13Z</time>
      </trkpt>
      <trkpt lat="47.23562" lon="-1.51934">
        <ele>12</ele>
        <time>2020-11-29T17:21:13Z</time>
      </trkpt>
      <trkpt lat="47.23562" lon="-1.51935">
        <ele>12</ele>
        <time>2020-11-29T17:21:13Z</time>
      </trkpt>
      <trkpt lat="47.23562" lon="-1.51935">
        <ele>12</ele>
        <time>2020-11-29T17:21:13Z</time>
      </trkpt>
      <trkpt lat="47.23561" lon="-1.51936">
        <ele>12</ele>
        <time>2020-11-29T17:21:13Z</time>
      </trkpt>
      <trkpt lat="47.23561" lon="-1.51937">
        <ele>12</ele>
        <time>2020-11-29T17:21:14Z</time>
      </trkpt>
      <trkpt lat="47.23561" lon="-1.51937">
        <ele>12</ele>
        <time>2020-11-29T17:21:14Z</time>
      </trkpt>
      <trkpt lat="47.2356" lon="-1.51938">
        <ele>12</ele>
        <time>2020-11-29T17:21:14Z</time>
      </trkpt>
      <trkpt lat="47.2356" lon="-1.51939">
        <ele>12</ele>
        <time>2020-11-29T17:21:14Z</time>
      </trkpt>
      <trkpt lat="47.23559" lon="-1.51939">
        <ele>12</ele>
        <time>2020-11-29T17:21:14Z</time>
      </trkpt>
      <trkpt lat="47.23559" lon="-1.5194">
        <ele>12</ele>
        <time>2020-11-29T17:21:15Z</time>
      </trkpt>
      <trkpt lat="47.23558" lon="-1.5194">
        <ele>12</ele>
        <time>2020-11-29T17:21:15Z</time>
      </trkpt>
      <trkpt lat="47.23558" lon="-1.5194">
        <ele>12</ele>
        <time>2020-11-29T17:21:15Z</time>
      </trkpt>
      <trkpt lat="47.23557" lon="-1.5194">
        <ele>12</ele>
        <time>2020-11-29T17:21:15Z</time>
      </trkpt>
      <trkpt lat="47.23557" lon="-1.5194">
        <ele>12</ele>
        <time>2020-11-29T17:21:15Z</time>
      </trkpt>
      <trkpt lat="47.23556" lon="-1.5194">
        <ele>12</ele>
        <time>2020-11-29T17:21:15Z</time>
      </trkpt>
      <trkpt lat="47.23556" lon="-1.5194">
        <ele>12</ele>
        <time>2020-11-29T17:21:15Z</time>
      </trkpt>
      <trkpt lat="47.23555" lon="-1.5194">
        <ele>12</ele>
        <time>2020-11-29T17:21:16Z</time>
      </trkpt>
      <trkpt lat="47.23554" lon="-1.5194">
        <ele>12</ele>
        <time>2020-11-29T17:21:16Z</time>
      </trkpt>
      <trkpt lat="47.23554" lon="-1.5194">
        <ele>12</ele>
        <time>2020-11-29T17:21:16Z</time>
      </trkpt>
      <trkpt lat="47.23553" lon="-1.51939">
        <ele>12</ele>
        <time>2020-11-29T17:21:16Z</time>
      </trkpt>
      <trkpt lat="47.23553" lon="-1.51939">
        <ele>12</ele>
        <time>2020-11-29T17:21:16Z</time>
      </trkpt>
      <trkpt lat="47.23552" lon="-1.51939">
        <ele>12</ele>
        <time>2020-11-29T17:21:17Z</time>
      </trkpt>
      <trkpt lat="47.23552" lon="-1.51938">
        <ele>12</ele>
        <time>2020-11-29T17:21:17Z</time>
      </trkpt>
      <trkpt lat="47.23552" lon="-1.51937">
        <ele>12</ele>
        <time>2020-11-29T17:21:17Z</time>
      </trkpt>
      <trkpt lat="47.23551" lon="-1.51937">
        <ele>12</ele>
        <time>2020-11-29T17:21:17Z</time>
      </trkpt>
      <trkpt lat="47.23551" lon="-1.51936">
        <ele>12</ele>
        <time>2020-11-29T17:21:17Z</time>
      </trkpt>
      <trkpt lat="47.23551" lon="-1.51935">
        <ele>12</ele>
        <time>2020-11-29T17:21:18Z</time>
      </trkpt>
      <trkpt lat="47.2355" lon="-1.51935">
        <ele>12</ele>
        <time>2020-11-29T17:21:18Z</time>
      </trkpt>
      <trkpt lat="47.2355" lon="-1.51934">
        <ele>12</ele>
        <time>2020-11-29T17:21:18Z</time>
      </trkpt>
      <trkpt lat="47.2355" lon="-1.51933">
        <ele>12</ele>
        <time>2020-11-29T17:21:18Z</time>
      </trkpt>
      <trkpt lat="47.2355" lon="-1.51932">
        <ele>12</ele>
        <time>2020-11-29T17:21:18Z</time>
      </trkpt>
      <trkpt lat="47.23547" lon="-1.51933">
        <ele>12</ele>
        <time>2020-11-29T17:21:19Z</time>
      </trkpt>
      <trkpt lat="47.23546" lon="-1.51933">
        <ele>12</ele>
        <time>2020-11-29T17:21:19Z</time>
      </trkpt>
      <trkpt lat="47.23545" lon="-1.51934">
        <ele>12</ele>
        <time>2020-11-29T17:21:20Z</time>
      </trkpt>
      <trkpt lat="47.23542" lon="-1.51936">
        <ele>12</ele>
        <time>2020-11-29T17:21:21Z</time>
      </trkpt>
      <trkpt lat="47.23538" lon="-1.5194">
        <ele>12</ele>
        <time>2020-11-29T17:21:22Z</time>
      </trkpt>
      <trkpt lat="47.23525" lon="-1.51954">
        <ele>10</ele>
        <time>2020-11-29T17:21:26Z</time>
      </trkpt>
      <trkpt lat="47.23519" lon="-1.51961">
        <ele>10</ele>
        <time>2020-11-29T17:21:28Z</time>
      </trkpt>
      <trkpt lat="47.23499" lon="-1.51985">
        <ele>10</ele>
        <time>2020-11-29T17:21:35Z</time>
      </trkpt>
      <trkpt lat="47.23453" lon="-1.52035">
        <ele>10</ele>
        <time>2020-11-29T17:21:51Z</time>
      </trkpt>
      <trkpt lat="47.23447" lon="-1.52042">
        <ele>10</ele>
        <time>2020-11-29T17:21:53Z</time>
      </trkpt>
      <trkpt lat="47.23423" lon="-1.52066">
        <ele>10</ele>
        <time>2020-11-29T17:22:00Z</time>
      </trkpt>
      <trkpt lat="47.23414" lon="-1.52075">
        <ele>10</ele>
        <time>2020-11-29T17:22:03Z</time>
      </trkpt>
      <trkpt lat="47.23412" lon="-1.52077">
        <ele>10</ele>
        <time>2020-11-29T17:22:04Z</time>
      </trkpt>
      <trkpt lat="47.23388" lon="-1.52102">
        <ele>10</ele>
        <time>2020-11-29T17:22:12Z</time>
      </trkpt>
      <trkpt lat="47.23376" lon="-1.52114">
        <ele>10</ele>
        <time>2020-11-29T17:22:16Z</time>
      </trkpt>
      <trkpt lat="47.23367" lon="-1.52122">
        <ele>10</ele>
        <time>2020-11-29T17:22:18Z</time>
      </trkpt>
      <trkpt lat="47.23354" lon="-1.52134">
        <ele>10</ele>
        <time>2020-11-29T17:22:22Z</time>
      </trkpt>
      <trkpt lat="47.23329" lon="-1.52152">
        <ele>10</ele>
        <time>2020-11-29T17:22:30Z</time>
      </trkpt>
      <trkpt lat="47.23307" lon="-1.52166">
        <ele>10</ele>
        <time>2020-11-29T17:22:36Z</time>
      </trkpt>
      <trkpt lat="47.23303" lon="-1.52168">
        <ele>10</ele>
        <time>2020-11-29T17:22:37Z</time>
      </trkpt>
      <trkpt lat="47.23293" lon="-1.52174">
        <ele>10</ele>
        <time>2020-11-29T17:22:40Z</time>
      </trkpt>
      <trkpt lat="47.23276" lon="-1.52185">
        <ele>10</ele>
        <time>2020-11-29T17:22:45Z</time>
      </trkpt>
      <trkpt lat="47.23279" lon="-1.52202">
        <ele>11</ele>
        <time>2020-11-29T17:22:48Z</time>
      </trkpt>
      <trkpt lat="47.2328" lon="-1.52207">
        <ele>11</ele>
        <time>2020-11-29T17:22:49Z</time>
      </trkpt>
      <trkpt lat="47.2328" lon="-1.52216">
        <ele>11</ele>
        <time>2020-11-29T17:22:51Z</time>
      </trkpt>
      <trkpt lat="47.23281" lon="-1.52228">
        <ele>11</ele>
        <time>2020-11-29T17:22:53Z</time>
      </trkpt>
      <trkpt lat="47.23288" lon="-1.52288">
        <ele>11</ele>
        <time>2020-11-29T17:23:04Z</time>
      </trkpt>
      <trkpt lat="47.23289" lon="-1.52299">
        <ele>11</ele>
        <time>2020-11-29T17:23:06Z</time>
      </trkpt>
      <trkpt lat="47.23295" lon="-1.52363">
        <ele>12</ele>
        <time>2020-11-29T17:23:18Z</time>
      </trkpt>
      <trkpt lat="47.23296" lon="-1.52375">
        <ele>12</ele>
        <time>2020-11-29T17:23:20Z</time>
      </trkpt>
      <trkpt lat="47.23298" lon="-1.52422">
        <ele>12</ele>
        <time>2020-11-29T17:23:29Z</time>
      </trkpt>
      <trkpt lat="47.23298" lon="-1.52429">
        <ele>12</ele>
        <time>2020-11-29T17:23:30Z</time>
      </trkpt>
      <trkpt lat="47.233" lon="-1.5249">
        <ele>12</ele>
        <time>2020-11-29T17:23:41Z</time>
      </trkpt>
      <trkpt lat="47.23304" lon="-1.52595">
        <ele>18</ele>
        <time>2020-11-29T17:24:00Z</time>
      </trkpt>
      <trkpt lat="47.23304" lon="-1.526">
        <ele>18</ele>
        <time>2020-11-29T17:24:01Z</time>
      </trkpt>
      <trkpt lat="47.23306" lon="-1.52645">
        <ele>18</ele>
        <time>2020-11-29T17:24:09Z</time>
      </trkpt>
      <trkpt lat="47.23306" lon="-1.52654">
        <ele>22</ele>
        <time>2020-11-29T17:24:11Z</time>
      </trkpt>
      <trkpt lat="47.23308" lon="-1.5269">
        <ele>22</ele>
        <time>2020-11-29T17:24:17Z</time>
      </trkpt>
      <trkpt lat="47.23307" lon="-1.52701">
        <ele>22</ele>
        <time>2020-11-29T17:24:19Z</time>
      </trkpt>
      <trkpt lat="47.23307" lon="-1.52709">
        <ele>22</ele>
        <time>2020-11-29T17:24:21Z</time>
      </trkpt>
      <trkpt lat="47.23306" lon="-1.52714">
        <ele>22</ele>
        <time>2020-11-29T17:24:22Z</time>
      </trkpt>
      <trkpt lat="47.23305" lon="-1.52725">
        <ele>22</ele>
        <time>2020-11-29T17:24:24Z</time>
      </trkpt>
      <trkpt lat="47.23303" lon="-1.52734">
        <ele>22</ele>
        <time>2020-11-29T17:24:26Z</time>
      </trkpt>
      <trkpt lat="47.23296" lon="-1.52758">
        <ele>22</ele>
        <time>2020-11-29T17:24:30Z</time>
      </trkpt>
      <trkpt lat="47.23271" lon="-1.52855">
        <ele>22</ele>
        <time>2020-11-29T17:24:49Z</time>
      </trkpt>
      <trkpt lat="47.23267" lon="-1.52862">
        <ele>22</ele>
        <time>2020-11-29T17:24:51Z</time>
      </trkpt>
      <trkpt lat="47.23264" lon="-1.5287">
        <ele>22</ele>
        <time>2020-11-29T17:24:53Z</time>
      </trkpt>
      <trkpt lat="47.23261" lon="-1.52876">
        <ele>22</ele>
        <time>2020-11-29T17:24:54Z</time>
      </trkpt>
      <trkpt lat="47.23256" lon="-1.52886">
        <ele>22</ele>
        <time>2020-11-29T17:24:56Z</time>
      </trkpt>
      <trkpt lat="47.23248" lon="-1.52904">
        <ele>22</ele>
        <time>2020-11-29T17:25:00Z</time>
      </trkpt>
      <trkpt lat="47.23238" lon="-1.52923">
        <ele>22</ele>
        <time>2020-11-29T17:25:04Z</time>
      </trkpt>
      <trkpt lat="47.23225" lon="-1.52952">
        <ele>19</ele>
        <time>2020-11-29T17:25:11Z</time>
      </trkpt>
      <trkpt lat="47.23217" lon="-1.52972">
        <ele>19</ele>
        <time>2020-11-29T17:25:15Z</time>
      </trkpt>
      <trkpt lat="47.23213" lon="-1.52984">
        <ele>19</ele>
        <time>2020-11-29T17:25:17Z</time>
      </trkpt>
      <trkpt lat="47.2321" lon="-1.52993">
        <ele>19</ele>
        <time>2020-11-29T17:25:19Z</time>
      </trkpt>
      <trkpt lat="47.23181" lon="-1.53079">
        <ele>19</ele>
        <time>2020-11-29T17:25:37Z</time>
      </trkpt>
      <trkpt lat="47.23177" lon="-1.53091">
        <ele>19</ele>
        <time>2020-11-29T17:25:39Z</time>
      </trkpt>
      <trkpt lat="47.23173" lon="-1.53104">
        <ele>19</ele>
        <time>2020-11-29T17:25:42Z</time>
      </trkpt>
      <trkpt lat="47.2317" lon="-1.53111">
        <ele>19</ele>
        <time>2020-11-29T17:25:43Z</time>
      </trkpt>
      <trkpt lat="47.23161" lon="-1.53136">
        <ele>19</ele>
        <time>2020-11-29T17:25:48Z</time>
      </trkpt>
      <trkpt lat="47.2316" lon="-1.53141">
        <ele>19</ele>
        <time>2020-11-29T17:25:49Z</time>
      </trkpt>
      <trkpt lat="47.23156" lon="-1.53148">
        <ele>19</ele>
        <time>2020-11-29T17:25:51Z</time>
      </trkpt>
      <trkpt lat="47.23151" lon="-1.53158">
        <ele>19</ele>
        <time>2020-11-29T17:25:53Z</time>
      </trkpt>
      <trkpt lat="47.23147" lon="-1.53161">
        <ele>19</ele>
        <time>2020-11-29T17:25:54Z</time>
      </trkpt>
      <trkpt lat="47.23143" lon="-1.53164">
        <ele>19</ele>
        <time>2020-11-29T17:25:55Z</time>
      </trkpt>
      <trkpt lat="47.23136" lon="-1.53162">
        <ele>22</ele>
        <time>2020-11-29T17:25:57Z</time>
      </trkpt>
      <trkpt lat="47.23129" lon="-1.5315">
        <ele>22</ele>
        <time>2020-11-29T17:26:00Z</time>
      </trkpt>
      <trkpt lat="47.23092" lon="-1.53086">
        <ele>22</ele>
        <time>2020-11-29T17:26:15Z</time>
      </trkpt>
      <trkpt lat="47.23068" lon="-1.5305">
        <ele>22</ele>
        <time>2020-11-29T17:26:25Z</time>
      </trkpt>
    </trkseg>
  </trk>
</gpx>